
Distance (Route):
Temperature : 12.8°C
Humidity : 66.2%
Pressure : 0hPa| Receiver | Frames | First received | Last received |
|---|---|---|---|
| OM5KV | 817 | 2026-08-31 23:43:52 | 2026-09-01 01:16:54 |
| PETON7-10 | 365 | 2026-08-31 23:21:06 | 2026-09-01 01:15:31 |
| OE5MMP-10 | 265 | 2026-08-31 23:58:37 | 2026-09-01 00:59:22 |
| DO3MHA-11 | 207 | 2026-08-31 23:55:39 | 2026-09-01 00:58:51 |
| POL1PZ | 203 | 2026-08-31 23:25:04 | 2026-09-01 01:20:51 |
| OE5DRO-10 | 178 | 2026-08-31 23:36:41 | 2026-09-01 01:05:07 |
| HA6NAB-11 | 160 | 2026-08-31 23:46:35 | 2026-09-01 01:04:32 |
| OE3OSB-13 | 144 | 2026-08-31 23:24:29 | 2026-09-01 01:16:21 |
| PG1ADW-2 | 142 | 2026-08-31 23:45:30 | 2026-09-01 01:02:04 |
| OE5DXL-15 | 87 | 2026-08-31 23:41:45 | 2026-09-01 01:02:46 |
| S52SK | 64 | 2026-08-31 23:40:24 | 2026-09-01 01:06:22 |
| SP3WXH-11 | 60 | 2026-09-01 00:15:04 | 2026-09-01 01:04:44 |
| OE3JTB-15 | 59 | 2026-08-31 23:20:17 | 2026-09-01 01:18:03 |
| OK1SLM-15 | 34 | 2026-09-01 00:10:28 | 2026-09-01 00:53:14 |
| NBG1-10 | 25 | 2026-09-01 00:07:38 | 2026-09-01 00:55:29 |
| GYPAP8-17 | 20 | 2026-09-01 00:00:51 | 2026-09-01 01:02:45 |
| SP3BTT-10 | 20 | 2026-09-01 00:21:36 | 2026-09-01 01:00:36 |
| SP9KGR-15 | 18 | 2026-09-01 00:15:05 | 2026-09-01 00:30:57 |
| DB0DAN | 17 | 2026-09-01 00:12:40 | 2026-09-01 00:41:25 |
| EDDB2-11 | 7 | 2026-09-01 00:55:09 | 2026-09-01 00:59:17 |
| DB0UT-7 | 4 | 2026-09-01 00:42:25 | 2026-09-01 00:45:21 |
| POL1PZ12 | 4 | 2026-09-01 01:11:58 | 2026-09-01 01:13:02 |
| AM1SDL-15 | 2 | 2026-09-01 00:45:08 | 2026-09-01 00:45:38 |
| Receiver | Date | Latitude | Longitude | Direction | Speed | Altitude | Climb | Temperature | Humidity | Pressure | Voltage | Killtimer | Uptime | BKT | XDATA |
|---|---|---|---|---|---|---|---|---|---|---|---|---|---|---|---|
| POL1PZ | 2026-09-01 01:20:51 | 49.83892 | 18.43503 | 99° | 42km/h | 1390m | -9.5m/s | 12.8°C | 66.2% | 0hPa | 2.6V | 07:56:00 | 00:00:00 | 00:00:00 | |
| POL1PZ | 2026-09-01 01:20:30 | 49.83908 | 18.43162 | 91° | 40km/h | 1575m | -7.7m/s | 11.1°C | 73.0% | 0hPa | 2.6V | 07:56:00 | 00:00:00 | 00:00:00 | |
| POL1PZ | 2026-09-01 01:20:10 | 49.83899 | 18.42854 | 88° | 38km/h | 1757m | -8.7m/s | 10.1°C | 59.6% | 0hPa | 2.6V | 07:56:00 | 00:00:00 | 00:00:00 | |
| POL1PZ | 2026-09-01 01:19:42 | 49.83891 | 18.42452 | 94° | 35km/h | 2008m | -8.9m/s | 8.5°C | 56.1% | 0hPa | 2.6V | 07:56:00 | 00:00:00 | 00:00:00 | |
| POL1PZ | 2026-09-01 01:19:22 | 49.83906 | 18.42184 | 94° | 33km/h | 2186m | -9.3m/s | 7.3°C | 58.5% | 0hPa | 2.6V | 07:57:00 | 00:00:00 | 00:00:00 | |
| POL1PZ | 2026-09-01 01:19:01 | 49.83921 | 18.41881 | 96° | 38km/h | 2374m | -8.0m/s | 6.1°C | 54.5% | 0hPa | 2.6V | 07:57:00 | 00:00:00 | 00:00:00 | |
| POL1PZ | 2026-09-01 01:18:42 | 49.83931 | 18.41590 | 92° | 37km/h | 2549m | -8.6m/s | 4.4°C | 69.8% | 0hPa | 2.6V | 07:57:00 | 00:00:00 | 00:00:00 | |
| POL1PZ | 2026-09-01 01:18:21 | 49.83926 | 18.41282 | 88° | 42km/h | 2726m | -9.7m/s | 2.8°C | 77.5% | 0hPa | 2.6V | 07:58:00 | 00:00:00 | 00:00:00 | |
| OE3JTB-15 | 2026-09-01 01:18:03 | 49.83907 | 18.40969 | 81° | 42km/h | 2901m | -8.9m/s | 2.1°C | 63.9% | 0hPa | 2.6V | 00:00:00 | 00:00:00 | 00:00:00 | |
| POL1PZ | 2026-09-01 01:18:00 | 49.83903 | 18.40937 | 80° | 42km/h | 2920m | -9.2m/s | 2.4°C | 52.4% | 0hPa | 2.6V | 07:58:00 | 00:00:00 | 00:00:00 | |
| POL1PZ | 2026-09-01 01:17:39 | 49.83862 | 18.40612 | 82° | 44km/h | 3111m | -8.4m/s | 1.1°C | 42.1% | 0hPa | 2.6V | 07:59:00 | 00:00:00 | 00:00:00 | |
| OE3JTB-15 | 2026-09-01 01:17:20 | 49.83832 | 18.40278 | 84° | 44km/h | 3288m | -10.1m/s | -0.4°C | 43.2% | 0hPa | 2.6V | 07:59:00 | 02:30:02 | 00:00:00 | |
| POL1PZ | 2026-09-01 01:17:19 | 49.83832 | 18.40278 | 84° | 46km/h | 3288m | -10.1m/s | -0.5°C | 41.9% | 0hPa | 2.6V | 07:59:00 | 00:00:00 | 00:00:00 | |
| POL1PZ | 2026-09-01 01:16:58 | 49.83811 | 18.39916 | 86° | 42km/h | 3481m | -9.3m/s | -2.1°C | 43.5% | 0hPa | 2.6V | 07:59:00 | 00:00:00 | 00:00:00 | |
| OM5KV | 2026-09-01 01:16:54 | 49.83807 | 18.39851 | 87° | 42km/h | 3519m | -9.9m/s | -2.1°C | 40.3% | 0hPa | 2.6V | 00:00:00 | 00:00:00 | 00:00:00 | |
| OM5KV | 2026-09-01 01:16:53 | 49.83806 | 18.39834 | 87° | 42km/h | 3528m | -9.3m/s | -2.1°C | 40.3% | 0hPa | 2.6V | 07:59:00 | 00:00:00 | 00:00:00 | |
| OE3JTB-15 | 2026-09-01 01:16:51 | 49.83805 | 18.39784 | 88° | 58km/h | 3555m | -9.5m/s | -2.3°C | 41.6% | 0hPa | 2.6V | 00:00:00 | 00:00:00 | 00:00:00 | |
| OM5KV | 2026-09-01 01:16:44 | 49.83802 | 18.39677 | 90° | 46km/h | 3607m | -9.3m/s | -2.6°C | 40.6% | 0hPa | 2.6V | 08:00:00 | 00:00:00 | 00:00:00 | |
| POL1PZ | 2026-09-01 01:16:38 | 49.83805 | 18.39560 | 93° | 53km/h | 3660m | -8.6m/s | -3.1°C | 41.3% | 0hPa | 2.6V | 08:00:00 | 00:00:00 | 00:00:00 | |
| OE3OSB-13 | 2026-09-01 01:16:21 | 49.83820 | 18.39163 | 95° | 58km/h | 3830m | -9.4m/s | -4.3°C | 55.2% | -1.0hPa | 2.6V | 00:00:00 | 00:00:00 | 00:00:00 | |
| POL1PZ | 2026-09-01 01:16:17 | 49.83825 | 18.39095 | 96° | 60km/h | 3859m | -10.1m/s | -4.6°C | 55.2% | 0hPa | 2.6V | 08:00:00 | 00:00:00 | 00:00:00 | |
| OM5KV | 2026-09-01 01:16:08 | 49.83832 | 18.38883 | 92° | 60km/h | 3948m | -10.4m/s | -4.7°C | 50.6% | 0hPa | 2.6V | 08:00:00 | 00:00:00 | 00:00:00 | |
| OM5KV | 2026-09-01 01:16:07 | 49.83832 | 18.38859 | 93° | 60km/h | 3958m | -9.7m/s | -4.7°C | 49.4% | 0hPa | 2.6V | 00:00:00 | 00:00:00 | 00:00:00 | |
| OM5KV | 2026-09-01 01:16:03 | 49.83835 | 18.38761 | 93° | 64km/h | 3995m | -9.3m/s | -4.6°C | 31.7% | 0hPa | 2.6V | 08:00:00 | 00:00:00 | 00:00:00 | |
| OE3OSB-13 | 2026-09-01 01:15:50 | 49.83837 | 18.38422 | 86° | 60km/h | 4138m | -10.6m/s | -5.7°C | 32.1% | -1.0hPa | 2.6V | 00:00:00 | 00:00:00 | 00:00:00 | |
| OM5KV | 2026-09-01 01:15:49 | 49.83837 | 18.38421 | 87° | 60km/h | 4138m | -10.6m/s | -5.7°C | 32.1% | 0hPa | 2.6V | 08:01:00 | 00:00:00 | 00:00:00 | |
| OM5KV | 2026-09-01 01:15:46 | 49.83833 | 18.38349 | 86° | 62km/h | 4170m | -10.5m/s | -5.9°C | 34.6% | 0hPa | 2.6V | 08:01:00 | 00:00:00 | 00:00:00 | |
| OE3JTB-15 | 2026-09-01 01:15:42 | 49.83823 | 18.38230 | 79° | 66km/h | 4223m | -9.9m/s | -5.7°C | 39.2% | 0hPa | 2.6V | 00:00:00 | 00:00:00 | 00:00:00 | |
| OM5KV | 2026-09-01 01:15:40 | 49.83820 | 18.38206 | 80° | 60km/h | 4233m | -9.8m/s | -5.6°C | 33.3% | 0hPa | 2.6V | 08:01:00 | 00:00:00 | 00:00:00 | |
| POL1PZ | 2026-09-01 01:15:36 | 49.83807 | 18.38112 | 78° | 60km/h | 4275m | -10.8m/s | -6.0°C | 33.7% | 0hPa | 2.6V | 08:01:00 | 00:00:00 | 00:00:00 | |
| OM5KV | 2026-09-01 01:15:34 | 49.83801 | 18.38065 | 78° | 64km/h | 4297m | -10.5m/s | -5.9°C | 33.1% | 0hPa | 2.6V | 08:01:00 | 00:00:00 | 00:00:00 | |
| PETON7-10 | 2026-09-01 01:15:31 | 49.83786 | 18.37970 | 76° | 64km/h | 4337m | -9.9m/s | -6.2°C | 36.9% | 0hPa | 2.6V | 00:00:00 | 00:00:00 | 00:00:00 | |
| OM5KV | 2026-09-01 01:15:28 | 49.83778 | 18.37922 | 76° | 64km/h | 4357m | -10.4m/s | -6.4°C | 35.9% | 0hPa | 2.6V | 08:01:00 | 00:00:00 | 00:00:00 | |
| OM5KV | 2026-09-01 01:15:26 | 49.83770 | 18.37874 | 75° | 64km/h | 4378m | -10.8m/s | -6.6°C | 34.1% | 0hPa | 2.6V | 08:01:00 | 00:00:00 | 00:00:00 | |
| OM5KV | 2026-09-01 01:15:22 | 49.83752 | 18.37779 | 73° | 62km/h | 4422m | -11.1m/s | -6.7°C | 31.8% | 0hPa | 2.6V | 08:01:00 | 00:00:00 | 00:00:00 | |
| OM5KV | 2026-09-01 01:15:16 | 49.83717 | 18.37613 | 72° | 64km/h | 4494m | -10.9m/s | -6.9°C | 31.1% | 0hPa | 2.6V | 08:01:00 | 00:00:00 | 00:00:00 | |
| OM5KV | 2026-09-01 01:15:10 | 49.83691 | 18.37495 | 73° | 64km/h | 4548m | -10.9m/s | -7.4°C | 35.0% | 0hPa | 2.6V | 08:02:00 | 00:00:00 | 00:00:00 | |
| OM5KV | 2026-09-01 01:15:04 | 49.83660 | 18.37354 | 73° | 62km/h | 4613m | -10.4m/s | -8.0°C | 38.6% | 0hPa | 2.6V | 08:02:00 | 00:00:00 | 00:00:00 | |
| OE3OSB-13 | 2026-09-01 01:14:48 | 49.83571 | 18.36909 | 73° | 60km/h | 4816m | -11.7m/s | -9.8°C | 35.8% | -1.0hPa | 2.6V | 00:00:00 | 00:00:00 | 00:00:00 | |
| OM5KV | 2026-09-01 01:14:47 | 49.83578 | 18.36956 | 77° | 64km/h | 4794m | -11.1m/s | -9.6°C | 35.7% | 0hPa | 2.6V | 08:02:00 | 00:00:00 | 00:00:00 | |
| OM5KV | 2026-09-01 01:14:46 | 49.83575 | 18.36932 | 76° | 62km/h | 4805m | -11.3m/s | -9.7°C | 35.8% | 0hPa | 2.6V | 08:02:00 | 00:00:00 | 00:00:00 | |
| PETON7-10 | 2026-09-01 01:14:43 | 49.83558 | 18.36837 | 75° | 66km/h | 4849m | -11.0m/s | -10.0°C | 38.6% | 0hPa | 2.6V | 00:00:00 | 00:00:00 | 00:00:00 | |
| OM5KV | 2026-09-01 01:14:36 | 49.83533 | 18.36690 | 76° | 66km/h | 4913m | -10.8m/s | -10.7°C | 37.7% | 0hPa | 2.6V | 08:02:00 | 00:00:00 | 00:00:00 | |
| OM5KV | 2026-09-01 01:14:34 | 49.83524 | 18.36640 | 75° | 66km/h | 4935m | -11.6m/s | -10.8°C | 36.7% | 0hPa | 2.6V | 08:02:00 | 00:00:00 | 00:00:00 | |
| POL1PZ | 2026-09-01 01:14:33 | 49.83520 | 18.36615 | 78° | 66km/h | 4946m | -10.8m/s | -11.0°C | 37.3% | 0hPa | 2.6V | 08:02:00 | 00:00:00 | 00:00:00 | |
| OM5KV | 2026-09-01 01:14:28 | 49.83499 | 18.36488 | 76° | 66km/h | 4998m | -11.2m/s | -11.3°C | 31.7% | 0hPa | 2.6V | 08:02:00 | 00:00:00 | 00:00:00 | |
| OM5KV | 2026-09-01 01:14:23 | 49.83476 | 18.36362 | 74° | 68km/h | 5054m | -11.8m/s | -11.8°C | 30.8% | 0hPa | 2.6V | 08:02:00 | 00:00:00 | 00:00:00 | |
| OE3JTB-15 | 2026-09-01 01:14:20 | 49.83456 | 18.36260 | 74° | 71km/h | 5098m | -10.6m/s | -12.2°C | 32.2% | 0hPa | 2.6V | 00:00:00 | 02:27:02 | 00:00:00 | |
| OM5KV | 2026-09-01 01:14:19 | 49.83456 | 18.36260 | 74° | 69km/h | 5098m | -10.7m/s | -12.2°C | 30.5% | 0hPa | 2.6V | 08:02:00 | 00:00:00 | 00:00:00 | |
| OM5KV | 2026-09-01 01:14:14 | 49.83430 | 18.36133 | 73° | 69km/h | 5153m | -11.1m/s | -12.7°C | 31.2% | 0hPa | 2.6V | 08:02:00 | 00:00:00 | 00:00:00 | |
| POL1PZ | 2026-09-01 01:14:13 | 49.83424 | 18.36107 | 73° | 71km/h | 5163m | -10.1m/s | -12.8°C | 31.3% | 0hPa | 2.6V | 08:02:00 | 00:00:00 | 00:00:00 | |
| PETON7-10 | 2026-09-01 01:14:12 | 49.83413 | 18.36056 | 71° | 73km/h | 5184m | -11.2m/s | -12.9°C | 33.2% | 0hPa | 2.6V | 00:00:00 | 02:26:54 | 00:00:00 | |
| OM5KV | 2026-09-01 01:14:08 | 49.83395 | 18.35978 | 71° | 71km/h | 5217m | -10.7m/s | -13.3°C | 31.8% | 0hPa | 2.6V | 08:02:00 | 00:00:00 | 00:00:00 | |
| PETON7-10 | 2026-09-01 01:13:57 | 49.83311 | 18.35664 | 67° | 69km/h | 5345m | -10.2m/s | -14.1°C | 33.8% | 0hPa | 2.6V | 08:02:00 | 00:00:00 | 00:00:00 | |
| OM5KV | 2026-09-01 01:13:56 | 49.83311 | 18.35664 | 67° | 73km/h | 5345m | -10.3m/s | -14.2°C | 31.9% | 0hPa | 2.6V | 08:02:00 | 00:00:00 | 00:00:00 | |
| OM5KV | 2026-09-01 01:13:53 | 49.83288 | 18.35587 | 66° | 73km/h | 5376m | -10.7m/s | -14.4°C | 29.3% | 0hPa | 2.6V | 08:02:00 | 00:00:00 | 00:00:00 | |
| POL1PZ | 2026-09-01 01:13:52 | 49.83281 | 18.35561 | 66° | 73km/h | 5387m | -10.7m/s | -14.3°C | 24.0% | 0hPa | 2.6V | 08:02:00 | 00:00:00 | 00:00:00 | |
| OE3JTB-15 | 2026-09-01 01:13:51 | 49.83266 | 18.35511 | 65° | 68km/h | 5409m | -11.1m/s | -14.1°C | 18.6% | 0hPa | 2.6V | 00:00:00 | 00:00:00 | 00:00:00 | |
| OM5KV | 2026-09-01 01:13:47 | 49.83243 | 18.35437 | 66° | 69km/h | 5441m | -10.4m/s | -14.2°C | 17.3% | 0hPa | 2.6V | 08:02:00 | 00:00:00 | 00:00:00 | |
| OM5KV | 2026-09-01 01:13:45 | 49.83229 | 18.35390 | 64° | 66km/h | 5463m | -11.1m/s | -14.4°C | 18.2% | 0hPa | 2.6V | 08:02:00 | 00:00:00 | 00:00:00 | |
| PETON7-10 | 2026-09-01 01:13:42 | 49.83199 | 18.35296 | 64° | 68km/h | 5506m | -11.2m/s | -14.6°C | 33.0% | 0hPa | 2.6V | 00:00:00 | 00:00:00 | 00:00:00 | |
| OM5KV | 2026-09-01 01:13:40 | 49.83192 | 18.35272 | 67° | 66km/h | 5517m | -10.1m/s | -14.7°C | 32.8% | 0hPa | 2.6V | 08:02:00 | 00:00:00 | 00:00:00 | |
| OM5KV | 2026-09-01 01:13:35 | 49.83157 | 18.35154 | 66° | 66km/h | 5570m | -11.6m/s | -15.1°C | 40.4% | 0hPa | 2.6V | 08:02:00 | 00:00:00 | 00:00:00 | |
| OM5KV | 2026-09-01 01:13:34 | 49.83150 | 18.35130 | 67° | 68km/h | 5581m | -11.4m/s | -15.2°C | 40.6% | 0hPa | 2.6V | 08:02:00 | 00:00:00 | 00:00:00 | |
| POL1PZ | 2026-09-01 01:13:31 | 49.83130 | 18.35058 | 67° | 69km/h | 5614m | -10.3m/s | -15.5°C | 40.1% | 0hPa | 2.6V | 08:02:00 | 00:00:00 | 00:00:00 | |
| OM5KV | 2026-09-01 01:13:29 | 49.83116 | 18.35008 | 69° | 69km/h | 5636m | -10.9m/s | -15.7°C | 38.3% | 0hPa | 2.6V | 08:02:00 | 00:00:00 | 00:00:00 | |
| OM5KV | 2026-09-01 01:13:28 | 49.83109 | 18.34984 | 67° | 68km/h | 5647m | -11.5m/s | -15.8°C | 36.7% | 0hPa | 2.6V | 08:03:00 | 00:00:00 | 00:00:00 | |
| PETON7-10 | 2026-09-01 01:13:27 | 49.83095 | 18.34935 | 67° | 71km/h | 5669m | -10.3m/s | -15.9°C | 34.9% | 0hPa | 2.6V | 00:00:00 | 02:26:09 | 00:00:00 | |
| OM5KV | 2026-09-01 01:13:23 | 49.83074 | 18.34862 | 67° | 69km/h | 5703m | -11.2m/s | -16.2°C | 34.2% | 0hPa | 2.6V | 08:03:00 | 00:00:00 | 00:00:00 | |
| OE3JTB-15 | 2026-09-01 01:13:22 | 49.83060 | 18.34813 | 67° | 75km/h | 5725m | -11.2m/s | -16.4°C | 40.8% | 0hPa | 2.6V | 00:00:00 | 00:00:00 | 00:00:00 | |
| OM5KV | 2026-09-01 01:13:17 | 49.83030 | 18.34712 | 66° | 71km/h | 5769m | -11.0m/s | -16.8°C | 40.0% | 0hPa | 2.6V | 08:03:00 | 00:00:00 | 00:00:00 | |
| PETON7-10 | 2026-09-01 01:13:12 | 49.82983 | 18.34560 | 64° | 78km/h | 5832m | -10.2m/s | -17.2°C | 38.4% | 0hPa | 2.6V | 00:00:00 | 00:00:00 | 00:00:00 | |
| POL1PZ | 2026-09-01 01:13:11 | 49.82983 | 18.34560 | 64° | 75km/h | 5832m | -10.2m/s | -17.2°C | 36.1% | 0hPa | 2.6V | 08:03:00 | 00:00:00 | 00:00:00 | |
| OM5KV | 2026-09-01 01:13:06 | 49.82940 | 18.34427 | 64° | 77km/h | 5883m | -10.8m/s | -17.2°C | 21.1% | 0hPa | 2.6V | 08:03:00 | 00:00:00 | 00:00:00 | |
| POL1PZ12 | 2026-09-01 01:13:02 | 49.82903 | 18.34318 | 62° | 78km/h | 5927m | -11.4m/s | 0°C | 0% | 0hPa | 2.6V | 00:00:00 | 00:00:00 | 00:00:00 | |
| OM5KV | 2026-09-01 01:13:01 | 49.82894 | 18.34291 | 63° | 80km/h | 5938m | -11.0m/s | -17.4°C | 11.7% | 0hPa | 2.6V | 08:03:00 | 00:00:00 | 00:00:00 | |
| OM5KV | 2026-09-01 01:13:00 | 49.82884 | 18.34263 | 63° | 80km/h | 5949m | -11.2m/s | -17.3°C | 9.9% | 0hPa | 2.6V | 08:03:00 | 00:00:00 | 00:00:00 | |
| PETON7-10 | 2026-09-01 01:12:57 | 49.82847 | 18.34154 | 63° | 82km/h | 5992m | -10.4m/s | -17.6°C | 10.1% | 0hPa | 2.6V | 00:00:00 | 00:00:00 | 00:00:00 | |
| OE3JTB-15 | 2026-09-01 01:12:53 | 49.82809 | 18.34045 | 62° | 102km/h | 6036m | -11.3m/s | -17.9°C | 11.4% | 0hPa | 2.6V | 00:00:00 | 02:25:35 | 00:00:00 | |
| POL1PZ | 2026-09-01 01:12:50 | 49.82790 | 18.33991 | 63° | 78km/h | 6059m | -11.5m/s | -18.2°C | 11.0% | 0hPa | 2.6V | 08:03:00 | 00:00:00 | 00:00:00 | |
| OM5KV | 2026-09-01 01:12:49 | 49.82781 | 18.33964 | 64° | 78km/h | 6070m | -11.1m/s | -18.3°C | 11.1% | 0hPa | 2.6V | 08:03:00 | 00:00:00 | 00:00:00 | |
| OE3OSB-13 | 2026-09-01 01:12:43 | 49.82720 | 18.33769 | 64° | 78km/h | 6146m | -11.0m/s | -18.9°C | 13.4% | -1.0hPa | 2.6V | 00:00:00 | 00:00:00 | 00:00:00 | |
| POL1PZ12 | 2026-09-01 01:12:39 | 49.82693 | 18.33683 | 64° | 80km/h | 6179m | -11.6m/s | 0°C | 0% | 0hPa | 2.6V | 00:00:00 | 00:00:00 | 00:00:00 | |
| OM5KV | 2026-09-01 01:12:37 | 49.82675 | 18.33627 | 65° | 82km/h | 6201m | -10.7m/s | -19.4°C | 15.4% | 0hPa | 2.6V | 08:04:00 | 00:00:00 | 00:00:00 | |
| PETON7-10 | 2026-09-01 01:12:31 | 49.82611 | 18.33427 | 63° | 84km/h | 6277m | -11.4m/s | -20.1°C | 16.0% | 0hPa | 2.6V | 00:00:00 | 02:25:13 | 00:00:00 | |
| POL1PZ | 2026-09-01 01:12:29 | 49.82601 | 18.33399 | 65° | 82km/h | 6288m | -10.7m/s | -20.2°C | 13.4% | 0hPa | 2.6V | 08:04:00 | 00:00:00 | 00:00:00 | |
| OM5KV | 2026-09-01 01:12:26 | 49.82573 | 18.33313 | 63° | 82km/h | 6320m | -12.1m/s | -20.4°C | 10.9% | 0hPa | 2.6V | 08:04:00 | 00:00:00 | 00:00:00 | |
| OM5KV | 2026-09-01 01:12:25 | 49.82564 | 18.33284 | 65° | 82km/h | 6332m | -11.5m/s | -20.5°C | 10.4% | 0hPa | 2.6V | 08:04:00 | 00:00:00 | 00:00:00 | |
| OM5KV | 2026-09-01 01:12:20 | 49.82518 | 18.33137 | 66° | 86km/h | 6387m | -10.6m/s | -21.0°C | 10.8% | 0hPa | 2.6V | 08:04:00 | 00:00:00 | 00:00:00 | |
| POL1PZ12 | 2026-09-01 01:12:19 | 49.82509 | 18.33107 | 66° | 86km/h | 6397m | -11.0m/s | 0°C | 0% | 0hPa | 2.6V | 00:00:00 | 00:00:00 | 00:00:00 | |
| PETON7-10 | 2026-09-01 01:12:16 | 49.82473 | 18.32986 | 66° | 88km/h | 6442m | -10.8m/s | -21.5°C | 11.7% | 0hPa | 2.6V | 00:00:00 | 00:00:00 | 00:00:00 | |
| OM5KV | 2026-09-01 01:12:14 | 49.82464 | 18.32955 | 65° | 86km/h | 6454m | -12.5m/s | -21.7°C | 10.0% | 0hPa | 2.5V | 08:04:00 | 00:00:00 | 00:00:00 | |
| OM5KV | 2026-09-01 01:12:13 | 49.82455 | 18.32925 | 66° | 84km/h | 6466m | -11.5m/s | -21.7°C | 9.7% | 0hPa | 2.5V | 08:04:00 | 00:00:00 | 00:00:00 | |
| OE3OSB-13 | 2026-09-01 01:12:12 | 49.82438 | 18.32864 | 65° | 86km/h | 6488m | -10.9m/s | -21.9°C | 9.4% | -1.0hPa | 2.5V | 00:00:00 | 00:00:00 | 00:00:00 | |
| OM5KV | 2026-09-01 01:12:09 | 49.82419 | 18.32801 | 66° | 88km/h | 6510m | -11.1m/s | -22.1°C | 9.1% | 0hPa | 2.5V | 08:04:00 | 00:00:00 | 00:00:00 | |
| OM5KV | 2026-09-01 01:12:07 | 49.82401 | 18.32739 | 66° | 89km/h | 6531m | -10.7m/s | -22.3°C | 8.0% | 0hPa | 2.5V | 08:04:00 | 00:00:00 | 00:00:00 | |
| OM5KV | 2026-09-01 01:12:03 | 49.82361 | 18.32613 | 65° | 91km/h | 6577m | -11.3m/s | -22.6°C | 6.3% | 0hPa | 2.5V | 08:04:00 | 00:00:00 | 00:00:00 | |
| PETON7-10 | 2026-09-01 01:12:01 | 49.82330 | 18.32518 | 63° | 95km/h | 6613m | -11.7m/s | -22.8°C | 6.9% | 0hPa | 2.5V | 00:00:00 | 00:00:00 | 00:00:00 | |
| OM5KV | 2026-09-01 01:12:00 | 49.82330 | 18.32518 | 64° | 91km/h | 6613m | -11.8m/s | -22.9°C | 6.1% | 0hPa | 2.5V | 08:04:00 | 00:00:00 | 00:00:00 | |
| POL1PZ12 | 2026-09-01 01:11:58 | 49.82309 | 18.32453 | 64° | 93km/h | 6635m | -10.3m/s | 0°C | 0% | 0hPa | 2.5V | 00:00:00 | 00:00:00 | 00:00:00 | |
| OM5KV | 2026-09-01 01:11:52 | 49.82242 | 18.32259 | 62° | 95km/h | 6700m | -10.9m/s | -23.6°C | 6.1% | 0hPa | 2.5V | 08:04:00 | 00:00:00 | 00:00:00 | |
| OM5KV | 2026-09-01 01:11:49 | 49.82206 | 18.32162 | 61° | 99km/h | 6733m | -10.8m/s | -23.7°C | 5.9% | 0hPa | 2.5V | 08:04:00 | 00:00:00 | 00:00:00 | |
| POL1PZ | 2026-09-01 01:11:48 | 49.82194 | 18.32129 | 60° | 97km/h | 6743m | -10.9m/s | -23.8°C | 5.8% | 0hPa | 2.5V | 08:04:00 | 00:00:00 | 00:00:00 | |
| PETON7-10 | 2026-09-01 01:11:46 | 49.82156 | 18.32029 | 59° | 102km/h | 6777m | -11.3m/s | -23.9°C | 6.5% | 0hPa | 2.5V | 00:00:00 | 02:24:28 | 00:00:00 | |
| OM5KV | 2026-09-01 01:11:44 | 49.82142 | 18.31995 | 59° | 102km/h | 6787m | -10.3m/s | -24.0°C | 5.6% | 0hPa | 2.5V | 08:05:00 | 00:00:00 | 00:00:00 | |
| OE3OSB-13 | 2026-09-01 01:11:41 | 49.82087 | 18.31861 | 56° | 102km/h | 6831m | -11.0m/s | -24.2°C | 5.4% | -1.0hPa | 2.5V | 00:00:00 | 00:00:00 | 00:00:00 | |
| OM5KV | 2026-09-01 01:11:40 | 49.82087 | 18.31861 | 58° | 104km/h | 6831m | -11.0m/s | -24.2°C | 5.4% | 0hPa | 2.5V | 08:05:00 | 00:00:00 | 00:00:00 | |
| OM5KV | 2026-09-01 01:11:38 | 49.82059 | 18.31794 | 57° | 102km/h | 6853m | -11.1m/s | -24.3°C | 5.4% | 0hPa | 2.5V | 08:05:00 | 00:00:00 | 00:00:00 | |
| OM5KV | 2026-09-01 01:11:34 | 49.81999 | 18.31661 | 56° | 104km/h | 6898m | -10.9m/s | -24.7°C | 5.3% | 0hPa | 2.5V | 08:05:00 | 00:00:00 | 00:00:00 | |
| OM5KV | 2026-09-01 01:11:32 | 49.81968 | 18.31594 | 55° | 106km/h | 6919m | -11.0m/s | -24.8°C | 5.2% | 0hPa | 2.5V | 08:05:00 | 00:00:00 | 00:00:00 | |
| PETON7-10 | 2026-09-01 01:11:31 | 49.81936 | 18.31527 | 54° | 108km/h | 6941m | -11.2m/s | -24.9°C | 6.0% | 0hPa | 2.5V | 08:04:00 | 00:00:00 | 00:00:00 | |
| OM5KV | 2026-09-01 01:11:28 | 49.81905 | 18.31461 | 53° | 106km/h | 6962m | -10.7m/s | -25.2°C | 5.2% | 0hPa | 2.6V | 08:05:00 | 00:00:00 | 00:00:00 | |
| OM5KV | 2026-09-01 01:11:27 | 49.81888 | 18.31429 | 54° | 106km/h | 6973m | -11.6m/s | -25.2°C | 5.2% | 0hPa | 2.6V | 08:05:00 | 00:00:00 | 00:00:00 | |
| OM5KV | 2026-09-01 01:11:23 | 49.81821 | 18.31296 | 53° | 110km/h | 7019m | -11.8m/s | -25.6°C | 5.0% | 0hPa | 2.6V | 08:05:00 | 00:00:00 | 00:00:00 | |
| OM5KV | 2026-09-01 01:11:22 | 49.81804 | 18.31262 | 52° | 110km/h | 7030m | -11.3m/s | -25.7°C | 5.0% | 0hPa | 2.6V | 08:05:00 | 00:00:00 | 00:00:00 | |
| OM5KV | 2026-09-01 01:11:18 | 49.81735 | 18.31127 | 53° | 111km/h | 7077m | -11.4m/s | -26.0°C | 4.8% | 0hPa | 2.6V | 08:05:00 | 00:00:00 | 00:00:00 | |
| PETON7-10 | 2026-09-01 01:11:16 | 49.81684 | 18.31026 | 53° | 108km/h | 7110m | -10.8m/s | -26.2°C | 5.7% | 0hPa | 2.6V | 00:00:00 | 00:00:00 | 00:00:00 | |
| OE3JTB-15 | 2026-09-01 01:11:13 | 49.81633 | 18.30924 | 53° | 108km/h | 7143m | -11.2m/s | -26.3°C | 5.8% | 0hPa | 2.6V | 08:05:00 | 00:00:00 | 00:00:00 | |
| OE3OSB-13 | 2026-09-01 01:11:10 | 49.81583 | 18.30823 | 52° | 108km/h | 7176m | -11.4m/s | -26.6°C | 5.2% | -1.0hPa | 2.5V | 00:00:00 | 00:00:00 | 00:00:00 | |
| POL1PZ | 2026-09-01 01:11:06 | 49.81533 | 18.30723 | 52° | 108km/h | 7211m | -12.1m/s | -26.9°C | 5.7% | 0hPa | 2.5V | 08:05:00 | 00:00:00 | 00:00:00 | |
| OM5KV | 2026-09-01 01:11:04 | 49.81500 | 18.30658 | 53° | 104km/h | 7234m | -11.7m/s | -27.1°C | 6.1% | 0hPa | 2.5V | 08:05:00 | 00:00:00 | 00:00:00 | |
| PETON7-10 | 2026-09-01 01:11:01 | 49.81435 | 18.30527 | 54° | 104km/h | 7280m | -10.5m/s | -27.4°C | 8.5% | 0hPa | 2.5V | 00:00:00 | 02:23:43 | 00:00:00 | |
| OM5KV | 2026-09-01 01:11:00 | 49.81435 | 18.30527 | 54° | 106km/h | 7280m | -10.5m/s | -27.5°C | 7.4% | 0hPa | 2.5V | 08:05:00 | 00:00:00 | 00:00:00 | |
| OM5KV | 2026-09-01 01:10:59 | 49.81419 | 18.30494 | 53° | 104km/h | 7291m | -12.3m/s | -27.5°C | 7.8% | 0hPa | 2.5V | 08:05:00 | 00:00:00 | 00:00:00 | |
| OM5KV | 2026-09-01 01:10:54 | 49.81341 | 18.30331 | 55° | 104km/h | 7346m | -12.0m/s | -28.1°C | 8.7% | 0hPa | 2.5V | 08:06:00 | 00:00:00 | 00:00:00 | |
| OM5KV | 2026-09-01 01:10:53 | 49.81325 | 18.30298 | 55° | 106km/h | 7358m | -11.3m/s | -28.2°C | 9.0% | 0hPa | 2.5V | 08:06:00 | 00:00:00 | 00:00:00 | |
| OM5KV | 2026-09-01 01:10:49 | 49.81263 | 18.30165 | 54° | 106km/h | 7401m | -11.8m/s | -28.6°C | 10.5% | 0hPa | 2.5V | 08:06:00 | 00:00:00 | 00:00:00 | |
| OM5KV | 2026-09-01 01:10:47 | 49.81232 | 18.30099 | 56° | 102km/h | 7424m | -10.7m/s | -28.8°C | 10.5% | 0hPa | 2.5V | 08:06:00 | 00:00:00 | 00:00:00 | |
| PETON7-10 | 2026-09-01 01:10:46 | 49.81202 | 18.30033 | 56° | 104km/h | 7445m | -11.1m/s | -29.0°C | 12.7% | 0hPa | 2.5V | 00:00:00 | 00:00:00 | 00:00:00 | |
| POL1PZ | 2026-09-01 01:10:45 | 49.81202 | 18.30033 | 57° | 102km/h | 7445m | -11.2m/s | -29.0°C | 11.1% | 0hPa | 2.5V | 08:06:00 | 00:00:00 | 00:00:00 | |
| OM5KV | 2026-09-01 01:10:43 | 49.81173 | 18.29967 | 56° | 102km/h | 7467m | -10.2m/s | -29.2°C | 11.7% | 0hPa | 2.5V | 08:06:00 | 00:00:00 | 00:00:00 | |
| OM5KV | 2026-09-01 01:10:42 | 49.81158 | 18.29934 | 57° | 104km/h | 7478m | -11.5m/s | -29.3°C | 12.2% | 0hPa | 2.5V | 08:06:00 | 00:00:00 | 00:00:00 | |
| OE3OSB-13 | 2026-09-01 01:10:39 | 49.81099 | 18.29799 | 56° | 102km/h | 7520m | -10.1m/s | -29.7°C | 14.6% | -1.0hPa | 2.5V | 00:00:00 | 00:00:00 | 00:00:00 | |
| OM5KV | 2026-09-01 01:10:38 | 49.81099 | 18.29799 | 57° | 104km/h | 7521m | -10.1m/s | -29.7°C | 14.7% | 0hPa | 2.5V | 08:06:00 | 00:00:00 | 00:00:00 | |
| OM5KV | 2026-09-01 01:10:36 | 49.81070 | 18.29731 | 58° | 106km/h | 7542m | -10.8m/s | -29.9°C | 15.9% | 0hPa | 2.5V | 08:06:00 | 00:00:00 | 00:00:00 | |
| OM5KV | 2026-09-01 01:10:32 | 49.81012 | 18.29593 | 58° | 106km/h | 7585m | -10.9m/s | -30.2°C | 25.2% | 0hPa | 2.5V | 08:06:00 | 00:00:00 | 00:00:00 | |
| PETON7-10 | 2026-09-01 01:10:31 | 49.80982 | 18.29523 | 57° | 106km/h | 7607m | -11.6m/s | -30.3°C | 29.9% | 0hPa | 2.5V | 00:00:00 | 00:00:00 | 00:00:00 | |
| OM5KV | 2026-09-01 01:10:30 | 49.80982 | 18.29523 | 57° | 106km/h | 7607m | -11.7m/s | -30.3°C | 26.9% | 0hPa | 2.5V | 08:06:00 | 00:00:00 | 00:00:00 | |
| OM5KV | 2026-09-01 01:10:27 | 49.80938 | 18.29419 | 57° | 106km/h | 7639m | -11.0m/s | -30.6°C | 30.9% | 0hPa | 2.5V | 08:06:00 | 00:00:00 | 00:00:00 | |
| POL1PZ | 2026-09-01 01:10:25 | 49.80907 | 18.29350 | 57° | 108km/h | 7661m | -11.9m/s | -30.8°C | 32.3% | 0hPa | 2.5V | 08:06:00 | 00:00:00 | 00:00:00 | |
| OE3JTB-15 | 2026-09-01 01:10:23 | 49.80861 | 18.29248 | 55° | 130km/h | 7696m | -11.1m/s | -31.0°C | 40.9% | 0hPa | 2.5V | 00:00:00 | 00:00:00 | 00:00:00 | |
| OM5KV | 2026-09-01 01:10:21 | 49.80845 | 18.29214 | 56° | 108km/h | 7706m | -10.6m/s | -31.1°C | 37.8% | 0hPa | 2.5V | 08:06:00 | 00:00:00 | 00:00:00 | |
| OM5KV | 2026-09-01 01:10:19 | 49.80814 | 18.29145 | 56° | 108km/h | 7727m | -10.2m/s | -31.3°C | 37.9% | 0hPa | 2.5V | 08:06:00 | 00:00:00 | 00:00:00 | |
| OM5KV | 2026-09-01 01:10:16 | 49.80752 | 18.29007 | 56° | 108km/h | 7771m | -11.2m/s | -31.7°C | 37.7% | 0hPa | 2.5V | 08:06:00 | 00:00:00 | 00:00:00 | |
| OM5KV | 2026-09-01 01:10:13 | 49.80721 | 18.28939 | 56° | 106km/h | 7793m | -11.6m/s | -31.8°C | 38.7% | 0hPa | 2.5V | 08:06:00 | 00:00:00 | 00:00:00 | |
| OM5KV | 2026-09-01 01:10:09 | 49.80658 | 18.28802 | 56° | 108km/h | 7838m | -11.4m/s | -32.2°C | 37.6% | 0hPa | 2.5V | 08:06:00 | 00:00:00 | 00:00:00 | |
| OE3OSB-13 | 2026-09-01 01:10:08 | 49.80627 | 18.28734 | 55° | 106km/h | 7861m | -11.8m/s | -32.3°C | 39.5% | -1.0hPa | 2.5V | 00:00:00 | 00:00:00 | 00:00:00 | |
| POL1PZ | 2026-09-01 01:10:04 | 49.80582 | 18.28631 | 58° | 106km/h | 7896m | -11.1m/s | -32.6°C | 40.1% | 0hPa | 2.5V | 08:07:00 | 00:00:00 | 00:00:00 | |
| OM5KV | 2026-09-01 01:10:03 | 49.80567 | 18.28596 | 58° | 106km/h | 7907m | -11.5m/s | -32.7°C | 39.5% | 0hPa | 2.5V | 08:07:00 | 00:00:00 | 00:00:00 | |
| OM5KV | 2026-09-01 01:10:02 | 49.80553 | 18.28562 | 58° | 106km/h | 7918m | -10.8m/s | -32.8°C | 39.2% | 0hPa | 2.5V | 08:07:00 | 00:00:00 | 00:00:00 | |
| PETON7-10 | 2026-09-01 01:10:01 | 49.80524 | 18.28492 | 58° | 106km/h | 7941m | -11.2m/s | -33.0°C | 42.9% | 0hPa | 2.5V | 00:00:00 | 00:00:00 | 00:00:00 | |
| OM5KV | 2026-09-01 01:09:56 | 49.80466 | 18.28354 | 58° | 106km/h | 7984m | -11.1m/s | -33.4°C | 42.5% | 0hPa | 2.5V | 08:07:00 | 00:00:00 | 00:00:00 | |
| OM5KV | 2026-09-01 01:09:52 | 49.80408 | 18.28215 | 58° | 106km/h | 8030m | -11.0m/s | -33.8°C | 44.3% | 0hPa | 2.5V | 08:07:00 | 00:00:00 | 00:00:00 | |
| OM5KV | 2026-09-01 01:09:50 | 49.80379 | 18.28145 | 58° | 106km/h | 8051m | -10.7m/s | -34.0°C | 45.8% | 0hPa | 2.5V | 08:07:00 | 00:00:00 | 00:00:00 | |
| PETON7-10 | 2026-09-01 01:09:46 | 49.80306 | 18.27971 | 57° | 111km/h | 8107m | -11.4m/s | -34.5°C | 53.7% | 0hPa | 2.5V | 00:00:00 | 00:00:00 | 00:00:00 | |
| OM5KV | 2026-09-01 01:09:45 | 49.80305 | 18.27971 | 57° | 106km/h | 8107m | -11.5m/s | -34.6°C | 48.4% | 0hPa | 2.5V | 08:07:00 | 00:00:00 | 00:00:00 | |
| POL1PZ | 2026-09-01 01:09:44 | 49.80290 | 18.27936 | 58° | 108km/h | 8119m | -11.9m/s | -34.7°C | 48.6% | 0hPa | 2.5V | 08:07:00 | 00:00:00 | 00:00:00 | |
| OM5KV | 2026-09-01 01:09:43 | 49.80276 | 18.27901 | 58° | 108km/h | 8130m | -11.0m/s | -34.8°C | 48.8% | 0hPa | 2.5V | 08:07:00 | 00:00:00 | 00:00:00 | |
| OE3OSB-13 | 2026-09-01 01:09:37 | 49.80170 | 18.27650 | 56° | 111km/h | 8208m | -10.6m/s | -35.4°C | 47.8% | -1.0hPa | 2.5V | 00:00:00 | 00:00:00 | 00:00:00 | |
| OM5KV | 2026-09-01 01:09:36 | 49.80170 | 18.27650 | 58° | 111km/h | 8208m | -10.6m/s | -35.4°C | 48.0% | 0hPa | 2.5V | 08:07:00 | 00:00:00 | 00:00:00 | |
| OM5KV | 2026-09-01 01:09:34 | 49.80139 | 18.27575 | 58° | 115km/h | 8229m | -11.2m/s | -35.5°C | 45.3% | 0hPa | 2.5V | 08:07:00 | 00:00:00 | 00:00:00 | |
| OM5KV | 2026-09-01 01:09:25 | 49.79996 | 18.27226 | 60° | 120km/h | 8322m | -10.7m/s | -35.9°C | 25.1% | 0hPa | 2.5V | 08:07:00 | 00:00:00 | 00:00:00 | |
| POL1PZ | 2026-09-01 01:09:24 | 49.79980 | 18.27185 | 61° | 120km/h | 8333m | -10.6m/s | -35.7°C | 22.3% | 0hPa | 2.5V | 08:07:00 | 00:00:00 | 00:00:00 | |
| OM5KV | 2026-09-01 01:09:23 | 49.79965 | 18.27145 | 60° | 122km/h | 8344m | -11.2m/s | -35.8°C | 22.1% | 0hPa | 2.5V | 08:07:00 | 00:00:00 | 00:00:00 | |
| OM5KV | 2026-09-01 01:09:19 | 49.79904 | 18.26979 | 62° | 122km/h | 8388m | -10.9m/s | -36.2°C | 19.7% | 0hPa | 2.5V | 08:07:00 | 00:00:00 | 00:00:00 | |
| OM5KV | 2026-09-01 01:09:17 | 49.79873 | 18.26895 | 62° | 124km/h | 8410m | -10.8m/s | -36.4°C | 18.4% | 0hPa | 2.5V | 08:07:00 | 00:00:00 | 00:00:00 | |
| PETON7-10 | 2026-09-01 01:09:16 | 49.79844 | 18.26811 | 62° | 124km/h | 8432m | -11.7m/s | -36.5°C | 20.4% | 0hPa | 2.5V | 08:07:00 | 00:00:00 | 00:00:00 | |
| OM5KV | 2026-09-01 01:09:11 | 49.79785 | 18.26641 | 63° | 122km/h | 8477m | -11.1m/s | -36.6°C | 27.4% | 0hPa | 2.6V | 08:07:00 | 00:00:00 | 00:00:00 | |
| OM5KV | 2026-09-01 01:09:08 | 49.79742 | 18.26513 | 64° | 124km/h | 8512m | -12.0m/s | -37.0°C | 30.3% | 0hPa | 2.6V | 08:07:00 | 00:00:00 | 00:00:00 | |
| OE3OSB-13 | 2026-09-01 01:09:06 | 49.79685 | 18.26339 | 64° | 126km/h | 8556m | -10.6m/s | -37.4°C | 34.1% | -1.0hPa | 2.6V | 00:00:00 | 00:00:00 | 00:00:00 | |
| POL1PZ | 2026-09-01 01:09:04 | 49.79685 | 18.26339 | 65° | 126km/h | 8556m | -10.6m/s | -37.4°C | 34.3% | 0hPa | 2.6V | 08:07:00 | 00:00:00 | 00:00:00 | |
| OM5KV | 2026-09-01 01:09:02 | 49.79657 | 18.26249 | 66° | 128km/h | 8577m | -9.7m/s | -37.5°C | 33.6% | 0hPa | 2.6V | 08:07:00 | 00:00:00 | 00:00:00 | |
| OM5KV | 2026-09-01 01:09:01 | 49.79630 | 18.26158 | 67° | 130km/h | 8598m | -10.9m/s | -37.5°C | 29.6% | 0hPa | 2.6V | 08:07:00 | 00:00:00 | 00:00:00 | |
| OM5KV | 2026-09-01 01:08:56 | 49.79577 | 18.25972 | 68° | 131km/h | 8642m | -11.5m/s | -37.6°C | 23.9% | 0hPa | 2.6V | 08:07:00 | 00:00:00 | 00:00:00 | |
| OM5KV | 2026-09-01 01:08:55 | 49.79564 | 18.25925 | 68° | 131km/h | 8653m | -10.9m/s | -37.6°C | 23.6% | 0hPa | 2.6V | 08:07:00 | 00:00:00 | 00:00:00 | |
| OM5KV | 2026-09-01 01:08:51 | 49.79512 | 18.25735 | 68° | 131km/h | 8697m | -11.7m/s | -38.0°C | 24.1% | 0hPa | 2.6V | 08:07:00 | 00:00:00 | 00:00:00 | |
| PETON7-10 | 2026-09-01 01:08:46 | 49.79435 | 18.25448 | 68° | 133km/h | 8766m | -11.4m/s | -38.5°C | 22.3% | 0hPa | 2.6V | 00:00:00 | 02:21:28 | 00:00:00 | |
| OM5KV | 2026-09-01 01:08:44 | 49.79421 | 18.25400 | 69° | 133km/h | 8777m | -11.0m/s | -38.6°C | 17.3% | 0hPa | 2.6V | 08:07:00 | 00:00:00 | 00:00:00 | |
| POL1PZ | 2026-09-01 01:08:43 | 49.79409 | 18.25351 | 69° | 133km/h | 8789m | -11.6m/s | -38.6°C | 15.6% | 0hPa | 2.6V | 08:07:00 | 00:00:00 | 00:00:00 | |
| OM5KV | 2026-09-01 01:08:39 | 49.79358 | 18.25160 | 69° | 133km/h | 8832m | -10.8m/s | -38.8°C | 13.1% | 0hPa | 2.6V | 08:07:00 | 00:00:00 | 00:00:00 | |
| OM5KV | 2026-09-01 01:08:38 | 49.79345 | 18.25112 | 68° | 133km/h | 8843m | -11.5m/s | -38.9°C | 12.4% | 0hPa | 2.6V | 08:07:00 | 00:00:00 | 00:00:00 | |
| OM5KV | 2026-09-01 01:08:33 | 49.79279 | 18.24871 | 68° | 133km/h | 8900m | -11.4m/s | -39.0°C | 9.7% | 0hPa | 2.6V | 08:07:00 | 00:00:00 | 00:00:00 | |
| PETON7-10 | 2026-09-01 01:08:31 | 49.79240 | 18.24725 | 69° | 135km/h | 8933m | -10.7m/s | -39.2°C | 12.3% | 0hPa | 2.6V | 00:00:00 | 00:00:00 | 00:00:00 | |
| OM5KV | 2026-09-01 01:08:28 | 49.79215 | 18.24627 | 69° | 135km/h | 8956m | -11.7m/s | -39.4°C | 10.3% | 0hPa | 2.5V | 08:07:00 | 00:00:00 | 00:00:00 | |
| OM5KV | 2026-09-01 01:08:27 | 49.79203 | 18.24578 | 70° | 135km/h | 8968m | -12.1m/s | -39.5°C | 10.5% | 0hPa | 2.5V | 08:07:00 | 00:00:00 | 00:00:00 | |
| POL1PZ | 2026-09-01 01:08:23 | 49.79155 | 18.24379 | 71° | 135km/h | 9013m | -12.8m/s | -39.9°C | 11.0% | 0hPa | 2.5V | 08:07:00 | 00:00:00 | 00:00:00 | |
| OM5KV | 2026-09-01 01:08:22 | 49.79143 | 18.24330 | 70° | 135km/h | 9026m | -12.5m/s | -39.9°C | 11.1% | 0hPa | 2.5V | 08:08:00 | 00:00:00 | 00:00:00 | |
| OM5KV | 2026-09-01 01:08:17 | 49.79074 | 18.24028 | 72° | 137km/h | 9098m | -12.3m/s | -40.4°C | 12.1% | 0hPa | 2.5V | 08:08:00 | 00:00:00 | 00:00:00 | |
| PETON7-10 | 2026-09-01 01:08:16 | 49.79063 | 18.23978 | 71° | 139km/h | 9110m | -11.2m/s | -40.4°C | 14.9% | 0hPa | 2.5V | 00:00:00 | 00:00:00 | 00:00:00 | |
| OM5KV | 2026-09-01 01:08:11 | 49.79018 | 18.23775 | 72° | 139km/h | 9158m | -12.5m/s | -40.7°C | 12.8% | 0hPa | 2.5V | 08:08:00 | 00:00:00 | 00:00:00 | |
| OM5KV | 2026-09-01 01:08:10 | 49.79006 | 18.23724 | 72° | 137km/h | 9171m | -13.2m/s | -40.8°C | 12.8% | 0hPa | 2.5V | 08:08:00 | 00:00:00 | 00:00:00 | |
| OM5KV | 2026-09-01 01:08:06 | 49.78962 | 18.23519 | 72° | 139km/h | 9220m | -12.6m/s | -41.2°C | 12.9% | 0hPa | 2.5V | 08:08:00 | 00:00:00 | 00:00:00 | |
| OM5KV | 2026-09-01 01:08:05 | 49.78951 | 18.23468 | 72° | 139km/h | 9232m | -12.5m/s | -41.3°C | 12.8% | 0hPa | 2.5V | 08:08:00 | 00:00:00 | 00:00:00 | |
| POL1PZ | 2026-09-01 01:08:02 | 49.78917 | 18.23315 | 72° | 139km/h | 9269m | -11.6m/s | -41.5°C | 12.9% | 0hPa | 2.5V | 08:08:00 | 00:00:00 | 00:00:00 | |
| PETON7-10 | 2026-09-01 01:08:01 | 49.78893 | 18.23213 | 71° | 137km/h | 9291m | -11.6m/s | -41.7°C | 15.9% | 0hPa | 2.5V | 00:00:00 | 02:20:43 | 00:00:00 | |
| OM5KV | 2026-09-01 01:08:00 | 49.78893 | 18.23213 | 72° | 137km/h | 9291m | -11.7m/s | -41.7°C | 13.1% | 0hPa | 2.5V | 08:08:00 | 00:00:00 | 00:00:00 | |
| OM5KV | 2026-09-01 01:07:59 | 49.78882 | 18.23162 | 72° | 139km/h | 9302m | -11.4m/s | -41.8°C | 13.1% | 0hPa | 2.5V | 08:08:00 | 00:00:00 | 00:00:00 | |
| OM5KV | 2026-09-01 01:07:54 | 49.78822 | 18.22910 | 70° | 137km/h | 9357m | -10.7m/s | -42.2°C | 13.4% | 0hPa | 2.5V | 08:08:00 | 00:00:00 | 00:00:00 | |
| OM5KV | 2026-09-01 01:07:53 | 49.78810 | 18.22860 | 70° | 137km/h | 9368m | -11.1m/s | -42.3°C | 13.5% | 0hPa | 2.5V | 08:08:00 | 00:00:00 | 00:00:00 | |
| PETON7-10 | 2026-09-01 01:07:46 | 49.78706 | 18.22460 | 67° | 139km/h | 9458m | -11.3m/s | -42.9°C | 17.5% | 0hPa | 2.5V | 00:00:00 | 00:00:00 | 00:00:00 | |
| OM5KV | 2026-09-01 01:07:42 | 49.78664 | 18.22311 | 67° | 137km/h | 9493m | -12.8m/s | -43.3°C | 14.6% | 0hPa | 2.6V | 08:08:00 | 00:00:00 | 00:00:00 | |
| POL1PZ | 2026-09-01 01:07:41 | 49.78651 | 18.22262 | 68° | 137km/h | 9505m | -12.1m/s | -43.4°C | 14.8% | 0hPa | 2.6V | 08:08:00 | 00:00:00 | 00:00:00 | |
| OM5KV | 2026-09-01 01:07:40 | 49.78637 | 18.22212 | 68° | 139km/h | 9518m | -12.0m/s | -43.5°C | 14.9% | 0hPa | 2.6V | 08:08:00 | 00:00:00 | 00:00:00 | |
| OM5KV | 2026-09-01 01:07:36 | 49.78567 | 18.21964 | 67° | 139km/h | 9579m | -13.1m/s | -44.1°C | 15.8% | 0hPa | 2.6V | 08:08:00 | 00:00:00 | 00:00:00 | |
| OE3OSB-13 | 2026-09-01 01:07:33 | 49.78511 | 18.21767 | 66° | 139km/h | 9628m | -12.5m/s | -44.6°C | 16.4% | -1.0hPa | 2.6V | 00:00:00 | 00:00:00 | 00:00:00 | |
| PETON7-10 | 2026-09-01 01:07:31 | 49.78497 | 18.21717 | 67° | 139km/h | 9640m | -12.0m/s | -44.6°C | 20.3% | 0hPa | 2.6V | 00:00:00 | 00:00:00 | 00:00:00 | |
| OM5KV | 2026-09-01 01:07:30 | 49.78497 | 18.21717 | 67° | 139km/h | 9640m | -12.1m/s | -44.7°C | 16.6% | 0hPa | 2.6V | 08:09:00 | 00:00:00 | 00:00:00 | |
| OM5KV | 2026-09-01 01:07:29 | 49.78483 | 18.21667 | 67° | 137km/h | 9652m | -12.7m/s | -44.8°C | 16.7% | 0hPa | 2.6V | 08:09:00 | 00:00:00 | 00:00:00 | |
| OM5KV | 2026-09-01 01:07:24 | 49.78412 | 18.21420 | 68° | 139km/h | 9716m | -12.3m/s | -45.4°C | 17.5% | 0hPa | 2.6V | 08:09:00 | 00:00:00 | 00:00:00 | |
| OM5KV | 2026-09-01 01:07:23 | 49.78399 | 18.21370 | 68° | 139km/h | 9728m | -12.7m/s | -45.5°C | 17.7% | 0hPa | 2.6V | 08:09:00 | 00:00:00 | 00:00:00 | |
| POL1PZ | 2026-09-01 01:07:20 | 49.78358 | 18.21220 | 68° | 139km/h | 9764m | -11.9m/s | -45.9°C | 18.2% | 0hPa | 2.6V | 08:09:00 | 00:00:00 | 00:00:00 | |
| OM5KV | 2026-09-01 01:07:18 | 49.78329 | 18.21120 | 67° | 141km/h | 9788m | -12.6m/s | -46.1°C | 18.6% | 0hPa | 2.6V | 08:09:00 | 00:00:00 | 00:00:00 | |
| PETON7-10 | 2026-09-01 01:07:16 | 49.78288 | 18.20968 | 68° | 141km/h | 9824m | -12.3m/s | -46.4°C | 23.1% | 0hPa | 2.6V | 00:00:00 | 02:19:58 | 00:00:00 | |
| OM5KV | 2026-09-01 01:07:12 | 49.78247 | 18.20815 | 69° | 141km/h | 9861m | -12.4m/s | -46.8°C | 19.1% | 0hPa | 2.6V | 08:09:00 | 00:00:00 | 00:00:00 | |
| OM5KV | 2026-09-01 01:07:10 | 49.78220 | 18.20712 | 69° | 141km/h | 9884m | -11.7m/s | -47.0°C | 19.2% | 0hPa | 2.6V | 08:09:00 | 00:00:00 | 00:00:00 | |
| OM5KV | 2026-09-01 01:07:06 | 49.78167 | 18.20507 | 70° | 141km/h | 9932m | -12.4m/s | -47.3°C | 19.0% | 0hPa | 2.6V | 08:09:00 | 00:00:00 | 00:00:00 | |
| OM5KV | 2026-09-01 01:07:05 | 49.78154 | 18.20456 | 70° | 141km/h | 9943m | -11.7m/s | -47.4°C | 18.9% | 0hPa | 2.6V | 08:09:00 | 00:00:00 | 00:00:00 | |
| POL1PZ | 2026-09-01 01:07:01 | 49.78091 | 18.20201 | 70° | 139km/h | 9999m | -10.8m/s | -47.6°C | 18.0% | 0hPa | 2.6V | 08:09:00 | 00:00:00 | 00:00:00 | |
| OM5KV | 2026-09-01 01:07:00 | 49.78091 | 18.20201 | 70° | 139km/h | 9999m | -10.8m/s | -47.6°C | 18.0% | 0hPa | 2.6V | 08:09:00 | 00:00:00 | 00:00:00 | |
| OE3JTB-15 | 2026-09-01 01:06:59 | 49.78066 | 18.20100 | 69° | 146km/h | 10021m | -11.5m/s | -47.6°C | 21.8% | 0hPa | 2.6V | 00:00:00 | 02:19:41 | 00:00:00 | |
| OM5KV | 2026-09-01 01:06:54 | 49.78016 | 18.19897 | 70° | 139km/h | 10066m | -11.1m/s | -47.5°C | 16.7% | 0hPa | 2.6V | 08:09:00 | 00:00:00 | 00:00:00 | |
| OM5KV | 2026-09-01 01:06:48 | 49.77943 | 18.19592 | 70° | 141km/h | 10135m | -11.8m/s | -47.8°C | 16.8% | 0hPa | 2.6V | 08:09:00 | 00:00:00 | 00:00:00 | |
| PETON7-10 | 2026-09-01 01:06:46 | 49.77906 | 18.19437 | 70° | 144km/h | 10169m | -11.3m/s | -48.0°C | 21.2% | 0hPa | 2.6V | 00:00:00 | 00:00:00 | 00:00:00 | |
| OM5KV | 2026-09-01 01:06:43 | 49.77881 | 18.19334 | 70° | 142km/h | 10193m | -11.4m/s | -48.3°C | 17.2% | 0hPa | 2.6V | 08:09:00 | 00:00:00 | 00:00:00 | |
| POL1PZ | 2026-09-01 01:06:40 | 49.77830 | 18.19123 | 70° | 144km/h | 10237m | -10.4m/s | -48.6°C | 17.6% | 0hPa | 2.6V | 08:10:00 | 00:00:00 | 00:00:00 | |
| OM5KV | 2026-09-01 01:06:38 | 49.77805 | 18.19018 | 71° | 144km/h | 10259m | -10.9m/s | -48.7°C | 17.9% | 0hPa | 2.6V | 08:10:00 | 00:00:00 | 00:00:00 | |
| OM5KV | 2026-09-01 01:06:36 | 49.77792 | 18.18964 | 71° | 146km/h | 10270m | -11.4m/s | -48.7°C | 18.0% | 0hPa | 2.6V | 08:10:00 | 00:00:00 | 00:00:00 | |
| PETON7-10 | 2026-09-01 01:06:31 | 49.77718 | 18.18642 | 71° | 146km/h | 10339m | -11.8m/s | -49.0°C | 23.1% | 0hPa | 2.6V | 00:00:00 | 02:19:13 | 00:00:00 | |
| OM5KV | 2026-09-01 01:06:26 | 49.77657 | 18.18373 | 72° | 146km/h | 10399m | -11.9m/s | -49.4°C | 19.2% | 0hPa | 2.6V | 08:10:00 | 00:00:00 | 00:00:00 | |
| OM5KV | 2026-09-01 01:06:24 | 49.77645 | 18.18320 | 71° | 146km/h | 10410m | -12.3m/s | -49.5°C | 19.3% | 0hPa | 2.6V | 08:10:00 | 00:00:00 | 00:00:00 | |
| S52SK | 2026-09-01 01:06:22 | 49.77620 | 18.18212 | 72° | 146km/h | 10435m | -12.6m/s | -49.6°C | 19.6% | 0hPa | 2.6V | 00:00:00 | 00:00:00 | 00:00:00 | |
| OM5KV | 2026-09-01 01:06:20 | 49.77595 | 18.18104 | 71° | 148km/h | 10460m | -12.4m/s | -49.8°C | 20.1% | 0hPa | 2.6V | 08:10:00 | 00:00:00 | 00:00:00 | |
| OM5KV | 2026-09-01 01:06:18 | 49.77570 | 18.17995 | 72° | 148km/h | 10483m | -11.7m/s | -49.9°C | 20.3% | 0hPa | 2.6V | 08:10:00 | 00:00:00 | 00:00:00 | |
| PETON7-10 | 2026-09-01 01:06:16 | 49.77533 | 18.17832 | 71° | 150km/h | 10520m | -12.2m/s | -50.0°C | 25.3% | 0hPa | 2.6V | 00:00:00 | 00:00:00 | 00:00:00 | |
| OM5KV | 2026-09-01 01:06:12 | 49.77494 | 18.17666 | 71° | 151km/h | 10558m | -12.4m/s | -50.3°C | 20.5% | 0hPa | 2.6V | 08:10:00 | 00:00:00 | 00:00:00 | |
| S52SK | 2026-09-01 01:06:10 | 49.77468 | 18.17556 | 71° | 151km/h | 10584m | -12.8m/s | -50.5°C | 20.5% | 0hPa | 2.6V | 00:00:00 | 00:00:00 | 00:00:00 | |
| OE3JTB-15 | 2026-09-01 01:06:04 | 49.77378 | 18.17170 | 70° | 150km/h | 10669m | -12.0m/s | -51.2°C | 26.6% | 0hPa | 2.6V | 00:00:00 | 00:00:00 | 00:00:00 | |
| PETON7-10 | 2026-09-01 01:06:01 | 49.77339 | 18.17009 | 69° | 146km/h | 10705m | -13.1m/s | -51.3°C | 26.5% | 0hPa | 2.5V | 00:00:00 | 00:00:00 | 00:00:00 | |
| OM5KV | 2026-09-01 01:05:59 | 49.77312 | 18.16904 | 69° | 144km/h | 10731m | -12.7m/s | -51.4°C | 21.3% | 0hPa | 2.5V | 08:10:00 | 00:00:00 | 00:00:00 | |
| POL1PZ | 2026-09-01 01:05:58 | 49.77312 | 18.16904 | 69° | 144km/h | 10731m | -12.7m/s | -51.4°C | 21.3% | 0hPa | 2.5V | 08:10:00 | 00:00:00 | 00:00:00 | |
| OM5KV | 2026-09-01 01:05:56 | 49.77284 | 18.16800 | 68° | 144km/h | 10755m | -11.6m/s | -51.5°C | 21.5% | 0hPa | 2.5V | 08:10:00 | 00:00:00 | 00:00:00 | |
| OM5KV | 2026-09-01 01:05:52 | 49.77225 | 18.16592 | 67° | 146km/h | 10802m | -11.5m/s | -51.7°C | 21.4% | 0hPa | 2.5V | 08:10:00 | 00:00:00 | 00:00:00 | |
| OM5KV | 2026-09-01 01:05:47 | 49.77146 | 18.16330 | 65° | 150km/h | 10863m | -11.9m/s | -52.0°C | 20.8% | 0hPa | 2.5V | 08:11:00 | 00:00:00 | 00:00:00 | |
| PETON7-10 | 2026-09-01 01:05:46 | 49.77114 | 18.16223 | 65° | 153km/h | 10887m | -12.9m/s | -52.2°C | 26.0% | 0hPa | 2.5V | 00:00:00 | 02:18:28 | 00:00:00 | |
| OM5KV | 2026-09-01 01:05:45 | 49.77114 | 18.16223 | 66° | 151km/h | 10887m | -12.9m/s | -52.2°C | 20.6% | 0hPa | 2.5V | 08:11:00 | 00:00:00 | 00:00:00 | |
| OM5KV | 2026-09-01 01:05:42 | 49.77049 | 18.16006 | 67° | 153km/h | 10937m | -11.8m/s | -52.4°C | 20.2% | 0hPa | 2.5V | 08:11:00 | 00:00:00 | 00:00:00 | |
| POL1PZ | 2026-09-01 01:05:38 | 49.77001 | 18.15841 | 68° | 153km/h | 10973m | -12.4m/s | -52.3°C | 19.7% | 0hPa | 2.5V | 08:11:00 | 00:00:00 | 00:00:00 | |
| OM5KV | 2026-09-01 01:05:36 | 49.76971 | 18.15730 | 68° | 153km/h | 10998m | -13.2m/s | -52.3°C | 19.4% | 0hPa | 2.5V | 08:11:00 | 00:00:00 | 00:00:00 | |
| OE3JTB-15 | 2026-09-01 01:05:34 | 49.76912 | 18.15506 | 69° | 164km/h | 11049m | -12.4m/s | -52.3°C | 24.2% | 0hPa | 2.5V | 00:00:00 | 00:00:00 | 00:00:00 | |
| PETON7-10 | 2026-09-01 01:05:31 | 49.76884 | 18.15393 | 69° | 159km/h | 11074m | -12.7m/s | -52.5°C | 23.9% | 0hPa | 2.5V | 00:00:00 | 00:00:00 | 00:00:00 | |
| OM5KV | 2026-09-01 01:05:30 | 49.76884 | 18.15393 | 70° | 157km/h | 11074m | -12.8m/s | -52.5°C | 18.7% | 0hPa | 2.5V | 08:11:00 | 00:00:00 | 00:00:00 | |
| OE3OSB-13 | 2026-09-01 01:05:28 | 49.76841 | 18.15222 | 69° | 157km/h | 11114m | -13.3m/s | -52.9°C | 18.5% | -1.0hPa | 2.5V | 00:00:00 | 00:00:00 | 00:00:00 | |
| OM5KV | 2026-09-01 01:05:24 | 49.76798 | 18.15049 | 70° | 159km/h | 11152m | -12.7m/s | -53.2°C | 18.7% | 0hPa | 2.5V | 08:11:00 | 00:00:00 | 00:00:00 | |
| OM5KV | 2026-09-01 01:05:21 | 49.76756 | 18.14875 | 71° | 159km/h | 11190m | -12.9m/s | -53.5°C | 18.3% | 0hPa | 2.5V | 08:11:00 | 00:00:00 | 00:00:00 | |
| POL1PZ | 2026-09-01 01:05:17 | 49.76701 | 18.14638 | 72° | 162km/h | 11244m | -13.3m/s | -54.0°C | 17.8% | 0hPa | 2.5V | 08:11:00 | 00:00:00 | 00:00:00 | |
| PETON7-10 | 2026-09-01 01:05:16 | 49.76673 | 18.14517 | 72° | 166km/h | 11270m | -12.5m/s | -54.1°C | 23.0% | 0hPa | 2.5V | 00:00:00 | 00:00:00 | 00:00:00 | |
| OM5KV | 2026-09-01 01:05:12 | 49.76633 | 18.14333 | 73° | 166km/h | 11307m | -13.8m/s | -54.3°C | 16.6% | 0hPa | 2.5V | 08:11:00 | 00:00:00 | 00:00:00 | |
| OM5KV | 2026-09-01 01:05:10 | 49.76608 | 18.14210 | 74° | 166km/h | 11334m | -13.0m/s | -54.3°C | 16.1% | 0hPa | 2.5V | 08:11:00 | 00:00:00 | 00:00:00 | |
| OE5DRO-10 | 2026-09-01 01:05:07 | 49.76559 | 18.13961 | 74° | 162km/h | 11385m | -12.7m/s | -54.4°C | 20.1% | 0hPa | 2.5V | 00:00:00 | 00:00:00 | 00:00:00 | |
| OM5KV | 2026-09-01 01:05:06 | 49.76559 | 18.13961 | 75° | 166km/h | 11385m | -12.7m/s | -54.5°C | 15.0% | 0hPa | 2.6V | 08:11:00 | 00:00:00 | 00:00:00 | |
| OM5KV | 2026-09-01 01:05:04 | 49.76535 | 18.13837 | 75° | 164km/h | 11410m | -14.0m/s | -54.7°C | 14.5% | 0hPa | 2.6V | 08:11:00 | 00:00:00 | 00:00:00 | |
| OE3OSB-13 | 2026-09-01 01:04:57 | 49.76444 | 18.13348 | 73° | 161km/h | 11515m | -14.1m/s | -54.6°C | 11.8% | -1.0hPa | 2.6V | 00:00:00 | 00:00:00 | 00:00:00 | |
| POL1PZ | 2026-09-01 01:04:56 | 49.76443 | 18.13348 | 74° | 161km/h | 11515m | -14.1m/s | -54.6°C | 12.1% | 0hPa | 2.6V | 08:12:00 | 00:00:00 | 00:00:00 | |
| OM5KV | 2026-09-01 01:04:55 | 49.76432 | 18.13288 | 75° | 161km/h | 11529m | -13.4m/s | -54.5°C | 11.6% | 0hPa | 2.6V | 08:12:00 | 00:00:00 | 00:00:00 | |
| S52SK | 2026-09-01 01:04:54 | 49.76421 | 18.13227 | 75° | 161km/h | 11543m | -14.2m/s | -54.5°C | 11.2% | 0hPa | 2.6V | 00:00:00 | 00:00:00 | 00:00:00 | |
| OM5KV | 2026-09-01 01:04:52 | 49.76398 | 18.13107 | 75° | 159km/h | 11570m | -13.3m/s | -54.4°C | 10.3% | 0hPa | 2.6V | 08:12:00 | 00:00:00 | 00:00:00 | |
| OM5KV | 2026-09-01 01:04:50 | 49.76375 | 18.12987 | 75° | 159km/h | 11596m | -13.6m/s | -54.5°C | 9.2% | 0hPa | 2.6V | 08:12:00 | 00:00:00 | 00:00:00 | |
| OE5DRO-10 | 2026-09-01 01:04:48 | 49.76342 | 18.12809 | 75° | 148km/h | 11637m | -13.6m/s | -54.5°C | 11.5% | 0hPa | 2.6V | 00:00:00 | 00:00:00 | 00:00:00 | |
| OM5KV | 2026-09-01 01:04:47 | 49.76342 | 18.12809 | 75° | 157km/h | 11637m | -13.6m/s | -54.6°C | 7.5% | 0hPa | 2.6V | 08:12:00 | 00:00:00 | 00:00:00 | |
| PETON7-10 | 2026-09-01 01:04:46 | 49.76320 | 18.12691 | 75° | 146km/h | 11664m | -13.5m/s | -54.5°C | 10.3% | 0hPa | 2.6V | 08:11:00 | 00:00:00 | 00:00:00 | |
| OM5KV | 2026-09-01 01:04:45 | 49.76320 | 18.12691 | 75° | 155km/h | 11664m | -13.5m/s | -54.6°C | 6.5% | 0hPa | 2.6V | 08:12:00 | 00:00:00 | 00:00:00 | |
| SP3WXH-11 | 2026-09-01 01:04:44 | 49.76298 | 18.12576 | 73° | 151km/h | 11690m | -13.3m/s | -54.4°C | 5.3% | -1.0hPa | 2.6V | 00:00:00 | 00:00:00 | 00:00:00 | |
| S52SK | 2026-09-01 01:04:43 | 49.76299 | 18.12576 | 75° | 153km/h | 11691m | -13.3m/s | -54.4°C | 5.4% | 0hPa | 2.6V | 00:00:00 | 00:00:00 | 00:00:00 | |
| OM5KV | 2026-09-01 01:04:41 | 49.76278 | 18.12462 | 76° | 150km/h | 11716m | -12.3m/s | -53.5°C | 4.4% | 0hPa | 2.6V | 08:12:00 | 00:00:00 | 00:00:00 | |
| OM5KV | 2026-09-01 01:04:40 | 49.76268 | 18.12405 | 76° | 150km/h | 11728m | -12.6m/s | -53.2°C | 4.0% | 0hPa | 2.6V | 08:12:00 | 00:00:00 | 00:00:00 | |
| POL1PZ | 2026-09-01 01:04:36 | 49.76232 | 18.12182 | 79° | 144km/h | 11783m | -13.4m/s | -49.3°C | 2.5% | 0hPa | 2.6V | 08:12:00 | 00:00:00 | 00:00:00 | |
| OM5KV | 2026-09-01 01:04:34 | 49.76218 | 18.12073 | 80° | 142km/h | 11809m | -13.0m/s | -48.3°C | 2.2% | 0hPa | 2.6V | 08:12:00 | 00:00:00 | 00:00:00 | |
| HA6NAB-11 | 2026-09-01 01:04:32 | 49.76205 | 18.11965 | 81° | 141km/h | 11836m | -13.5m/s | -48.2°C | 1.8% | 0hPa | 2.6V | 00:00:00 | 00:00:00 | 00:00:00 | |
| PETON7-10 | 2026-09-01 01:04:31 | 49.76193 | 18.11857 | 81° | 131km/h | 11865m | -14.3m/s | -48.1°C | 4.1% | 0hPa | 2.6V | 00:00:00 | 00:00:00 | 00:00:00 | |
| OE3JTB-15 | 2026-09-01 01:04:30 | 49.76188 | 18.11803 | 82° | 126km/h | 11879m | -14.8m/s | -48.2°C | 4.2% | 0hPa | 2.6V | 00:00:00 | 00:00:00 | 00:00:00 | |
| OE5DRO-10 | 2026-09-01 01:04:29 | 49.76183 | 18.11749 | 83° | 126km/h | 11894m | -15.1m/s | -48.2°C | 4.1% | 0hPa | 2.5V | 00:00:00 | 00:00:00 | 00:00:00 | |
| OM5KV | 2026-09-01 01:04:28 | 49.76183 | 18.11749 | 83° | 137km/h | 11894m | -15.1m/s | -48.3°C | 2.1% | 0hPa | 2.5V | 08:12:00 | 00:00:00 | 00:00:00 | |
| OE3OSB-13 | 2026-09-01 01:04:26 | 49.76171 | 18.11592 | 83° | 135km/h | 11939m | -15.1m/s | -48.3°C | 1.8% | -1.0hPa | 2.5V | 00:00:00 | 00:00:00 | 00:00:00 | |
| OM5KV | 2026-09-01 01:04:23 | 49.76164 | 18.11488 | 86° | 133km/h | 11968m | -13.5m/s | -48.5°C | 1.9% | 0hPa | 2.5V | 08:12:00 | 00:00:00 | 00:00:00 | |
| OM5KV | 2026-09-01 01:04:22 | 49.76161 | 18.11436 | 86° | 131km/h | 11981m | -14.4m/s | -48.6°C | 1.9% | 0hPa | 2.5V | 08:12:00 | 00:00:00 | 00:00:00 | |
| OM5KV | 2026-09-01 01:04:17 | 49.76148 | 18.11189 | 87° | 122km/h | 12049m | -14.3m/s | -48.8°C | 1.7% | 0hPa | 2.5V | 08:12:00 | 00:00:00 | 00:00:00 | |
| PETON7-10 | 2026-09-01 01:04:16 | 49.76144 | 18.11094 | 86° | 111km/h | 12077m | -13.9m/s | -47.7°C | 3.4% | 0hPa | 2.5V | 00:00:00 | 02:16:58 | 00:00:00 | |
| POL1PZ | 2026-09-01 01:04:15 | 49.76143 | 18.11094 | 87° | 119km/h | 12077m | -14.0m/s | -47.7°C | 1.5% | 0hPa | 2.5V | 08:12:00 | 00:00:00 | 00:00:00 | |
| SP3WXH-11 | 2026-09-01 01:04:13 | 49.76137 | 18.10957 | 84° | 115km/h | 12119m | -14.7m/s | -47.5°C | 1.3% | -1.0hPa | 2.5V | 00:00:00 | 00:00:00 | 00:00:00 | |
| OM5KV | 2026-09-01 01:04:12 | 49.76137 | 18.10956 | 86° | 117km/h | 12119m | -14.7m/s | -47.5°C | 1.4% | 0hPa | 2.5V | 08:12:00 | 00:00:00 | 00:00:00 | |
| OE5DRO-10 | 2026-09-01 01:04:10 | 49.76129 | 18.10823 | 85° | 108km/h | 12163m | -13.8m/s | -47.5°C | 3.2% | 0hPa | 2.5V | 00:00:00 | 00:00:00 | 00:00:00 | |
| OM5KV | 2026-09-01 01:04:07 | 49.76125 | 18.10736 | 87° | 111km/h | 12192m | -14.0m/s | -47.7°C | 1.3% | 0hPa | 2.6V | 08:13:00 | 00:00:00 | 00:00:00 | |
| OE3OSB-13 | 2026-09-01 01:03:55 | 49.76102 | 18.10192 | 86° | 104km/h | 12373m | -15.5m/s | -47.8°C | 1.1% | -1.0hPa | 2.6V | 00:00:00 | 00:00:00 | 00:00:00 | |
| POL1PZ | 2026-09-01 01:03:54 | 49.76102 | 18.10192 | 87° | 106km/h | 12373m | -15.5m/s | -47.8°C | 1.2% | 0hPa | 2.6V | 08:13:00 | 00:00:00 | 00:00:00 | |
| OE5DRO-10 | 2026-09-01 01:03:51 | 49.76095 | 18.10029 | 86° | 95km/h | 12432m | -14.2m/s | -47.6°C | 3.1% | 0hPa | 2.6V | 00:00:00 | 00:00:00 | 00:00:00 | |
| OM5KV | 2026-09-01 01:03:49 | 49.76093 | 18.09990 | 87° | 102km/h | 12446m | -13.8m/s | -47.4°C | 1.2% | 0hPa | 2.6V | 08:13:00 | 00:00:00 | 00:00:00 | |
| PETON7-10 | 2026-09-01 01:03:46 | 49.76086 | 18.09834 | 86° | 91km/h | 12505m | -15.3m/s | -47.7°C | 3.1% | 0hPa | 2.6V | 00:00:00 | 00:00:00 | 00:00:00 | |
| OM5KV | 2026-09-01 01:03:44 | 49.76084 | 18.09797 | 87° | 97km/h | 12520m | -15.0m/s | -47.8°C | 1.2% | 0hPa | 2.6V | 08:13:00 | 00:00:00 | 00:00:00 | |
| SP3WXH-11 | 2026-09-01 01:03:42 | 49.76077 | 18.09686 | 83° | 93km/h | 12564m | -14.0m/s | -47.4°C | 1.0% | -1.0hPa | 2.6V | 00:00:00 | 00:00:00 | 00:00:00 | |
| OM5KV | 2026-09-01 01:03:38 | 49.76068 | 18.09578 | 83° | 91km/h | 12606m | -14.4m/s | -47.5°C | 1.2% | 0hPa | 2.6V | 08:13:00 | 00:00:00 | 00:00:00 | |
| OM5KV | 2026-09-01 01:03:37 | 49.76065 | 18.09543 | 82° | 91km/h | 12621m | -15.5m/s | -47.4°C | 1.2% | 0hPa | 2.6V | 08:13:00 | 00:00:00 | 00:00:00 | |
| POL1PZ | 2026-09-01 01:03:34 | 49.76053 | 18.09439 | 80° | 89km/h | 12664m | -14.8m/s | -47.5°C | 1.2% | 0hPa | 2.6V | 08:13:00 | 00:00:00 | 00:00:00 | |
| OE5DRO-10 | 2026-09-01 01:03:32 | 49.76040 | 18.09336 | 80° | 89km/h | 12706m | -14.1m/s | -47.6°C | 3.1% | 0hPa | 2.6V | 00:00:00 | 00:00:00 | 00:00:00 | |
| PETON7-10 | 2026-09-01 01:03:31 | 49.76036 | 18.09302 | 80° | 91km/h | 12721m | -14.7m/s | -47.7°C | 3.1% | 0hPa | 2.6V | 00:00:00 | 02:16:13 | 00:00:00 | |
| OE3OSB-13 | 2026-09-01 01:03:24 | 49.76015 | 18.09050 | 86° | 93km/h | 12828m | -15.4m/s | -47.2°C | 1.0% | -1.0hPa | 2.6V | 00:00:00 | 00:00:00 | 00:00:00 | |
| OM5KV | 2026-09-01 01:03:18 | 49.76007 | 18.08871 | 87° | 88km/h | 12904m | -14.9m/s | -47.3°C | 1.2% | 0hPa | 2.6V | 08:13:00 | 00:00:00 | 00:00:00 | |
| PETON7-10 | 2026-09-01 01:03:16 | 49.76003 | 18.08772 | 86° | 69km/h | 12948m | -15.3m/s | -47.0°C | 3.0% | 0hPa | 2.6V | 00:00:00 | 00:00:00 | 00:00:00 | |
| OM5KV | 2026-09-01 01:03:14 | 49.76000 | 18.08711 | 87° | 77km/h | 12977m | -16.0m/s | -46.8°C | 1.1% | 0hPa | 2.5V | 08:13:00 | 00:00:00 | 00:00:00 | |
| OE5DRO-10 | 2026-09-01 01:03:13 | 49.75999 | 18.08681 | 86° | 64km/h | 12993m | -16.0m/s | -46.7°C | 3.0% | 0hPa | 2.5V | 08:13:00 | 00:00:00 | 00:00:00 | |
| SP3WXH-11 | 2026-09-01 01:03:11 | 49.75995 | 18.08626 | 82° | 69km/h | 13024m | -15.7m/s | -46.6°C | 1.0% | -1.0hPa | 2.5V | 00:00:00 | 00:00:00 | 00:00:00 | |
| OM5KV | 2026-09-01 01:03:08 | 49.75990 | 18.08573 | 83° | 68km/h | 13056m | -16.4m/s | -46.7°C | 1.2% | 0hPa | 2.5V | 08:13:00 | 00:00:00 | 00:00:00 | |
| OM5KV | 2026-09-01 01:03:06 | 49.75985 | 18.08521 | 83° | 68km/h | 13088m | -16.4m/s | -46.9°C | 1.2% | 0hPa | 2.5V | 08:13:00 | 00:00:00 | 00:00:00 | |
| S52SK | 2026-09-01 01:03:05 | 49.75983 | 18.08495 | 82° | 66km/h | 13104m | -15.9m/s | -47.0°C | 1.1% | 0hPa | 2.5V | 00:00:00 | 00:00:00 | 00:00:00 | |
| OM5KV | 2026-09-01 01:03:02 | 49.75974 | 18.08420 | 79° | 64km/h | 13150m | -15.6m/s | -47.3°C | 1.2% | 0hPa | 2.5V | 08:13:00 | 00:00:00 | 00:00:00 | |
| OE3OSB-13 | 2026-09-01 01:02:53 | 49.75936 | 18.08202 | 70° | 55km/h | 13309m | -15.7m/s | -47.0°C | 1.1% | -1.0hPa | 2.5V | 00:00:00 | 00:00:00 | 00:00:00 | |
| OE5DXL-15 | 2026-09-01 01:02:46 | 49.75896 | 18.08070 | 61° | 58km/h | 13419m | -15.2m/s | -47.9°C | 3.2% | 0hPa | 2.5V | 00:00:00 | 00:00:00 | 00:00:00 | |
| GYPAP8-17 | 2026-09-01 01:02:45 | 49.75896 | 18.08070 | 62° | 55km/h | 13419m | -15.3m/s | -47.9°C | 1.2% | 0hPa | 2.5V | 00:00:00 | 00:00:00 | 00:00:00 | |
| OM5KV | 2026-09-01 01:02:43 | 49.75883 | 18.08034 | 60° | 51km/h | 13450m | -16.5m/s | -48.2°C | 1.3% | 0hPa | 2.5V | 08:13:00 | 00:00:00 | 00:00:00 | |
| OE3JTB-15 | 2026-09-01 01:02:42 | 49.75870 | 18.07998 | 61° | 60km/h | 13482m | -15.9m/s | -48.4°C | 3.3% | 0hPa | 2.5V | 08:13:00 | 00:00:00 | 00:00:00 | |
| SP3WXH-11 | 2026-09-01 01:02:40 | 49.75857 | 18.07961 | 61° | 53km/h | 13513m | -15.7m/s | -48.8°C | 1.3% | -1.0hPa | 2.5V | 00:00:00 | 00:00:00 | 00:00:00 | |
| OM5KV | 2026-09-01 01:02:36 | 49.75838 | 18.07904 | 66° | 57km/h | 13560m | -15.6m/s | -49.2°C | 1.4% | 0hPa | 2.5V | 08:13:00 | 00:00:00 | 00:00:00 | |
| OE5DRO-10 | 2026-09-01 01:02:35 | 49.75826 | 18.07865 | 65° | 62km/h | 13590m | -14.5m/s | -49.5°C | 3.5% | 0hPa | 2.5V | 00:00:00 | 00:00:00 | 00:00:00 | |
| POL1PZ | 2026-09-01 01:02:32 | 49.75814 | 18.07825 | 64° | 57km/h | 13621m | -15.9m/s | -49.8°C | 1.5% | 0hPa | 2.5V | 08:13:00 | 00:00:00 | 00:00:00 | |
| PETON7-10 | 2026-09-01 01:02:31 | 49.75800 | 18.07785 | 62° | 62km/h | 13653m | -16.1m/s | -50.0°C | 3.6% | 0hPa | 2.5V | 08:13:00 | 00:00:00 | 00:00:00 | |
| OM5KV | 2026-09-01 01:02:30 | 49.75800 | 18.07784 | 63° | 58km/h | 13653m | -16.1m/s | -50.0°C | 1.5% | 0hPa | 2.5V | 08:13:00 | 00:00:00 | 00:00:00 | |
| OM5KV | 2026-09-01 01:02:29 | 49.75793 | 18.07765 | 63° | 58km/h | 13669m | -16.2m/s | -50.1°C | 1.5% | 0hPa | 2.5V | 08:13:00 | 00:00:00 | 00:00:00 | |
| OM5KV | 2026-09-01 01:02:24 | 49.75755 | 18.07662 | 59° | 62km/h | 13750m | -16.0m/s | -50.9°C | 1.6% | 0hPa | 2.5V | 08:14:00 | 00:00:00 | 00:00:00 | |
| OM5KV | 2026-09-01 01:02:23 | 49.75747 | 18.07642 | 59° | 62km/h | 13765m | -15.6m/s | -51.0°C | 1.6% | 0hPa | 2.5V | 08:14:00 | 00:00:00 | 00:00:00 | |
| OM5KV | 2026-09-01 01:02:18 | 49.75705 | 18.07533 | 61° | 68km/h | 13842m | -16.3m/s | -51.7°C | 1.7% | 0hPa | 2.5V | 08:14:00 | 00:00:00 | 00:00:00 | |
| OM5KV | 2026-09-01 01:02:17 | 49.75697 | 18.07510 | 62° | 68km/h | 13857m | -15.9m/s | -51.9°C | 1.7% | 0hPa | 2.5V | 08:14:00 | 00:00:00 | 00:00:00 | |
| PETON7-10 | 2026-09-01 01:02:16 | 49.75680 | 18.07464 | 62° | 73km/h | 13890m | -16.3m/s | -52.0°C | 4.1% | 0hPa | 2.5V | 00:00:00 | 00:00:00 | 00:00:00 | |
| OE3JTB-15 | 2026-09-01 01:02:13 | 49.75655 | 18.07391 | 63° | 69km/h | 13937m | -15.2m/s | -52.2°C | 4.1% | 0hPa | 2.5V | 00:00:00 | 00:00:00 | 00:00:00 | |
| OM5KV | 2026-09-01 01:02:12 | 49.75655 | 18.07391 | 64° | 73km/h | 13937m | -15.2m/s | -52.3°C | 1.7% | 0hPa | 2.5V | 08:14:00 | 00:00:00 | 00:00:00 | |
| OM5KV | 2026-09-01 01:02:11 | 49.75647 | 18.07366 | 63° | 71km/h | 13953m | -16.6m/s | -52.4°C | 1.7% | 0hPa | 2.5V | 08:14:00 | 00:00:00 | 00:00:00 | |
| SP3WXH-11 | 2026-09-01 01:02:09 | 49.75620 | 18.07290 | 60° | 73km/h | 14001m | -16.9m/s | -52.7°C | 1.5% | -1.0hPa | 2.5V | 00:00:00 | 00:00:00 | 00:00:00 | |
| OM5KV | 2026-09-01 01:02:06 | 49.75601 | 18.07240 | 60° | 73km/h | 14034m | -16.5m/s | -52.8°C | 1.7% | 0hPa | 2.5V | 08:14:00 | 00:00:00 | 00:00:00 | |
| PG1ADW-2 | 2026-09-01 01:02:04 | 49.75574 | 18.07167 | 60° | 68km/h | 14082m | -15.7m/s | -53.0°C | 4.3% | 0hPa | 2.5V | 00:00:00 | 00:00:00 | 00:00:00 | |
| OE3OSB-13 | 2026-09-01 01:01:52 | 49.75464 | 18.06870 | 60° | 66km/h | 14288m | -16.5m/s | -53.7°C | 1.5% | -1.0hPa | 2.5V | 00:00:00 | 00:00:00 | 00:00:00 | |
| OM5KV | 2026-09-01 01:01:50 | 49.75464 | 18.06870 | 62° | 68km/h | 14288m | -16.5m/s | -53.7°C | 1.7% | 0hPa | 2.5V | 08:14:00 | 00:00:00 | 00:00:00 | |
| OM5KV | 2026-09-01 01:01:48 | 49.75447 | 18.06825 | 60° | 66km/h | 14321m | -15.7m/s | -53.7°C | 1.7% | 0hPa | 2.5V | 08:14:00 | 00:00:00 | 00:00:00 | |
| PETON7-10 | 2026-09-01 01:01:46 | 49.75420 | 18.06758 | 59° | 73km/h | 14367m | -15.9m/s | -53.2°C | 4.1% | 0hPa | 2.5V | 00:00:00 | 00:00:00 | 00:00:00 | |
| PG1ADW-2 | 2026-09-01 01:01:44 | 49.75401 | 18.06712 | 58° | 77km/h | 14399m | -16.0m/s | -53.5°C | 4.2% | 0hPa | 2.5V | 00:00:00 | 00:00:00 | 00:00:00 | |
| OM5KV | 2026-09-01 01:01:42 | 49.75392 | 18.06689 | 58° | 73km/h | 14414m | -15.1m/s | -53.6°C | 1.6% | 0hPa | 2.5V | 08:14:00 | 00:00:00 | 00:00:00 | |
| OE3JTB-15 | 2026-09-01 01:01:39 | 49.75352 | 18.06594 | 59° | 78km/h | 14478m | -16.1m/s | -53.8°C | 4.2% | 0hPa | 2.5V | 00:00:00 | 02:14:21 | 00:00:00 | |
| OM5KV | 2026-09-01 01:01:38 | 49.75342 | 18.06569 | 60° | 75km/h | 14494m | -16.1m/s | -53.9°C | 1.5% | 0hPa | 2.5V | 08:14:00 | 00:00:00 | 00:00:00 | |
| OM5KV | 2026-09-01 01:01:32 | 49.75286 | 18.06415 | 62° | 77km/h | 14586m | -16.3m/s | -53.7°C | 1.5% | 0hPa | 2.5V | 08:15:00 | 00:00:00 | 00:00:00 | |
| PETON7-10 | 2026-09-01 01:01:31 | 49.75277 | 18.06389 | 62° | 78km/h | 14602m | -16.2m/s | -53.7°C | 4.1% | 0hPa | 2.5V | 00:00:00 | 00:00:00 | 00:00:00 | |
| GYPAP8-17 | 2026-09-01 01:01:30 | 49.75277 | 18.06389 | 62° | 75km/h | 14602m | -16.2m/s | -53.7°C | 1.5% | 0hPa | 2.5V | 00:00:00 | 00:00:00 | 00:00:00 | |
| OM5KV | 2026-09-01 01:01:26 | 49.75239 | 18.06281 | 63° | 80km/h | 14667m | -15.6m/s | -54.0°C | 1.5% | 0hPa | 2.5V | 08:15:00 | 00:00:00 | 00:00:00 | |
| OM5KV | 2026-09-01 01:01:25 | 49.75230 | 18.06253 | 63° | 78km/h | 14683m | -16.0m/s | -54.0°C | 1.5% | 0hPa | 2.5V | 08:15:00 | 00:00:00 | 00:00:00 | |
| PG1ADW-2 | 2026-09-01 01:01:24 | 49.75211 | 18.06199 | 63° | 82km/h | 14715m | -15.5m/s | -54.0°C | 4.3% | 0hPa | 2.5V | 00:00:00 | 02:14:06 | 00:00:00 | |
| OE3OSB-13 | 2026-09-01 01:01:20 | 49.75171 | 18.06058 | 68° | 78km/h | 14792m | -16.0m/s | -54.3°C | 1.4% | -1.0hPa | 2.5V | 00:00:00 | 00:00:00 | 00:00:00 | |
| OE5DRO-10 | 2026-09-01 01:01:19 | 49.75171 | 18.06058 | 69° | 80km/h | 14792m | -16.0m/s | -54.3°C | 4.3% | 0hPa | 2.5V | 00:00:00 | 00:00:00 | 00:00:00 | |
| PETON7-10 | 2026-09-01 01:01:16 | 49.75149 | 18.05969 | 72° | 82km/h | 14839m | -15.0m/s | -54.4°C | 4.3% | 0hPa | 2.5V | 00:00:00 | 02:13:58 | 00:00:00 | |
| OM5KV | 2026-09-01 01:01:15 | 49.75149 | 18.05969 | 72° | 84km/h | 14839m | -15.1m/s | -54.4°C | 1.5% | 0hPa | 2.5V | 08:15:00 | 00:00:00 | 00:00:00 | |
| OM5KV | 2026-09-01 01:01:14 | 49.75142 | 18.05938 | 73° | 84km/h | 14854m | -15.8m/s | -54.3°C | 1.5% | 0hPa | 2.5V | 08:15:00 | 00:00:00 | 00:00:00 | |
| OE3JTB-15 | 2026-09-01 01:01:09 | 49.75104 | 18.05748 | 73° | 71km/h | 14947m | -15.2m/s | -53.8°C | 4.1% | 0hPa | 2.5V | 00:00:00 | 00:00:00 | 00:00:00 | |
| SP3WXH-11 | 2026-09-01 01:01:07 | 49.75091 | 18.05687 | 70° | 80km/h | 14977m | -15.6m/s | -53.9°C | 1.3% | -1.0hPa | 2.6V | 00:00:00 | 00:00:00 | 00:00:00 | |
| S52SK | 2026-09-01 01:01:05 | 49.75084 | 18.05657 | 72° | 80km/h | 14993m | -15.0m/s | -53.9°C | 1.4% | 0hPa | 2.6V | 00:00:00 | 00:00:00 | 00:00:00 | |
| PG1ADW-2 | 2026-09-01 01:01:04 | 49.75070 | 18.05599 | 69° | 73km/h | 15023m | -15.5m/s | -53.7°C | 4.1% | 0hPa | 2.6V | 08:15:00 | 00:00:00 | 00:00:00 | |
| OE3OSB-13 | 2026-09-01 01:00:49 | 49.74964 | 18.05173 | 75° | 68km/h | 15268m | -15.7m/s | -53.9°C | 1.2% | -1.0hPa | 2.6V | 00:00:00 | 00:00:00 | 00:00:00 | |
| PETON7-10 | 2026-09-01 01:00:46 | 49.74956 | 18.05122 | 76° | 62km/h | 15300m | -16.1m/s | -53.8°C | 4.1% | 0hPa | 2.6V | 00:00:00 | 00:00:00 | 00:00:00 | |
| OM5KV | 2026-09-01 01:00:45 | 49.74956 | 18.05122 | 76° | 68km/h | 15300m | -16.1m/s | -53.8°C | 1.4% | 0hPa | 2.6V | 08:15:00 | 00:00:00 | 00:00:00 | |
| OE5DRO-10 | 2026-09-01 01:00:41 | 49.74936 | 18.04995 | 78° | 55km/h | 15378m | -16.2m/s | -54.3°C | 4.3% | 0hPa | 2.6V | 00:00:00 | 00:00:00 | 00:00:00 | |
| OM5KV | 2026-09-01 01:00:39 | 49.74932 | 18.04971 | 79° | 64km/h | 15394m | -16.0m/s | -54.4°C | 1.4% | 0hPa | 2.6V | 08:16:00 | 00:00:00 | 00:00:00 | |
| OE3JTB-15 | 2026-09-01 01:00:37 | 49.74924 | 18.04898 | 82° | 44km/h | 15440m | -14.8m/s | -54.5°C | 4.4% | 0hPa | 2.6V | 00:00:00 | 00:00:00 | 00:00:00 | |
| SP3BTT-10 | 2026-09-01 01:00:36 | 49.74921 | 18.04874 | 81° | 37km/h | 15455m | -15.2m/s | -54.6°C | 4.5% | 0hPa | 2.6V | 00:00:00 | 00:00:00 | 00:00:00 | |
| OM5KV | 2026-09-01 01:00:35 | 49.74921 | 18.04874 | 82° | 60km/h | 15455m | -15.2m/s | -54.6°C | 1.5% | 0hPa | 2.6V | 08:16:00 | 00:00:00 | 00:00:00 | |
| OM5KV | 2026-09-01 01:00:33 | 49.74917 | 18.04829 | 84° | 58km/h | 15487m | -15.4m/s | -54.7°C | 1.5% | 0hPa | 2.6V | 08:16:00 | 00:00:00 | 00:00:00 | |
| PETON7-10 | 2026-09-01 01:00:31 | 49.74912 | 18.04765 | 85° | 47km/h | 15532m | -14.3m/s | -54.2°C | 4.5% | 0hPa | 2.6V | 00:00:00 | 02:13:13 | 00:00:00 | |
| OM5KV | 2026-09-01 01:00:30 | 49.74911 | 18.04745 | 85° | 51km/h | 15547m | -15.6m/s | -53.7°C | 1.5% | 0hPa | 2.6V | 08:16:00 | 00:00:00 | 00:00:00 | |
| POL1PZ | 2026-09-01 01:00:29 | 49.74910 | 18.04726 | 83° | 49km/h | 15563m | -16.1m/s | -53.4°C | 1.4% | 0hPa | 2.6V | 08:16:00 | 00:00:00 | 00:00:00 | |
| PG1ADW-2 | 2026-09-01 01:00:24 | 49.74895 | 18.04636 | 69° | 46km/h | 15643m | -15.6m/s | -53.2°C | 4.0% | 0hPa | 2.6V | 00:00:00 | 00:00:00 | 00:00:00 | |
| OM5KV | 2026-09-01 01:00:23 | 49.74895 | 18.04635 | 70° | 47km/h | 15643m | -15.6m/s | -53.2°C | 1.3% | 0hPa | 2.6V | 08:16:00 | 00:00:00 | 00:00:00 | |
| OE5DRO-10 | 2026-09-01 01:00:22 | 49.74885 | 18.04602 | 64° | 47km/h | 15674m | -15.6m/s | -53.0°C | 4.0% | 0hPa | 2.6V | 08:16:00 | 00:00:00 | 00:00:00 | |
| OM5KV | 2026-09-01 01:00:18 | 49.74862 | 18.04541 | 57° | 46km/h | 15734m | -14.7m/s | -52.6°C | 1.3% | 0hPa | 2.6V | 08:16:00 | 00:00:00 | 00:00:00 | |
| OE5DXL-15 | 2026-09-01 01:00:17 | 49.74849 | 18.04511 | 57° | 53km/h | 15766m | -16.4m/s | -52.3°C | 3.7% | 0hPa | 2.6V | 00:00:00 | 00:00:00 | 00:00:00 | |
| PETON7-10 | 2026-09-01 01:00:16 | 49.74849 | 18.04511 | 57° | 47km/h | 15766m | -16.4m/s | -52.3°C | 3.7% | 0hPa | 2.6V | 08:16:00 | 00:00:00 | 00:00:00 | |
| OM5KV | 2026-09-01 01:00:11 | 49.74823 | 18.04454 | 58° | 46km/h | 15830m | -15.4m/s | -52.2°C | 1.2% | 0hPa | 2.6V | 08:16:00 | 00:00:00 | 00:00:00 | |
| POL1PZ | 2026-09-01 01:00:08 | 49.74805 | 18.04408 | 62° | 47km/h | 15877m | -16.5m/s | -52.5°C | 1.2% | 0hPa | 2.6V | 08:16:00 | 00:00:00 | 00:00:00 | |
| SP3WXH-11 | 2026-09-01 01:00:05 | 49.74783 | 18.04339 | 65° | 49km/h | 15937m | -14.2m/s | -53.0°C | 1.1% | -1.0hPa | 2.6V | 00:00:00 | 00:00:00 | 00:00:00 | |
| OE3OSB-13 | 2026-09-01 00:59:47 | 49.74649 | 18.03974 | 55° | 64km/h | 16182m | -13.3m/s | -54.8°C | 1.2% | -1.0hPa | 2.6V | 00:00:00 | 00:00:00 | 00:00:00 | |
| PETON7-10 | 2026-09-01 00:59:46 | 49.74649 | 18.03974 | 56° | 68km/h | 16182m | -13.3m/s | -54.8°C | 4.1% | 0hPa | 2.6V | 00:00:00 | 02:12:28 | 00:00:00 | |
| PG1ADW-2 | 2026-09-01 00:59:44 | 49.74630 | 18.03932 | 55° | 69km/h | 16210m | -14.0m/s | -55.0°C | 4.3% | 0hPa | 2.6V | 00:00:00 | 00:00:00 | 00:00:00 | |
| OM5KV | 2026-09-01 00:59:42 | 49.74620 | 18.03912 | 55° | 66km/h | 16224m | -14.2m/s | -55.1°C | 1.4% | 0hPa | 2.6V | 00:00:00 | 00:00:00 | 00:00:00 | |
| S52SK | 2026-09-01 00:59:39 | 49.74591 | 18.03849 | 56° | 66km/h | 16268m | -14.9m/s | -55.1°C | 1.3% | 0hPa | 2.6V | 00:00:00 | 00:00:00 | 00:00:00 | |
| SP3WXH-11 | 2026-09-01 00:59:34 | 49.74532 | 18.03718 | 56° | 69km/h | 16357m | -15.1m/s | -55.7°C | 1.2% | -1.0hPa | 2.6V | 00:00:00 | 00:00:00 | 00:00:00 | |
| S52SK | 2026-09-01 00:59:33 | 49.74532 | 18.03718 | 57° | 71km/h | 16357m | -15.1m/s | -55.7°C | 1.3% | 0hPa | 2.6V | 00:00:00 | 00:00:00 | 00:00:00 | |
| PETON7-10 | 2026-09-01 00:59:31 | 49.74503 | 18.03647 | 59° | 73km/h | 16403m | -15.2m/s | -55.8°C | 4.5% | 0hPa | 2.6V | 00:00:00 | 00:00:00 | 00:00:00 | |
| OM5KV | 2026-09-01 00:59:30 | 49.74503 | 18.03647 | 60° | 73km/h | 16403m | -15.2m/s | -55.8°C | 1.4% | 0hPa | 2.6V | 00:00:00 | 00:00:00 | 00:00:00 | |
| POL1PZ | 2026-09-01 00:59:27 | 49.74475 | 18.03573 | 61° | 73km/h | 16447m | -13.9m/s | -55.5°C | 1.4% | 0hPa | 2.6V | 08:17:00 | 00:00:00 | 00:00:00 | |
| OM5KV | 2026-09-01 00:59:26 | 49.74466 | 18.03548 | 62° | 75km/h | 16460m | -12.9m/s | -55.5°C | 1.3% | 0hPa | 2.6V | 00:00:00 | 00:00:00 | 00:00:00 | |
| OE5DRO-10 | 2026-09-01 00:59:25 | 49.74448 | 18.03498 | 63° | 68km/h | 16487m | -13.7m/s | -55.5°C | 4.4% | 0hPa | 2.6V | 00:00:00 | 00:00:00 | 00:00:00 | |
| PG1ADW-2 | 2026-09-01 00:59:24 | 49.74439 | 18.03473 | 63° | 68km/h | 16502m | -15.2m/s | -55.4°C | 4.3% | 0hPa | 2.5V | 00:00:00 | 00:00:00 | 00:00:00 | |
| OE5MMP-10 | 2026-09-01 00:59:22 | 49.74423 | 18.03422 | 65° | 69km/h | 16531m | -14.6m/s | -55.5°C | 4.4% | 0hPa | 2.5V | 00:00:00 | 02:12:04 | 00:00:00 | |
| EDDB2-11 | 2026-09-01 00:59:17 | 49.74381 | 18.03266 | 71° | 69km/h | 16624m | -16.5m/s | -55.5°C | 1.1% | -1.0hPa | 2.6V | 00:00:00 | 00:00:00 | 00:00:00 | |
| PETON7-10 | 2026-09-01 00:59:16 | 49.74381 | 18.03266 | 72° | 62km/h | 16624m | -16.4m/s | -55.4°C | 4.3% | 0hPa | 2.6V | 00:00:00 | 00:00:00 | 00:00:00 | |
| OM5KV | 2026-09-01 00:59:15 | 49.74381 | 18.03266 | 72° | 71km/h | 16624m | -16.5m/s | -55.5°C | 1.3% | 0hPa | 2.6V | 00:00:00 | 00:00:00 | 00:00:00 | |
| OM5KV | 2026-09-01 00:59:13 | 49.74371 | 18.03214 | 75° | 69km/h | 16656m | -15.3m/s | -55.5°C | 1.3% | 0hPa | 2.6V | 00:00:00 | 00:00:00 | 00:00:00 | |
| OE5MMP-10 | 2026-09-01 00:59:10 | 49.74355 | 18.03115 | 77° | 58km/h | 16720m | -15.9m/s | -55.4°C | 4.4% | 0hPa | 2.6V | 00:00:00 | 02:11:52 | 00:00:00 | |
| POL1PZ | 2026-09-01 00:59:07 | 49.74348 | 18.03069 | 79° | 58km/h | 16751m | -15.4m/s | -55.4°C | 1.3% | 0hPa | 2.6V | 08:17:00 | 00:00:00 | 00:00:00 | |
| OE5DRO-10 | 2026-09-01 00:59:06 | 49.74342 | 18.03024 | 81° | 51km/h | 16782m | -14.9m/s | -55.1°C | 4.4% | 0hPa | 2.6V | 00:00:00 | 00:00:00 | 00:00:00 | |
| PG1ADW-2 | 2026-09-01 00:59:04 | 49.74338 | 18.02979 | 83° | 47km/h | 16812m | -15.8m/s | -54.9°C | 4.4% | 0hPa | 2.6V | 00:00:00 | 00:00:00 | 00:00:00 | |
| SP3WXH-11 | 2026-09-01 00:59:03 | 49.74337 | 18.02956 | 84° | 58km/h | 16828m | -15.7m/s | -54.9°C | 1.1% | -1.0hPa | 2.6V | 00:00:00 | 00:00:00 | 00:00:00 | |
| PETON7-10 | 2026-09-01 00:59:01 | 49.74335 | 18.02910 | 88° | 47km/h | 16858m | -14.7m/s | -54.7°C | 4.3% | 0hPa | 2.6V | 00:00:00 | 02:11:43 | 00:00:00 | |
| OE5MMP-10 | 2026-09-01 00:58:59 | 49.74334 | 18.02866 | 91° | 47km/h | 16888m | -13.9m/s | -54.6°C | 4.2% | 0hPa | 2.6V | 00:00:00 | 02:11:41 | 00:00:00 | |
| DO3MHA-11 | 2026-09-01 00:58:51 | 49.74332 | 18.02715 | 85° | 38km/h | 17012m | -14.7m/s | -53.6°C | 3.9% | 0hPa | 2.6V | 00:00:00 | 02:11:33 | 00:00:00 | |
| OM5KV | 2026-09-01 00:58:50 | 49.74332 | 18.02715 | 85° | 42km/h | 17012m | -14.8m/s | -53.7°C | 1.2% | 0hPa | 2.6V | 08:18:00 | 00:00:00 | 00:00:00 | |
| OE5MMP-10 | 2026-09-01 00:58:49 | 49.74329 | 18.02682 | 83° | 42km/h | 17042m | -15.1m/s | -53.3°C | 3.9% | 0hPa | 2.6V | 08:17:00 | 02:11:31 | 00:00:00 | |
| OE5DRO-10 | 2026-09-01 00:58:47 | 49.74326 | 18.02651 | 80° | 38km/h | 17072m | -15.3m/s | -53.3°C | 3.9% | 0hPa | 2.5V | 00:00:00 | 00:00:00 | 00:00:00 | |
| PETON7-10 | 2026-09-01 00:58:46 | 49.74324 | 18.02636 | 77° | 37km/h | 17087m | -15.4m/s | -53.2°C | 3.8% | 0hPa | 2.5V | 00:00:00 | 00:00:00 | 00:00:00 | |
| OE3OSB-13 | 2026-09-01 00:58:45 | 49.74318 | 18.02608 | 69° | 37km/h | 17118m | -16.5m/s | -53.3°C | 0.9% | -1.0hPa | 2.5V | 00:00:00 | 00:00:00 | 00:00:00 | |
| OM5KV | 2026-09-01 00:58:44 | 49.74318 | 18.02608 | 70° | 37km/h | 17119m | -16.5m/s | -53.3°C | 1.1% | 0hPa | 2.5V | 08:18:00 | 00:00:00 | 00:00:00 | |
| DO3MHA-11 | 2026-09-01 00:58:41 | 49.74306 | 18.02570 | 59° | 37km/h | 17168m | -16.7m/s | -53.5°C | 3.9% | 0hPa | 2.5V | 00:00:00 | 02:11:23 | 00:00:00 | |
| OM5KV | 2026-09-01 00:58:39 | 49.74301 | 18.02558 | 57° | 37km/h | 17185m | -17.5m/s | -53.7°C | 1.1% | 0hPa | 2.5V | 08:18:00 | 00:00:00 | 00:00:00 | |
| OM5KV | 2026-09-01 00:58:38 | 49.74296 | 18.02546 | 55° | 37km/h | 17202m | -17.1m/s | -53.8°C | 1.1% | 0hPa | 2.5V | 08:18:00 | 00:00:00 | 00:00:00 | |
| OE5MMP-10 | 2026-09-01 00:58:37 | 49.74285 | 18.02523 | 53° | 38km/h | 17237m | -17.3m/s | -53.9°C | 4.0% | 0hPa | 2.5V | 00:00:00 | 02:11:19 | 00:00:00 | |
| SP3WXH-11 | 2026-09-01 00:58:32 | 49.74250 | 18.02455 | 53° | 37km/h | 17331m | -14.7m/s | -52.8°C | 0.9% | -1.0hPa | 2.5V | 00:00:00 | 00:00:00 | 00:00:00 | |
| OE5DRO-10 | 2026-09-01 00:58:28 | 49.74231 | 18.02418 | 52° | 44km/h | 17377m | -16.5m/s | -52.1°C | 3.5% | 0hPa | 2.5V | 00:00:00 | 00:00:00 | 00:00:00 | |
| OM5KV | 2026-09-01 00:58:27 | 49.74224 | 18.02406 | 51° | 42km/h | 17393m | -16.9m/s | -52.2°C | 1.0% | 0hPa | 2.5V | 08:18:00 | 00:00:00 | 00:00:00 | |
| PG1ADW-2 | 2026-09-01 00:58:24 | 49.74203 | 18.02368 | 47° | 44km/h | 17441m | -14.8m/s | -52.5°C | 3.5% | 0hPa | 2.5V | 00:00:00 | 00:00:00 | 00:00:00 | |
| DO3MHA-11 | 2026-09-01 00:58:21 | 49.74179 | 18.02331 | 44° | 44km/h | 17486m | -14.4m/s | -52.9°C | 3.6% | 0hPa | 2.5V | 00:00:00 | 02:11:03 | 00:00:00 | |
| OE5MMP-10 | 2026-09-01 00:58:20 | 49.74171 | 18.02319 | 43° | 44km/h | 17501m | -15.4m/s | -53.0°C | 3.7% | 0hPa | 2.5V | 00:00:00 | 02:11:02 | 00:00:00 | |
| PETON7-10 | 2026-09-01 00:58:16 | 49.74137 | 18.02275 | 41° | 46km/h | 17562m | -16.1m/s | -52.8°C | 3.6% | 0hPa | 2.5V | 00:00:00 | 02:10:58 | 00:00:00 | |
| EDDB2-11 | 2026-09-01 00:58:15 | 49.74128 | 18.02263 | 42° | 44km/h | 17578m | -16.2m/s | -52.9°C | 0.9% | -1.0hPa | 2.5V | 00:00:00 | 00:00:00 | 00:00:00 | |
| OE3OSB-13 | 2026-09-01 00:58:13 | 49.74112 | 18.02239 | 45° | 44km/h | 17611m | -17.4m/s | -53.1°C | 0.9% | -1.0hPa | 2.5V | 00:00:00 | 00:00:00 | 00:00:00 | |
| S52SK | 2026-09-01 00:58:11 | 49.74097 | 18.02214 | 50° | 44km/h | 17643m | -14.6m/s | -53.2°C | 1.1% | 0hPa | 2.5V | 00:00:00 | 00:00:00 | 00:00:00 | |
| OM5KV | 2026-09-01 00:58:10 | 49.74097 | 18.02214 | 50° | 44km/h | 17643m | -14.6m/s | -53.2°C | 1.1% | 0hPa | 2.5V | 08:19:00 | 00:00:00 | 00:00:00 | |
| OE5DRO-10 | 2026-09-01 00:58:09 | 49.74083 | 18.02188 | 51° | 40km/h | 17673m | -15.6m/s | -53.4°C | 3.9% | 0hPa | 2.5V | 00:00:00 | 00:00:00 | 00:00:00 | |
| OE5MMP-10 | 2026-09-01 00:58:06 | 49.74062 | 18.02147 | 54° | 42km/h | 17717m | -13.9m/s | -53.6°C | 4.0% | 0hPa | 2.5V | 00:00:00 | 02:10:48 | 00:00:00 | |
| POL1PZ | 2026-09-01 00:58:05 | 49.74062 | 18.02147 | 54° | 46km/h | 17717m | -13.9m/s | -53.6°C | 1.1% | 0hPa | 2.5V | 08:19:00 | 00:00:00 | 00:00:00 | |
| PG1ADW-2 | 2026-09-01 00:58:04 | 49.74049 | 18.02118 | 56° | 38km/h | 17747m | -15.7m/s | -53.6°C | 4.0% | 0hPa | 2.5V | 08:18:00 | 00:00:00 | 00:00:00 | |
| OM5KV | 2026-09-01 00:58:03 | 49.74049 | 18.02118 | 56° | 47km/h | 17747m | -15.7m/s | -53.6°C | 1.1% | 0hPa | 2.6V | 08:19:00 | 00:00:00 | 00:00:00 | |
| SP3WXH-11 | 2026-09-01 00:58:01 | 49.74025 | 18.02057 | 62° | 42km/h | 17807m | -13.6m/s | -53.9°C | 1.0% | -1.0hPa | 2.6V | 00:00:00 | 00:00:00 | 00:00:00 | |
| OM5KV | 2026-09-01 00:57:59 | 49.74025 | 18.02057 | 63° | 42km/h | 17807m | -13.6m/s | -53.9°C | 1.2% | 0hPa | 2.6V | 08:19:00 | 00:00:00 | 00:00:00 | |
| OE5MMP-10 | 2026-09-01 00:57:55 | 49.74006 | 18.01990 | 69° | 35km/h | 17886m | -16.3m/s | -53.8°C | 4.1% | 0hPa | 2.6V | 00:00:00 | 02:10:37 | 00:00:00 | |
| OM5KV | 2026-09-01 00:57:53 | 49.74003 | 18.01978 | 71° | 31km/h | 17902m | -17.0m/s | -53.5°C | 1.1% | 0hPa | 2.6V | 08:19:00 | 00:00:00 | 00:00:00 | |
| DO3MHA-11 | 2026-09-01 00:57:51 | 49.73994 | 18.01944 | 67° | 26km/h | 17956m | -18.8m/s | -52.5°C | 3.6% | 0hPa | 2.6V | 00:00:00 | 02:10:33 | 00:00:00 | |
| OE5DRO-10 | 2026-09-01 00:57:50 | 49.73991 | 18.01932 | 68° | 31km/h | 17975m | -18.8m/s | -52.5°C | 3.6% | 0hPa | 2.6V | 00:00:00 | 00:00:00 | 00:00:00 | |
| OM5KV | 2026-09-01 00:57:48 | 49.73988 | 18.01919 | 67° | 35km/h | 17993m | -17.7m/s | -52.4°C | 1.0% | 0hPa | 2.6V | 08:19:00 | 00:00:00 | 00:00:00 | |
| PETON7-10 | 2026-09-01 00:57:46 | 49.73977 | 18.01880 | 69° | 29km/h | 18046m | -18.7m/s | -52.2°C | 3.5% | 0hPa | 2.6V | 00:00:00 | 00:00:00 | 00:00:00 | |
| OE5MMP-10 | 2026-09-01 00:57:45 | 49.73973 | 18.01867 | 70° | 33km/h | 18065m | -18.6m/s | -52.3°C | 3.5% | 0hPa | 2.6V | 00:00:00 | 02:10:27 | 00:00:00 | |
| PG1ADW-2 | 2026-09-01 00:57:44 | 49.73971 | 18.01853 | 72° | 26km/h | 18083m | -18.3m/s | -52.4°C | 3.6% | 0hPa | 2.6V | 00:00:00 | 00:00:00 | 00:00:00 | |
| OE3OSB-13 | 2026-09-01 00:57:42 | 49.73965 | 18.01826 | 74° | 35km/h | 18119m | -17.6m/s | -52.5°C | 0.9% | -1.0hPa | 2.6V | 00:00:00 | 00:00:00 | 00:00:00 | |
| OM5KV | 2026-09-01 00:57:41 | 49.73965 | 18.01826 | 75° | 35km/h | 18119m | -17.6m/s | -52.5°C | 1.0% | 0hPa | 2.6V | 08:19:00 | 00:00:00 | 00:00:00 | |
| OM5KV | 2026-09-01 00:57:40 | 49.73961 | 18.01801 | 80° | 33km/h | 18153m | -17.2m/s | -52.3°C | 1.0% | 0hPa | 2.6V | 08:19:00 | 00:00:00 | 00:00:00 | |
| OE5MMP-10 | 2026-09-01 00:57:35 | 49.73955 | 18.01748 | 79° | 20km/h | 18239m | -16.8m/s | -52.6°C | 3.6% | 0hPa | 2.6V | 00:00:00 | 02:10:17 | 00:00:00 | |
| OM5KV | 2026-09-01 00:57:34 | 49.73955 | 18.01748 | 79° | 22km/h | 18239m | -16.8m/s | -52.7°C | 1.0% | 0hPa | 2.5V | 08:19:00 | 00:00:00 | 00:00:00 | |
| OE5DRO-10 | 2026-09-01 00:57:31 | 49.73951 | 18.01718 | 76° | 16km/h | 18311m | -17.2m/s | -52.5°C | 3.6% | 0hPa | 2.5V | 08:18:00 | 00:00:00 | 00:00:00 | |
| SP3WXH-11 | 2026-09-01 00:57:30 | 49.73948 | 18.01704 | 74° | 18km/h | 18346m | -17.8m/s | -52.8°C | 0.9% | -1.0hPa | 2.6V | 00:00:00 | 00:00:00 | 00:00:00 | |
| OM5KV | 2026-09-01 00:57:28 | 49.73948 | 18.01704 | 75° | 18km/h | 18347m | -17.8m/s | -52.8°C | 1.0% | 0hPa | 2.6V | 08:19:00 | 00:00:00 | 00:00:00 | |
| OE5MMP-10 | 2026-09-01 00:57:25 | 49.73945 | 18.01675 | 82° | 16km/h | 18419m | -17.9m/s | -52.9°C | 3.7% | 0hPa | 2.6V | 00:00:00 | 02:10:07 | 00:00:00 | |
| PG1ADW-2 | 2026-09-01 00:57:24 | 49.73944 | 18.01667 | 86° | 13km/h | 18437m | -17.7m/s | -52.9°C | 3.6% | 0hPa | 2.6V | 00:00:00 | 02:10:06 | 00:00:00 | |
| POL1PZ | 2026-09-01 00:57:23 | 49.73944 | 18.01667 | 87° | 20km/h | 18437m | -17.7m/s | -52.9°C | 1.0% | 0hPa | 2.6V | 08:19:00 | 00:00:00 | 00:00:00 | |
| OM5KV | 2026-09-01 00:57:17 | 49.73947 | 18.01624 | 102° | 15km/h | 18541m | -16.6m/s | -53.4°C | 1.1% | 0hPa | 2.6V | 08:19:00 | 00:00:00 | 00:00:00 | |
| PETON7-10 | 2026-09-01 00:57:16 | 49.73949 | 18.01613 | 101° | 7km/h | 18573m | -16.5m/s | -53.1°C | 3.7% | 0hPa | 2.6V | 00:00:00 | 00:00:00 | 00:00:00 | |
| OE5MMP-10 | 2026-09-01 00:57:15 | 49.73949 | 18.01609 | 99° | 7km/h | 18590m | -17.5m/s | -52.8°C | 3.6% | 0hPa | 2.5V | 00:00:00 | 02:09:57 | 00:00:00 | |
| EDDB2-11 | 2026-09-01 00:57:13 | 49.73949 | 18.01603 | 82° | 5km/h | 18623m | -16.7m/s | -52.7°C | 0.8% | -1.0hPa | 2.5V | 00:00:00 | 00:00:00 | 00:00:00 | |
| OE5DRO-10 | 2026-09-01 00:57:12 | 49.73949 | 18.01600 | 61° | 7km/h | 18640m | -17.1m/s | -52.8°C | 3.6% | 0hPa | 2.5V | 00:00:00 | 00:00:00 | 00:00:00 | |
| OE3OSB-13 | 2026-09-01 00:57:11 | 49.73947 | 18.01597 | 56° | 7km/h | 18657m | -17.5m/s | -53.0°C | 0.9% | -1.0hPa | 2.5V | 00:00:00 | 00:00:00 | 00:00:00 | |
| OM5KV | 2026-09-01 00:57:06 | 49.73942 | 18.01587 | 59° | 7km/h | 18727m | -16.8m/s | -53.1°C | 1.0% | 0hPa | 2.5V | 08:19:00 | 00:00:00 | 00:00:00 | |
| OE5MMP-10 | 2026-09-01 00:57:05 | 49.73940 | 18.01583 | 61° | 5km/h | 18761m | -17.5m/s | -53.2°C | 3.7% | 0hPa | 2.5V | 08:19:00 | 02:09:47 | 00:00:00 | |
| PG1ADW-2 | 2026-09-01 00:57:04 | 49.73940 | 18.01581 | 63° | 5km/h | 18779m | -17.8m/s | -53.2°C | 3.7% | 0hPa | 2.5V | 00:00:00 | 00:00:00 | 00:00:00 | |
| POL1PZ | 2026-09-01 00:57:03 | 49.73940 | 18.01581 | 63° | 5km/h | 18779m | -17.8m/s | -53.2°C | 1.0% | 0hPa | 2.5V | 08:19:00 | 00:00:00 | 00:00:00 | |
| SP3WXH-11 | 2026-09-01 00:56:59 | 49.73942 | 18.01571 | 133° | 5km/h | 18880m | -18.3m/s | -53.8°C | 0.9% | -1.0hPa | 2.5V | 00:00:00 | 00:00:00 | 00:00:00 | |
| OE5MMP-10 | 2026-09-01 00:56:55 | 49.73946 | 18.01565 | 136° | 7km/h | 18932m | -17.2m/s | -53.9°C | 4.0% | 0hPa | 2.5V | 00:00:00 | 02:09:37 | 00:00:00 | |
| OM5KV | 2026-09-01 00:56:54 | 49.73946 | 18.01565 | 137° | 9km/h | 18932m | -17.2m/s | -54.0°C | 1.1% | 0hPa | 2.5V | 08:19:00 | 00:00:00 | 00:00:00 | |
| OE5DRO-10 | 2026-09-01 00:56:53 | 49.73949 | 18.01561 | 132° | 7km/h | 18969m | -18.0m/s | -54.0°C | 4.0% | 0hPa | 2.5V | 00:00:00 | 00:00:00 | 00:00:00 | |
| OM5KV | 2026-09-01 00:56:51 | 49.73951 | 18.01558 | 132° | 5km/h | 19004m | -18.6m/s | -54.2°C | 1.1% | 0hPa | 2.5V | 08:19:00 | 00:00:00 | 00:00:00 | |
| DO3MHA-11 | 2026-09-01 00:56:45 | 49.73951 | 18.01555 | 327° | 5km/h | 19113m | -18.1m/s | -53.7°C | 3.9% | 0hPa | 2.5V | 00:00:00 | 02:09:27 | 00:00:00 | |
| PG1ADW-2 | 2026-09-01 00:56:44 | 49.73950 | 18.01556 | 334° | 13km/h | 19131m | -18.4m/s | -53.6°C | 3.9% | 0hPa | 2.6V | 00:00:00 | 00:00:00 | 00:00:00 | |
| OM5KV | 2026-09-01 00:56:43 | 49.73950 | 18.01556 | 335° | 5km/h | 19131m | -18.4m/s | -53.7°C | 1.0% | 0hPa | 2.6V | 08:19:00 | 00:00:00 | 00:00:00 | |
| EDDB2-11 | 2026-09-01 00:56:42 | 49.73947 | 18.01559 | 337° | 9km/h | 19167m | -17.8m/s | -53.5°C | 0.9% | -1.0hPa | 2.6V | 00:00:00 | 00:00:00 | 00:00:00 | |
| OE3OSB-13 | 2026-09-01 00:56:40 | 49.73942 | 18.01562 | 344° | 11km/h | 19202m | -16.8m/s | -53.6°C | 0.9% | -1.0hPa | 2.6V | 00:00:00 | 00:00:00 | 00:00:00 | |
| OM5KV | 2026-09-01 00:56:39 | 49.73941 | 18.01562 | 345° | 11km/h | 19202m | -16.8m/s | -53.6°C | 1.0% | 0hPa | 2.6V | 08:19:00 | 00:00:00 | 00:00:00 | |
| OM5KV | 2026-09-01 00:56:38 | 49.73936 | 18.01563 | 359° | 13km/h | 19235m | -17.0m/s | -53.7°C | 1.0% | 0hPa | 2.6V | 08:19:00 | 00:00:00 | 00:00:00 | |
| PETON7-10 | 2026-09-01 00:56:31 | 49.73920 | 18.01538 | 69° | 16km/h | 19364m | -18.2m/s | -53.2°C | 3.7% | 0hPa | 2.6V | 00:00:00 | 00:00:00 | 00:00:00 | |
| S52SK | 2026-09-01 00:56:30 | 49.73920 | 18.01538 | 70° | 16km/h | 19364m | -18.3m/s | -53.3°C | 1.0% | 0hPa | 2.5V | 08:19:00 | 00:00:00 | 00:00:00 | |
| SP3WXH-11 | 2026-09-01 00:56:28 | 49.73913 | 18.01515 | 58° | 15km/h | 19438m | -19.0m/s | -53.0°C | 0.8% | -1.0hPa | 2.5V | 00:00:00 | 00:00:00 | 00:00:00 | |
| OM5KV | 2026-09-01 00:56:27 | 49.73913 | 18.01515 | 59° | 16km/h | 19439m | -19.0m/s | -53.0°C | 1.0% | 0hPa | 2.5V | 08:20:00 | 00:00:00 | 00:00:00 | |
| OE5MMP-10 | 2026-09-01 00:56:24 | 49.73905 | 18.01501 | 36° | 16km/h | 19494m | -19.1m/s | -52.8°C | 3.6% | 0hPa | 2.5V | 00:00:00 | 02:09:06 | 00:00:00 | |
| OM5KV | 2026-09-01 00:56:21 | 49.73894 | 18.01491 | 30° | 16km/h | 19547m | -17.1m/s | -53.3°C | 1.0% | 0hPa | 2.5V | 08:20:00 | 00:00:00 | 00:00:00 | |
| PETON7-10 | 2026-09-01 00:56:16 | 49.73878 | 18.01473 | 40° | 20km/h | 19638m | -17.2m/s | -53.6°C | 3.9% | 0hPa | 2.5V | 00:00:00 | 00:00:00 | 00:00:00 | |
| OE5DRO-10 | 2026-09-01 00:56:15 | 49.73875 | 18.01470 | 39° | 18km/h | 19655m | -17.3m/s | -53.3°C | 3.8% | 0hPa | 2.5V | 00:00:00 | 00:00:00 | 00:00:00 | |
| OE5MMP-10 | 2026-09-01 00:56:14 | 49.73871 | 18.01466 | 37° | 20km/h | 19673m | -18.8m/s | -53.2°C | 3.8% | 0hPa | 2.5V | 00:00:00 | 02:08:56 | 00:00:00 | |
| EDDB2-11 | 2026-09-01 00:56:11 | 49.73861 | 18.01452 | 46° | 18km/h | 19727m | -16.7m/s | -53.2°C | 0.9% | -1.0hPa | 2.5V | 00:00:00 | 00:00:00 | 00:00:00 | |
| OM5KV | 2026-09-01 00:56:10 | 49.73861 | 18.01451 | 48° | 20km/h | 19727m | -16.7m/s | -53.2°C | 1.0% | 0hPa | 2.5V | 08:20:00 | 00:00:00 | 00:00:00 | |
| OE3OSB-13 | 2026-09-01 00:56:09 | 49.73854 | 18.01439 | 56° | 20km/h | 19760m | -16.1m/s | -53.3°C | 0.9% | -1.0hPa | 2.5V | 00:00:00 | 00:00:00 | 00:00:00 | |
| OM5KV | 2026-09-01 00:56:06 | 49.73847 | 18.01415 | 73° | 22km/h | 19814m | -18.0m/s | -53.6°C | 1.0% | 0hPa | 2.5V | 08:20:00 | 00:00:00 | 00:00:00 | |
| PG1ADW-2 | 2026-09-01 00:56:04 | 49.73845 | 18.01399 | 77° | 22km/h | 19852m | -17.7m/s | -53.7°C | 4.0% | 0hPa | 2.5V | 00:00:00 | 02:08:46 | 00:00:00 | |
| HA6NAB-11 | 2026-09-01 00:56:03 | 49.73845 | 18.01399 | 78° | 20km/h | 19852m | -17.8m/s | -53.8°C | 1.0% | 0hPa | 2.5V | 00:00:00 | 00:00:00 | 00:00:00 | |
| PETON7-10 | 2026-09-01 00:56:01 | 49.73840 | 18.01379 | 68° | 24km/h | 19906m | -18.0m/s | -53.8°C | 4.1% | 0hPa | 2.5V | 00:00:00 | 02:08:43 | 00:00:00 | |
| OM5KV | 2026-09-01 00:55:59 | 49.73838 | 18.01373 | 58° | 16km/h | 19924m | -17.3m/s | -53.8°C | 1.0% | 0hPa | 2.5V | 08:20:00 | 00:00:00 | 00:00:00 | |
| HA6NAB-11 | 2026-09-01 00:55:58 | 49.73836 | 18.01368 | 53° | 16km/h | 19941m | -18.2m/s | -53.6°C | 1.1% | 0hPa | 2.5V | 00:00:00 | 00:00:00 | 00:00:00 | |
| OE5DRO-10 | 2026-09-01 00:55:56 | 49.73825 | 18.01353 | 38° | 20km/h | 19996m | -17.7m/s | -53.4°C | 3.9% | 0hPa | 2.5V | 00:00:00 | 00:00:00 | 00:00:00 | |
| OE5MMP-10 | 2026-09-01 00:55:54 | 49.73816 | 18.01342 | 37° | 26km/h | 20031m | -16.6m/s | -53.6°C | 4.1% | 0hPa | 2.5V | 00:00:00 | 02:08:36 | 00:00:00 | |
| OM5KV | 2026-09-01 00:55:52 | 49.73810 | 18.01335 | 39° | 27km/h | 20048m | -16.9m/s | -53.7°C | 1.0% | 0hPa | 2.5V | 08:20:00 | 00:00:00 | 00:00:00 | |
| OM5KV | 2026-09-01 00:55:48 | 49.73790 | 18.01305 | 51° | 26km/h | 20119m | -18.2m/s | -53.3°C | 1.0% | 0hPa | 2.5V | 08:20:00 | 00:00:00 | 00:00:00 | |
| HA6NAB-11 | 2026-09-01 00:55:47 | 49.73786 | 18.01297 | 56° | 24km/h | 20137m | -17.7m/s | -53.2°C | 1.0% | 0hPa | 2.5V | 00:00:00 | 00:00:00 | 00:00:00 | |
| PETON7-10 | 2026-09-01 00:55:46 | 49.73780 | 18.01282 | 62° | 9km/h | 20170m | -16.0m/s | -53.0°C | 3.8% | 0hPa | 2.5V | 08:20:00 | 00:00:00 | 00:00:00 | |
| OE5MMP-10 | 2026-09-01 00:55:44 | 49.73776 | 18.01270 | 67° | 9km/h | 20202m | -16.5m/s | -53.0°C | 3.8% | 0hPa | 2.5V | 00:00:00 | 02:08:26 | 00:00:00 | |
| OM5KV | 2026-09-01 00:55:43 | 49.73774 | 18.01264 | 69° | 15km/h | 20219m | -16.4m/s | -53.1°C | 1.0% | 0hPa | 2.5V | 08:20:00 | 00:00:00 | 00:00:00 | |
| POL1PZ | 2026-09-01 00:55:41 | 49.73773 | 18.01260 | 71° | 13km/h | 20236m | -17.4m/s | -52.9°C | 1.0% | 0hPa | 2.5V | 08:20:00 | 00:00:00 | 00:00:00 | |
| EDDB2-11 | 2026-09-01 00:55:40 | 49.73771 | 18.01252 | 68° | 9km/h | 20271m | -18.2m/s | -52.4°C | 0.8% | -1.0hPa | 2.5V | 00:00:00 | 00:00:00 | 00:00:00 | |
| OE3OSB-13 | 2026-09-01 00:55:38 | 49.73770 | 18.01246 | 68° | 5km/h | 20305m | -16.7m/s | -52.4°C | 0.8% | -1.0hPa | 2.5V | 00:00:00 | 00:00:00 | 00:00:00 | |
| OE5DRO-10 | 2026-09-01 00:55:37 | 49.73769 | 18.01244 | 67° | 5km/h | 20322m | -16.2m/s | -52.4°C | 3.6% | 0hPa | 2.5V | 00:00:00 | 00:00:00 | 00:00:00 | |
| OM5KV | 2026-09-01 00:55:35 | 49.73768 | 18.01242 | 48° | 4km/h | 20340m | -18.1m/s | -52.5°C | 1.0% | 0hPa | 2.5V | 08:21:00 | 00:00:00 | 00:00:00 | |
| OE5MMP-10 | 2026-09-01 00:55:34 | 49.73768 | 18.01242 | 310° | 4km/h | 20376m | -17.6m/s | -52.6°C | 3.7% | 0hPa | 2.5V | 08:20:00 | 02:08:16 | 00:00:00 | |
| OM5KV | 2026-09-01 00:55:32 | 49.73767 | 18.01242 | 274° | 2km/h | 20393m | -16.2m/s | -52.8°C | 1.0% | 0hPa | 2.5V | 08:21:00 | 00:00:00 | 00:00:00 | |
| PETON7-10 | 2026-09-01 00:55:31 | 49.73768 | 18.01245 | 258° | 9km/h | 20427m | -17.7m/s | -52.9°C | 3.7% | 0hPa | 2.5V | 00:00:00 | 00:00:00 | 00:00:00 | |
| OM5KV | 2026-09-01 00:55:30 | 49.73767 | 18.01245 | 258° | 5km/h | 20427m | -17.8m/s | -53.0°C | 1.0% | 0hPa | 2.5V | 08:21:00 | 00:00:00 | 00:00:00 | |
| NBG1-10 | 2026-09-01 00:55:29 | 49.73768 | 18.01249 | 256° | 15km/h | 20462m | -17.3m/s | -53.0°C | 3.8% | 0hPa | 2.5V | 00:00:00 | 02:08:11 | 00:00:00 | |
| DO3MHA-11 | 2026-09-01 00:55:28 | 49.73769 | 18.01251 | 255° | 7km/h | 20479m | -16.0m/s | -53.2°C | 3.8% | 0hPa | 2.5V | 00:00:00 | 02:08:10 | 00:00:00 | |
| OM5KV | 2026-09-01 00:55:26 | 49.73769 | 18.01252 | 279° | 4km/h | 20496m | -18.3m/s | -53.3°C | 1.0% | 0hPa | 2.5V | 08:21:00 | 00:00:00 | 00:00:00 | |
| SP3WXH-11 | 2026-09-01 00:55:25 | 49.73768 | 18.01254 | 330° | 4km/h | 20529m | -17.7m/s | -53.5°C | 0.9% | -1.0hPa | 2.5V | 00:00:00 | 00:00:00 | 00:00:00 | |
| OE5MMP-10 | 2026-09-01 00:55:24 | 49.73767 | 18.01255 | 349° | 15km/h | 20548m | -18.3m/s | -53.4°C | 3.9% | 0hPa | 2.5V | 00:00:00 | 02:08:06 | 00:00:00 | |
| POL1PZ | 2026-09-01 00:55:20 | 49.73761 | 18.01253 | 26° | 11km/h | 20603m | -18.2m/s | -52.6°C | 0.9% | 0hPa | 2.5V | 08:21:00 | 00:00:00 | 00:00:00 | |
| OE5DRO-10 | 2026-09-01 00:55:18 | 49.73751 | 18.01243 | 39° | 16km/h | 20658m | -16.8m/s | -52.5°C | 3.6% | 0hPa | 2.5V | 00:00:00 | 00:00:00 | 00:00:00 | |
| PETON7-10 | 2026-09-01 00:55:16 | 49.73743 | 18.01232 | 48° | 16km/h | 20694m | -17.9m/s | -52.7°C | 3.7% | 0hPa | 2.5V | 00:00:00 | 02:07:58 | 00:00:00 | |
| OE5MMP-10 | 2026-09-01 00:55:14 | 49.73736 | 18.01219 | 54° | 16km/h | 20730m | -17.9m/s | -53.0°C | 3.8% | 0hPa | 2.5V | 00:00:00 | 02:07:56 | 00:00:00 | |
| OM5KV | 2026-09-01 00:55:12 | 49.73734 | 18.01212 | 62° | 20km/h | 20748m | -18.2m/s | -53.2°C | 1.0% | 0hPa | 2.5V | 08:21:00 | 00:00:00 | 00:00:00 | |
| EDDB2-11 | 2026-09-01 00:55:09 | 49.73727 | 18.01187 | 69° | 15km/h | 20821m | -17.9m/s | -53.4°C | 0.9% | -1.0hPa | 2.5V | 00:00:00 | 00:00:00 | 00:00:00 | |
| DO3MHA-11 | 2026-09-01 00:55:08 | 49.73725 | 18.01182 | 61° | 13km/h | 20840m | -18.6m/s | -53.2°C | 3.9% | 0hPa | 2.5V | 00:00:00 | 02:07:50 | 00:00:00 | |
| OE3OSB-13 | 2026-09-01 00:55:07 | 49.73723 | 18.01177 | 48° | 11km/h | 20858m | -17.8m/s | -53.2°C | 0.8% | -1.0hPa | 2.5V | 00:00:00 | 00:00:00 | 00:00:00 | |
| OM5KV | 2026-09-01 00:55:06 | 49.73723 | 18.01177 | 50° | 13km/h | 20858m | -17.8m/s | -53.2°C | 1.0% | 0hPa | 2.5V | 08:21:00 | 00:00:00 | 00:00:00 | |
| OE5MMP-10 | 2026-09-01 00:55:04 | 49.73715 | 18.01169 | 20° | 15km/h | 20910m | -16.9m/s | -53.1°C | 3.9% | 0hPa | 2.5V | 00:00:00 | 02:07:46 | 00:00:00 | |
| SP3WXH-11 | 2026-09-01 00:54:54 | 49.73686 | 18.01145 | 50° | 15km/h | 21099m | -19.1m/s | -52.6°C | 0.8% | -1.0hPa | 2.6V | 00:00:00 | 00:00:00 | 00:00:00 | |
| OE5MMP-10 | 2026-09-01 00:54:50 | 49.73677 | 18.01123 | 65° | 18km/h | 21169m | -16.3m/s | -52.4°C | 3.6% | 0hPa | 2.6V | 00:00:00 | 02:07:32 | 00:00:00 | |
| DO3MHA-11 | 2026-09-01 00:54:48 | 49.73673 | 18.01109 | 74° | 16km/h | 21204m | -18.2m/s | -52.3°C | 3.5% | 0hPa | 2.6V | 00:00:00 | 02:07:30 | 00:00:00 | |
| PETON7-10 | 2026-09-01 00:54:46 | 49.73671 | 18.01094 | 85° | 16km/h | 21242m | -19.2m/s | -52.5°C | 3.6% | 0hPa | 2.6V | 00:00:00 | 00:00:00 | 00:00:00 | |
| OM5KV | 2026-09-01 00:54:45 | 49.73671 | 18.01094 | 86° | 18km/h | 21242m | -19.2m/s | -52.5°C | 0.9% | 0hPa | 2.6V | 08:22:00 | 00:00:00 | 00:00:00 | |
| PG1ADW-2 | 2026-09-01 00:54:44 | 49.73671 | 18.01080 | 91° | 16km/h | 21278m | -17.2m/s | -52.7°C | 3.7% | 0hPa | 2.6V | 00:00:00 | 02:07:26 | 00:00:00 | |
| OE5MMP-10 | 2026-09-01 00:54:40 | 49.73669 | 18.01058 | 69° | 16km/h | 21349m | -17.8m/s | -52.8°C | 3.7% | 0hPa | 2.6V | 00:00:00 | 02:07:22 | 00:00:00 | |
| OM5KV | 2026-09-01 00:54:39 | 49.73669 | 18.01058 | 70° | 15km/h | 21349m | -17.8m/s | -52.8°C | 0.9% | 0hPa | 2.6V | 08:22:00 | 00:00:00 | 00:00:00 | |
| DO3MHA-11 | 2026-09-01 00:54:38 | 49.73665 | 18.01047 | 59° | 16km/h | 21384m | -18.2m/s | -52.8°C | 3.7% | 0hPa | 2.6V | 08:21:00 | 02:07:20 | 00:00:00 | |
| S52SK | 2026-09-01 00:54:37 | 49.73665 | 18.01047 | 60° | 16km/h | 21384m | -18.3m/s | -52.8°C | 0.9% | 0hPa | 2.5V | 00:00:00 | 00:00:00 | 00:00:00 | |
| OE3OSB-13 | 2026-09-01 00:54:36 | 49.73661 | 18.01036 | 57° | 16km/h | 21420m | -16.8m/s | -52.9°C | 0.8% | -1.0hPa | 2.5V | 00:00:00 | 00:00:00 | 00:00:00 | |
| OM5KV | 2026-09-01 00:54:34 | 49.73658 | 18.01030 | 63° | 18km/h | 21438m | -18.7m/s | -52.9°C | 0.9% | 0hPa | 2.5V | 08:22:00 | 00:00:00 | 00:00:00 | |
| OM5KV | 2026-09-01 00:54:33 | 49.73656 | 18.01023 | 68° | 18km/h | 21456m | -19.0m/s | -52.9°C | 0.9% | 0hPa | 2.5V | 08:22:00 | 00:00:00 | 00:00:00 | |
| PETON7-10 | 2026-09-01 00:54:31 | 49.73652 | 18.01004 | 72° | 15km/h | 21511m | -18.5m/s | -53.1°C | 3.8% | 0hPa | 2.5V | 00:00:00 | 02:07:13 | 00:00:00 | |
| OE5MMP-10 | 2026-09-01 00:54:30 | 49.73650 | 18.00998 | 70° | 16km/h | 21530m | -19.5m/s | -53.2°C | 3.8% | 0hPa | 2.5V | 00:00:00 | 02:07:12 | 00:00:00 | |
| DO3MHA-11 | 2026-09-01 00:54:28 | 49.73647 | 18.00987 | 67° | 16km/h | 21567m | -17.4m/s | -53.1°C | 3.8% | 0hPa | 2.5V | 00:00:00 | 02:07:10 | 00:00:00 | |
| OM5KV | 2026-09-01 00:54:27 | 49.73647 | 18.00987 | 67° | 15km/h | 21567m | -17.4m/s | -53.2°C | 0.9% | 0hPa | 2.5V | 08:22:00 | 00:00:00 | 00:00:00 | |
| HA6NAB-11 | 2026-09-01 00:54:25 | 49.73644 | 18.00978 | 59° | 15km/h | 21604m | -18.0m/s | -53.2°C | 1.0% | 0hPa | 2.5V | 08:22:00 | 00:00:00 | 00:00:00 | |
| PG1ADW-2 | 2026-09-01 00:54:24 | 49.73640 | 18.00967 | 64° | 15km/h | 21641m | -18.9m/s | -53.3°C | 3.9% | 0hPa | 2.5V | 00:00:00 | 00:00:00 | 00:00:00 | |
| SP3WXH-11 | 2026-09-01 00:54:23 | 49.73638 | 18.00961 | 66° | 16km/h | 21660m | -19.1m/s | -53.4°C | 0.9% | -1.0hPa | 2.5V | 00:00:00 | 00:00:00 | 00:00:00 | |
| OE5DRO-10 | 2026-09-01 00:54:21 | 49.73636 | 18.00949 | 76° | 15km/h | 21698m | -18.3m/s | -53.3°C | 3.8% | 0hPa | 2.5V | 00:00:00 | 00:00:00 | 00:00:00 | |
| OE5MMP-10 | 2026-09-01 00:54:20 | 49.73634 | 18.00943 | 79° | 13km/h | 21717m | -19.3m/s | -53.2°C | 3.8% | 0hPa | 2.5V | 00:00:00 | 02:07:02 | 00:00:00 | |
| DO3MHA-11 | 2026-09-01 00:54:18 | 49.73634 | 18.00931 | 90° | 13km/h | 21753m | -19.4m/s | -53.2°C | 3.8% | 0hPa | 2.5V | 00:00:00 | 02:07:00 | 00:00:00 | |
| PETON7-10 | 2026-09-01 00:54:16 | 49.73634 | 18.00921 | 97° | 15km/h | 21792m | -18.8m/s | -53.3°C | 3.8% | 0hPa | 2.5V | 00:00:00 | 00:00:00 | 00:00:00 | |
| HA6NAB-11 | 2026-09-01 00:54:12 | 49.73636 | 18.00908 | 117° | 11km/h | 21850m | -19.6m/s | -53.2°C | 1.0% | 0hPa | 2.6V | 08:22:00 | 00:00:00 | 00:00:00 | |
| OE5MMP-10 | 2026-09-01 00:54:10 | 49.73642 | 18.00898 | 151° | 16km/h | 21907m | -18.7m/s | -53.0°C | 3.8% | 0hPa | 2.6V | 00:00:00 | 02:06:52 | 00:00:00 | |
| OM5KV | 2026-09-01 00:54:09 | 49.73642 | 18.00898 | 152° | 11km/h | 21907m | -18.7m/s | -53.1°C | 0.9% | 0hPa | 2.6V | 08:22:00 | 00:00:00 | 00:00:00 | |
| DO3MHA-11 | 2026-09-01 00:54:08 | 49.73649 | 18.00896 | 179° | 16km/h | 21945m | -19.7m/s | -52.9°C | 3.7% | 0hPa | 2.6V | 00:00:00 | 02:06:50 | 00:00:00 | |
| HA6NAB-11 | 2026-09-01 00:54:06 | 49.73652 | 18.00897 | 193° | 15km/h | 21964m | -18.7m/s | -52.8°C | 0.9% | 0hPa | 2.5V | 08:22:00 | 00:00:00 | 00:00:00 | |
| OE3OSB-13 | 2026-09-01 00:54:05 | 49.73660 | 18.00901 | 207° | 15km/h | 22002m | -19.0m/s | -53.0°C | 0.8% | -1.0hPa | 2.5V | 00:00:00 | 00:00:00 | 00:00:00 | |
| PG1ADW-2 | 2026-09-01 00:54:04 | 49.73663 | 18.00905 | 220° | 16km/h | 22021m | -19.1m/s | -53.0°C | 3.7% | 0hPa | 2.5V | 00:00:00 | 00:00:00 | 00:00:00 | |
| OM5KV | 2026-09-01 00:54:03 | 49.73663 | 18.00905 | 221° | 18km/h | 22021m | -19.2m/s | -53.0°C | 0.9% | 0hPa | 2.6V | 08:22:00 | 00:00:00 | 00:00:00 | |
| SP3WXH-11 | 2026-09-01 00:53:52 | 49.73679 | 18.00964 | 304° | 11km/h | 22253m | -18.9m/s | -53.6°C | 0.8% | -1.0hPa | 2.6V | 00:00:00 | 00:00:00 | 00:00:00 | |
| HA6NAB-11 | 2026-09-01 00:53:50 | 49.73678 | 18.00968 | 313° | 13km/h | 22272m | -18.4m/s | -53.6°C | 0.9% | 0hPa | 2.6V | 08:23:00 | 00:00:00 | 00:00:00 | |
| OM5KV | 2026-09-01 00:53:48 | 49.73669 | 18.00979 | 329° | 18km/h | 22329m | -19.1m/s | -53.5°C | 1.0% | 0hPa | 2.6V | 08:23:00 | 00:00:00 | 00:00:00 | |
| GYPAP8-17 | 2026-09-01 00:53:46 | 49.73660 | 18.00986 | 342° | 20km/h | 22367m | -19.1m/s | -53.5°C | 0.9% | 0hPa | 2.6V | 00:00:00 | 00:00:00 | 00:00:00 | |
| PG1ADW-2 | 2026-09-01 00:53:44 | 49.73650 | 18.00990 | 353° | 16km/h | 22403m | -17.5m/s | -53.4°C | 3.8% | 0hPa | 2.6V | 00:00:00 | 00:00:00 | 00:00:00 | |
| OE5DRO-10 | 2026-09-01 00:53:43 | 49.73645 | 18.00990 | 1° | 16km/h | 22422m | -19.5m/s | -53.5°C | 3.8% | 0hPa | 2.6V | 00:00:00 | 00:00:00 | 00:00:00 | |
| OM5KV | 2026-09-01 00:53:42 | 49.73645 | 18.00990 | 2° | 18km/h | 22422m | -19.5m/s | -53.5°C | 0.9% | 0hPa | 2.6V | 08:23:00 | 00:00:00 | 00:00:00 | |
| OM5KV | 2026-09-01 00:53:41 | 49.73641 | 18.00989 | 10° | 18km/h | 22442m | -19.9m/s | -53.6°C | 1.0% | 0hPa | 2.6V | 08:23:00 | 00:00:00 | 00:00:00 | |
| OE5MMP-10 | 2026-09-01 00:53:40 | 49.73632 | 18.00985 | 26° | 16km/h | 22481m | -19.3m/s | -53.6°C | 3.9% | 0hPa | 2.6V | 00:00:00 | 02:06:22 | 00:00:00 | |
| HA6NAB-11 | 2026-09-01 00:53:39 | 49.73632 | 18.00985 | 26° | 18km/h | 22481m | -19.3m/s | -53.7°C | 1.0% | 0hPa | 2.6V | 08:23:00 | 00:00:00 | 00:00:00 | |
| DO3MHA-11 | 2026-09-01 00:53:38 | 49.73625 | 18.00978 | 40° | 16km/h | 22520m | -19.5m/s | -53.6°C | 3.8% | 0hPa | 2.6V | 00:00:00 | 02:06:20 | 00:00:00 | |
| POL1PZ | 2026-09-01 00:53:37 | 49.73625 | 18.00978 | 41° | 16km/h | 22520m | -19.6m/s | -53.6°C | 0.9% | 0hPa | 2.5V | 08:23:00 | 00:00:00 | 00:00:00 | |
| HA6NAB-11 | 2026-09-01 00:53:33 | 49.73614 | 18.00958 | 57° | 16km/h | 22598m | -18.2m/s | -53.7°C | 0.9% | 0hPa | 2.5V | 08:23:00 | 00:00:00 | 00:00:00 | |
| PETON7-10 | 2026-09-01 00:53:31 | 49.73606 | 18.00943 | 47° | 9km/h | 22652m | -17.6m/s | -53.7°C | 3.9% | 0hPa | 2.5V | 08:22:00 | 00:00:00 | 00:00:00 | |
| OE5MMP-10 | 2026-09-01 00:53:30 | 49.73604 | 18.00939 | 45° | 11km/h | 22670m | -17.2m/s | -53.6°C | 3.8% | 0hPa | 2.5V | 00:00:00 | 02:06:12 | 00:00:00 | |
| DO3MHA-11 | 2026-09-01 00:53:28 | 49.73599 | 18.00932 | 40° | 7km/h | 22708m | -20.6m/s | -53.6°C | 3.8% | 0hPa | 2.6V | 00:00:00 | 02:06:10 | 00:00:00 | |
| OM5KV | 2026-09-01 00:53:25 | 49.73594 | 18.00926 | 43° | 11km/h | 22748m | -19.0m/s | -53.7°C | 1.0% | 0hPa | 2.6V | 08:23:00 | 00:00:00 | 00:00:00 | |
| OE5DRO-10 | 2026-09-01 00:53:24 | 49.73590 | 18.00920 | 50° | 7km/h | 22786m | -18.8m/s | -53.8°C | 3.9% | 0hPa | 2.6V | 00:00:00 | 00:00:00 | 00:00:00 | |
| SP3WXH-11 | 2026-09-01 00:53:21 | 49.73587 | 18.00913 | 63° | 4km/h | 22844m | -19.4m/s | -54.1°C | 0.8% | -1.0hPa | 2.6V | 00:00:00 | 00:00:00 | 00:00:00 | |
| OE5MMP-10 | 2026-09-01 00:53:20 | 49.73586 | 18.00912 | 57° | 7km/h | 22862m | -17.9m/s | -54.1°C | 3.9% | 0hPa | 2.6V | 00:00:00 | 02:06:02 | 00:00:00 | |
| OM5KV | 2026-09-01 00:53:19 | 49.73586 | 18.00912 | 58° | 4km/h | 22862m | -18.0m/s | -54.2°C | 1.0% | 0hPa | 2.6V | 08:23:00 | 00:00:00 | 00:00:00 | |
| DO3MHA-11 | 2026-09-01 00:53:18 | 49.73586 | 18.00911 | 310° | 9km/h | 22900m | -20.1m/s | -54.2°C | 4.0% | 0hPa | 2.6V | 00:00:00 | 02:06:00 | 00:00:00 | |
| PETON7-10 | 2026-09-01 00:53:16 | 49.73585 | 18.00914 | 286° | 13km/h | 22942m | -21.1m/s | -54.4°C | 4.0% | 0hPa | 2.6V | 00:00:00 | 00:00:00 | 00:00:00 | |
| HA6NAB-11 | 2026-09-01 00:53:15 | 49.73584 | 18.00917 | 287° | 7km/h | 22963m | -22.1m/s | -54.5°C | 1.0% | 0hPa | 2.6V | 08:23:00 | 00:00:00 | 00:00:00 | |
| OK1SLM-15 | 2026-09-01 00:53:14 | 49.73584 | 18.00917 | 287° | 7km/h | 22963m | -22.1m/s | -54.5°C | 1.0% | 0hPa | 2.6V | 08:23:00 | 00:00:00 | 00:00:00 | |
| OM5KV | 2026-09-01 00:53:13 | 49.73583 | 18.00924 | 285° | 11km/h | 23007m | -21.5m/s | -54.3°C | 1.0% | 0hPa | 2.6V | 08:23:00 | 00:00:00 | 00:00:00 | |
| OE5MMP-10 | 2026-09-01 00:53:10 | 49.73580 | 18.00936 | 302° | 15km/h | 23073m | -21.9m/s | -53.9°C | 3.9% | 0hPa | 2.6V | 00:00:00 | 02:05:52 | 00:00:00 | |
| OK1SLM-15 | 2026-09-01 00:53:09 | 49.73580 | 18.00936 | 303° | 11km/h | 23073m | -21.9m/s | -54.0°C | 0.9% | 0hPa | 2.6V | 08:23:00 | 00:00:00 | 00:00:00 | |
| DO3MHA-11 | 2026-09-01 00:53:08 | 49.73577 | 18.00942 | 320° | 15km/h | 23116m | -20.3m/s | -53.9°C | 3.9% | 0hPa | 2.6V | 08:23:00 | 02:05:50 | 00:00:00 | |
| OE5DRO-10 | 2026-09-01 00:53:05 | 49.73568 | 18.00948 | 343° | 9km/h | 23179m | -21.4m/s | -54.0°C | 4.0% | 0hPa | 2.5V | 00:00:00 | 00:00:00 | 00:00:00 | |
| PG1ADW-2 | 2026-09-01 00:53:04 | 49.73564 | 18.00950 | 342° | 9km/h | 23200m | -20.6m/s | -54.1°C | 4.0% | 0hPa | 2.5V | 00:00:00 | 00:00:00 | 00:00:00 | |
| OE3OSB-13 | 2026-09-01 00:53:03 | 49.73555 | 18.00955 | 339° | 15km/h | 23243m | -21.8m/s | -54.3°C | 0.9% | -1.0hPa | 2.5V | 00:00:00 | 00:00:00 | 00:00:00 | |
| PETON7-10 | 2026-09-01 00:53:01 | 49.73552 | 18.00957 | 341° | 7km/h | 23266m | -23.4m/s | -54.3°C | 4.1% | 0hPa | 2.5V | 00:00:00 | 02:05:43 | 00:00:00 | |
| OE5MMP-10 | 2026-09-01 00:53:00 | 49.73549 | 18.00958 | 343° | 7km/h | 23289m | -23.2m/s | -54.4°C | 4.1% | 0hPa | 2.5V | 00:00:00 | 02:05:42 | 00:00:00 | |
| OM5KV | 2026-09-01 00:52:59 | 49.73549 | 18.00958 | 344° | 11km/h | 23289m | -23.3m/s | -54.4°C | 1.0% | 0hPa | 2.6V | 08:24:00 | 00:00:00 | 00:00:00 | |
| DO3MHA-11 | 2026-09-01 00:52:58 | 49.73545 | 18.00960 | 6° | 5km/h | 23335m | -23.2m/s | -54.5°C | 4.2% | 0hPa | 2.6V | 00:00:00 | 02:05:40 | 00:00:00 | |
| HA6NAB-11 | 2026-09-01 00:52:57 | 49.73545 | 18.00960 | 6° | 7km/h | 23335m | -23.3m/s | -54.5°C | 1.0% | 0hPa | 2.6V | 00:00:00 | 00:00:00 | 00:00:00 | |
| POL1PZ | 2026-09-01 00:52:56 | 49.73543 | 18.00959 | 19° | 7km/h | 23357m | -21.1m/s | -54.5°C | 1.0% | 0hPa | 2.6V | 08:24:00 | 00:00:00 | 00:00:00 | |
| OM5KV | 2026-09-01 00:52:53 | 49.73538 | 18.00955 | 34° | 7km/h | 23424m | -23.4m/s | -54.7°C | 1.0% | 0hPa | 2.6V | 08:24:00 | 00:00:00 | 00:00:00 | |
| HA6NAB-11 | 2026-09-01 00:52:51 | 49.73536 | 18.00954 | 350° | 4km/h | 23470m | -24.4m/s | -54.6°C | 1.0% | 0hPa | 2.6V | 00:00:00 | 00:00:00 | 00:00:00 | |
| OE5MMP-10 | 2026-09-01 00:52:50 | 49.73534 | 18.00956 | 304° | 11km/h | 23517m | -22.5m/s | -54.6°C | 4.4% | 0hPa | 2.6V | 00:00:00 | 02:05:32 | 00:00:00 | |
| OM5KV | 2026-09-01 00:52:49 | 49.73534 | 18.00956 | 305° | 5km/h | 23517m | -22.6m/s | -54.6°C | 1.0% | 0hPa | 2.6V | 08:24:00 | 00:00:00 | 00:00:00 | |
| DO3MHA-11 | 2026-09-01 00:52:48 | 49.73533 | 18.00961 | 288° | 13km/h | 23560m | -22.4m/s | -54.5°C | 4.4% | 0hPa | 2.6V | 00:00:00 | 02:05:30 | 00:00:00 | |
| PETON7-10 | 2026-09-01 00:52:46 | 49.73532 | 18.00968 | 291° | 11km/h | 23605m | -23.0m/s | -54.1°C | 4.3% | 0hPa | 2.6V | 00:00:00 | 00:00:00 | 00:00:00 | |
| OM5KV | 2026-09-01 00:52:44 | 49.73529 | 18.00975 | 309° | 11km/h | 23650m | -22.3m/s | -53.7°C | 1.0% | 0hPa | 2.5V | 08:24:00 | 00:00:00 | 00:00:00 | |
| OM5KV | 2026-09-01 00:52:42 | 49.73527 | 18.00978 | 318° | 13km/h | 23673m | -22.9m/s | -53.6°C | 1.0% | 0hPa | 2.5V | 08:24:00 | 00:00:00 | 00:00:00 | |
| OE5MMP-10 | 2026-09-01 00:52:40 | 49.73519 | 18.00989 | 324° | 11km/h | 23742m | -21.3m/s | -53.0°C | 3.9% | 0hPa | 2.5V | 00:00:00 | 02:05:22 | 00:00:00 | |
| DO3MHA-11 | 2026-09-01 00:52:38 | 49.73512 | 18.00996 | 326° | 9km/h | 23785m | -21.8m/s | -53.1°C | 3.9% | 0hPa | 2.5V | 00:00:00 | 02:05:20 | 00:00:00 | |
| OM5KV | 2026-09-01 00:52:37 | 49.73512 | 18.00996 | 327° | 15km/h | 23785m | -21.9m/s | -53.2°C | 0.9% | 0hPa | 2.6V | 08:24:00 | 00:00:00 | 00:00:00 | |
| POL1PZ | 2026-09-01 00:52:36 | 49.73509 | 18.00999 | 332° | 15km/h | 23806m | -20.6m/s | -53.0°C | 0.9% | 0hPa | 2.6V | 08:24:00 | 00:00:00 | 00:00:00 | |
| OE3OSB-13 | 2026-09-01 00:52:32 | 49.73496 | 18.01002 | 39° | 7km/h | 23938m | -20.8m/s | -52.3°C | 0.8% | -1.0hPa | 2.6V | 00:00:00 | 00:00:00 | 00:00:00 | |
| PETON7-10 | 2026-09-01 00:52:31 | 49.73496 | 18.01002 | 40° | 7km/h | 23938m | -20.8m/s | -52.3°C | 3.7% | 0hPa | 2.6V | 00:00:00 | 00:00:00 | 00:00:00 | |
| OE5MMP-10 | 2026-09-01 00:52:30 | 49.73495 | 18.01000 | 49° | 5km/h | 23959m | -21.3m/s | -52.2°C | 3.6% | 0hPa | 2.6V | 08:23:00 | 02:05:12 | 00:00:00 | |
| NBG1-10 | 2026-09-01 00:52:29 | 49.73493 | 18.00997 | 52° | 11km/h | 23980m | -20.8m/s | -52.0°C | 3.6% | 0hPa | 2.6V | 00:00:00 | 02:05:11 | 00:00:00 | |
| DO3MHA-11 | 2026-09-01 00:52:28 | 49.73492 | 18.00995 | 58° | 5km/h | 24001m | -20.7m/s | -51.9°C | 3.5% | 0hPa | 2.5V | 00:00:00 | 02:05:10 | 00:00:00 | |
| OE5DRO-10 | 2026-09-01 00:52:27 | 49.73491 | 18.00992 | 64° | 15km/h | 24022m | -21.0m/s | -51.9°C | 3.5% | 0hPa | 2.5V | 00:00:00 | 00:00:00 | 00:00:00 | |
| OM5KV | 2026-09-01 00:52:26 | 49.73490 | 18.00989 | 78° | 5km/h | 24044m | -23.8m/s | -52.1°C | 0.8% | 0hPa | 2.5V | 08:24:00 | 00:00:00 | 00:00:00 | |
| PG1ADW-2 | 2026-09-01 00:52:24 | 49.73490 | 18.00986 | 104° | 18km/h | 24090m | -22.5m/s | -52.2°C | 3.6% | 0hPa | 2.5V | 00:00:00 | 00:00:00 | 00:00:00 | |
| OE5MMP-10 | 2026-09-01 00:52:20 | 49.73492 | 18.00987 | 258° | 18km/h | 24179m | -22.5m/s | -52.2°C | 3.5% | 0hPa | 2.5V | 00:00:00 | 02:05:02 | 00:00:00 | |
| SP3WXH-11 | 2026-09-01 00:52:19 | 49.73492 | 18.00989 | 266° | 7km/h | 24202m | -23.5m/s | -52.1°C | 0.7% | -1.0hPa | 2.5V | 00:00:00 | 00:00:00 | 00:00:00 | |
| DO3MHA-11 | 2026-09-01 00:52:18 | 49.73492 | 18.00993 | 273° | 22km/h | 24226m | -23.9m/s | -52.0°C | 3.5% | 0hPa | 2.5V | 00:00:00 | 02:05:00 | 00:00:00 | |
| OM5KV | 2026-09-01 00:52:16 | 49.73491 | 18.01004 | 278° | 16km/h | 24272m | -21.7m/s | -52.3°C | 0.8% | 0hPa | 2.5V | 08:24:00 | 00:00:00 | 00:00:00 | |
| POL1PZ | 2026-09-01 00:52:15 | 49.73491 | 18.01004 | 278° | 16km/h | 24272m | -21.7m/s | -52.3°C | 0.8% | 0hPa | 2.5V | 08:24:00 | 00:00:00 | 00:00:00 | |
| OM5KV | 2026-09-01 00:52:14 | 49.73490 | 18.01010 | 282° | 20km/h | 24295m | -25.4m/s | -52.4°C | 0.8% | 0hPa | 2.5V | 08:24:00 | 00:00:00 | 00:00:00 | |
| OE5MMP-10 | 2026-09-01 00:52:10 | 49.73481 | 18.01057 | 293° | 29km/h | 24416m | -21.4m/s | -52.6°C | 3.7% | 0hPa | 2.5V | 00:00:00 | 02:04:52 | 00:00:00 | |
| OE5DRO-10 | 2026-09-01 00:52:08 | 49.73475 | 18.01077 | 300° | 24km/h | 24457m | -20.6m/s | -52.8°C | 3.8% | 0hPa | 2.5V | 00:00:00 | 00:00:00 | 00:00:00 | |
| PG1ADW-2 | 2026-09-01 00:52:04 | 49.73456 | 18.01110 | 321° | 18km/h | 24548m | -22.2m/s | -53.1°C | 4.0% | 0hPa | 2.5V | 08:24:00 | 02:04:46 | 00:00:00 | |
| OM5KV | 2026-09-01 00:52:03 | 49.73456 | 18.01110 | 322° | 27km/h | 24548m | -22.2m/s | -53.1°C | 0.9% | 0hPa | 2.5V | 08:24:00 | 00:00:00 | 00:00:00 | |
| OE3OSB-13 | 2026-09-01 00:52:01 | 49.73432 | 18.01135 | 330° | 27km/h | 24635m | -21.6m/s | -52.8°C | 0.8% | -1.0hPa | 2.5V | 00:00:00 | 00:00:00 | 00:00:00 | |
| OE5MMP-10 | 2026-09-01 00:52:00 | 49.73432 | 18.01135 | 331° | 20km/h | 24635m | -21.5m/s | -52.7°C | 3.9% | 0hPa | 2.5V | 00:00:00 | 02:04:42 | 00:00:00 | |
| DO3MHA-11 | 2026-09-01 00:51:58 | 49.73420 | 18.01145 | 332° | 16km/h | 24678m | -21.9m/s | -52.5°C | 3.8% | 0hPa | 2.6V | 00:00:00 | 02:04:40 | 00:00:00 | |
| POL1PZ | 2026-09-01 00:51:55 | 49.73408 | 18.01154 | 333° | 22km/h | 24723m | -22.0m/s | -52.5°C | 0.8% | 0hPa | 2.6V | 08:24:00 | 00:00:00 | 00:00:00 | |
| OE5MMP-10 | 2026-09-01 00:51:50 | 49.73388 | 18.01163 | 25° | 5km/h | 24855m | -23.5m/s | -52.3°C | 3.7% | 0hPa | 2.6V | 00:00:00 | 02:04:32 | 00:00:00 | |
| OE5DRO-10 | 2026-09-01 00:51:49 | 49.73387 | 18.01162 | 43° | 13km/h | 24878m | -23.9m/s | -52.3°C | 3.8% | 0hPa | 2.6V | 08:24:00 | 00:00:00 | 00:00:00 | |
| DO3MHA-11 | 2026-09-01 00:51:48 | 49.73386 | 18.01160 | 44° | 16km/h | 24902m | -23.2m/s | -52.4°C | 3.8% | 0hPa | 2.5V | 00:00:00 | 02:04:30 | 00:00:00 | |
| OK1SLM-15 | 2026-09-01 00:51:47 | 49.73386 | 18.01160 | 44° | 5km/h | 24902m | -23.3m/s | -52.4°C | 0.8% | 0hPa | 2.5V | 00:00:00 | 00:00:00 | 00:00:00 | |
| PG1ADW-2 | 2026-09-01 00:51:44 | 49.73382 | 18.01154 | 15° | 15km/h | 24998m | -25.6m/s | -52.1°C | 3.7% | 0hPa | 2.5V | 00:00:00 | 00:00:00 | 00:00:00 | |
| OK1SLM-15 | 2026-09-01 00:51:41 | 49.73379 | 18.01155 | 340° | 7km/h | 25048m | -26.1m/s | -52.0°C | 0.8% | 0hPa | 2.5V | 00:00:00 | 00:00:00 | 00:00:00 | |
| OE5MMP-10 | 2026-09-01 00:51:40 | 49.73375 | 18.01158 | 335° | 16km/h | 25101m | -25.6m/s | -51.8°C | 3.7% | 0hPa | 2.5V | 00:00:00 | 02:04:22 | 00:00:00 | |
| OM5KV | 2026-09-01 00:51:35 | 49.73362 | 18.01164 | 355° | 16km/h | 25198m | -24.6m/s | -51.7°C | 0.8% | 0hPa | 2.5V | 08:24:00 | 00:00:00 | 00:00:00 | |
| POL1PZ | 2026-09-01 00:51:34 | 49.73358 | 18.01164 | 361° | 20km/h | 25223m | -25.4m/s | -51.6°C | 0.8% | 0hPa | 2.5V | 08:24:00 | 00:00:00 | 00:00:00 | |
| PETON7-10 | 2026-09-01 00:51:31 | 49.73336 | 18.01161 | 11° | 11km/h | 25316m | -21.2m/s | -51.2°C | 3.6% | 0hPa | 2.5V | 00:00:00 | 02:04:13 | 00:00:00 | |
| OE3OSB-13 | 2026-09-01 00:51:30 | 49.73326 | 18.01157 | 22° | 18km/h | 25359m | -21.8m/s | -51.2°C | 0.7% | -1.0hPa | 2.5V | 00:00:00 | 00:00:00 | 00:00:00 | |
| DO3MHA-11 | 2026-09-01 00:51:29 | 49.73326 | 18.01157 | 23° | 9km/h | 25360m | -21.7m/s | -51.1°C | 3.6% | 0hPa | 2.5V | 08:24:00 | 02:04:11 | 00:00:00 | |
| OM5KV | 2026-09-01 00:51:28 | 49.73326 | 18.01157 | 23° | 20km/h | 25360m | -21.8m/s | -51.2°C | 0.8% | 0hPa | 2.5V | 08:24:00 | 00:00:00 | 00:00:00 | |
| PG1ADW-2 | 2026-09-01 00:51:24 | 49.73313 | 18.01140 | 59° | 13km/h | 25476m | -23.1m/s | -50.7°C | 3.5% | 0hPa | 2.5V | 00:00:00 | 00:00:00 | 00:00:00 | |
| OM5KV | 2026-09-01 00:51:23 | 49.73314 | 18.01140 | 59° | 7km/h | 25476m | -23.1m/s | -50.8°C | 0.7% | 0hPa | 2.5V | 08:24:00 | 00:00:00 | 00:00:00 | |
| OM5KV | 2026-09-01 00:51:22 | 49.73312 | 18.01138 | 60° | 5km/h | 25499m | -22.9m/s | -50.7°C | 0.7% | 0hPa | 2.5V | 08:25:00 | 00:00:00 | 00:00:00 | |
| GYPAP8-17 | 2026-09-01 00:51:20 | 49.73310 | 18.01139 | 319° | 7km/h | 25571m | -24.4m/s | -50.4°C | 0.7% | 0hPa | 2.5V | 00:00:00 | 00:00:00 | 00:00:00 | |
| DO3MHA-11 | 2026-09-01 00:51:19 | 49.73308 | 18.01141 | 313° | 9km/h | 25595m | -24.4m/s | -50.2°C | 3.3% | 0hPa | 2.5V | 00:00:00 | 02:04:01 | 00:00:00 | |
| SP3WXH-11 | 2026-09-01 00:51:17 | 49.73305 | 18.01146 | 313° | 7km/h | 25644m | -25.1m/s | -50.2°C | 0.6% | -1.0hPa | 2.5V | 00:00:00 | 00:00:00 | 00:00:00 | |
| PETON7-10 | 2026-09-01 00:51:16 | 49.73304 | 18.01149 | 314° | 16km/h | 25669m | -23.7m/s | -50.2°C | 3.3% | 0hPa | 2.5V | 08:25:00 | 00:00:00 | 00:00:00 | |
| POL1PZ | 2026-09-01 00:51:14 | 49.73302 | 18.01151 | 319° | 9km/h | 25693m | -23.7m/s | -50.2°C | 0.7% | 0hPa | 2.5V | 08:25:00 | 00:00:00 | 00:00:00 | |
| OE5DRO-10 | 2026-09-01 00:51:11 | 49.73294 | 18.01160 | 337° | 16km/h | 25781m | -21.4m/s | -50.1°C | 3.3% | 0hPa | 2.5V | 00:00:00 | 00:00:00 | 00:00:00 | |
| OE5MMP-10 | 2026-09-01 00:51:10 | 49.73290 | 18.01162 | 345° | 22km/h | 25803m | -21.6m/s | -50.2°C | 3.3% | 0hPa | 2.5V | 00:00:00 | 02:03:52 | 00:00:00 | |
| DO3MHA-11 | 2026-09-01 00:51:09 | 49.73286 | 18.01164 | 344° | 22km/h | 25826m | -24.1m/s | -50.3°C | 3.4% | 0hPa | 2.5V | 00:00:00 | 02:03:51 | 00:00:00 | |
| OM5KV | 2026-09-01 00:51:05 | 49.73269 | 18.01170 | 351° | 24km/h | 25896m | -22.7m/s | -50.5°C | 0.8% | 0hPa | 2.5V | 08:25:00 | 00:00:00 | 00:00:00 | |
| PG1ADW-2 | 2026-09-01 00:51:04 | 49.73257 | 18.01172 | 1° | 13km/h | 25940m | -22.5m/s | -50.4°C | 3.5% | 0hPa | 2.5V | 00:00:00 | 00:00:00 | 00:00:00 | |
| OE3OSB-13 | 2026-09-01 00:50:58 | 49.73234 | 18.01156 | 62° | 13km/h | 26095m | -26.0m/s | -50.5°C | 0.7% | -1.0hPa | 2.5V | 00:00:00 | 00:00:00 | 00:00:00 | |
| HA6NAB-11 | 2026-09-01 00:50:56 | 49.73232 | 18.01152 | 65° | 11km/h | 26121m | -26.3m/s | -50.5°C | 0.8% | 0hPa | 2.5V | 08:25:00 | 00:00:00 | 00:00:00 | |
| OM5KV | 2026-09-01 00:50:55 | 49.73231 | 18.01148 | 67° | 11km/h | 26148m | -25.5m/s | -50.5°C | 0.7% | 0hPa | 2.5V | 08:25:00 | 00:00:00 | 00:00:00 | |
| POL1PZ | 2026-09-01 00:50:53 | 49.73228 | 18.01141 | 52° | 11km/h | 26198m | -24.7m/s | -50.3°C | 0.8% | 0hPa | 2.5V | 08:25:00 | 00:00:00 | 00:00:00 | |
| OE5DRO-10 | 2026-09-01 00:50:52 | 49.73224 | 18.01135 | 35° | 9km/h | 26251m | -26.7m/s | -49.7°C | 3.4% | 0hPa | 2.5V | 00:00:00 | 00:00:00 | 00:00:00 | |
| HA6NAB-11 | 2026-09-01 00:50:51 | 49.73224 | 18.01135 | 36° | 11km/h | 26251m | -26.8m/s | -49.8°C | 0.7% | 0hPa | 2.6V | 08:25:00 | 00:00:00 | 00:00:00 | |
| OE5MMP-10 | 2026-09-01 00:50:50 | 49.73219 | 18.01131 | 23° | 7km/h | 26304m | -25.8m/s | -49.4°C | 3.3% | 0hPa | 2.6V | 00:00:00 | 02:03:32 | 00:00:00 | |
| DO3MHA-11 | 2026-09-01 00:50:49 | 49.73218 | 18.01130 | 20° | 7km/h | 26329m | -25.4m/s | -49.3°C | 3.3% | 0hPa | 2.6V | 00:00:00 | 02:03:31 | 00:00:00 | |
| OM5KV | 2026-09-01 00:50:47 | 49.73216 | 18.01129 | 19° | 7km/h | 26356m | -26.6m/s | -49.2°C | 0.7% | 0hPa | 2.6V | 08:25:00 | 00:00:00 | 00:00:00 | |
| PETON7-10 | 2026-09-01 00:50:46 | 49.73213 | 18.01127 | 17° | 9km/h | 26409m | -26.5m/s | -48.7°C | 3.1% | 0hPa | 2.6V | 00:00:00 | 02:03:28 | 00:00:00 | |
| HA6NAB-11 | 2026-09-01 00:50:45 | 49.73213 | 18.01127 | 17° | 5km/h | 26409m | -26.5m/s | -48.8°C | 0.6% | 0hPa | 2.6V | 08:25:00 | 00:00:00 | 00:00:00 | |
| PG1ADW-2 | 2026-09-01 00:50:44 | 49.73210 | 18.01125 | 27° | 13km/h | 26460m | -23.6m/s | -48.5°C | 3.0% | 0hPa | 2.6V | 00:00:00 | 02:03:26 | 00:00:00 | |
| OM5KV | 2026-09-01 00:50:43 | 49.73210 | 18.01125 | 28° | 7km/h | 26460m | -23.7m/s | -48.6°C | 0.6% | 0hPa | 2.6V | 08:25:00 | 00:00:00 | 00:00:00 | |
| OE5MMP-10 | 2026-09-01 00:50:40 | 49.73205 | 18.01115 | 64° | 11km/h | 26559m | -23.6m/s | -48.1°C | 2.9% | 0hPa | 2.6V | 00:00:00 | 02:03:22 | 00:00:00 | |
| DO3MHA-11 | 2026-09-01 00:50:39 | 49.73203 | 18.01112 | 57° | 13km/h | 26582m | -23.4m/s | -48.0°C | 2.9% | 0hPa | 2.6V | 00:00:00 | 02:03:21 | 00:00:00 | |
| OM5KV | 2026-09-01 00:50:36 | 49.73201 | 18.01105 | 63° | 11km/h | 26630m | -24.0m/s | -48.2°C | 0.6% | 0hPa | 2.6V | 08:25:00 | 00:00:00 | 00:00:00 | |
| HA6NAB-11 | 2026-09-01 00:50:34 | 49.73199 | 18.01097 | 81° | 11km/h | 26680m | -25.2m/s | -48.5°C | 0.6% | 0hPa | 2.6V | 08:25:00 | 00:00:00 | 00:00:00 | |
| OE5DRO-10 | 2026-09-01 00:50:33 | 49.73198 | 18.01087 | 86° | 16km/h | 26727m | -24.3m/s | -48.6°C | 3.0% | 0hPa | 2.6V | 00:00:00 | 00:00:00 | 00:00:00 | |
| OM5KV | 2026-09-01 00:50:32 | 49.73198 | 18.01087 | 87° | 15km/h | 26727m | -24.3m/s | -48.7°C | 0.6% | 0hPa | 2.6V | 08:25:00 | 00:00:00 | 00:00:00 | |
| PETON7-10 | 2026-09-01 00:50:31 | 49.73198 | 18.01076 | 85° | 15km/h | 26776m | -25.0m/s | -48.7°C | 3.0% | 0hPa | 2.6V | 00:00:00 | 00:00:00 | 00:00:00 | |
| OE5MMP-10 | 2026-09-01 00:50:30 | 49.73197 | 18.01069 | 77° | 15km/h | 26801m | -24.6m/s | -48.8°C | 3.1% | 0hPa | 2.6V | 00:00:00 | 02:03:12 | 00:00:00 | |
| DO3MHA-11 | 2026-09-01 00:50:29 | 49.73196 | 18.01063 | 70° | 13km/h | 26826m | -25.7m/s | -48.8°C | 3.1% | 0hPa | 2.5V | 00:00:00 | 02:03:11 | 00:00:00 | |
| NBG1-10 | 2026-09-01 00:50:28 | 49.73195 | 18.01057 | 69° | 18km/h | 26852m | -25.4m/s | -48.8°C | 3.1% | 0hPa | 2.6V | 00:00:00 | 02:03:10 | 00:00:00 | |
| OE3OSB-13 | 2026-09-01 00:50:27 | 49.73193 | 18.01051 | 65° | 15km/h | 26878m | -26.5m/s | -49.0°C | 0.6% | -1.0hPa | 2.6V | 00:00:00 | 00:00:00 | 00:00:00 | |
| OM5KV | 2026-09-01 00:50:26 | 49.73193 | 18.01051 | 66° | 15km/h | 26878m | -26.5m/s | -49.0°C | 0.6% | 0hPa | 2.6V | 08:26:00 | 00:00:00 | 00:00:00 | |
| OM5KV | 2026-09-01 00:50:25 | 49.73192 | 18.01046 | 58° | 15km/h | 26904m | -25.5m/s | -49.1°C | 0.6% | 0hPa | 2.6V | 08:26:00 | 00:00:00 | 00:00:00 | |
| PG1ADW-2 | 2026-09-01 00:50:24 | 49.73188 | 18.01038 | 48° | 20km/h | 26955m | -25.1m/s | -49.3°C | 3.2% | 0hPa | 2.6V | 00:00:00 | 00:00:00 | 00:00:00 | |
| OK1SLM-15 | 2026-09-01 00:50:22 | 49.73186 | 18.01035 | 58° | 11km/h | 26981m | -26.1m/s | -49.5°C | 0.7% | 0hPa | 2.6V | 00:00:00 | 00:00:00 | 00:00:00 | |
| OE5MMP-10 | 2026-09-01 00:50:20 | 49.73184 | 18.01022 | 98° | 20km/h | 27057m | -26.2m/s | -49.6°C | 3.3% | 0hPa | 2.6V | 00:00:00 | 02:03:02 | 00:00:00 | |
| DO3MHA-11 | 2026-09-01 00:50:19 | 49.73185 | 18.01017 | 114° | 22km/h | 27084m | -27.3m/s | -49.5°C | 3.3% | 0hPa | 2.6V | 00:00:00 | 02:03:01 | 00:00:00 | |
| OK1SLM-15 | 2026-09-01 00:50:18 | 49.73187 | 18.01011 | 120° | 18km/h | 27111m | -25.8m/s | -49.5°C | 0.7% | 0hPa | 2.6V | 00:00:00 | 00:00:00 | 00:00:00 | |
| PETON7-10 | 2026-09-01 00:50:16 | 49.73192 | 18.00998 | 126° | 24km/h | 27160m | -22.9m/s | -49.1°C | 3.2% | 0hPa | 2.6V | 00:00:00 | 00:00:00 | 00:00:00 | |
| SP3WXH-11 | 2026-09-01 00:50:15 | 49.73196 | 18.00991 | 126° | 22km/h | 27183m | -24.3m/s | -49.1°C | 0.6% | -1.0hPa | 2.6V | 00:00:00 | 00:00:00 | 00:00:00 | |
| OE5DRO-10 | 2026-09-01 00:50:14 | 49.73199 | 18.00984 | 132° | 20km/h | 27207m | -24.6m/s | -49.0°C | 3.1% | 0hPa | 2.6V | 00:00:00 | 00:00:00 | 00:00:00 | |
| POL1PZ | 2026-09-01 00:50:12 | 49.73203 | 18.00978 | 135° | 24km/h | 27233m | -25.3m/s | -49.0°C | 0.6% | 0hPa | 2.6V | 08:26:00 | 00:00:00 | 00:00:00 | |
| OE5MMP-10 | 2026-09-01 00:50:10 | 49.73217 | 18.00960 | 148° | 24km/h | 27309m | -25.6m/s | -48.6°C | 3.0% | 0hPa | 2.6V | 00:00:00 | 02:02:52 | 00:00:00 | |
| DO3MHA-11 | 2026-09-01 00:50:09 | 49.73223 | 18.00954 | 148° | 22km/h | 27333m | -22.9m/s | -48.6°C | 3.0% | 0hPa | 2.6V | 00:00:00 | 02:02:51 | 00:00:00 | |
| PG1ADW-2 | 2026-09-01 00:50:04 | 49.73252 | 18.00936 | 170° | 15km/h | 27458m | -24.5m/s | -49.2°C | 3.2% | 0hPa | 2.6V | 00:00:00 | 00:00:00 | 00:00:00 | |
| OM5KV | 2026-09-01 00:50:02 | 49.73258 | 18.00934 | 177° | 20km/h | 27482m | -23.1m/s | -49.3°C | 0.7% | 0hPa | 2.5V | 08:26:00 | 00:00:00 | 00:00:00 | |
| OE3OSB-13 | 2026-09-01 00:49:56 | 49.73277 | 18.00933 | 155° | 4km/h | 27636m | -23.2m/s | -49.3°C | 0.6% | -1.0hPa | 2.5V | 00:00:00 | 00:00:00 | 00:00:00 | |
| OE5DRO-10 | 2026-09-01 00:49:55 | 49.73277 | 18.00932 | 126° | 16km/h | 27659m | -23.1m/s | -49.2°C | 3.3% | 0hPa | 2.5V | 00:00:00 | 00:00:00 | 00:00:00 | |
| S52SK | 2026-09-01 00:49:53 | 49.73279 | 18.00929 | 149° | 11km/h | 27683m | -23.7m/s | -49.2°C | 0.6% | 0hPa | 2.6V | 00:00:00 | 00:00:00 | 00:00:00 | |
| NBG1-10 | 2026-09-01 00:49:52 | 49.73282 | 18.00921 | 118° | 13km/h | 27730m | -23.5m/s | -48.8°C | 3.1% | 0hPa | 2.6V | 00:00:00 | 02:02:34 | 00:00:00 | |
| OM5KV | 2026-09-01 00:49:51 | 49.73282 | 18.00921 | 119° | 16km/h | 27730m | -23.6m/s | -48.8°C | 0.6% | 0hPa | 2.5V | 08:26:00 | 00:00:00 | 00:00:00 | |
| OE5MMP-10 | 2026-09-01 00:49:50 | 49.73286 | 18.00909 | 109° | 16km/h | 27777m | -23.9m/s | -48.6°C | 3.0% | 0hPa | 2.5V | 00:00:00 | 02:02:32 | 00:00:00 | |
| DO3MHA-11 | 2026-09-01 00:49:49 | 49.73287 | 18.00902 | 102° | 16km/h | 27801m | -23.6m/s | -48.6°C | 3.1% | 0hPa | 2.5V | 00:00:00 | 02:02:31 | 00:00:00 | |
| S52SK | 2026-09-01 00:49:48 | 49.73287 | 18.00902 | 103° | 18km/h | 27801m | -23.6m/s | -48.7°C | 0.6% | 0hPa | 2.5V | 00:00:00 | 00:00:00 | 00:00:00 | |
| PETON7-10 | 2026-09-01 00:49:46 | 49.73289 | 18.00883 | 101° | 15km/h | 27872m | -25.5m/s | -48.7°C | 3.1% | 0hPa | 2.5V | 00:00:00 | 00:00:00 | 00:00:00 | |
| PG1ADW-2 | 2026-09-01 00:49:44 | 49.73291 | 18.00871 | 115° | 13km/h | 27923m | -26.1m/s | -48.8°C | 3.2% | 0hPa | 2.5V | 00:00:00 | 00:00:00 | 00:00:00 | |
| OE5MMP-10 | 2026-09-01 00:49:40 | 49.73303 | 18.00851 | 141° | 13km/h | 28024m | -26.4m/s | -48.7°C | 3.2% | 0hPa | 2.5V | 00:00:00 | 02:02:22 | 00:00:00 | |
| DO3MHA-11 | 2026-09-01 00:49:39 | 49.73307 | 18.00846 | 147° | 11km/h | 28050m | -25.8m/s | -48.6°C | 3.1% | 0hPa | 2.5V | 00:00:00 | 02:02:21 | 00:00:00 | |
| OE5DRO-10 | 2026-09-01 00:49:36 | 49.73319 | 18.00837 | 159° | 13km/h | 28124m | -23.2m/s | -48.4°C | 3.1% | 0hPa | 2.5V | 00:00:00 | 00:00:00 | 00:00:00 | |
| OM5KV | 2026-09-01 00:49:35 | 49.73319 | 18.00837 | 160° | 15km/h | 28124m | -23.2m/s | -48.5°C | 0.6% | 0hPa | 2.5V | 08:27:00 | 00:00:00 | 00:00:00 | |
| OM5KV | 2026-09-01 00:49:33 | 49.73325 | 18.00834 | 177° | 9km/h | 28175m | -26.5m/s | -48.5°C | 0.6% | 0hPa | 2.5V | 08:27:00 | 00:00:00 | 00:00:00 | |
| PETON7-10 | 2026-09-01 00:49:31 | 49.73330 | 18.00835 | 187° | 13km/h | 28246m | -22.2m/s | -48.3°C | 3.1% | 0hPa | 2.5V | 00:00:00 | 00:00:00 | 00:00:00 | |
| OE5MMP-10 | 2026-09-01 00:49:30 | 49.73331 | 18.00835 | 181° | 11km/h | 28270m | -24.6m/s | -48.3°C | 3.1% | 0hPa | 2.5V | 08:26:00 | 02:02:12 | 00:00:00 | |
| DO3MHA-11 | 2026-09-01 00:49:29 | 49.73332 | 18.00835 | 143° | 13km/h | 28295m | -25.6m/s | -48.2°C | 3.1% | 0hPa | 2.5V | 00:00:00 | 02:02:11 | 00:00:00 | |
| OM5KV | 2026-09-01 00:49:27 | 49.73332 | 18.00834 | 101° | 4km/h | 28320m | -23.9m/s | -48.3°C | 0.6% | 0hPa | 2.6V | 08:27:00 | 00:00:00 | 00:00:00 | |
| OE3OSB-13 | 2026-09-01 00:49:25 | 49.73332 | 18.00823 | 78° | 11km/h | 28391m | -24.0m/s | -48.6°C | 0.6% | -1.0hPa | 2.6V | 00:00:00 | 00:00:00 | 00:00:00 | |
| PG1ADW-2 | 2026-09-01 00:49:24 | 49.73331 | 18.00818 | 73° | 18km/h | 28417m | -27.8m/s | -48.5°C | 3.2% | 0hPa | 2.6V | 00:00:00 | 02:02:06 | 00:00:00 | |
| OM5KV | 2026-09-01 00:49:22 | 49.73330 | 18.00812 | 71° | 16km/h | 28443m | -25.3m/s | -48.5°C | 0.6% | 0hPa | 2.6V | 08:27:00 | 00:00:00 | 00:00:00 | |
| SP3BTT-10 | 2026-09-01 00:49:20 | 49.73326 | 18.00789 | 86° | 16km/h | 28521m | -28.9m/s | -48.0°C | 3.2% | 0hPa | 2.6V | 00:00:00 | 00:00:00 | 00:00:00 | |
| NBG1-10 | 2026-09-01 00:49:19 | 49.73326 | 18.00781 | 86° | 15km/h | 28549m | -28.5m/s | -47.9°C | 3.1% | 0hPa | 2.6V | 00:00:00 | 02:02:01 | 00:00:00 | |
| OM5KV | 2026-09-01 00:49:18 | 49.73326 | 18.00773 | 99° | 22km/h | 28578m | -28.5m/s | -47.9°C | 0.6% | 0hPa | 2.6V | 08:27:00 | 00:00:00 | 00:00:00 | |
| OE5DRO-10 | 2026-09-01 00:49:17 | 49.73327 | 18.00766 | 108° | 16km/h | 28606m | -28.4m/s | -47.8°C | 3.2% | 0hPa | 2.6V | 00:00:00 | 00:00:00 | 00:00:00 | |
| PETON7-10 | 2026-09-01 00:49:16 | 49.73329 | 18.00760 | 119° | 16km/h | 28635m | -27.6m/s | -47.6°C | 3.1% | 0hPa | 2.6V | 00:00:00 | 02:01:58 | 00:00:00 | |
| OM5KV | 2026-09-01 00:49:14 | 49.73331 | 18.00753 | 121° | 20km/h | 28662m | -25.8m/s | -47.6°C | 0.6% | 0hPa | 2.6V | 08:27:00 | 00:00:00 | 00:00:00 | |
| SP3WXH-11 | 2026-09-01 00:49:13 | 49.73338 | 18.00740 | 137° | 22km/h | 28711m | -24.0m/s | -47.6°C | 0.6% | -1.0hPa | 2.6V | 00:00:00 | 00:00:00 | 00:00:00 | |
| OE5MMP-10 | 2026-09-01 00:49:10 | 49.73350 | 18.00724 | 137° | 13km/h | 28775m | -24.4m/s | -47.2°C | 3.0% | 0hPa | 2.6V | 00:00:00 | 02:01:52 | 00:00:00 | |
| DO3MHA-11 | 2026-09-01 00:49:09 | 49.73354 | 18.00719 | 133° | 13km/h | 28801m | -27.9m/s | -46.9°C | 3.0% | 0hPa | 2.6V | 00:00:00 | 02:01:51 | 00:00:00 | |
| OK1SLM-15 | 2026-09-01 00:49:07 | 49.73356 | 18.00714 | 132° | 15km/h | 28828m | -27.6m/s | -46.8°C | 0.5% | 0hPa | 2.6V | 00:00:00 | 00:00:00 | 00:00:00 | |
| PG1ADW-2 | 2026-09-01 00:49:04 | 49.73361 | 18.00697 | 118° | 15km/h | 28947m | -31.9m/s | -46.2°C | 2.7% | 0hPa | 2.6V | 08:27:00 | 00:00:00 | 00:00:00 | |
| OM5KV | 2026-09-01 00:49:03 | 49.73362 | 18.00697 | 118° | 11km/h | 28947m | -32.0m/s | -46.2°C | 0.5% | 0hPa | 2.6V | 08:27:00 | 00:00:00 | 00:00:00 | |
| OE3OSB-13 | 2026-09-01 00:48:54 | 49.73383 | 18.00657 | 128° | 20km/h | 29250m | -31.1m/s | -45.8°C | 0.5% | -1.0hPa | 2.6V | 00:00:00 | 00:00:00 | 00:00:00 | |
| OM5KV | 2026-09-01 00:48:52 | 49.73386 | 18.00650 | 129° | 22km/h | 29279m | -28.4m/s | -45.8°C | 0.5% | 0hPa | 2.6V | 08:27:00 | 00:00:00 | 00:00:00 | |
| OE5MMP-10 | 2026-09-01 00:48:50 | 49.73396 | 18.00631 | 133° | 11km/h | 29362m | -26.6m/s | -46.0°C | 2.8% | 0hPa | 2.6V | 00:00:00 | 02:01:32 | 00:00:00 | |
| DO3MHA-11 | 2026-09-01 00:48:49 | 49.73399 | 18.00625 | 129° | 9km/h | 29388m | -26.7m/s | -46.0°C | 2.8% | 0hPa | 2.6V | 00:00:00 | 02:01:31 | 00:00:00 | |
| OM5KV | 2026-09-01 00:48:48 | 49.73402 | 18.00621 | 131° | 15km/h | 29414m | -26.8m/s | -46.1°C | 0.5% | 0hPa | 2.6V | 08:28:00 | 00:00:00 | 00:00:00 | |
| PETON7-10 | 2026-09-01 00:48:46 | 49.73406 | 18.00614 | 122° | 9km/h | 29470m | -28.6m/s | -46.2°C | 2.9% | 0hPa | 2.6V | 00:00:00 | 00:00:00 | 00:00:00 | |
| PG1ADW-2 | 2026-09-01 00:48:44 | 49.73407 | 18.00610 | 110° | 11km/h | 29527m | -28.1m/s | -46.2°C | 2.9% | 0hPa | 2.6V | 00:00:00 | 00:00:00 | 00:00:00 | |
| SP3WXH-11 | 2026-09-01 00:48:43 | 49.73409 | 18.00606 | 113° | 5km/h | 29584m | -28.3m/s | -46.1°C | 0.5% | -1.0hPa | 2.6V | 00:00:00 | 00:00:00 | 00:00:00 | |
| OM5KV | 2026-09-01 00:48:41 | 49.73408 | 18.00606 | 115° | 7km/h | 29584m | -28.3m/s | -46.1°C | 0.5% | 0hPa | 2.6V | 08:28:00 | 00:00:00 | 00:00:00 | |
| OE5MMP-10 | 2026-09-01 00:48:40 | 49.73411 | 18.00599 | 122° | 11km/h | 29640m | -26.8m/s | -46.0°C | 2.9% | 0hPa | 2.6V | 00:00:00 | 02:01:22 | 00:00:00 | |
| GYPAP8-17 | 2026-09-01 00:48:39 | 49.73412 | 18.00595 | 118° | 13km/h | 29667m | -27.4m/s | -46.0°C | 0.5% | 0hPa | 2.6V | 00:00:00 | 00:00:00 | 00:00:00 | |
| HA6NAB-11 | 2026-09-01 00:48:36 | 49.73415 | 18.00586 | 121° | 13km/h | 29722m | -29.2m/s | -45.9°C | 0.5% | 0hPa | 2.6V | 00:00:00 | 00:00:00 | 00:00:00 | |
| OM5KV | 2026-09-01 00:48:35 | 49.73417 | 18.00581 | 119° | 13km/h | 29751m | -29.8m/s | -45.7°C | 0.5% | 0hPa | 2.6V | 00:00:00 | 00:00:00 | 00:00:00 | |
| OM5KV | 2026-09-01 00:48:33 | 49.73419 | 18.00573 | 88° | 9km/h | 29810m | -30.9m/s | -45.5°C | 0.5% | 0hPa | 2.6V | 08:28:00 | 00:00:00 | 00:00:00 | |
| PETON7-10 | 2026-09-01 00:48:31 | 49.73416 | 18.00564 | 56° | 13km/h | 29897m | -28.1m/s | -45.5°C | 2.9% | 0hPa | 2.6V | 00:00:00 | 02:01:13 | 00:00:00 | |
| OE5MMP-10 | 2026-09-01 00:48:30 | 49.73414 | 18.00560 | 57° | 15km/h | 29925m | -29.1m/s | -45.4°C | 2.9% | 0hPa | 2.6V | 00:00:00 | 02:01:12 | 00:00:00 | |
| DO3MHA-11 | 2026-09-01 00:48:29 | 49.73413 | 18.00556 | 59° | 15km/h | 29954m | -28.5m/s | -45.2°C | 2.9% | 0hPa | 2.5V | 08:27:00 | 02:01:11 | 00:00:00 | |
| HA6NAB-11 | 2026-09-01 00:48:25 | 49.73411 | 18.00541 | 103° | 15km/h | 30047m | -30.5m/s | -44.9°C | 0.5% | 0hPa | 2.6V | 00:00:00 | 00:00:00 | 00:00:00 | |
| PG1ADW-2 | 2026-09-01 00:48:24 | 49.73414 | 18.00529 | 120° | 13km/h | 30104m | -27.6m/s | -44.6°C | 2.8% | 0hPa | 2.6V | 00:00:00 | 00:00:00 | 00:00:00 | |
| OE3OSB-13 | 2026-09-01 00:48:23 | 49.73416 | 18.00524 | 124° | 16km/h | 30131m | -26.6m/s | -44.5°C | 0.4% | -1.0hPa | 2.6V | 00:00:00 | 00:00:00 | 00:00:00 | |
| OE5MMP-10 | 2026-09-01 00:48:20 | 49.73424 | 18.00511 | 128° | 11km/h | 30219m | -31.3m/s | -43.7°C | 2.7% | 0hPa | 2.6V | 00:00:00 | 02:01:02 | 00:00:00 | |
| DO3MHA-11 | 2026-09-01 00:48:19 | 49.73425 | 18.00508 | 129° | 11km/h | 30251m | -31.7m/s | -43.7°C | 2.7% | 0hPa | 2.6V | 00:00:00 | 02:01:01 | 00:00:00 | |
| NBG1-10 | 2026-09-01 00:48:17 | 49.73429 | 18.00503 | 122° | 22km/h | 30313m | -30.0m/s | -43.6°C | 2.7% | 0hPa | 2.6V | 00:00:00 | 02:00:59 | 00:00:00 | |
| PETON7-10 | 2026-09-01 00:48:16 | 49.73430 | 18.00501 | 129° | 13km/h | 30343m | -29.6m/s | -43.6°C | 2.7% | 0hPa | 2.6V | 00:00:00 | 00:00:00 | 00:00:00 | |
| HA6NAB-11 | 2026-09-01 00:48:14 | 49.73430 | 18.00499 | 122° | 7km/h | 30371m | -28.6m/s | -43.6°C | 0.5% | 0hPa | 2.6V | 00:00:00 | 00:00:00 | 00:00:00 | |
| SP3WXH-11 | 2026-09-01 00:48:11 | 49.73446 | 18.00486 | 161° | 20km/h | 30509m | -29.3m/s | -42.4°C | 0.3% | -1.0hPa | 2.6V | 00:00:00 | 00:00:00 | 00:00:00 | |
| OE5MMP-10 | 2026-09-01 00:48:10 | 49.73446 | 18.00486 | 162° | 13km/h | 30509m | -29.2m/s | -42.3°C | 2.5% | 0hPa | 2.6V | 00:00:00 | 02:00:52 | 00:00:00 | |
| DO3MHA-11 | 2026-09-01 00:48:09 | 49.73451 | 18.00484 | 169° | 11km/h | 30539m | -31.3m/s | -41.9°C | 2.4% | 0hPa | 2.6V | 00:00:00 | 02:00:51 | 00:00:00 | |
| POL1PZ | 2026-09-01 00:48:08 | 49.73451 | 18.00484 | 169° | 20km/h | 30539m | -31.3m/s | -42.0°C | 0.4% | 0hPa | 2.6V | 08:28:00 | 00:00:00 | 00:00:00 | |
| OM5KV | 2026-09-01 00:48:05 | 49.73464 | 18.00482 | 184° | 13km/h | 30631m | -30.5m/s | -41.0°C | 0.4% | 0hPa | 2.6V | 08:28:00 | 00:00:00 | 00:00:00 | |
| PG1ADW-2 | 2026-09-01 00:48:04 | 49.73468 | 18.00485 | 220° | 9km/h | 30693m | -31.1m/s | -40.5°C | 2.2% | 0hPa | 2.6V | 00:00:00 | 02:00:46 | 00:00:00 | |
| OE3OSB-13 | 2026-09-01 00:47:52 | 49.73479 | 18.00490 | 165° | 11km/h | 31066m | -34.4m/s | -39.2°C | 0.3% | -1.0hPa | 2.6V | 00:00:00 | 00:00:00 | 00:00:00 | |
| OE5MMP-10 | 2026-09-01 00:47:50 | 49.73486 | 18.00490 | 190° | 11km/h | 31134m | -34.3m/s | -39.1°C | 1.9% | 0hPa | 2.6V | 00:00:00 | 02:00:32 | 00:00:00 | |
| OK1SLM-15 | 2026-09-01 00:47:48 | 49.73490 | 18.00492 | 204° | 15km/h | 31168m | -33.3m/s | -39.1°C | 0.3% | 0hPa | 2.6V | 00:00:00 | 00:00:00 | 00:00:00 | |
| POL1PZ | 2026-09-01 00:47:47 | 49.73493 | 18.00493 | 207° | 15km/h | 31201m | -33.1m/s | -39.0°C | 0.3% | 0hPa | 2.6V | 08:29:00 | 00:00:00 | 00:00:00 | |
| PETON7-10 | 2026-09-01 00:47:46 | 49.73499 | 18.00499 | 221° | 15km/h | 31266m | -32.2m/s | -39.0°C | 1.9% | 0hPa | 2.6V | 00:00:00 | 02:00:28 | 00:00:00 | |
| S52SK | 2026-09-01 00:47:45 | 49.73499 | 18.00499 | 221° | 13km/h | 31266m | -32.3m/s | -39.0°C | 0.3% | 0hPa | 2.6V | 00:00:00 | 00:00:00 | 00:00:00 | |
| PG1ADW-2 | 2026-09-01 00:47:44 | 49.73501 | 18.00505 | 261° | 15km/h | 31333m | -35.0m/s | -39.1°C | 1.9% | 0hPa | 2.6V | 00:00:00 | 00:00:00 | 00:00:00 | |
| OE5DRO-10 | 2026-09-01 00:47:42 | 49.73500 | 18.00508 | 7° | 16km/h | 31400m | -32.7m/s | -39.1°C | 1.9% | 0hPa | 2.6V | 00:00:00 | 00:00:00 | 00:00:00 | |
| OE5MMP-10 | 2026-09-01 00:47:40 | 49.73495 | 18.00506 | 26° | 18km/h | 31468m | -34.5m/s | -38.8°C | 1.8% | 0hPa | 2.6V | 00:00:00 | 02:00:22 | 00:00:00 | |
| S52SK | 2026-09-01 00:47:39 | 49.73495 | 18.00506 | 26° | 15km/h | 31468m | -34.5m/s | -38.9°C | 0.3% | 0hPa | 2.6V | 00:00:00 | 00:00:00 | 00:00:00 | |
| OM5KV | 2026-09-01 00:47:37 | 49.73487 | 18.00499 | 30° | 22km/h | 31538m | -33.4m/s | -39.3°C | 0.3% | 0hPa | 2.6V | 08:29:00 | 00:00:00 | 00:00:00 | |
| OM5KV | 2026-09-01 00:47:33 | 49.73464 | 18.00486 | 2° | 16km/h | 31708m | -36.2m/s | -39.8°C | 0.3% | 0hPa | 2.6V | 08:29:00 | 00:00:00 | 00:00:00 | |
| PETON7-10 | 2026-09-01 00:47:31 | 49.73456 | 18.00486 | 357° | 18km/h | 31775m | -31.8m/s | -39.9°C | 2.0% | 0hPa | 2.6V | 00:00:00 | 00:00:00 | 00:00:00 | |
| OE5MMP-10 | 2026-09-01 00:47:30 | 49.73453 | 18.00486 | 353° | 16km/h | 31806m | -30.7m/s | -39.9°C | 2.0% | 0hPa | 2.6V | 00:00:00 | 02:00:12 | 00:00:00 | |
| OM5KV | 2026-09-01 00:47:27 | 49.73446 | 18.00486 | 11° | 13km/h | 31868m | -31.1m/s | -40.1°C | 0.3% | 0hPa | 2.6V | 08:29:00 | 00:00:00 | 00:00:00 | |
| DO3MHA-11 | 2026-09-01 00:47:26 | 49.73440 | 18.00482 | 31° | 18km/h | 31930m | -29.3m/s | -40.5°C | 2.1% | 0hPa | 2.6V | 00:00:00 | 02:00:08 | 00:00:00 | |
| OM5KV | 2026-09-01 00:47:25 | 49.73440 | 18.00482 | 32° | 16km/h | 31930m | -29.4m/s | -40.6°C | 0.3% | 0hPa | 2.6V | 08:29:00 | 00:00:00 | 00:00:00 | |
| PG1ADW-2 | 2026-09-01 00:47:24 | 49.73433 | 18.00473 | 43° | 15km/h | 31986m | -26.4m/s | -40.9°C | 2.2% | 0hPa | 2.6V | 00:00:00 | 00:00:00 | 00:00:00 | |
| OE5DRO-10 | 2026-09-01 00:47:23 | 49.73430 | 18.00468 | 53° | 13km/h | 32013m | -26.1m/s | -41.0°C | 2.2% | 0hPa | 2.6V | 00:00:00 | 00:00:00 | 00:00:00 | |
| OE3OSB-13 | 2026-09-01 00:47:21 | 49.73425 | 18.00452 | 72° | 22km/h | 32064m | -28.5m/s | -41.1°C | 0.3% | -1.0hPa | 2.6V | 00:00:00 | 00:00:00 | 00:00:00 | |
| OE5MMP-10 | 2026-09-01 00:47:20 | 49.73423 | 18.00443 | 77° | 16km/h | 32094m | -32.9m/s | -41.1°C | 2.2% | 0hPa | 2.6V | 00:00:00 | 02:00:02 | 00:00:00 | |
| OM5KV | 2026-09-01 00:47:19 | 49.73423 | 18.00443 | 78° | 24km/h | 32094m | -33.0m/s | -41.2°C | 0.3% | 0hPa | 2.6V | 08:29:00 | 00:00:00 | 00:00:00 | |
| PETON7-10 | 2026-09-01 00:47:16 | 49.73419 | 18.00413 | 81° | 11km/h | 32232m | -33.0m/s | -41.0°C | 2.2% | 0hPa | 2.6V | 00:00:00 | 00:00:00 | 00:00:00 | |
| OM5KV | 2026-09-01 00:47:12 | 49.73416 | 18.00396 | 77° | 11km/h | 32326m | -31.1m/s | -41.0°C | 0.4% | 0hPa | 2.6V | 08:29:00 | 00:00:00 | 00:00:00 | |
| OE5MMP-10 | 2026-09-01 00:47:10 | 49.73414 | 18.00388 | 55° | 13km/h | 32425m | -34.0m/s | -41.1°C | 2.3% | 0hPa | 2.6V | 00:00:00 | 01:59:52 | 00:00:00 | |
| SP3WXH-11 | 2026-09-01 00:47:09 | 49.73412 | 18.00384 | 45° | 4km/h | 32493m | -32.8m/s | -41.1°C | 0.3% | -1.0hPa | 2.6V | 00:00:00 | 00:00:00 | 00:00:00 | |
| POL1PZ | 2026-09-01 00:47:07 | 49.73412 | 18.00384 | 46° | 5km/h | 32493m | -32.8m/s | -41.1°C | 0.4% | 0hPa | 2.6V | 00:00:00 | 00:00:00 | 00:00:00 | |
| OM5KV | 2026-09-01 00:47:06 | 49.73411 | 18.00383 | 47° | 5km/h | 32526m | -32.5m/s | -41.1°C | 0.4% | 0hPa | 2.6V | 00:00:00 | 00:00:00 | 00:00:00 | |
| OE5DRO-10 | 2026-09-01 00:47:04 | 49.73406 | 18.00376 | 47° | 24km/h | 32625m | -35.6m/s | -40.7°C | 2.3% | 0hPa | 2.6V | 00:00:00 | 00:00:00 | 00:00:00 | |
| PETON7-10 | 2026-09-01 00:47:01 | 49.73395 | 18.00357 | 47° | 24km/h | 32736m | -39.8m/s | -40.2°C | 2.3% | 0hPa | 2.5V | 00:00:00 | 01:59:43 | 00:00:00 | |
| OE5MMP-10 | 2026-09-01 00:47:00 | 49.73391 | 18.00349 | 56° | 22km/h | 32775m | -39.1m/s | -40.0°C | 2.3% | 0hPa | 2.5V | 00:00:00 | 01:59:42 | 00:00:00 | |
| OM5KV | 2026-09-01 00:46:57 | 49.73384 | 18.00332 | 57° | 26km/h | 32851m | -36.5m/s | -40.0°C | 0.3% | 0hPa | 2.5V | 00:00:00 | 00:00:00 | 00:00:00 | |
| OM5KV | 2026-09-01 00:46:55 | 49.73376 | 18.00319 | 49° | 20km/h | 32924m | -35.3m/s | -39.8°C | 0.4% | 0hPa | 2.5V | 00:00:00 | 00:00:00 | 00:00:00 | |
| OM5KV | 2026-09-01 00:46:51 | 49.73366 | 18.00292 | 74° | 22km/h | 33061m | -36.4m/s | -39.1°C | 0.3% | 0hPa | 2.5V | 00:00:00 | 00:00:00 | 00:00:00 | |
| OE5MMP-10 | 2026-09-01 00:46:50 | 49.73362 | 18.00273 | 72° | 26km/h | 33131m | -38.8m/s | -38.7°C | 2.1% | 0hPa | 2.5V | 00:00:00 | 01:59:32 | 00:00:00 | |
| OM5KV | 2026-09-01 00:46:49 | 49.73362 | 18.00273 | 73° | 27km/h | 33131m | -38.9m/s | -38.7°C | 0.3% | 0hPa | 2.5V | 00:00:00 | 00:00:00 | 00:00:00 | |
| PETON7-10 | 2026-09-01 00:46:46 | 49.73347 | 18.00233 | 53° | 18km/h | 33293m | -39.3m/s | -37.6°C | 1.9% | 0hPa | 2.5V | 00:00:00 | 00:00:00 | 08:30:00 | |
| OE5DRO-10 | 2026-09-01 00:46:45 | 49.73342 | 18.00225 | 48° | 20km/h | 33334m | -42.3m/s | -37.3°C | 1.9% | 0hPa | 2.6V | 00:00:00 | 00:00:00 | 00:00:00 | |
| PG1ADW-2 | 2026-09-01 00:46:44 | 49.73338 | 18.00218 | 49° | 18km/h | 33376m | -40.9m/s | -37.1°C | 1.9% | 0hPa | 2.6V | 00:00:00 | 01:59:26 | 00:00:00 | |
| OM5KV | 2026-09-01 00:46:43 | 49.73338 | 18.00218 | 50° | 24km/h | 33376m | -41.0m/s | -37.1°C | 0.3% | 0hPa | 2.6V | 00:00:00 | 00:00:00 | 00:00:00 | |
| OE5MMP-10 | 2026-09-01 00:46:40 | 49.73331 | 18.00196 | 103° | 16km/h | 33542m | -43.2m/s | -36.4°C | 1.8% | 0hPa | 2.6V | 00:00:00 | 01:59:22 | 00:00:00 | |
| OM5KV | 2026-09-01 00:46:39 | 49.73331 | 18.00196 | 104° | 13km/h | 33542m | -43.3m/s | -36.4°C | 0.3% | 0hPa | 2.6V | 00:00:00 | 00:00:00 | 00:00:00 | |
| OM5KV | 2026-09-01 00:46:37 | 49.73333 | 18.00187 | 120° | 13km/h | 33629m | -42.8m/s | -36.7°C | 0.3% | 0hPa | 2.6V | 00:00:00 | 00:00:00 | 00:00:00 | |
| OM5KV | 2026-09-01 00:46:34 | 49.73333 | 18.00177 | 43° | 11km/h | 33754m | -39.9m/s | -36.2°C | 0.3% | 0hPa | 2.6V | 00:00:00 | 00:00:00 | 00:00:00 | |
| OM5KV | 2026-09-01 00:46:32 | 49.73319 | 18.00171 | 5° | 27km/h | 33867m | -37.9m/s | -35.6°C | 0.2% | 0hPa | 2.6V | 00:00:00 | 00:00:00 | 00:00:00 | |
| OE5MMP-10 | 2026-09-01 00:46:30 | 49.73305 | 18.00170 | 4° | 27km/h | 33939m | -35.7m/s | -35.4°C | 1.7% | 0hPa | 2.6V | 00:00:00 | 01:59:12 | 08:30:00 | |
| SP3BTT-10 | 2026-09-01 00:46:29 | 49.73298 | 18.00169 | 11° | 33km/h | 33975m | -35.7m/s | -35.5°C | 1.8% | 0hPa | 2.5V | 00:00:00 | 00:00:00 | 00:00:00 | |
| OM5KV | 2026-09-01 00:46:28 | 49.73298 | 18.00169 | 11° | 27km/h | 33975m | -35.7m/s | -35.5°C | 0.2% | 0hPa | 2.5V | 00:00:00 | 00:00:00 | 00:00:00 | |
| OE5DRO-10 | 2026-09-01 00:46:26 | 49.73283 | 18.00158 | 54° | 40km/h | 34075m | -32.0m/s | -35.3°C | 1.7% | 0hPa | 2.5V | 00:00:00 | 00:00:00 | 00:00:00 | |
| OM5KV | 2026-09-01 00:46:25 | 49.73283 | 18.00158 | 54° | 18km/h | 34075m | -32.1m/s | -35.4°C | 0.2% | 0hPa | 2.5V | 00:00:00 | 00:00:00 | 00:00:00 | |
| PG1ADW-2 | 2026-09-01 00:46:24 | 49.73280 | 18.00142 | 83° | 47km/h | 34141m | -33.7m/s | -34.9°C | 1.7% | 0hPa | 2.5V | 00:00:00 | 00:00:00 | 00:00:00 | |
| OE5MMP-10 | 2026-09-01 00:46:20 | 49.73269 | 18.00092 | 56° | 44km/h | 34278m | -30.6m/s | -34.3°C | 1.6% | 0hPa | 2.5V | 00:00:00 | 01:59:02 | 00:00:00 | |
| OM5KV | 2026-09-01 00:46:19 | 49.73269 | 18.00093 | 57° | 40km/h | 34278m | -30.6m/s | -34.4°C | 0.2% | 0hPa | 2.5V | 00:00:00 | 00:00:00 | 00:00:00 | |
| GYPAP8-17 | 2026-09-01 00:46:18 | 49.73262 | 18.00080 | 45° | 46km/h | 34308m | -29.9m/s | -34.3°C | 0.2% | 0hPa | 2.5V | 00:00:00 | 00:00:00 | 00:00:00 | |
| HA6NAB-11 | 2026-09-01 00:46:17 | 49.73253 | 18.00068 | 35° | 53km/h | 34337m | -28.8m/s | -34.2°C | 0.2% | 0hPa | 2.5V | 00:00:00 | 00:00:00 | 00:00:00 | |
| PETON7-10 | 2026-09-01 00:46:16 | 49.73228 | 18.00048 | 27° | 46km/h | 34396m | -29.5m/s | -34.0°C | 1.6% | 0hPa | 2.5V | 00:00:00 | 01:58:58 | 00:00:00 | |
| OM5KV | 2026-09-01 00:46:12 | 49.73202 | 18.00021 | 55° | 31km/h | 34482m | -26.4m/s | -33.9°C | 0.2% | 0hPa | 2.5V | 00:00:00 | 00:00:00 | 00:00:00 | |
| HA6NAB-11 | 2026-09-01 00:46:11 | 49.73199 | 18.00010 | 81° | 29km/h | 34505m | -21.0m/s | -33.7°C | 0.2% | 0hPa | 2.5V | 00:00:00 | 00:00:00 | 00:00:00 | |
| OE5MMP-10 | 2026-09-01 00:46:10 | 49.73209 | 17.99983 | 137° | 60km/h | 34542m | -15.8m/s | -33.2°C | 1.5% | 0hPa | 2.5V | 00:00:00 | 01:58:52 | 00:00:00 | |
| SP3WXH-11 | 2026-09-01 00:46:07 | 49.73269 | 17.99915 | 141° | 42km/h | 34635m | -33.5m/s | -32.9°C | 0.2% | -1.0hPa | 2.5V | 00:00:00 | 00:00:00 | 00:00:00 | |
| POL1PZ | 2026-09-01 00:46:06 | 49.73269 | 17.99915 | 143° | 44km/h | 34636m | -33.5m/s | -32.9°C | 0.2% | 0hPa | 2.5V | 00:00:00 | 00:00:00 | 00:00:00 | |
| PG1ADW-2 | 2026-09-01 00:46:04 | 49.73273 | 17.99896 | 66° | 40km/h | 34692m | -22.0m/s | -32.9°C | 1.5% | 0hPa | 2.5V | 00:00:00 | 00:00:00 | 08:30:00 | |
| OE3OSB-13 | 2026-09-01 00:45:48 | 49.73184 | 17.99776 | 54° | 51km/h | 35008m | 9.0m/s | -33.1°C | 0.2% | -1.0hPa | 2.6V | 00:00:00 | 00:00:00 | 00:00:00 | |
| HA6NAB-11 | 2026-09-01 00:45:47 | 49.73190 | 17.99793 | 66° | 47km/h | 35017m | 7.7m/s | -33.1°C | 0.2% | 0hPa | 2.6V | 00:00:00 | 00:00:00 | 00:00:00 | |
| OE5DXL-15 | 2026-09-01 00:45:46 | 49.73175 | 17.99761 | 42° | 29km/h | 35000m | 7.6m/s | -33.1°C | 1.5% | 0hPa | 2.6V | 00:00:00 | 00:00:00 | 00:00:00 | |
| OM5KV | 2026-09-01 00:45:45 | 49.73175 | 17.99761 | 42° | 57km/h | 35000m | 7.7m/s | -33.2°C | 0.2% | 0hPa | 2.6V | 00:00:00 | 00:00:00 | 00:00:00 | |
| SP3BTT-10 | 2026-09-01 00:45:44 | 49.73153 | 17.99741 | 18° | 27km/h | 34988m | 4.5m/s | -33.1°C | 1.5% | 0hPa | 2.6V | 00:00:00 | 00:00:00 | 08:30:00 | |
| OE5DRO-10 | 2026-09-01 00:45:43 | 49.73143 | 17.99738 | 5° | 31km/h | 34983m | 6.0m/s | -33.1°C | 1.5% | 0hPa | 2.6V | 00:00:00 | 00:00:00 | 00:00:00 | |
| OE5MMP-10 | 2026-09-01 00:45:40 | 49.73137 | 17.99742 | 192° | 35km/h | 34958m | 7.8m/s | -33.0°C | 1.5% | 0hPa | 2.6V | 00:00:00 | 01:58:22 | 00:00:00 | |
| AM1SDL-15 | 2026-09-01 00:45:38 | 49.73148 | 17.99737 | 143° | 29km/h | 34946m | 5.5m/s | 0°C | 0% | 0hPa | 2.6V | 00:00:00 | 01:58:20 | 00:00:00 | |
| OM5KV | 2026-09-01 00:45:37 | 49.73148 | 17.99737 | 144° | 27km/h | 34946m | 5.6m/s | -32.9°C | 0.2% | 0hPa | 2.6V | 00:00:00 | 00:00:00 | 00:00:00 | |
| SP3WXH-11 | 2026-09-01 00:45:36 | 49.73151 | 17.99707 | 59° | 37km/h | 34925m | 8.4m/s | -32.8°C | 0.2% | -1.0hPa | 2.6V | 00:00:00 | 00:00:00 | 00:00:00 | |
| OM5KV | 2026-09-01 00:45:34 | 49.73144 | 17.99694 | 45° | 46km/h | 34917m | 8.7m/s | -32.8°C | 0.2% | 0hPa | 2.6V | 00:00:00 | 00:00:00 | 00:00:00 | |
| OM5KV | 2026-09-01 00:45:32 | 49.73135 | 17.99682 | 35° | 49km/h | 34908m | 8.2m/s | -32.8°C | 0.2% | 0hPa | 2.6V | 00:00:00 | 00:00:00 | 00:00:00 | |
| OE5MMP-10 | 2026-09-01 00:45:30 | 49.73105 | 17.99658 | 29° | 20km/h | 34888m | 6.0m/s | -32.9°C | 1.4% | 0hPa | 2.6V | 00:00:00 | 01:58:12 | 00:00:00 | |
| PETON7-10 | 2026-09-01 00:45:27 | 49.73097 | 17.99640 | 116° | 27km/h | 34865m | 8.5m/s | -33.1°C | 1.5% | 0hPa | 2.6V | 00:00:00 | 01:58:09 | 00:00:00 | |
| OM5KV | 2026-09-01 00:45:26 | 49.73097 | 17.99640 | 117° | 18km/h | 34865m | 8.5m/s | -33.2°C | 0.2% | 0hPa | 2.6V | 00:00:00 | 00:00:00 | 00:00:00 | |
| OM5KV | 2026-09-01 00:45:22 | 49.73114 | 17.99616 | 132° | 16km/h | 34835m | 6.4m/s | -33.3°C | 0.2% | 0hPa | 2.6V | 00:00:00 | 00:00:00 | 00:00:00 | |
| DB0UT-7 | 2026-09-01 00:45:21 | 49.73116 | 17.99606 | 72° | 26km/h | 34823m | 6.4m/s | -33.2°C | 1.5% | 0hPa | 2.6V | 00:00:00 | 01:58:03 | 00:00:00 | |
| PG1ADW-2 | 2026-09-01 00:45:20 | 49.73114 | 17.99599 | 61° | 29km/h | 34816m | 7.4m/s | -33.2°C | 1.5% | 0hPa | 2.6V | 00:00:00 | 01:58:02 | 00:00:00 | |
| POL1PZ | 2026-09-01 00:45:19 | 49.73114 | 17.99599 | 62° | 22km/h | 34816m | 7.4m/s | -33.3°C | 0.2% | 0hPa | 2.6V | 00:00:00 | 00:00:00 | 00:00:00 | |
| OM5KV | 2026-09-01 00:45:18 | 49.73103 | 17.99566 | 62° | 42km/h | 34793m | 6.3m/s | -33.2°C | 0.2% | 0hPa | 2.6V | 00:00:00 | 00:00:00 | 00:00:00 | |
| OE5DXL-15 | 2026-09-01 00:45:16 | 49.73097 | 17.99552 | 59° | 29km/h | 34787m | 5.5m/s | -33.2°C | 1.4% | 0hPa | 2.6V | 00:00:00 | 00:00:00 | 08:30:00 | |
| PETON7-10 | 2026-09-01 00:45:12 | 49.73077 | 17.99509 | 64° | 29km/h | 34762m | 5.8m/s | -33.2°C | 1.5% | 0hPa | 2.6V | 00:00:00 | 00:00:00 | 00:00:00 | |
| OE5MMP-10 | 2026-09-01 00:45:10 | 49.73078 | 17.99495 | 125° | 29km/h | 34748m | 8.8m/s | -33.2°C | 1.5% | 0hPa | 2.6V | 00:00:00 | 01:57:52 | 00:00:00 | |
| AM1SDL-15 | 2026-09-01 00:45:08 | 49.73088 | 17.99482 | 149° | 33km/h | 34732m | 6.3m/s | 0°C | 0% | 0hPa | 2.6V | 00:00:00 | 01:57:50 | 00:00:00 | |
| OK1SLM-15 | 2026-09-01 00:45:07 | 49.73096 | 17.99475 | 149° | 33km/h | 34726m | 5.3m/s | -33.2°C | 0.2% | 0hPa | 2.6V | 00:00:00 | 00:00:00 | 00:00:00 | |
| OE5DRO-10 | 2026-09-01 00:45:06 | 49.73107 | 17.99462 | 130° | 29km/h | 34714m | 6.3m/s | -33.2°C | 1.5% | 0hPa | 2.6V | 00:00:00 | 00:00:00 | 00:00:00 | |
| OM5KV | 2026-09-01 00:45:05 | 49.73107 | 17.99462 | 130° | 20km/h | 34714m | 6.4m/s | -33.3°C | 0.2% | 0hPa | 2.6V | 00:00:00 | 00:00:00 | 00:00:00 | |
| OE3OSB-13 | 2026-09-01 00:44:45 | 49.73087 | 17.99243 | 60° | 42km/h | 34582m | 5.5m/s | -33.9°C | 0.2% | -1.0hPa | 2.6V | 00:00:00 | 00:00:00 | 00:00:00 | |
| SP3BTT-10 | 2026-09-01 00:44:44 | 49.73083 | 17.99229 | 68° | 33km/h | 34576m | 5.9m/s | -34.0°C | 1.5% | 0hPa | 2.6V | 00:00:00 | 00:00:00 | 00:00:00 | |
| PETON7-10 | 2026-09-01 00:44:42 | 49.73079 | 17.99206 | 87° | 31km/h | 34563m | 6.0m/s | -34.2°C | 1.5% | 0hPa | 2.6V | 00:00:00 | 01:57:24 | 00:00:00 | |
| OM5KV | 2026-09-01 00:44:41 | 49.73079 | 17.99206 | 87° | 24km/h | 34563m | 6.1m/s | -34.2°C | 0.2% | 0hPa | 2.6V | 00:00:00 | 00:00:00 | 00:00:00 | |
| OE5MMP-10 | 2026-09-01 00:44:40 | 49.73079 | 17.99192 | 84° | 31km/h | 34551m | 7.3m/s | -34.4°C | 1.5% | 0hPa | 2.6V | 00:00:00 | 01:57:22 | 00:00:00 | |
| NBG1-10 | 2026-09-01 00:44:39 | 49.73078 | 17.99187 | 62° | 27km/h | 34543m | 7.9m/s | -34.5°C | 1.5% | 0hPa | 2.6V | 00:00:00 | 01:57:21 | 08:30:00 | |
| HA6NAB-11 | 2026-09-01 00:44:37 | 49.73076 | 17.99182 | 62° | 16km/h | 34536m | 5.7m/s | -34.6°C | 0.2% | 0hPa | 2.6V | 00:00:00 | 00:00:00 | 00:00:00 | |
| OM5KV | 2026-09-01 00:44:36 | 49.73074 | 17.99175 | 67° | 24km/h | 34531m | 4.7m/s | -34.6°C | 0.2% | 0hPa | 2.6V | 00:00:00 | 00:00:00 | 00:00:00 | |
| POL1PZ | 2026-09-01 00:44:35 | 49.73072 | 17.99165 | 76° | 29km/h | 34525m | 6.6m/s | -34.7°C | 0.2% | 0hPa | 2.6V | 00:00:00 | 00:00:00 | 00:00:00 | |
| SP3WXH-11 | 2026-09-01 00:44:33 | 49.73066 | 17.99121 | 73° | 46km/h | 34505m | 4.1m/s | -34.8°C | 0.2% | -1.0hPa | 2.6V | 00:00:00 | 00:00:00 | 00:00:00 | |
| HA6NAB-11 | 2026-09-01 00:44:32 | 49.73066 | 17.99121 | 74° | 47km/h | 34505m | 4.1m/s | -34.8°C | 0.2% | 0hPa | 2.6V | 00:00:00 | 00:00:00 | 00:00:00 | |
| OM5KV | 2026-09-01 00:44:31 | 49.73061 | 17.99103 | 66° | 47km/h | 34500m | 5.9m/s | -34.8°C | 0.2% | 0hPa | 2.6V | 00:00:00 | 00:00:00 | 00:00:00 | |
| OE5MMP-10 | 2026-09-01 00:44:30 | 49.73049 | 17.99075 | 46° | 31km/h | 34486m | 7.5m/s | -34.7°C | 1.6% | 0hPa | 2.6V | 00:00:00 | 01:57:12 | 00:00:00 | |
| PETON7-10 | 2026-09-01 00:44:27 | 49.73029 | 17.99047 | 48° | 33km/h | 34467m | 7.4m/s | -34.7°C | 1.6% | 0hPa | 2.6V | 00:00:00 | 00:00:00 | 08:30:00 | |
| OM5KV | 2026-09-01 00:44:26 | 49.73029 | 17.99047 | 48° | 27km/h | 34467m | 7.5m/s | -34.8°C | 0.2% | 0hPa | 2.6V | 00:00:00 | 00:00:00 | 00:00:00 | |
| OM5KV | 2026-09-01 00:44:24 | 49.73022 | 17.99030 | 67° | 24km/h | 34454m | 4.3m/s | -34.8°C | 0.2% | 0hPa | 2.6V | 00:00:00 | 00:00:00 | 00:00:00 | |
| DB0UT-7 | 2026-09-01 00:44:23 | 49.73015 | 17.99013 | 52° | 35km/h | 34445m | 6.7m/s | -34.8°C | 1.6% | 0hPa | 2.6V | 00:00:00 | 00:00:00 | 00:00:00 | |
| OE5MMP-10 | 2026-09-01 00:44:20 | 49.72997 | 17.98985 | 48° | 37km/h | 34427m | 3.3m/s | -34.9°C | 1.6% | 0hPa | 2.6V | 00:00:00 | 01:57:02 | 00:00:00 | |
| OM5KV | 2026-09-01 00:44:17 | 49.72985 | 17.98958 | 64° | 42km/h | 34415m | 8.3m/s | -35.1°C | 0.2% | 0hPa | 2.6V | 00:00:00 | 00:00:00 | 00:00:00 | |
| OE5DXL-15 | 2026-09-01 00:44:16 | 49.72978 | 17.98928 | 74° | 33km/h | 34401m | 3.2m/s | -35.1°C | 1.6% | 0hPa | 2.6V | 00:00:00 | 00:00:00 | 00:00:00 | |
| OM5KV | 2026-09-01 00:44:15 | 49.72978 | 17.98928 | 75° | 37km/h | 34401m | 3.2m/s | -35.2°C | 0.2% | 0hPa | 2.6V | 00:00:00 | 00:00:00 | 00:00:00 | |
| POL1PZ | 2026-09-01 00:44:14 | 49.72975 | 17.98916 | 68° | 33km/h | 34398m | 3.6m/s | -35.2°C | 0.2% | 0hPa | 2.6V | 00:00:00 | 00:00:00 | 00:00:00 | |
| PETON7-10 | 2026-09-01 00:44:12 | 49.72960 | 17.98891 | 23° | 35km/h | 34376m | 6.0m/s | -35.3°C | 1.6% | 0hPa | 2.6V | 00:00:00 | 00:00:00 | 00:00:00 | |
| OM5KV | 2026-09-01 00:44:11 | 49.72960 | 17.98891 | 24° | 33km/h | 34376m | 6.1m/s | -35.4°C | 0.2% | 0hPa | 2.6V | 00:00:00 | 00:00:00 | 00:00:00 | |
| OE5MMP-10 | 2026-09-01 00:44:10 | 49.72944 | 17.98881 | 27° | 35km/h | 34367m | 5.2m/s | -35.3°C | 1.6% | 0hPa | 2.6V | 00:00:00 | 01:56:52 | 00:00:00 | |
| OE5DRO-10 | 2026-09-01 00:44:08 | 49.72932 | 17.98867 | 49° | 33km/h | 34352m | 7.4m/s | -35.4°C | 1.6% | 0hPa | 2.6V | 00:00:00 | 00:00:00 | 00:00:00 | |
| OM5KV | 2026-09-01 00:44:05 | 49.72916 | 17.98835 | 50° | 37km/h | 34338m | 6.5m/s | -35.6°C | 0.2% | 0hPa | 2.6V | 00:00:00 | 00:00:00 | 00:00:00 | |
| SP3WXH-11 | 2026-09-01 00:44:02 | 49.72894 | 17.98806 | 37° | 38km/h | 34318m | 4.3m/s | -35.7°C | 0.2% | -1.0hPa | 2.6V | 00:00:00 | 00:00:00 | 00:00:00 | |
| OE3JTB-15 | 2026-09-01 00:44:01 | 49.72886 | 17.98797 | 40° | 29km/h | 34313m | 5.6m/s | -35.7°C | 1.6% | 0hPa | 2.6V | 00:00:00 | 00:00:00 | 08:30:00 | |
| SP3BTT-10 | 2026-09-01 00:43:59 | 49.72874 | 17.98779 | 48° | 18km/h | 34300m | 5.5m/s | -35.7°C | 1.6% | 0hPa | 2.6V | 00:00:00 | 00:00:00 | 00:00:00 | |
| OM5KV | 2026-09-01 00:43:58 | 49.72874 | 17.98779 | 49° | 31km/h | 34300m | 5.5m/s | -35.8°C | 0.2% | 0hPa | 2.6V | 00:00:00 | 00:00:00 | 00:00:00 | |
| PETON7-10 | 2026-09-01 00:43:57 | 49.72863 | 17.98764 | 31° | 29km/h | 34291m | 5.4m/s | -35.8°C | 1.6% | 0hPa | 2.6V | 00:00:00 | 01:56:39 | 00:00:00 | |
| POL1PZ | 2026-09-01 00:43:54 | 49.72849 | 17.98756 | 15° | 31km/h | 34276m | 6.3m/s | -36.0°C | 0.2% | 0hPa | 2.6V | 00:00:00 | 00:00:00 | 00:00:00 | |
| DB0UT-7 | 2026-09-01 00:43:53 | 49.72834 | 17.98748 | 27° | 22km/h | 34266m | 5.1m/s | -36.0°C | 1.7% | 0hPa | 2.6V | 00:00:00 | 01:56:35 | 00:00:00 | |
| OE5MMP-10 | 2026-09-01 00:43:50 | 49.72816 | 17.98723 | 54° | 27km/h | 34247m | 4.3m/s | -36.3°C | 1.7% | 0hPa | 2.6V | 00:00:00 | 01:56:32 | 00:00:00 | |
| OE5DRO-10 | 2026-09-01 00:43:49 | 49.72810 | 17.98713 | 48° | 27km/h | 34242m | 4.3m/s | -36.4°C | 1.7% | 0hPa | 2.6V | 00:00:00 | 00:00:00 | 00:00:00 | |
| OM5KV | 2026-09-01 00:43:47 | 49.72804 | 17.98703 | 40° | 35km/h | 34237m | 6.6m/s | -36.5°C | 0.3% | 0hPa | 2.6V | 00:00:00 | 00:00:00 | 00:00:00 | |
| OE5DXL-15 | 2026-09-01 00:43:46 | 49.72788 | 17.98692 | 14° | 24km/h | 34224m | 5.4m/s | -36.5°C | 1.7% | 0hPa | 2.6V | 00:00:00 | 00:00:00 | 00:00:00 | |
| S52SK | 2026-09-01 00:43:44 | 49.72780 | 17.98690 | 5° | 29km/h | 34219m | 4.7m/s | -36.6°C | 0.3% | 0hPa | 2.6V | 00:00:00 | 00:00:00 | 00:00:00 | |
| OE3OSB-13 | 2026-09-01 00:43:43 | 49.72768 | 17.98690 | 358° | 18km/h | 34208m | 7.5m/s | -36.7°C | 0.2% | -1.0hPa | 2.6V | 00:00:00 | 00:00:00 | 00:00:00 | |
| OM5KV | 2026-09-01 00:43:42 | 49.72768 | 17.98689 | 359° | 20km/h | 34208m | 7.5m/s | -36.7°C | 0.3% | 0hPa | 2.6V | 00:00:00 | 00:00:00 | 00:00:00 | |
| PETON7-10 | 2026-09-01 00:43:41 | 49.72760 | 17.98690 | 360° | 26km/h | 34195m | 5.1m/s | -36.8°C | 1.7% | 0hPa | 2.6V | 00:00:00 | 00:00:00 | 00:00:00 | |
| PG1ADW-2 | 2026-09-01 00:43:40 | 49.72757 | 17.98690 | 360° | 22km/h | 34190m | 5.3m/s | -36.9°C | 1.8% | 0hPa | 2.6V | 00:00:00 | 00:00:00 | 00:00:00 | |
| NBG1-10 | 2026-09-01 00:43:36 | 49.72731 | 17.98683 | 23° | 24km/h | 34168m | 5.1m/s | -36.9°C | 1.8% | 0hPa | 2.6V | 00:00:00 | 01:56:18 | 00:00:00 | |
| HA6NAB-11 | 2026-09-01 00:43:35 | 49.72731 | 17.98683 | 24° | 33km/h | 34168m | 5.2m/s | -36.9°C | 0.3% | 0hPa | 2.6V | 00:00:00 | 00:00:00 | 00:00:00 | |
| POL1PZ | 2026-09-01 00:43:33 | 49.72718 | 17.98670 | 43° | 29km/h | 34156m | 6.7m/s | -36.9°C | 0.3% | 0hPa | 2.6V | 00:00:00 | 00:00:00 | 00:00:00 | |
| OE3JTB-15 | 2026-09-01 00:43:32 | 49.72703 | 17.98651 | 23° | 18km/h | 34139m | 6.3m/s | -36.9°C | 1.8% | 0hPa | 2.6V | 00:00:00 | 00:00:00 | 00:00:00 | |
| SP3WXH-11 | 2026-09-01 00:43:31 | 49.72703 | 17.98651 | 22° | 26km/h | 34139m | 6.3m/s | -37.0°C | 0.2% | -1.0hPa | 2.6V | 00:00:00 | 00:00:00 | 00:00:00 | |
| OE5MMP-10 | 2026-09-01 00:43:30 | 49.72696 | 17.98649 | 7° | 16km/h | 34132m | 6.8m/s | -36.9°C | 1.8% | 0hPa | 2.6V | 00:00:00 | 01:56:12 | 08:30:00 | |
| PETON7-10 | 2026-09-01 00:43:26 | 49.72673 | 17.98658 | 330° | 18km/h | 34109m | 6.8m/s | -36.9°C | 1.8% | 0hPa | 2.6V | 00:00:00 | 00:00:00 | 00:00:00 | |
| OM5KV | 2026-09-01 00:43:24 | 49.72671 | 17.98660 | 327° | 4km/h | 34102m | 6.5m/s | -36.9°C | 0.2% | 0hPa | 2.6V | 00:00:00 | 00:00:00 | 00:00:00 | |
| OM5KV | 2026-09-01 00:43:21 | 49.72669 | 17.98652 | 58° | 15km/h | 34087m | 5.9m/s | -36.9°C | 0.3% | 0hPa | 2.6V | 00:00:00 | 00:00:00 | 00:00:00 | |
| PG1ADW-2 | 2026-09-01 00:43:20 | 49.72660 | 17.98639 | 39° | 18km/h | 34073m | 6.6m/s | -36.8°C | 1.7% | 0hPa | 2.6V | 00:00:00 | 00:00:00 | 00:00:00 | |
| OM5KV | 2026-09-01 00:43:19 | 49.72660 | 17.98639 | 40° | 31km/h | 34073m | 6.6m/s | -36.9°C | 0.3% | 0hPa | 2.6V | 00:00:00 | 00:00:00 | 00:00:00 | |
| OE5DXL-15 | 2026-09-01 00:43:16 | 49.72636 | 17.98610 | 41° | 15km/h | 34050m | 6.0m/s | -36.8°C | 1.7% | 0hPa | 2.6V | 00:00:00 | 00:00:00 | 00:00:00 | |
| OM5KV | 2026-09-01 00:43:15 | 49.72636 | 17.98610 | 41° | 20km/h | 34050m | 6.1m/s | -36.9°C | 0.3% | 0hPa | 2.6V | 00:00:00 | 00:00:00 | 00:00:00 | |
| OE3OSB-13 | 2026-09-01 00:43:12 | 49.72625 | 17.98608 | 315° | 15km/h | 34024m | 7.3m/s | -37.1°C | 0.2% | -1.0hPa | 2.6V | 00:00:00 | 00:00:00 | 00:00:00 | |
| PETON7-10 | 2026-09-01 00:43:11 | 49.72623 | 17.98613 | 299° | 15km/h | 34018m | 5.5m/s | -37.1°C | 1.8% | 0hPa | 2.6V | 00:00:00 | 01:55:53 | 00:00:00 | |
| OE5MMP-10 | 2026-09-01 00:43:10 | 49.72621 | 17.98619 | 282° | 15km/h | 34013m | 4.6m/s | -37.2°C | 1.8% | 0hPa | 2.6V | 00:00:00 | 01:55:52 | 00:00:00 | |
| OM5KV | 2026-09-01 00:43:07 | 49.72623 | 17.98626 | 197° | 7km/h | 34000m | 7.3m/s | -37.4°C | 0.3% | 0hPa | 2.6V | 00:00:00 | 00:00:00 | 00:00:00 | |
| OM5KV | 2026-09-01 00:43:01 | 49.72620 | 17.98601 | 6° | 18km/h | 33961m | 5.8m/s | -37.7°C | 0.3% | 0hPa | 2.6V | 00:00:00 | 00:00:00 | 00:00:00 | |
| OE5MMP-10 | 2026-09-01 00:43:00 | 49.72613 | 17.98604 | 316° | 15km/h | 33949m | 7.4m/s | -37.8°C | 1.8% | 0hPa | 2.6V | 00:00:00 | 01:55:42 | 00:00:00 | |
| SP3BTT-10 | 2026-09-01 00:42:58 | 49.72611 | 17.98613 | 253° | 22km/h | 33935m | 5.7m/s | -38.0°C | 1.8% | 0hPa | 2.7V | 00:00:00 | 00:00:00 | 00:00:00 | |
| OM5KV | 2026-09-01 00:42:57 | 49.72612 | 17.98618 | 251° | 13km/h | 33930m | 5.3m/s | -38.1°C | 0.3% | 0hPa | 2.6V | 00:00:00 | 00:00:00 | 00:00:00 | |
| PETON7-10 | 2026-09-01 00:42:56 | 49.72613 | 17.98622 | 250° | 18km/h | 33923m | 6.5m/s | -38.1°C | 1.8% | 0hPa | 2.6V | 00:00:00 | 00:00:00 | 00:00:00 | |
| OE5DRO-10 | 2026-09-01 00:42:52 | 49.72619 | 17.98610 | 117° | 20km/h | 33899m | 7.8m/s | -38.1°C | 1.9% | 0hPa | 2.6V | 00:00:00 | 00:00:00 | 00:00:00 | |
| POL1PZ | 2026-09-01 00:42:51 | 49.72619 | 17.98610 | 118° | 26km/h | 33899m | 7.9m/s | -38.1°C | 0.3% | 0hPa | 2.6V | 00:00:00 | 00:00:00 | 00:00:00 | |
| OE5MMP-10 | 2026-09-01 00:42:50 | 49.72625 | 17.98591 | 121° | 18km/h | 33883m | 5.1m/s | -38.1°C | 1.9% | 0hPa | 2.6V | 00:00:00 | 01:55:32 | 00:00:00 | |
| OM5KV | 2026-09-01 00:42:48 | 49.72619 | 17.98576 | 11° | 24km/h | 33859m | 10.4m/s | -38.4°C | 0.3% | 0hPa | 2.6V | 00:00:00 | 00:00:00 | 00:00:00 | |
| OM5KV | 2026-09-01 00:42:47 | 49.72594 | 17.98571 | 169° | 7km/h | 33820m | 5.5m/s | -38.7°C | 0.3% | 0hPa | 2.6V | 00:00:00 | 00:00:00 | 00:00:00 | |
| OM5KV | 2026-09-01 00:42:34 | 49.72607 | 17.98540 | 110° | 29km/h | 33785m | 6.9m/s | -38.6°C | 0.3% | 0hPa | 2.6V | 00:00:00 | 00:00:00 | 00:00:00 | |
| OE5DRO-10 | 2026-09-01 00:42:33 | 49.72610 | 17.98522 | 94° | 26km/h | 33771m | 5.8m/s | -38.5°C | 2.0% | 0hPa | 2.6V | 00:00:00 | 00:00:00 | 00:00:00 | |
| OE3JTB-15 | 2026-09-01 00:42:31 | 49.72604 | 17.98506 | 35° | 27km/h | 33751m | 8.8m/s | -38.3°C | 1.9% | 0hPa | 2.6V | 00:00:00 | 00:00:00 | 00:00:00 | |
| OE5MMP-10 | 2026-09-01 00:42:30 | 49.72604 | 17.98506 | 35° | 24km/h | 33751m | 8.8m/s | -38.3°C | 1.9% | 0hPa | 2.6V | 00:00:00 | 01:55:12 | 00:00:00 | |
| SP3WXH-11 | 2026-09-01 00:42:29 | 49.72600 | 17.98501 | 34° | 24km/h | 33742m | 7.2m/s | -38.3°C | 0.3% | -1.0hPa | 2.6V | 00:00:00 | 00:00:00 | 00:00:00 | |
| OM5KV | 2026-09-01 00:42:28 | 49.72600 | 17.98501 | 35° | 24km/h | 33742m | 7.2m/s | -38.3°C | 0.3% | 0hPa | 2.6V | 00:00:00 | 00:00:00 | 00:00:00 | |
| PETON7-10 | 2026-09-01 00:42:27 | 49.72589 | 17.98480 | 77° | 27km/h | 33726m | 7.5m/s | -38.1°C | 1.9% | 0hPa | 2.6V | 00:00:00 | 01:55:08 | 00:00:00 | |
| DB0UT-7 | 2026-09-01 00:42:25 | 49.72589 | 17.98471 | 99° | 31km/h | 33717m | 10.0m/s | -38.1°C | 1.9% | 0hPa | 2.6V | 00:00:00 | 00:00:00 | 00:00:00 | |
| OM5KV | 2026-09-01 00:42:23 | 49.72591 | 17.98464 | 126° | 26km/h | 33708m | 9.0m/s | -38.1°C | 0.3% | 0hPa | 2.6V | 00:00:00 | 00:00:00 | 00:00:00 | |
| PG1ADW-2 | 2026-09-01 00:42:20 | 49.72603 | 17.98427 | 88° | 29km/h | 33682m | 7.9m/s | -37.9°C | 1.9% | 0hPa | 2.6V | 00:00:00 | 00:00:00 | 00:00:00 | |
| HA6NAB-11 | 2026-09-01 00:42:17 | 49.72597 | 17.98406 | 48° | 33km/h | 33668m | 7.3m/s | -38.0°C | 0.3% | 0hPa | 2.6V | 00:00:00 | 00:00:00 | 00:00:00 | |
| OE5DXL-15 | 2026-09-01 00:42:16 | 49.72584 | 17.98392 | 26° | 31km/h | 33650m | 10.3m/s | -38.2°C | 1.9% | 0hPa | 2.6V | 00:00:00 | 00:00:00 | 00:00:00 | |
| OE5DRO-10 | 2026-09-01 00:42:14 | 49.72570 | 17.98384 | 19° | 33km/h | 33637m | 4.5m/s | -38.3°C | 1.9% | 0hPa | 2.7V | 00:00:00 | 00:00:00 | 00:00:00 | |
| SP3BTT-10 | 2026-09-01 00:42:13 | 49.72564 | 17.98380 | 29° | 24km/h | 33631m | 6.2m/s | -38.2°C | 1.9% | 0hPa | 2.6V | 00:00:00 | 00:00:00 | 00:00:00 | |
| HA6NAB-11 | 2026-09-01 00:42:12 | 49.72564 | 17.98380 | 29° | 24km/h | 33631m | 6.2m/s | -38.3°C | 0.3% | 0hPa | 2.6V | 00:00:00 | 00:00:00 | 00:00:00 | |
| PETON7-10 | 2026-09-01 00:42:11 | 49.72556 | 17.98368 | 69° | 33km/h | 33617m | 6.3m/s | -38.3°C | 1.9% | 0hPa | 2.6V | 00:00:00 | 00:00:00 | 08:30:00 | |
| OE5MMP-10 | 2026-09-01 00:42:10 | 49.72555 | 17.98358 | 86° | 33km/h | 33611m | 5.7m/s | -38.3°C | 1.9% | 0hPa | 2.6V | 00:00:00 | 01:54:52 | 00:00:00 | |
| OM5KV | 2026-09-01 00:42:06 | 49.72557 | 17.98327 | 99° | 26km/h | 33587m | 9.3m/s | -38.5°C | 0.3% | 0hPa | 2.6V | 00:00:00 | 00:00:00 | 00:00:00 | |
| OM5KV | 2026-09-01 00:42:03 | 49.72553 | 17.98299 | 61° | 29km/h | 33569m | 6.7m/s | -38.6°C | 0.3% | 0hPa | 2.6V | 00:00:00 | 00:00:00 | 00:00:00 | |
| SP3WXH-11 | 2026-09-01 00:41:58 | 49.72513 | 17.98217 | 56° | 37km/h | 33526m | 9.7m/s | -38.5°C | 0.3% | -1.0hPa | 2.6V | 00:00:00 | 00:00:00 | 00:00:00 | |
| OM5KV | 2026-09-01 00:41:57 | 49.72513 | 17.98217 | 58° | 37km/h | 33526m | 9.7m/s | -38.5°C | 0.3% | 0hPa | 2.6V | 00:00:00 | 00:00:00 | 00:00:00 | |
| PETON7-10 | 2026-09-01 00:41:56 | 49.72508 | 17.98198 | 86° | 33km/h | 33508m | 6.4m/s | -38.4°C | 1.9% | 0hPa | 2.6V | 00:00:00 | 00:00:00 | 00:00:00 | |
| OE5DRO-10 | 2026-09-01 00:41:55 | 49.72508 | 17.98190 | 95° | 31km/h | 33501m | 7.1m/s | -38.4°C | 1.9% | 0hPa | 2.6V | 00:00:00 | 00:00:00 | 00:00:00 | |
| POL1PZ | 2026-09-01 00:41:51 | 49.72506 | 17.98159 | 72° | 33km/h | 33479m | 5.5m/s | -38.5°C | 0.3% | 0hPa | 2.6V | 00:00:00 | 00:00:00 | 00:00:00 | |
| OE5MMP-10 | 2026-09-01 00:41:50 | 49.72498 | 17.98135 | 54° | 37km/h | 33465m | 9.3m/s | -38.5°C | 1.9% | 0hPa | 2.6V | 00:00:00 | 01:54:32 | 00:00:00 | |
| OM5KV | 2026-09-01 00:41:49 | 49.72498 | 17.98135 | 54° | 35km/h | 33465m | 9.4m/s | -38.6°C | 0.3% | 0hPa | 2.6V | 00:00:00 | 00:00:00 | 00:00:00 | |
| S52SK | 2026-09-01 00:41:47 | 49.72486 | 17.98115 | 42° | 38km/h | 33447m | 5.8m/s | -38.7°C | 0.3% | 0hPa | 2.6V | 00:00:00 | 00:00:00 | 00:00:00 | |
| OE5DXL-15 | 2026-09-01 00:41:46 | 49.72471 | 17.98093 | 50° | 29km/h | 33434m | 8.2m/s | -38.7°C | 1.9% | 0hPa | 2.6V | 00:00:00 | 00:00:00 | 00:00:00 | |
| OM5KV | 2026-09-01 00:41:45 | 49.72471 | 17.98093 | 51° | 42km/h | 33434m | 8.2m/s | -38.7°C | 0.3% | 0hPa | 2.6V | 00:00:00 | 00:00:00 | 00:00:00 | |
| OM5KV | 2026-09-01 00:41:44 | 49.72465 | 17.98079 | 60° | 44km/h | 33425m | 9.4m/s | -38.8°C | 0.3% | 0hPa | 2.6V | 00:00:00 | 00:00:00 | 00:00:00 | |
| PETON7-10 | 2026-09-01 00:41:41 | 49.72461 | 17.98031 | 119° | 31km/h | 33396m | 11.6m/s | -38.8°C | 1.9% | 0hPa | 2.6V | 00:00:00 | 01:54:23 | 00:00:00 | |
| OE5MMP-10 | 2026-09-01 00:41:40 | 49.72465 | 17.98024 | 140° | 37km/h | 33386m | 8.2m/s | -38.9°C | 1.9% | 0hPa | 2.6V | 00:00:00 | 01:54:22 | 00:00:00 | |
| OE3OSB-13 | 2026-09-01 00:41:39 | 49.72469 | 17.98018 | 131° | 22km/h | 33380m | 2.8m/s | -38.9°C | 0.3% | -1.0hPa | 2.6V | 00:00:00 | 00:00:00 | 00:00:00 | |
| OE5DRO-10 | 2026-09-01 00:41:36 | 49.72473 | 17.97988 | 77° | 29km/h | 33361m | 10.8m/s | -38.9°C | 1.9% | 0hPa | 2.6V | 00:00:00 | 00:00:00 | 00:00:00 | |
| OE3JTB-15 | 2026-09-01 00:41:33 | 49.72443 | 17.97931 | 42° | 24km/h | 33332m | 8.6m/s | -38.9°C | 1.9% | 0hPa | 2.6V | 00:00:00 | 01:54:14 | 00:00:00 | |
| OE5MMP-10 | 2026-09-01 00:41:30 | 49.72432 | 17.97913 | 63° | 18km/h | 33317m | 5.2m/s | -39.0°C | 1.9% | 0hPa | 2.6V | 00:00:00 | 01:54:12 | 00:00:00 | |
| OK1SLM-15 | 2026-09-01 00:41:29 | 49.72433 | 17.97913 | 63° | 22km/h | 33317m | 5.2m/s | -39.1°C | 0.3% | 0hPa | 2.6V | 00:00:00 | 00:00:00 | 00:00:00 | |
| OM5KV | 2026-09-01 00:41:27 | 49.72431 | 17.97898 | 95° | 20km/h | 33303m | 9.2m/s | -39.1°C | 0.3% | 0hPa | 2.6V | 00:00:00 | 00:00:00 | 00:00:00 | |
| DB0DAN | 2026-09-01 00:41:25 | 49.72434 | 17.97875 | 112° | 18km/h | 33281m | 5.3m/s | -39.3°C | 0.3% | 0hPa | 2.6V | 00:00:00 | 00:00:00 | 00:00:00 | |
| OM5KV | 2026-09-01 00:37:42 | 49.71869 | 17.97092 | 342° | 15km/h | 31678m | 7.6m/s | -39.7°C | 0.4% | 0hPa | 2.6V | 00:00:00 | 00:00:00 | 00:00:00 | |
| OE3JTB-15 | 2026-09-01 00:37:41 | 49.71863 | 17.97093 | 36° | 24km/h | 31660m | 6.9m/s | -39.6°C | 2.1% | 0hPa | 2.6V | 00:00:00 | 00:00:00 | 00:00:00 | |
| DB0DAN | 2026-09-01 00:37:40 | 49.71862 | 17.97091 | 34° | 11km/h | 31654m | 5.4m/s | -39.6°C | 0.3% | 0hPa | 2.6V | 00:00:00 | 00:00:00 | 00:00:00 | |
| PETON7-10 | 2026-09-01 00:37:40 | 49.71862 | 17.97091 | 35° | 24km/h | 31655m | 5.4m/s | -39.6°C | 2.1% | 0hPa | 2.6V | 00:00:00 | 00:00:00 | 08:30:00 | |
| OM5KV | 2026-09-01 00:37:37 | 49.71853 | 17.97086 | 18° | 26km/h | 31640m | 9.7m/s | -39.6°C | 0.4% | 0hPa | 2.6V | 00:00:00 | 00:00:00 | 00:00:00 | |
| HA6NAB-11 | 2026-09-01 00:37:35 | 49.71836 | 17.97079 | 16° | 44km/h | 31624m | 6.8m/s | -39.6°C | 0.4% | 0hPa | 2.6V | 00:00:00 | 00:00:00 | 00:00:00 | |
| OE5DRO-10 | 2026-09-01 00:37:34 | 49.71815 | 17.97068 | 23° | 22km/h | 31608m | 8.7m/s | -39.4°C | 2.1% | 0hPa | 2.6V | 00:00:00 | 00:00:00 | 00:00:00 | |
| OM5KV | 2026-09-01 00:37:31 | 49.71799 | 17.97057 | 22° | 27km/h | 31595m | 5.1m/s | -39.4°C | 0.3% | 0hPa | 2.6V | 00:00:00 | 00:00:00 | 00:00:00 | |
| OE5MMP-10 | 2026-09-01 00:37:30 | 49.71788 | 17.97054 | 358° | 16km/h | 31581m | 8.7m/s | -39.3°C | 2.1% | 0hPa | 2.6V | 00:00:00 | 01:50:12 | 08:30:00 | |
| HA6NAB-11 | 2026-09-01 00:37:29 | 49.71788 | 17.97054 | 358° | 20km/h | 31581m | 8.8m/s | -39.3°C | 0.4% | 0hPa | 2.6V | 00:00:00 | 00:00:00 | 00:00:00 | |
| DB0DAN | 2026-09-01 00:37:25 | 49.71773 | 17.97063 | 34° | 5km/h | 31542m | 8m/s | -39.1°C | 0.3% | 0hPa | 2.6V | 00:00:00 | 00:00:00 | 00:00:00 | |
| PETON7-10 | 2026-09-01 00:37:24 | 49.71772 | 17.97061 | 44° | 18km/h | 31536m | 6.2m/s | -39.0°C | 2.0% | 0hPa | 2.6V | 00:00:00 | 00:00:00 | 00:00:00 | |
| OM5KV | 2026-09-01 00:37:23 | 49.71771 | 17.97061 | 45° | 11km/h | 31536m | 6.2m/s | -39.0°C | 0.4% | 0hPa | 2.6V | 00:00:00 | 00:00:00 | 00:00:00 | |
| POL1PZ | 2026-09-01 00:37:21 | 49.71764 | 17.97055 | 18° | 24km/h | 31521m | 9.1m/s | -38.9°C | 0.3% | 0hPa | 2.6V | 00:00:00 | 00:00:00 | 00:00:00 | |
| OE5MMP-10 | 2026-09-01 00:37:20 | 49.71750 | 17.97051 | 6° | 18km/h | 31505m | 6.1m/s | -38.8°C | 2.0% | 0hPa | 2.6V | 00:00:00 | 01:50:02 | 00:00:00 | |
| SP3WXH-11 | 2026-09-01 00:37:19 | 49.71742 | 17.97050 | 5° | 29km/h | 31499m | 6.5m/s | -38.8°C | 0.3% | -1.0hPa | 2.6V | 00:00:00 | 00:00:00 | 00:00:00 | |
| HA6NAB-11 | 2026-09-01 00:37:18 | 49.71742 | 17.97050 | 7° | 29km/h | 31499m | 6.5m/s | -38.8°C | 0.3% | 0hPa | 2.6V | 00:00:00 | 00:00:00 | 00:00:00 | |
| OE5DXL-15 | 2026-09-01 00:37:16 | 49.71728 | 17.97047 | 351° | 15km/h | 31476m | 6.8m/s | -38.6°C | 2.0% | 0hPa | 2.6V | 00:00:00 | 00:00:00 | 00:00:00 | |
| OE5DRO-10 | 2026-09-01 00:37:15 | 49.71727 | 17.97049 | 298° | 11km/h | 31470m | 6.2m/s | -38.6°C | 2.0% | 0hPa | 2.6V | 00:00:00 | 00:00:00 | 00:00:00 | |
| OM5KV | 2026-09-01 00:37:13 | 49.71725 | 17.97058 | 289° | 18km/h | 31453m | 8.7m/s | -38.6°C | 0.4% | 0hPa | 2.6V | 00:00:00 | 00:00:00 | 00:00:00 | |
| HA6NAB-11 | 2026-09-01 00:37:12 | 49.71725 | 17.97058 | 289° | 18km/h | 31453m | 8.7m/s | -38.6°C | 0.4% | 0hPa | 2.6V | 00:00:00 | 00:00:00 | 00:00:00 | |
| OE5MMP-10 | 2026-09-01 00:37:10 | 49.71720 | 17.97076 | 295° | 11km/h | 31433m | 7.4m/s | -38.6°C | 1.9% | 0hPa | 2.6V | 00:00:00 | 01:49:52 | 00:00:00 | |
| PETON7-10 | 2026-09-01 00:37:09 | 49.71719 | 17.97079 | 302° | 13km/h | 31425m | 9.3m/s | -38.6°C | 2.0% | 0hPa | 2.6V | 00:00:00 | 01:49:51 | 00:00:00 | |
| NBG1-10 | 2026-09-01 00:37:06 | 49.71716 | 17.97077 | 19° | 13km/h | 31404m | 5.9m/s | -38.8°C | 2.0% | 0hPa | 2.6V | 00:00:00 | 01:49:48 | 00:00:00 | |
| OM5KV | 2026-09-01 00:37:04 | 49.71714 | 17.97076 | 6° | 13km/h | 31396m | 8.8m/s | -38.9°C | 0.4% | 0hPa | 2.6V | 00:00:00 | 00:00:00 | 00:00:00 | |
| OM5KV | 2026-09-01 00:37:03 | 49.71710 | 17.97077 | 355° | 18km/h | 31388m | 8.2m/s | -39.0°C | 0.3% | 0hPa | 2.6V | 00:00:00 | 00:00:00 | 00:00:00 | |
| SP3WXH-11 | 2026-09-01 00:36:48 | 49.71732 | 17.97117 | 282° | 16km/h | 31269m | 8.5m/s | -39.0°C | 0.3% | -1.0hPa | 2.6V | 00:00:00 | 00:00:00 | 00:00:00 | |
| OM5KV | 2026-09-01 00:36:47 | 49.71732 | 17.97117 | 284° | 16km/h | 31269m | 8.5m/s | -39.0°C | 0.4% | 0hPa | 2.6V | 00:00:00 | 00:00:00 | 00:00:00 | |
| OE5DXL-15 | 2026-09-01 00:36:46 | 49.71730 | 17.97131 | 268° | 16km/h | 31258m | 5.2m/s | -38.9°C | 2.0% | 0hPa | 2.6V | 00:00:00 | 00:00:00 | 00:00:00 | |
| OM5KV | 2026-09-01 00:36:45 | 49.71731 | 17.97131 | 269° | 16km/h | 31258m | 5.2m/s | -38.9°C | 0.4% | 0hPa | 2.6V | 00:00:00 | 00:00:00 | 00:00:00 | |
| SP3BTT-10 | 2026-09-01 00:36:41 | 49.71745 | 17.97131 | 153° | 18km/h | 31221m | 7.0m/s | 0°C | 0% | 0hPa | 2.6V | 00:00:00 | 00:00:00 | 00:00:00 | |
| OE5MMP-10 | 2026-09-01 00:36:40 | 49.71749 | 17.97128 | 165° | 20km/h | 31213m | 9.1m/s | -38.9°C | 2.0% | 0hPa | 2.6V | 00:00:00 | 01:49:22 | 00:00:00 | |
| PETON7-10 | 2026-09-01 00:36:39 | 49.71756 | 17.97127 | 181° | 16km/h | 31205m | 6.8m/s | -38.9°C | 2.0% | 0hPa | 2.6V | 00:00:00 | 00:00:00 | 00:00:00 | |
| OM5KV | 2026-09-01 00:36:37 | 49.71770 | 17.97129 | 190° | 29km/h | 31192m | 6.8m/s | -38.9°C | 0.3% | 0hPa | 2.6V | 00:00:00 | 00:00:00 | 00:00:00 | |
| OE5DRO-10 | 2026-09-01 00:36:35 | 49.71783 | 17.97133 | 196° | 11km/h | 31179m | 5.0m/s | -38.9°C | 2.0% | 0hPa | 2.6V | 00:00:00 | 00:00:00 | 00:00:00 | |
| OE5MMP-10 | 2026-09-01 00:36:30 | 49.71790 | 17.97149 | 247° | 13km/h | 31142m | 5.2m/s | -39.0°C | 2.0% | 0hPa | 2.6V | 00:00:00 | 01:49:12 | 00:00:00 | |
| OM5KV | 2026-09-01 00:36:29 | 49.71790 | 17.97149 | 248° | 11km/h | 31142m | 5.3m/s | -39.0°C | 0.3% | 0hPa | 2.6V | 00:00:00 | 00:00:00 | 00:00:00 | |
| OE3OSB-13 | 2026-09-01 00:36:28 | 49.71793 | 17.97152 | 173° | 7km/h | 31129m | 9.0m/s | -39.1°C | 0.3% | -1.0hPa | 2.6V | 00:00:00 | 00:00:00 | 00:00:00 | |
| NBG1-10 | 2026-09-01 00:36:26 | 49.71797 | 17.97147 | 129° | 18km/h | 31112m | 5.0m/s | -39.1°C | 2.0% | 0hPa | 2.6V | 00:00:00 | 01:49:08 | 08:30:00 | |
| PETON7-10 | 2026-09-01 00:36:24 | 49.71801 | 17.97141 | 164° | 18km/h | 31100m | 7.5m/s | -39.1°C | 2.0% | 0hPa | 2.6V | 00:00:00 | 01:49:06 | 00:00:00 | |
| OM5KV | 2026-09-01 00:36:23 | 49.71801 | 17.97141 | 164° | 9km/h | 31100m | 7.5m/s | -39.1°C | 0.4% | 0hPa | 2.6V | 00:00:00 | 00:00:00 | 00:00:00 | |
| PG1ADW-2 | 2026-09-01 00:36:20 | 49.71808 | 17.97162 | 267° | 16km/h | 31069m | 8.1m/s | -39.1°C | 2.0% | 0hPa | 2.6V | 00:00:00 | 00:00:00 | 00:00:00 | |
| OM5KV | 2026-09-01 00:36:19 | 49.71808 | 17.97162 | 267° | 22km/h | 31069m | 8.2m/s | -39.2°C | 0.3% | 0hPa | 2.6V | 00:00:00 | 00:00:00 | 00:00:00 | |
| OM5KV | 2026-09-01 00:36:18 | 49.71808 | 17.97170 | 276° | 18km/h | 31061m | 7.0m/s | -39.2°C | 0.3% | 0hPa | 2.6V | 00:00:00 | 00:00:00 | 00:00:00 | |
| SP3WXH-11 | 2026-09-01 00:36:17 | 49.71808 | 17.97178 | 152° | 5km/h | 31042m | 8.3m/s | -39.2°C | 0.3% | -1.0hPa | 2.6V | 00:00:00 | 00:00:00 | 00:00:00 | |
| OE5DXL-15 | 2026-09-01 00:36:16 | 49.71808 | 17.97178 | 153° | 16km/h | 31042m | 8.2m/s | -39.2°C | 2.0% | 0hPa | 2.6V | 00:00:00 | 00:00:00 | 00:00:00 | |
| OE5DRO-10 | 2026-09-01 00:36:15 | 49.71810 | 17.97175 | 140° | 16km/h | 31033m | 9.0m/s | -39.2°C | 2.0% | 0hPa | 2.6V | 00:00:00 | 00:00:00 | 00:00:00 | |
| OM5KV | 2026-09-01 00:36:14 | 49.71810 | 17.97175 | 141° | 16km/h | 31033m | 9.0m/s | -39.3°C | 0.4% | 0hPa | 2.6V | 00:00:00 | 00:00:00 | 00:00:00 | |
| OM5KV | 2026-09-01 00:36:12 | 49.71819 | 17.97161 | 131° | 31km/h | 31019m | 6.7m/s | -39.4°C | 0.4% | 0hPa | 2.6V | 00:00:00 | 00:00:00 | 00:00:00 | |
| OE5MMP-10 | 2026-09-01 00:36:10 | 49.71831 | 17.97133 | 115° | 13km/h | 30999m | 5.1m/s | -39.5°C | 2.0% | 0hPa | 2.6V | 00:00:00 | 01:48:52 | 00:00:00 | |
| PETON7-10 | 2026-09-01 00:36:09 | 49.71833 | 17.97127 | 121° | 11km/h | 30993m | 6.4m/s | -39.6°C | 2.0% | 0hPa | 2.6V | 00:00:00 | 00:00:00 | 00:00:00 | |
| OM5KV | 2026-09-01 00:36:08 | 49.71833 | 17.97127 | 121° | 13km/h | 30993m | 6.5m/s | -39.6°C | 0.4% | 0hPa | 2.6V | 00:00:00 | 00:00:00 | 00:00:00 | |
| S52SK | 2026-09-01 00:36:05 | 49.71841 | 17.97136 | 239° | 18km/h | 30963m | 6.6m/s | -39.9°C | 0.4% | 0hPa | 2.6V | 00:00:00 | 00:00:00 | 00:00:00 | |
| GYPAP8-17 | 2026-09-01 00:36:02 | 49.71845 | 17.97146 | 260° | 11km/h | 30947m | 9.4m/s | -40.1°C | 0.4% | 0hPa | 2.6V | 00:00:00 | 00:00:00 | 00:00:00 | |
| OE3OSB-13 | 2026-09-01 00:35:57 | 49.71843 | 17.97134 | 97° | 13km/h | 30903m | 4.5m/s | -40.3°C | 0.4% | -1.0hPa | 2.6V | 00:00:00 | 00:00:00 | 00:00:00 | |
| SP3WXH-11 | 2026-09-01 00:35:46 | 49.71855 | 17.97161 | 79° | 9km/h | 30820m | 5.6m/s | -40.5°C | 0.4% | -1.0hPa | 2.6V | 00:00:00 | 00:00:00 | 00:00:00 | |
| OM5KV | 2026-09-01 00:35:45 | 49.71855 | 17.97164 | 138° | 7km/h | 30828m | 9.2m/s | -40.5°C | 0.4% | 0hPa | 2.6V | 00:00:00 | 00:00:00 | 00:00:00 | |
| HA6NAB-11 | 2026-09-01 00:35:43 | 49.71855 | 17.97157 | 83° | 13km/h | 30815m | 5.8m/s | -40.5°C | 0.4% | 0hPa | 2.6V | 00:00:00 | 00:00:00 | 00:00:00 | |
| SP3BTT-10 | 2026-09-01 00:35:41 | 49.71857 | 17.97145 | 164° | 22km/h | 30793m | 5.9m/s | 0°C | 0% | 0hPa | 2.6V | 00:00:00 | 00:00:00 | 00:00:00 | |
| OE5MMP-10 | 2026-09-01 00:35:40 | 49.71859 | 17.97145 | 194° | 22km/h | 30787m | 5.6m/s | -40.6°C | 2.2% | 0hPa | 2.6V | 00:00:00 | 01:48:22 | 00:00:00 | |
| PETON7-10 | 2026-09-01 00:35:39 | 49.71862 | 17.97147 | 214° | 24km/h | 30780m | 8.4m/s | -40.6°C | 2.1% | 0hPa | 2.6V | 00:00:00 | 01:48:21 | 00:00:00 | |
| HA6NAB-11 | 2026-09-01 00:35:37 | 49.71865 | 17.97151 | 226° | 15km/h | 30772m | 7.9m/s | -40.7°C | 0.4% | 0hPa | 2.6V | 00:00:00 | 00:00:00 | 00:00:00 | |
| OM5KV | 2026-09-01 00:35:34 | 49.71884 | 17.97165 | 182° | 29km/h | 30746m | 7.6m/s | -40.7°C | 0.4% | 0hPa | 2.6V | 00:00:00 | 00:00:00 | 00:00:00 | |
| HA6NAB-11 | 2026-09-01 00:35:31 | 49.71897 | 17.97158 | 143° | 29km/h | 30733m | 6.0m/s | -40.7°C | 0.4% | 0hPa | 2.6V | 00:00:00 | 00:00:00 | 00:00:00 | |
| OE5MMP-10 | 2026-09-01 00:35:30 | 49.71905 | 17.97140 | 107° | 24km/h | 30718m | 8.4m/s | -40.7°C | 2.1% | 0hPa | 2.6V | 00:00:00 | 01:48:12 | 00:00:00 | |
| OE5DRO-10 | 2026-09-01 00:35:27 | 49.71908 | 17.97112 | 106° | 24km/h | 30699m | 6.9m/s | -40.7°C | 2.2% | 0hPa | 2.6V | 00:00:00 | 00:00:00 | 00:00:00 | |
| OE3OSB-13 | 2026-09-01 00:35:26 | 49.71910 | 17.97106 | 132° | 16km/h | 30692m | 7.3m/s | -40.8°C | 0.4% | -1.0hPa | 2.6V | 00:00:00 | 00:00:00 | 00:00:00 | |
| PETON7-10 | 2026-09-01 00:35:24 | 49.71921 | 17.97100 | 176° | 26km/h | 30678m | 6.7m/s | -40.8°C | 2.1% | 0hPa | 2.6V | 00:00:00 | 00:00:00 | 08:30:00 | |
| OM5KV | 2026-09-01 00:35:22 | 49.71928 | 17.97100 | 184° | 29km/h | 30671m | 7.0m/s | -40.8°C | 0.4% | 0hPa | 2.7V | 00:00:00 | 00:00:00 | 00:00:00 | |
| PG1ADW-2 | 2026-09-01 00:35:20 | 49.71947 | 17.97100 | 166° | 26km/h | 30652m | 5.9m/s | -40.8°C | 2.1% | 0hPa | 2.7V | 00:00:00 | 00:00:00 | 00:00:00 | |
| POL1PZ | 2026-09-01 00:35:18 | 49.71953 | 17.97097 | 150° | 24km/h | 30645m | 6.4m/s | -40.9°C | 0.4% | 0hPa | 2.7V | 00:00:00 | 00:00:00 | 00:00:00 | |
| OE5DXL-15 | 2026-09-01 00:35:16 | 49.71970 | 17.97072 | 135° | 26km/h | 30625m | 6.0m/s | -40.8°C | 2.1% | 0hPa | 2.7V | 00:00:00 | 00:00:00 | 00:00:00 | |
| SP3WXH-11 | 2026-09-01 00:35:15 | 49.71983 | 17.97052 | 133° | 29km/h | 30613m | 6.7m/s | -41.0°C | 0.4% | -1.0hPa | 2.7V | 00:00:00 | 00:00:00 | 00:00:00 | |
| OE5MMP-10 | 2026-09-01 00:35:10 | 49.71994 | 17.97029 | 134° | 26km/h | 30586m | 5.8m/s | -41.1°C | 2.1% | 0hPa | 2.7V | 00:00:00 | 01:47:52 | 00:00:00 | |
| PETON7-10 | 2026-09-01 00:35:09 | 49.71998 | 17.97024 | 147° | 27km/h | 30579m | 7.7m/s | -41.2°C | 2.1% | 0hPa | 2.7V | 00:00:00 | 00:00:00 | 00:00:00 | |
| OE5DRO-10 | 2026-09-01 00:35:07 | 49.72010 | 17.97016 | 166° | 26km/h | 30565m | 5.7m/s | -41.3°C | 2.1% | 0hPa | 2.7V | 00:00:00 | 00:00:00 | 00:00:00 | |
| OE3JTB-15 | 2026-09-01 00:35:05 | 49.72035 | 17.97012 | 183° | 26km/h | 30545m | 7.5m/s | -41.5°C | 2.1% | 0hPa | 2.7V | 00:00:00 | 00:00:00 | 00:00:00 | |
| NBG1-10 | 2026-09-01 00:35:03 | 49.72048 | 17.97013 | 172° | 26km/h | 30533m | 5.4m/s | -41.6°C | 2.2% | 0hPa | 2.7V | 00:00:00 | 01:47:44 | 00:00:00 | |
| POL1PZ | 2026-09-01 00:34:58 | 49.72060 | 17.96996 | 112° | 27km/h | 30512m | 6.2m/s | -41.9°C | 0.4% | 0hPa | 2.7V | 00:00:00 | 00:00:00 | 00:00:00 | |
| SP3BTT-10 | 2026-09-01 00:34:55 | 49.72071 | 17.96962 | 142° | 31km/h | 30487m | 6.3m/s | 0°C | 0% | 0hPa | 2.7V | 00:00:00 | 00:00:00 | 00:00:00 | |
| PETON7-10 | 2026-09-01 00:34:54 | 49.72077 | 17.96955 | 147° | 27km/h | 30480m | 7.1m/s | -42.4°C | 2.3% | 0hPa | 2.7V | 00:00:00 | 01:47:36 | 00:00:00 | |
| OM5KV | 2026-09-01 00:34:53 | 49.72077 | 17.96955 | 148° | 33km/h | 30480m | 7.1m/s | -42.4°C | 0.4% | 0hPa | 2.7V | 00:00:00 | 00:00:00 | 00:00:00 | |
| OM5KV | 2026-09-01 00:34:52 | 49.72084 | 17.96948 | 150° | 35km/h | 30473m | 7.6m/s | -42.5°C | 0.4% | 0hPa | 2.7V | 00:00:00 | 00:00:00 | 00:00:00 | |
| DO3MHA-11 | 2026-09-01 00:34:51 | 49.72098 | 17.96936 | 156° | 27km/h | 30459m | 6.1m/s | -42.7°C | 2.4% | 0hPa | 2.7V | 00:00:00 | 01:47:33 | 00:00:00 | |
| OE5MMP-10 | 2026-09-01 00:34:50 | 49.72103 | 17.96933 | 165° | 26km/h | 30453m | 6.7m/s | -42.7°C | 2.4% | 0hPa | 2.7V | 00:00:00 | 01:47:32 | 00:00:00 | |
| OM5KV | 2026-09-01 00:34:48 | 49.72109 | 17.96931 | 167° | 22km/h | 30445m | 7.4m/s | -42.8°C | 0.5% | 0hPa | 2.7V | 00:00:00 | 00:00:00 | 00:00:00 | |
| OE5DRO-10 | 2026-09-01 00:34:46 | 49.72125 | 17.96915 | 127° | 27km/h | 30427m | 6.7m/s | -42.9°C | 2.4% | 0hPa | 2.7V | 00:00:00 | 00:00:00 | 00:00:00 | |
| OK1SLM-15 | 2026-09-01 00:34:43 | 49.72130 | 17.96893 | 102° | 31km/h | 30411m | 8.8m/s | -43.1°C | 0.5% | 0hPa | 2.7V | 00:00:00 | 00:00:00 | 00:00:00 | |
| DO3MHA-11 | 2026-09-01 00:34:41 | 49.72135 | 17.96863 | 118° | 24km/h | 30392m | 7.5m/s | -43.1°C | 2.4% | 0hPa | 2.7V | 00:00:00 | 01:47:23 | 00:00:00 | |
| OE5MMP-10 | 2026-09-01 00:34:40 | 49.72138 | 17.96856 | 135° | 24km/h | 30383m | 9.4m/s | -43.1°C | 2.4% | 0hPa | 2.6V | 00:00:00 | 01:47:22 | 00:00:00 | |
| PETON7-10 | 2026-09-01 00:34:39 | 49.72144 | 17.96849 | 150° | 27km/h | 30376m | 5.6m/s | -43.1°C | 2.4% | 0hPa | 2.6V | 00:00:00 | 00:00:00 | 00:00:00 | |
| POL1PZ | 2026-09-01 00:34:37 | 49.72150 | 17.96844 | 158° | 29km/h | 30370m | 5.7m/s | -43.2°C | 0.5% | 0hPa | 2.6V | 00:00:00 | 00:00:00 | 00:00:00 | |
| OM5KV | 2026-09-01 00:34:35 | 49.72163 | 17.96838 | 170° | 24km/h | 30355m | 9.0m/s | -43.1°C | 0.5% | 0hPa | 2.6V | 00:00:00 | 00:00:00 | 00:00:00 | |
| DO3MHA-11 | 2026-09-01 00:34:30 | 49.72192 | 17.96813 | 116° | 33km/h | 30316m | 6.2m/s | -43.0°C | 2.4% | 0hPa | 2.6V | 00:00:00 | 01:47:12 | 00:00:00 | |
| OM5KV | 2026-09-01 00:34:29 | 49.72192 | 17.96813 | 117° | 35km/h | 30316m | 6.3m/s | -43.0°C | 0.4% | 0hPa | 2.6V | 00:00:00 | 00:00:00 | 00:00:00 | |
| OE5DRO-10 | 2026-09-01 00:34:27 | 49.72198 | 17.96774 | 99° | 27km/h | 30295m | 5.2m/s | -42.9°C | 2.4% | 0hPa | 2.6V | 00:00:00 | 00:00:00 | 00:00:00 | |
| NBG1-10 | 2026-09-01 00:34:26 | 49.72199 | 17.96762 | 103° | 18km/h | 30290m | 5.7m/s | -42.9°C | 2.4% | 0hPa | 2.6V | 00:00:00 | 01:47:08 | 00:00:00 | |
| PETON7-10 | 2026-09-01 00:34:24 | 49.72205 | 17.96742 | 128° | 27km/h | 30275m | 7.8m/s | -42.9°C | 2.4% | 0hPa | 2.7V | 00:00:00 | 00:00:00 | 00:00:00 | |
| PG1ADW-2 | 2026-09-01 00:34:20 | 49.72226 | 17.96715 | 134° | 27km/h | 30249m | 4.0m/s | -42.8°C | 2.4% | 0hPa | 2.7V | 00:00:00 | 00:00:00 | 00:00:00 | |
| OM5KV | 2026-09-01 00:34:18 | 49.72230 | 17.96708 | 128° | 24km/h | 30243m | 5.7m/s | -42.9°C | 0.5% | 0hPa | 2.7V | 00:00:00 | 00:00:00 | 00:00:00 | |
| OM5KV | 2026-09-01 00:34:17 | 49.72234 | 17.96699 | 122° | 26km/h | 30237m | 7.4m/s | -42.9°C | 0.4% | 0hPa | 2.7V | 00:00:00 | 00:00:00 | 00:00:00 | |
| OE5DXL-15 | 2026-09-01 00:34:16 | 49.72241 | 17.96680 | 120° | 24km/h | 30221m | 6.7m/s | -42.8°C | 2.4% | 0hPa | 2.7V | 00:00:00 | 00:00:00 | 00:00:00 | |
| OM5KV | 2026-09-01 00:34:13 | 49.72251 | 17.96646 | 112° | 29km/h | 30203m | 8.4m/s | -42.9°C | 0.5% | 0hPa | 2.6V | 00:00:00 | 00:00:00 | 00:00:00 | |
| OM5KV | 2026-09-01 00:34:11 | 49.72254 | 17.96636 | 105° | 24km/h | 30194m | 9.4m/s | -42.9°C | 0.5% | 0hPa | 2.6V | 00:00:00 | 00:00:00 | 00:00:00 | |
| OE5MMP-10 | 2026-09-01 00:34:10 | 49.72256 | 17.96622 | 107° | 26km/h | 30181m | 5.1m/s | -42.9°C | 2.3% | 0hPa | 2.6V | 00:00:00 | 01:46:52 | 00:00:00 | |
| PETON7-10 | 2026-09-01 00:34:09 | 49.72257 | 17.96617 | 121° | 27km/h | 30176m | 6.8m/s | -42.9°C | 2.4% | 0hPa | 2.6V | 00:00:00 | 01:46:51 | 00:00:00 | |
| OE5DRO-10 | 2026-09-01 00:34:08 | 49.72260 | 17.96611 | 135° | 24km/h | 30168m | 8.4m/s | -42.9°C | 2.3% | 0hPa | 2.6V | 00:00:00 | 00:00:00 | 00:00:00 | |
| HA6NAB-11 | 2026-09-01 00:34:07 | 49.72260 | 17.96611 | 135° | 20km/h | 30168m | 8.5m/s | -43.0°C | 0.4% | 0hPa | 2.6V | 00:00:00 | 00:00:00 | 00:00:00 | |
| OM5KV | 2026-09-01 00:34:05 | 49.72269 | 17.96599 | 136° | 27km/h | 30155m | 6.3m/s | -42.9°C | 0.5% | 0hPa | 2.6V | 00:00:00 | 00:00:00 | 00:00:00 | |
| HA6NAB-11 | 2026-09-01 00:34:02 | 49.72280 | 17.96570 | 106° | 31km/h | 30134m | 5.8m/s | -43.1°C | 0.5% | 0hPa | 2.6V | 00:00:00 | 00:00:00 | 00:00:00 | |
| OE3OSB-13 | 2026-09-01 00:33:53 | 49.72292 | 17.96472 | 151° | 9km/h | 30062m | 8.6m/s | -43.9°C | 0.5% | -1.0hPa | 2.6V | 00:00:00 | 00:00:00 | 00:00:00 | |
| OE5MMP-10 | 2026-09-01 00:33:50 | 49.72301 | 17.96460 | 125° | 20km/h | 30043m | 7.3m/s | -43.9°C | 2.5% | 0hPa | 2.6V | 00:00:00 | 01:46:32 | 00:00:00 | |
| OE5DRO-10 | 2026-09-01 00:33:49 | 49.72303 | 17.96452 | 109° | 16km/h | 30035m | 7.6m/s | -44.0°C | 2.5% | 0hPa | 2.6V | 00:00:00 | 00:00:00 | 08:30:00 | |
| OK1SLM-15 | 2026-09-01 00:33:47 | 49.72305 | 17.96443 | 98° | 26km/h | 30028m | 5.8m/s | -44.0°C | 0.5% | 0hPa | 2.6V | 00:00:00 | 00:00:00 | 00:00:00 | |
| OE5DXL-15 | 2026-09-01 00:33:46 | 49.72305 | 17.96422 | 94° | 16km/h | 30015m | 7.7m/s | -44.0°C | 2.5% | 0hPa | 2.6V | 00:00:00 | 00:00:00 | 00:00:00 | |
| DO3MHA-11 | 2026-09-01 00:33:45 | 49.72306 | 17.96412 | 101° | 15km/h | 30007m | 7.4m/s | -44.1°C | 2.5% | 0hPa | 2.6V | 00:00:00 | 01:46:27 | 08:30:00 | |
| OM5KV | 2026-09-01 00:33:44 | 49.72306 | 17.96412 | 102° | 26km/h | 30007m | 7.4m/s | -44.1°C | 0.5% | 0hPa | 2.6V | 00:00:00 | 00:00:00 | 00:00:00 | |
| SP3WXH-11 | 2026-09-01 00:33:41 | 49.72312 | 17.96391 | 123° | 2km/h | 29979m | 9.8m/s | -44.3°C | 0.4% | -1.0hPa | 2.6V | 00:00:00 | 00:00:00 | 00:00:00 | |
| OE5MMP-10 | 2026-09-01 00:33:40 | 49.72312 | 17.96391 | 288° | 15km/h | 29972m | 5.3m/s | -44.2°C | 2.5% | 0hPa | 2.6V | 00:00:00 | 01:46:22 | 00:00:00 | |
| PETON7-10 | 2026-09-01 00:33:39 | 49.72311 | 17.96392 | 297° | 16km/h | 29966m | 5.9m/s | -44.3°C | 2.5% | 0hPa | 2.6V | 00:00:00 | 00:00:00 | 00:00:00 | |
| OM5KV | 2026-09-01 00:33:38 | 49.72311 | 17.96392 | 297° | 4km/h | 29966m | 5.9m/s | -44.3°C | 0.5% | 0hPa | 2.6V | 00:00:00 | 00:00:00 | 00:00:00 | |
| S52SK | 2026-09-01 00:33:37 | 49.72311 | 17.96393 | 0° | 0km/h | 29960m | 6.7m/s | -44.3°C | 0.5% | 0hPa | 2.6V | 00:00:00 | 00:00:00 | 00:00:00 | |
| POL1PZ | 2026-09-01 00:33:36 | 49.72311 | 17.96392 | 110° | 5km/h | 29953m | 8.5m/s | -44.3°C | 0.5% | 0hPa | 2.6V | 00:00:00 | 00:00:00 | 00:00:00 | |
| NBG1-10 | 2026-09-01 00:33:34 | 49.72312 | 17.96373 | 89° | 20km/h | 29933m | 7.2m/s | -44.4°C | 2.5% | 0hPa | 2.6V | 00:00:00 | 01:46:16 | 00:00:00 | |
| DO3MHA-11 | 2026-09-01 00:33:32 | 49.72310 | 17.96355 | 68° | 18km/h | 29916m | 7.1m/s | -44.4°C | 2.6% | 0hPa | 2.6V | 00:00:00 | 01:46:14 | 00:00:00 | |
| S52SK | 2026-09-01 00:33:31 | 49.72310 | 17.96355 | 68° | 24km/h | 29916m | 7.1m/s | -44.4°C | 0.5% | 0hPa | 2.6V | 00:00:00 | 00:00:00 | 00:00:00 | |
| OE5MMP-10 | 2026-09-01 00:33:30 | 49.72306 | 17.96339 | 78° | 18km/h | 29905m | 5.9m/s | -44.4°C | 2.6% | 0hPa | 2.6V | 00:00:00 | 01:46:12 | 00:00:00 | |
| PETON7-10 | 2026-09-01 00:33:24 | 49.72315 | 17.96300 | 98° | 20km/h | 29860m | 7.8m/s | -44.7°C | 2.7% | 0hPa | 2.6V | 00:00:00 | 01:46:06 | 00:00:00 | |
| OM5KV | 2026-09-01 00:33:23 | 49.72315 | 17.96300 | 99° | 13km/h | 29860m | 7.9m/s | -44.8°C | 0.5% | 0hPa | 2.6V | 00:00:00 | 00:00:00 | 00:00:00 | |
| DO3MHA-11 | 2026-09-01 00:33:22 | 49.72316 | 17.96289 | 97° | 20km/h | 29847m | 6.7m/s | -44.8°C | 2.7% | 0hPa | 2.6V | 00:00:00 | 01:46:04 | 00:00:00 | |
| OM5KV | 2026-09-01 00:33:21 | 49.72316 | 17.96289 | 98° | 15km/h | 29847m | 6.8m/s | -44.9°C | 0.5% | 0hPa | 2.6V | 00:00:00 | 00:00:00 | 00:00:00 | |
| OE5MMP-10 | 2026-09-01 00:33:20 | 49.72318 | 17.96275 | 111° | 22km/h | 29831m | 6.7m/s | -44.8°C | 2.7% | 0hPa | 2.6V | 00:00:00 | 01:46:02 | 00:00:00 | |
| OM5KV | 2026-09-01 00:33:17 | 49.72321 | 17.96258 | 103° | 22km/h | 29819m | 6.3m/s | -44.8°C | 0.5% | 0hPa | 2.6V | 00:00:00 | 00:00:00 | 00:00:00 | |
| OE5DXL-15 | 2026-09-01 00:33:16 | 49.72322 | 17.96244 | 86° | 16km/h | 29803m | 7.1m/s | -44.7°C | 2.6% | 0hPa | 2.6V | 00:00:00 | 00:00:00 | 00:00:00 | |
| POL1PZ | 2026-09-01 00:33:15 | 49.72322 | 17.96244 | 86° | 16km/h | 29803m | 7.2m/s | -44.8°C | 0.5% | 0hPa | 2.6V | 00:00:00 | 00:00:00 | 00:00:00 | |
| DO3MHA-11 | 2026-09-01 00:33:12 | 49.72325 | 17.96212 | 109° | 18km/h | 29774m | 6.7m/s | -44.7°C | 2.6% | 0hPa | 2.6V | 00:00:00 | 01:45:54 | 00:00:00 | |
| OE5DRO-10 | 2026-09-01 00:33:11 | 49.72327 | 17.96203 | 108° | 16km/h | 29767m | 6.0m/s | -44.7°C | 2.6% | 0hPa | 2.6V | 00:00:00 | 00:00:00 | 00:00:00 | |
| OE5MMP-10 | 2026-09-01 00:33:10 | 49.72328 | 17.96195 | 106° | 15km/h | 29760m | 8.1m/s | -44.7°C | 2.6% | 0hPa | 2.6V | 00:00:00 | 01:45:52 | 00:00:00 | |
| PETON7-10 | 2026-09-01 00:33:09 | 49.72329 | 17.96188 | 96° | 16km/h | 29752m | 7.5m/s | -44.7°C | 2.6% | 0hPa | 2.6V | 00:00:00 | 00:00:00 | 08:30:00 | |
| OM5KV | 2026-09-01 00:33:04 | 49.72333 | 17.96169 | 122° | 18km/h | 29726m | 8.6m/s | -44.8°C | 0.5% | 0hPa | 2.6V | 00:00:00 | 00:00:00 | 00:00:00 | |
| DO3MHA-11 | 2026-09-01 00:33:02 | 49.72340 | 17.96151 | 117° | 15km/h | 29706m | 8.3m/s | -44.7°C | 2.6% | 0hPa | 2.6V | 00:00:00 | 01:45:44 | 00:00:00 | |
| NBG1-10 | 2026-09-01 00:33:01 | 49.72341 | 17.96146 | 95° | 15km/h | 29697m | 8.7m/s | -44.8°C | 2.6% | 0hPa | 2.6V | 00:00:00 | 01:45:43 | 00:00:00 | |
| OE5MMP-10 | 2026-09-01 00:33:00 | 49.72341 | 17.96141 | 79° | 15km/h | 29691m | 4.8m/s | -44.8°C | 2.6% | 0hPa | 2.6V | 00:00:00 | 01:45:42 | 08:30:00 | |
| OM5KV | 2026-09-01 00:32:59 | 49.72341 | 17.96141 | 79° | 15km/h | 29691m | 4.8m/s | -44.9°C | 0.5% | 0hPa | 2.6V | 00:00:00 | 00:00:00 | 00:00:00 | |
| OM5KV | 2026-09-01 00:32:58 | 49.72340 | 17.96135 | 81° | 18km/h | 29685m | 5.0m/s | -45.0°C | 0.5% | 0hPa | 2.6V | 00:00:00 | 00:00:00 | 00:00:00 | |
| OK1SLM-15 | 2026-09-01 00:32:55 | 49.72342 | 17.96112 | 128° | 18km/h | 29664m | 6.6m/s | -45.1°C | 0.5% | 0hPa | 2.6V | 00:00:00 | 00:00:00 | 00:00:00 | |
| PETON7-10 | 2026-09-01 00:32:54 | 49.72348 | 17.96106 | 161° | 15km/h | 29650m | 7.5m/s | -45.0°C | 2.7% | 0hPa | 2.6V | 00:00:00 | 00:00:00 | 00:00:00 | |
| OM5KV | 2026-09-01 00:32:53 | 49.72348 | 17.96106 | 162° | 11km/h | 29650m | 7.6m/s | -45.1°C | 0.6% | 0hPa | 2.6V | 00:00:00 | 00:00:00 | 00:00:00 | |
| DO3MHA-11 | 2026-09-01 00:32:52 | 49.72351 | 17.96102 | 112° | 18km/h | 29637m | 4.9m/s | -45.1°C | 2.6% | 0hPa | 2.6V | 00:00:00 | 01:45:34 | 00:00:00 | |
| OE5MMP-10 | 2026-09-01 00:32:50 | 49.72353 | 17.96092 | 104° | 18km/h | 29624m | 8.9m/s | -45.1°C | 2.7% | 0hPa | 2.6V | 00:00:00 | 01:45:32 | 00:00:00 | |
| OM5KV | 2026-09-01 00:32:47 | 49.72356 | 17.96076 | 111° | 24km/h | 29606m | 5.1m/s | -45.1°C | 0.5% | 0hPa | 2.6V | 00:00:00 | 00:00:00 | 00:00:00 | |
| OE5DXL-15 | 2026-09-01 00:32:46 | 49.72359 | 17.96059 | 98° | 11km/h | 29595m | 7.4m/s | -45.1°C | 2.6% | 0hPa | 2.6V | 00:00:00 | 00:00:00 | 00:00:00 | |
| OK1SLM-15 | 2026-09-01 00:32:44 | 49.72359 | 17.96052 | 86° | 16km/h | 29588m | 6.5m/s | -45.1°C | 0.5% | 0hPa | 2.6V | 00:00:00 | 00:00:00 | 00:00:00 | |
| DO3MHA-11 | 2026-09-01 00:32:42 | 49.72357 | 17.96035 | 97° | 15km/h | 29567m | 8.6m/s | -45.1°C | 2.6% | 0hPa | 2.6V | 00:00:00 | 01:45:24 | 00:00:00 | |
| OE5MMP-10 | 2026-09-01 00:32:40 | 49.72359 | 17.96027 | 135° | 7km/h | 29552m | 5.7m/s | -45.1°C | 2.6% | 0hPa | 2.6V | 00:00:00 | 01:45:22 | 00:00:00 | |
| PETON7-10 | 2026-09-01 00:32:39 | 49.72361 | 17.96024 | 135° | 9km/h | 29546m | 6.9m/s | -45.2°C | 2.6% | 0hPa | 2.6V | 00:00:00 | 01:45:21 | 00:00:00 | |
| OM5KV | 2026-09-01 00:32:36 | 49.72362 | 17.96021 | 75° | 4km/h | 29530m | 8.3m/s | -45.3°C | 0.5% | 0hPa | 2.6V | 00:00:00 | 00:00:00 | 00:00:00 | |
| HA6NAB-11 | 2026-09-01 00:32:35 | 49.72362 | 17.96019 | 50° | 5km/h | 29523m | 6.1m/s | -45.3°C | 0.5% | 0hPa | 2.6V | 00:00:00 | 00:00:00 | 00:00:00 | |
| POL1PZ | 2026-09-01 00:32:34 | 49.72361 | 17.96017 | 60° | 5km/h | 29516m | 7.1m/s | -45.4°C | 0.5% | 0hPa | 2.6V | 00:00:00 | 00:00:00 | 00:00:00 | |
| OE5DRO-10 | 2026-09-01 00:32:33 | 49.72361 | 17.96013 | 123° | 11km/h | 29499m | 7.9m/s | -45.4°C | 2.7% | 0hPa | 2.6V | 00:00:00 | 00:00:00 | 00:00:00 | |
| OM5KV | 2026-09-01 00:32:31 | 49.72362 | 17.96011 | 135° | 7km/h | 29493m | 6.4m/s | -45.5°C | 0.5% | 0hPa | 2.6V | 00:00:00 | 00:00:00 | 00:00:00 | |
| OE5MMP-10 | 2026-09-01 00:32:30 | 49.72363 | 17.96006 | 92° | 13km/h | 29478m | 8.8m/s | -45.5°C | 2.7% | 0hPa | 2.6V | 00:00:00 | 01:45:12 | 00:00:00 | |
| NBG1-10 | 2026-09-01 00:32:27 | 49.72363 | 17.95983 | 114° | 13km/h | 29439m | 7.0m/s | -45.6°C | 2.7% | 0hPa | 2.6V | 00:00:00 | 01:45:07 | 00:00:00 | |
| PETON7-10 | 2026-09-01 00:32:24 | 49.72364 | 17.95978 | 113° | 16km/h | 29432m | 6.9m/s | -45.6°C | 2.8% | 0hPa | 2.6V | 00:00:00 | 00:00:00 | 00:00:00 | |
| OM5KV | 2026-09-01 00:32:22 | 49.72366 | 17.95973 | 107° | 13km/h | 29425m | 7.8m/s | -45.7°C | 0.6% | 0hPa | 2.6V | 00:00:00 | 00:00:00 | 00:00:00 | |
| OE5MMP-10 | 2026-09-01 00:32:20 | 49.72366 | 17.95961 | 91° | 16km/h | 29403m | 8.2m/s | -45.6°C | 2.7% | 0hPa | 2.6V | 00:00:00 | 01:45:02 | 00:00:00 | |
| HA6NAB-11 | 2026-09-01 00:32:19 | 49.72366 | 17.95961 | 91° | 7km/h | 29403m | 8.2m/s | -45.7°C | 0.6% | 0hPa | 2.6V | 00:00:00 | 00:00:00 | 00:00:00 | |
| OE5DXL-15 | 2026-09-01 00:32:16 | 49.72370 | 17.95947 | 103° | 16km/h | 29371m | 7.9m/s | -45.6°C | 2.7% | 0hPa | 2.6V | 00:00:00 | 00:00:00 | 00:00:00 | |
| OE5DRO-10 | 2026-09-01 00:32:14 | 49.72370 | 17.95933 | 88° | 18km/h | 29358m | 7.2m/s | -45.6°C | 2.7% | 0hPa | 2.6V | 00:00:00 | 00:00:00 | 00:00:00 | |
| OE5MMP-10 | 2026-09-01 00:32:10 | 49.72372 | 17.95895 | 95° | 15km/h | 29325m | 7.2m/s | -45.6°C | 2.7% | 0hPa | 2.6V | 00:00:00 | 01:44:52 | 00:00:00 | |
| PETON7-10 | 2026-09-01 00:32:09 | 49.72372 | 17.95885 | 91° | 16km/h | 29317m | 8.4m/s | -45.6°C | 2.7% | 0hPa | 2.6V | 00:00:00 | 00:00:00 | 00:00:00 | |
| SP3WXH-11 | 2026-09-01 00:32:08 | 49.72372 | 17.95877 | 84° | 16km/h | 29310m | 5.3m/s | -45.7°C | 0.5% | -1.0hPa | 2.6V | 00:00:00 | 00:00:00 | 00:00:00 | |
| OM5KV | 2026-09-01 00:32:05 | 49.72371 | 17.95868 | 78° | 5km/h | 29298m | 7.6m/s | -45.7°C | 0.5% | 0hPa | 2.6V | 00:00:00 | 00:00:00 | 00:00:00 | |
| DO3MHA-11 | 2026-09-01 00:32:04 | 49.72373 | 17.95867 | 200° | 18km/h | 29280m | 7.9m/s | -45.6°C | 2.7% | 0hPa | 2.6V | 00:00:00 | 01:44:46 | 08:30:00 | |
| OE3OSB-13 | 2026-09-01 00:31:49 | 49.72376 | 17.95811 | 208° | 9km/h | 29158m | 10.2m/s | -46.4°C | 0.5% | -1.0hPa | 2.6V | 00:00:00 | 00:00:00 | 00:00:00 | |
| OK1SLM-15 | 2026-09-01 00:31:48 | 49.72375 | 17.95808 | 252° | 11km/h | 29168m | 8.9m/s | -46.3°C | 0.6% | 0hPa | 2.6V | 00:00:00 | 00:00:00 | 00:00:00 | |
| S52SK | 2026-09-01 00:31:47 | 49.72376 | 17.95811 | 209° | 9km/h | 29159m | 10.2m/s | -46.4°C | 0.6% | 0hPa | 2.6V | 00:00:00 | 00:00:00 | 00:00:00 | |
| OE5DXL-15 | 2026-09-01 00:31:46 | 49.72380 | 17.95806 | 115° | 11km/h | 29147m | 4.8m/s | -46.3°C | 2.8% | 0hPa | 2.6V | 00:00:00 | 00:00:00 | 00:00:00 | |
| OM5KV | 2026-09-01 00:31:45 | 49.72380 | 17.95806 | 115° | 15km/h | 29147m | 4.8m/s | -46.3°C | 0.6% | 0hPa | 2.6V | 00:00:00 | 00:00:00 | 00:00:00 | |
| DO3MHA-11 | 2026-09-01 00:31:44 | 49.72380 | 17.95795 | 73° | 11km/h | 29131m | 10.5m/s | -46.3°C | 2.7% | 0hPa | 2.6V | 00:00:00 | 01:44:26 | 00:00:00 | |
| OM5KV | 2026-09-01 00:31:41 | 49.72375 | 17.95784 | 43° | 16km/h | 29117m | 4.8m/s | -46.4°C | 0.6% | 0hPa | 2.6V | 00:00:00 | 00:00:00 | 00:00:00 | |
| OE5MMP-10 | 2026-09-01 00:31:40 | 49.72370 | 17.95775 | 61° | 7km/h | 29102m | 10.3m/s | -46.4°C | 2.8% | 0hPa | 2.6V | 00:00:00 | 01:44:22 | 00:00:00 | |
| PETON7-10 | 2026-09-01 00:31:39 | 49.72369 | 17.95771 | 87° | 9km/h | 29093m | 7.7m/s | -46.4°C | 2.8% | 0hPa | 2.6V | 00:00:00 | 00:00:00 | 00:00:00 | |
| SP3WXH-11 | 2026-09-01 00:31:37 | 49.72369 | 17.95764 | 98° | 4km/h | 29082m | 5.8m/s | -46.5°C | 0.5% | -1.0hPa | 2.6V | 00:00:00 | 00:00:00 | 00:00:00 | |
| OE5DRO-10 | 2026-09-01 00:31:36 | 49.72369 | 17.95763 | 1° | 9km/h | 29075m | 9.0m/s | -46.5°C | 2.8% | 0hPa | 2.6V | 00:00:00 | 00:00:00 | 00:00:00 | |
| OM5KV | 2026-09-01 00:31:35 | 49.72369 | 17.95763 | 0° | 0km/h | 29075m | 9.0m/s | -46.6°C | 0.6% | 0hPa | 2.6V | 00:00:00 | 00:00:00 | 00:00:00 | |
| DO3MHA-11 | 2026-09-01 00:31:34 | 49.72369 | 17.95767 | 288° | 11km/h | 29060m | 4.8m/s | -46.5°C | 2.8% | 0hPa | 2.6V | 00:00:00 | 01:44:16 | 00:00:00 | |
| POL1PZ | 2026-09-01 00:31:33 | 49.72369 | 17.95767 | 288° | 7km/h | 29060m | 4.9m/s | -46.6°C | 0.6% | 0hPa | 2.6V | 00:00:00 | 00:00:00 | 00:00:00 | |
| OE5MMP-10 | 2026-09-01 00:31:30 | 49.72367 | 17.95765 | 63° | 9km/h | 29032m | 4.6m/s | -46.5°C | 2.8% | 0hPa | 2.6V | 00:00:00 | 01:44:12 | 08:30:00 | |
| OM5KV | 2026-09-01 00:31:29 | 49.72367 | 17.95765 | 63° | 15km/h | 29032m | 4.7m/s | -46.6°C | 0.6% | 0hPa | 2.7V | 00:00:00 | 00:00:00 | 00:00:00 | |
| OM5KV | 2026-09-01 00:31:28 | 49.72364 | 17.95760 | 51° | 18km/h | 29027m | 6.5m/s | -46.6°C | 0.6% | 0hPa | 2.7V | 00:00:00 | 00:00:00 | 00:00:00 | |
| DO3MHA-11 | 2026-09-01 00:31:24 | 49.72351 | 17.95746 | 84° | 11km/h | 28991m | 8.9m/s | -46.7°C | 2.7% | 0hPa | 2.7V | 00:00:00 | 01:44:06 | 00:00:00 | |
| OM5KV | 2026-09-01 00:31:22 | 49.72352 | 17.95745 | 153° | 5km/h | 28984m | 5.9m/s | -46.8°C | 0.6% | 0hPa | 2.7V | 00:00:00 | 00:00:00 | 00:00:00 | |
| OE5MMP-10 | 2026-09-01 00:31:20 | 49.72353 | 17.95743 | 29° | 13km/h | 28964m | 7.4m/s | -47.0°C | 2.8% | 0hPa | 2.7V | 00:00:00 | 01:44:02 | 00:00:00 | |
| OM5KV | 2026-09-01 00:31:18 | 49.72351 | 17.95741 | 48° | 11km/h | 28957m | 5.4m/s | -47.1°C | 0.6% | 0hPa | 2.7V | 00:00:00 | 00:00:00 | 00:00:00 | |
| OE5DRO-10 | 2026-09-01 00:31:17 | 49.72348 | 17.95730 | 75° | 13km/h | 28944m | 8.4m/s | -47.1°C | 2.8% | 0hPa | 2.7V | 00:00:00 | 00:00:00 | 00:00:00 | |
| OE5DXL-15 | 2026-09-01 00:31:16 | 49.72347 | 17.95723 | 91° | 13km/h | 28936m | 7.3m/s | -47.2°C | 2.8% | 0hPa | 2.7V | 00:00:00 | 00:00:00 | 08:30:00 | |
| DO3MHA-11 | 2026-09-01 00:31:14 | 49.72348 | 17.95706 | 95° | 9km/h | 28923m | 6.5m/s | -47.3°C | 2.9% | 0hPa | 2.6V | 00:00:00 | 01:43:56 | 00:00:00 | |
| OM5KV | 2026-09-01 00:31:12 | 49.72348 | 17.95700 | 88° | 13km/h | 28915m | 8.5m/s | -47.5°C | 0.6% | 0hPa | 2.6V | 00:00:00 | 00:00:00 | 00:00:00 | |
| OM5KV | 2026-09-01 00:31:11 | 49.72348 | 17.95696 | 73° | 5km/h | 28908m | 6.8m/s | -47.5°C | 0.6% | 0hPa | 2.6V | 00:00:00 | 00:00:00 | 00:00:00 | |
| OE5MMP-10 | 2026-09-01 00:31:10 | 49.72348 | 17.95695 | 217° | 9km/h | 28896m | 7.2m/s | -47.5°C | 2.9% | 0hPa | 2.6V | 00:00:00 | 01:43:52 | 00:00:00 | |
| PETON7-10 | 2026-09-01 00:31:09 | 49.72349 | 17.95696 | 204° | 13km/h | 28888m | 7.8m/s | -47.5°C | 2.9% | 0hPa | 2.6V | 00:00:00 | 01:43:51 | 00:00:00 | |
| SP3WXH-11 | 2026-09-01 00:31:06 | 49.72357 | 17.95700 | 193° | 9km/h | 28869m | 6.0m/s | -47.7°C | 0.6% | -1.0hPa | 2.6V | 00:00:00 | 00:00:00 | 00:00:00 | |
| OM5KV | 2026-09-01 00:31:05 | 49.72357 | 17.95700 | 194° | 9km/h | 28869m | 6.0m/s | -47.7°C | 0.6% | 0hPa | 2.6V | 00:00:00 | 00:00:00 | 00:00:00 | |
| DO3MHA-11 | 2026-09-01 00:31:04 | 49.72359 | 17.95700 | 125° | 15km/h | 28855m | 7.1m/s | -47.8°C | 3.0% | 0hPa | 2.6V | 00:00:00 | 01:43:46 | 00:00:00 | |
| OE5MMP-10 | 2026-09-01 00:31:00 | 49.72363 | 17.95679 | 116° | 15km/h | 28828m | 7.1m/s | -48.1°C | 3.0% | 0hPa | 2.7V | 00:00:00 | 01:43:42 | 00:00:00 | |
| OE5DRO-10 | 2026-09-01 00:30:58 | 49.72367 | 17.95665 | 116° | 15km/h | 28815m | 5.8m/s | -48.2°C | 3.0% | 0hPa | 2.6V | 00:00:00 | 00:00:00 | 08:30:00 | |
| SP9KGR-15 | 2026-09-01 00:30:57 | 49.72367 | 17.95665 | 116° | 18km/h | 28815m | 5.9m/s | -48.3°C | 0.6% | 0hPa | 2.6V | 00:00:00 | 00:00:00 | 00:00:00 | |
| PETON7-10 | 2026-09-01 00:30:54 | 49.72363 | 17.95647 | 28° | 15km/h | 28787m | 6.6m/s | -48.2°C | 3.1% | 0hPa | 2.6V | 00:00:00 | 00:00:00 | 08:30:00 | |
| POL1PZ | 2026-09-01 00:30:51 | 49.72357 | 17.95641 | 47° | 13km/h | 28775m | 6.0m/s | -48.3°C | 0.6% | 0hPa | 2.6V | 00:00:00 | 00:00:00 | 00:00:00 | |
| OE5MMP-10 | 2026-09-01 00:30:50 | 49.72355 | 17.95635 | 84° | 15km/h | 28762m | 7.4m/s | -48.3°C | 3.1% | 0hPa | 2.6V | 00:00:00 | 01:43:32 | 00:00:00 | |
| OM5KV | 2026-09-01 00:30:48 | 49.72355 | 17.95633 | 77° | 5km/h | 28754m | 7.5m/s | -48.3°C | 0.6% | 0hPa | 2.6V | 00:00:00 | 00:00:00 | 00:00:00 | |
| OK1SLM-15 | 2026-09-01 00:30:47 | 49.72355 | 17.95630 | 72° | 7km/h | 28747m | 6.9m/s | -48.4°C | 0.6% | 0hPa | 2.6V | 00:00:00 | 00:00:00 | 00:00:00 | |
| OE5DXL-15 | 2026-09-01 00:30:46 | 49.72353 | 17.95621 | 86° | 16km/h | 28734m | 5.9m/s | -48.3°C | 3.0% | 0hPa | 2.6V | 00:00:00 | 00:00:00 | 00:00:00 | |
| HA6NAB-11 | 2026-09-01 00:30:45 | 49.72353 | 17.95621 | 86° | 18km/h | 28734m | 6.0m/s | -48.3°C | 0.6% | 0hPa | 2.6V | 00:00:00 | 00:00:00 | 00:00:00 | |
| DO3MHA-11 | 2026-09-01 00:30:44 | 49.72353 | 17.95606 | 94° | 18km/h | 28719m | 7.9m/s | -48.3°C | 3.0% | 0hPa | 2.6V | 00:00:00 | 01:43:26 | 00:00:00 | |
| OM5KV | 2026-09-01 00:30:43 | 49.72353 | 17.95606 | 95° | 18km/h | 28719m | 7.9m/s | -48.3°C | 0.6% | 0hPa | 2.6V | 00:00:00 | 00:00:00 | 00:00:00 | |
| SP9KGR-15 | 2026-09-01 00:30:41 | 49.72351 | 17.95593 | 63° | 16km/h | 28705m | 7.0m/s | -48.4°C | 0.7% | 0hPa | 2.6V | 00:00:00 | 00:00:00 | 00:00:00 | |
| HA6NAB-11 | 2026-09-01 00:30:40 | 49.72345 | 17.95582 | 40° | 24km/h | 28690m | 7.9m/s | -48.5°C | 0.6% | 0hPa | 2.6V | 00:00:00 | 00:00:00 | 00:00:00 | |
| PETON7-10 | 2026-09-01 00:30:39 | 49.72340 | 17.95576 | 40° | 18km/h | 28683m | 5.6m/s | -48.4°C | 3.1% | 0hPa | 2.6V | 00:00:00 | 00:00:00 | 00:00:00 | |
| SP3WXH-11 | 2026-09-01 00:30:35 | 49.72324 | 17.95559 | 29° | 11km/h | 28655m | 5.3m/s | -48.7°C | 0.6% | -1.0hPa | 2.6V | 00:00:00 | 00:00:00 | 00:00:00 | |
| DO3MHA-11 | 2026-09-01 00:30:34 | 49.72321 | 17.95556 | 40° | 18km/h | 28649m | 6.3m/s | -48.7°C | 3.1% | 0hPa | 2.6V | 00:00:00 | 01:43:16 | 08:30:00 | |
| HA6NAB-11 | 2026-09-01 00:30:33 | 49.72321 | 17.95556 | 41° | 13km/h | 28649m | 6.3m/s | -48.7°C | 0.7% | 0hPa | 2.7V | 00:00:00 | 00:00:00 | 00:00:00 | |
| OM5KV | 2026-09-01 00:30:32 | 49.72319 | 17.95553 | 61° | 15km/h | 28642m | 8.0m/s | -48.7°C | 0.6% | 0hPa | 2.7V | 00:00:00 | 00:00:00 | 00:00:00 | |
| POL1PZ | 2026-09-01 00:30:31 | 49.72318 | 17.95547 | 77° | 18km/h | 28635m | 6.2m/s | -48.7°C | 0.7% | 0hPa | 2.7V | 00:00:00 | 00:00:00 | 00:00:00 | |
| OE5MMP-10 | 2026-09-01 00:30:30 | 49.72317 | 17.95533 | 88° | 18km/h | 28621m | 7.3m/s | -48.7°C | 3.1% | 0hPa | 2.7V | 00:00:00 | 01:43:12 | 00:00:00 | |
| OM5KV | 2026-09-01 00:30:28 | 49.72317 | 17.95527 | 86° | 15km/h | 28614m | 7.0m/s | -48.7°C | 0.7% | 0hPa | 2.7V | 00:00:00 | 00:00:00 | 00:00:00 | |
| HA6NAB-11 | 2026-09-01 00:30:27 | 49.72316 | 17.95522 | 60° | 13km/h | 28608m | 5.5m/s | -48.7°C | 0.7% | 0hPa | 2.7V | 00:00:00 | 00:00:00 | 00:00:00 | |
| DB0DAN | 2026-09-01 00:30:25 | 49.72305 | 17.95509 | 35° | 24km/h | 28587m | 7.1m/s | -48.8°C | 0.6% | 0hPa | 2.7V | 00:00:00 | 00:00:00 | 00:00:00 | |
| PETON7-10 | 2026-09-01 00:30:24 | 49.72300 | 17.95503 | 37° | 15km/h | 28581m | 5.6m/s | -48.7°C | 3.1% | 0hPa | 2.6V | 00:00:00 | 01:43:06 | 00:00:00 | |
| DO3MHA-11 | 2026-09-01 00:30:23 | 49.72295 | 17.95497 | 38° | 11km/h | 28575m | 6.2m/s | -48.8°C | 3.1% | 0hPa | 2.6V | 00:00:00 | 01:43:05 | 00:00:00 | |
| HA6NAB-11 | 2026-09-01 00:30:22 | 49.72295 | 17.95497 | 39° | 24km/h | 28575m | 6.3m/s | -48.8°C | 0.7% | 0hPa | 2.6V | 00:00:00 | 00:00:00 | 00:00:00 | |
| OE5MMP-10 | 2026-09-01 00:30:20 | 49.72286 | 17.95487 | 44° | 11km/h | 28555m | 6.7m/s | -48.9°C | 3.1% | 0hPa | 2.6V | 00:00:00 | 01:43:02 | 00:00:00 | |
| HA6NAB-11 | 2026-09-01 00:30:18 | 49.72285 | 17.95480 | 87° | 9km/h | 28532m | 5.4m/s | -49.1°C | 0.7% | 0hPa | 2.6V | 00:00:00 | 00:00:00 | 00:00:00 | |
| OE5DXL-15 | 2026-09-01 00:30:17 | 49.72285 | 17.95476 | 79° | 11km/h | 28526m | 5.6m/s | -49.1°C | 3.2% | 0hPa | 2.6V | 00:00:00 | 00:00:00 | 00:00:00 | |
| OM5KV | 2026-09-01 00:30:16 | 49.72285 | 17.95476 | 80° | 9km/h | 28526m | 5.7m/s | -49.1°C | 0.7% | 0hPa | 2.6V | 00:00:00 | 00:00:00 | 00:00:00 | |
| OE3OSB-13 | 2026-09-01 00:30:15 | 49.72284 | 17.95473 | 55° | 7km/h | 28519m | 7.6m/s | -49.2°C | 0.6% | -1.0hPa | 2.6V | 00:00:00 | 00:00:00 | 00:00:00 | |
| DO3MHA-11 | 2026-09-01 00:30:13 | 49.72279 | 17.95469 | 18° | 20km/h | 28506m | 6.1m/s | -49.2°C | 3.3% | 0hPa | 2.6V | 00:00:00 | 01:42:55 | 00:00:00 | |
| DB0DAN | 2026-09-01 00:30:10 | 49.72264 | 17.95459 | 28° | 24km/h | 28485m | 5.3m/s | -49.2°C | 0.6% | 0hPa | 2.6V | 00:00:00 | 00:00:00 | 00:00:00 | |
| OE5MMP-10 | 2026-09-01 00:30:10 | 49.72264 | 17.95458 | 29° | 11km/h | 28485m | 5.2m/s | -49.2°C | 3.3% | 0hPa | 2.6V | 00:00:00 | 01:42:52 | 00:00:00 | |
| PETON7-10 | 2026-09-01 00:30:09 | 49.72258 | 17.95454 | 27° | 11km/h | 28480m | 5.9m/s | -49.2°C | 3.3% | 0hPa | 2.6V | 00:00:00 | 00:00:00 | 00:00:00 | |
| OM5KV | 2026-09-01 00:30:05 | 49.72247 | 17.95452 | 319° | 11km/h | 28458m | 6.2m/s | -49.1°C | 0.7% | 0hPa | 2.7V | 00:00:00 | 00:00:00 | 00:00:00 | |
| SP3WXH-11 | 2026-09-01 00:30:04 | 49.72245 | 17.95459 | 282° | 5km/h | 28444m | 8.0m/s | -49.0°C | 0.6% | -1.0hPa | 2.7V | 00:00:00 | 00:00:00 | 00:00:00 | |
| OM5KV | 2026-09-01 00:30:03 | 49.72245 | 17.95458 | 283° | 5km/h | 28444m | 8.0m/s | -49.0°C | 0.7% | 0hPa | 2.7V | 00:00:00 | 00:00:00 | 00:00:00 | |
| OE5DRO-10 | 2026-09-01 00:30:01 | 49.72245 | 17.95461 | 25° | 9km/h | 28424m | 7.6m/s | -48.8°C | 3.2% | 0hPa | 2.7V | 00:00:00 | 00:00:00 | 00:00:00 | |
| OE5MMP-10 | 2026-09-01 00:30:00 | 49.72244 | 17.95461 | 351° | 11km/h | 28417m | 7.1m/s | -48.8°C | 3.2% | 0hPa | 2.7V | 00:00:00 | 01:42:42 | 08:30:00 | |
| OM5KV | 2026-09-01 00:29:58 | 49.72242 | 17.95461 | 3° | 13km/h | 28410m | 5.9m/s | -48.8°C | 0.7% | 0hPa | 2.6V | 00:00:00 | 00:00:00 | 00:00:00 | |
| DB0DAN | 2026-09-01 00:29:55 | 49.72229 | 17.95452 | 52° | 11km/h | 28384m | 5.5m/s | -48.7°C | 0.6% | 0hPa | 2.6V | 00:00:00 | 00:00:00 | 00:00:00 | |
| PETON7-10 | 2026-09-01 00:29:54 | 49.72228 | 17.95449 | 59° | 7km/h | 28378m | 6.5m/s | -48.7°C | 3.2% | 0hPa | 2.7V | 00:00:00 | 00:00:00 | 00:00:00 | |
| DO3MHA-11 | 2026-09-01 00:29:53 | 49.72227 | 17.95448 | 319° | 9km/h | 28370m | 8.3m/s | -48.7°C | 3.1% | 0hPa | 2.7V | 00:00:00 | 01:42:35 | 00:00:00 | |
| OM5KV | 2026-09-01 00:29:52 | 49.72227 | 17.95448 | 0° | 0km/h | 28370m | 8.4m/s | -48.7°C | 0.7% | 0hPa | 2.7V | 00:00:00 | 00:00:00 | 00:00:00 | |
| OE5MMP-10 | 2026-09-01 00:29:50 | 49.72229 | 17.95459 | 251° | 7km/h | 28350m | 8.0m/s | -48.6°C | 3.1% | 0hPa | 2.7V | 00:00:00 | 01:42:32 | 00:00:00 | |
| OM5KV | 2026-09-01 00:29:48 | 49.72232 | 17.95467 | 239° | 9km/h | 28335m | 5.6m/s | -48.8°C | 0.7% | 0hPa | 2.7V | 00:00:00 | 00:00:00 | 00:00:00 | |
| OE5DXL-15 | 2026-09-01 00:29:46 | 49.72233 | 17.95473 | 271° | 13km/h | 28322m | 7.8m/s | -48.8°C | 3.2% | 0hPa | 2.7V | 00:00:00 | 00:00:00 | 00:00:00 | |
| OE3OSB-13 | 2026-09-01 00:29:44 | 49.72232 | 17.95477 | 331° | 4km/h | 28308m | 6.3m/s | -48.9°C | 0.6% | -1.0hPa | 2.7V | 00:00:00 | 00:00:00 | 00:00:00 | |
| DO3MHA-11 | 2026-09-01 00:29:43 | 49.72231 | 17.95478 | 13° | 15km/h | 28302m | 7.0m/s | -48.8°C | 3.1% | 0hPa | 2.7V | 00:00:00 | 01:42:25 | 00:00:00 | |
| DB0DAN | 2026-09-01 00:29:40 | 49.72235 | 17.95473 | 163° | 13km/h | 28282m | 6.7m/s | -48.9°C | 0.6% | 0hPa | 2.7V | 00:00:00 | 00:00:00 | 00:00:00 | |
| OE5MMP-10 | 2026-09-01 00:29:40 | 49.72235 | 17.95473 | 164° | 15km/h | 28282m | 6.7m/s | -48.8°C | 3.2% | 0hPa | 2.7V | 00:00:00 | 01:42:22 | 00:00:00 | |
| PETON7-10 | 2026-09-01 00:29:39 | 49.72238 | 17.95472 | 181° | 13km/h | 28275m | 8.4m/s | -48.8°C | 3.1% | 0hPa | 2.7V | 00:00:00 | 01:42:21 | 00:00:00 | |
| SP3BTT-10 | 2026-09-01 00:29:38 | 49.72242 | 17.95473 | 199° | 18km/h | 28266m | 7.8m/s | 0°C | 0% | 0hPa | 2.7V | 00:00:00 | 00:00:00 | 08:30:00 | |
| OM5KV | 2026-09-01 00:29:35 | 49.72251 | 17.95480 | 213° | 20km/h | 28253m | 6.5m/s | -48.9°C | 0.7% | 0hPa | 2.7V | 00:00:00 | 00:00:00 | 00:00:00 | |
| DO3MHA-11 | 2026-09-01 00:29:33 | 49.72263 | 17.95487 | 182° | 11km/h | 28234m | 6.8m/s | -48.8°C | 3.1% | 0hPa | 2.7V | 00:00:00 | 01:42:15 | 00:00:00 | |
| OE5MMP-10 | 2026-09-01 00:29:30 | 49.72266 | 17.95482 | 72° | 13km/h | 28213m | 5.2m/s | -48.7°C | 3.2% | 0hPa | 2.6V | 00:00:00 | 01:42:12 | 00:00:00 | |
| OM5KV | 2026-09-01 00:29:29 | 49.72266 | 17.95482 | 73° | 7km/h | 28213m | 5.3m/s | -48.8°C | 0.7% | 0hPa | 2.6V | 00:00:00 | 00:00:00 | 00:00:00 | |
| HA6NAB-11 | 2026-09-01 00:29:28 | 49.72266 | 17.95479 | 73° | 9km/h | 28207m | 6.6m/s | -48.8°C | 0.7% | 0hPa | 2.6V | 00:00:00 | 00:00:00 | 00:00:00 | |
| PETON7-10 | 2026-09-01 00:29:24 | 49.72278 | 17.95463 | 162° | 13km/h | 28172m | 8.7m/s | -48.7°C | 3.1% | 0hPa | 2.6V | 00:00:00 | 00:00:00 | 00:00:00 | |
| DO3MHA-11 | 2026-09-01 00:29:23 | 49.72282 | 17.95461 | 159° | 13km/h | 28163m | 8.6m/s | -48.7°C | 3.1% | 0hPa | 2.6V | 00:00:00 | 01:42:05 | 00:00:00 | |
| HA6NAB-11 | 2026-09-01 00:29:22 | 49.72282 | 17.95461 | 160° | 13km/h | 28163m | 8.6m/s | -48.7°C | 0.7% | 0hPa | 2.6V | 00:00:00 | 00:00:00 | 00:00:00 | |
| OE5MMP-10 | 2026-09-01 00:29:20 | 49.72291 | 17.95452 | 146° | 11km/h | 28143m | 8.2m/s | -48.8°C | 3.2% | 0hPa | 2.6V | 00:00:00 | 01:42:02 | 00:00:00 | |
| OM5KV | 2026-09-01 00:29:19 | 49.72292 | 17.95452 | 146° | 16km/h | 28143m | 8.3m/s | -48.9°C | 0.7% | 0hPa | 2.6V | 00:00:00 | 00:00:00 | 00:00:00 | |
| OM5KV | 2026-09-01 00:29:18 | 49.72295 | 17.95448 | 149° | 18km/h | 28136m | 7.0m/s | -48.9°C | 0.7% | 0hPa | 2.6V | 00:00:00 | 00:00:00 | 00:00:00 | |
| HA6NAB-11 | 2026-09-01 00:29:17 | 49.72302 | 17.95441 | 144° | 13km/h | 28125m | 6.4m/s | -48.9°C | 0.7% | 0hPa | 2.6V | 00:00:00 | 00:00:00 | 00:00:00 | |
| DO3MHA-11 | 2026-09-01 00:29:13 | 49.72303 | 17.95431 | 61° | 11km/h | 28096m | 6.8m/s | -48.9°C | 3.2% | 0hPa | 2.6V | 00:00:00 | 01:41:55 | 00:00:00 | |
| OM5KV | 2026-09-01 00:29:12 | 49.72303 | 17.95431 | 61° | 7km/h | 28096m | 6.9m/s | -48.9°C | 0.7% | 0hPa | 2.6V | 00:00:00 | 00:00:00 | 00:00:00 | |
| OE5MMP-10 | 2026-09-01 00:29:10 | 49.72305 | 17.95422 | 122° | 13km/h | 28075m | 6.2m/s | -48.9°C | 3.2% | 0hPa | 2.6V | 00:00:00 | 01:41:52 | 00:00:00 | |
| PETON7-10 | 2026-09-01 00:29:09 | 49.72306 | 17.95417 | 111° | 13km/h | 28068m | 7.8m/s | -49.0°C | 3.2% | 0hPa | 2.6V | 00:00:00 | 00:00:00 | 00:00:00 | |
| OM5KV | 2026-09-01 00:29:07 | 49.72307 | 17.95412 | 104° | 13km/h | 28060m | 6.7m/s | -49.1°C | 0.7% | 0hPa | 2.6V | 00:00:00 | 00:00:00 | 00:00:00 | |
| OM5KV | 2026-09-01 00:29:06 | 49.72308 | 17.95408 | 110° | 13km/h | 28054m | 5.4m/s | -49.1°C | 0.7% | 0hPa | 2.6V | 00:00:00 | 00:00:00 | 00:00:00 | |
| OE5DRO-10 | 2026-09-01 00:29:04 | 49.72313 | 17.95395 | 128° | 13km/h | 28034m | 5.8m/s | -49.0°C | 3.2% | 0hPa | 2.6V | 00:00:00 | 00:00:00 | 00:00:00 | |
| DO3MHA-11 | 2026-09-01 00:29:03 | 49.72314 | 17.95391 | 98° | 11km/h | 28028m | 5.1m/s | -49.0°C | 3.2% | 0hPa | 2.6V | 00:00:00 | 01:41:45 | 08:30:00 | |
| SP3WXH-11 | 2026-09-01 00:29:02 | 49.72314 | 17.95387 | 65° | 11km/h | 28021m | 7.3m/s | -49.1°C | 0.6% | -1.0hPa | 2.6V | 00:00:00 | 00:00:00 | 00:00:00 | |
| PG1ADW-2 | 2026-09-01 00:29:00 | 49.72308 | 17.95378 | 35° | 15km/h | 28007m | 5.8m/s | -49.0°C | 3.2% | 0hPa | 2.6V | 00:00:00 | 00:00:00 | 00:00:00 | |
| OM5KV | 2026-09-01 00:28:56 | 49.72298 | 17.95369 | 28° | 5km/h | 27988m | 7.6m/s | -49.0°C | 0.7% | 0hPa | 2.6V | 00:00:00 | 00:00:00 | 00:00:00 | |
| PETON7-10 | 2026-09-01 00:28:54 | 49.72300 | 17.95369 | 169° | 15km/h | 27969m | 6.1m/s | -48.9°C | 3.2% | 0hPa | 2.6V | 00:00:00 | 01:41:36 | 00:00:00 | |
| DO3MHA-11 | 2026-09-01 00:28:53 | 49.72302 | 17.95367 | 138° | 15km/h | 27963m | 6.7m/s | -48.9°C | 3.2% | 0hPa | 2.6V | 00:00:00 | 01:41:35 | 00:00:00 | |
| OE5MMP-10 | 2026-09-01 00:28:50 | 49.72303 | 17.95356 | 86° | 16km/h | 27944m | 6.0m/s | -48.9°C | 3.2% | 0hPa | 2.6V | 00:00:00 | 01:41:32 | 00:00:00 | |
| POL1PZ | 2026-09-01 00:28:49 | 49.72303 | 17.95356 | 86° | 13km/h | 27944m | 6.0m/s | -49.0°C | 0.7% | 0hPa | 2.6V | 00:00:00 | 00:00:00 | 00:00:00 | |
| OK1SLM-15 | 2026-09-01 00:28:48 | 49.72303 | 17.95351 | 90° | 11km/h | 27938m | 7.1m/s | -49.0°C | 0.7% | 0hPa | 2.6V | 00:00:00 | 00:00:00 | 00:00:00 | |
| OE5DXL-15 | 2026-09-01 00:28:46 | 49.72304 | 17.95334 | 95° | 13km/h | 27918m | 7.1m/s | -48.8°C | 3.2% | 0hPa | 2.6V | 00:00:00 | 00:00:00 | 00:00:00 | |
| OE5DRO-10 | 2026-09-01 00:28:45 | 49.72304 | 17.95325 | 87° | 15km/h | 27911m | 7.9m/s | -48.8°C | 3.2% | 0hPa | 2.6V | 00:00:00 | 00:00:00 | 00:00:00 | |
| OM5KV | 2026-09-01 00:28:44 | 49.72304 | 17.95325 | 88° | 26km/h | 27911m | 7.9m/s | -48.9°C | 0.7% | 0hPa | 2.6V | 00:00:00 | 00:00:00 | 00:00:00 | |
| DO3MHA-11 | 2026-09-01 00:28:43 | 49.72302 | 17.95307 | 73° | 13km/h | 27898m | 5.2m/s | -48.8°C | 3.2% | 0hPa | 2.6V | 00:00:00 | 01:41:25 | 00:00:00 | |
| OE5MMP-10 | 2026-09-01 00:28:40 | 49.72302 | 17.95291 | 125° | 15km/h | 27876m | 5.8m/s | -48.8°C | 3.2% | 0hPa | 2.6V | 00:00:00 | 01:41:22 | 00:00:00 | |
| PETON7-10 | 2026-09-01 00:28:39 | 49.72304 | 17.95286 | 125° | 11km/h | 27871m | 5.8m/s | -48.8°C | 3.2% | 0hPa | 2.6V | 00:00:00 | 00:00:00 | 08:30:00 | |
| OM5KV | 2026-09-01 00:28:38 | 49.72304 | 17.95286 | 126° | 16km/h | 27871m | 5.9m/s | -48.9°C | 0.7% | 0hPa | 2.6V | 00:00:00 | 00:00:00 | 00:00:00 | |
| SP3BTT-10 | 2026-09-01 00:28:37 | 49.72308 | 17.95276 | 104° | 11km/h | 27858m | 6.3m/s | 0°C | 0% | 0hPa | 2.6V | 00:00:00 | 00:00:00 | 00:00:00 | |
| DO3MHA-11 | 2026-09-01 00:28:33 | 49.72307 | 17.95258 | 78° | 11km/h | 27832m | 5.8m/s | -48.7°C | 3.2% | 0hPa | 2.6V | 00:00:00 | 01:41:15 | 00:00:00 | |
| OM5KV | 2026-09-01 00:28:32 | 49.72307 | 17.95259 | 79° | 15km/h | 27832m | 5.9m/s | -48.8°C | 0.7% | 0hPa | 2.7V | 00:00:00 | 00:00:00 | 00:00:00 | |
| SP3WXH-11 | 2026-09-01 00:28:31 | 49.72304 | 17.95248 | 54° | 15km/h | 27818m | 8.1m/s | -48.7°C | 0.6% | -1.0hPa | 2.7V | 00:00:00 | 00:00:00 | 00:00:00 | |
| OE5MMP-10 | 2026-09-01 00:28:30 | 49.72301 | 17.95244 | 27° | 9km/h | 27812m | 3.7m/s | -48.7°C | 3.1% | 0hPa | 2.7V | 00:00:00 | 01:41:12 | 08:30:00 | |
| OM5KV | 2026-09-01 00:28:28 | 49.72299 | 17.95243 | 5° | 11km/h | 27807m | 5.5m/s | -48.7°C | 0.7% | 0hPa | 2.7V | 00:00:00 | 00:00:00 | 00:00:00 | |
| OM5KV | 2026-09-01 00:28:27 | 49.72297 | 17.95243 | 338° | 7km/h | 27801m | 7.6m/s | -48.7°C | 0.6% | 0hPa | 2.7V | 00:00:00 | 00:00:00 | 00:00:00 | |
| NBG1-10 | 2026-09-01 00:28:26 | 49.72297 | 17.95246 | 199° | 15km/h | 27783m | 7.7m/s | -48.7°C | 3.1% | 0hPa | 2.7V | 00:00:00 | 01:41:08 | 00:00:00 | |
| PETON7-10 | 2026-09-01 00:28:24 | 49.72301 | 17.95245 | 153° | 11km/h | 27772m | 5.4m/s | -48.8°C | 3.1% | 0hPa | 2.7V | 00:00:00 | 00:00:00 | 00:00:00 | |
| DO3MHA-11 | 2026-09-01 00:28:23 | 49.72303 | 17.95243 | 125° | 13km/h | 27765m | 8.4m/s | -48.8°C | 3.1% | 0hPa | 2.7V | 00:00:00 | 01:41:05 | 00:00:00 | |
| OM5KV | 2026-09-01 00:28:22 | 49.72303 | 17.95241 | 51° | 7km/h | 27757m | 7.5m/s | -49.0°C | 0.7% | 0hPa | 2.7V | 00:00:00 | 00:00:00 | 00:00:00 | |
| OE5MMP-10 | 2026-09-01 00:28:20 | 49.72298 | 17.95236 | 34° | 13km/h | 27745m | 6.3m/s | -49.1°C | 3.1% | 0hPa | 2.7V | 00:00:00 | 01:41:02 | 00:00:00 | |
| OM5KV | 2026-09-01 00:28:17 | 49.72292 | 17.95228 | 46° | 15km/h | 27730m | 5.9m/s | -49.2°C | 0.7% | 0hPa | 2.7V | 00:00:00 | 00:00:00 | 00:00:00 | |
| OE5DXL-15 | 2026-09-01 00:28:16 | 49.72286 | 17.95220 | 33° | 9km/h | 27718m | 7.4m/s | -49.3°C | 3.2% | 0hPa | 2.7V | 00:00:00 | 00:00:00 | 00:00:00 | |
| HA6NAB-11 | 2026-09-01 00:28:15 | 49.72285 | 17.95220 | 34° | 18km/h | 27718m | 7.5m/s | -49.3°C | 0.7% | 0hPa | 2.6V | 00:00:00 | 00:00:00 | 00:00:00 | |
| OM5KV | 2026-09-01 00:28:14 | 49.72282 | 17.95217 | 23° | 18km/h | 27710m | 9.1m/s | -49.4°C | 0.7% | 0hPa | 2.6V | 00:00:00 | 00:00:00 | 00:00:00 | |
| DO3MHA-11 | 2026-09-01 00:28:13 | 49.72276 | 17.95215 | 343° | 9km/h | 27699m | 4.9m/s | -49.4°C | 3.3% | 0hPa | 2.6V | 00:00:00 | 01:40:55 | 00:00:00 | |
| OM5KV | 2026-09-01 00:28:12 | 49.72276 | 17.95215 | 344° | 5km/h | 27699m | 5.0m/s | -49.4°C | 0.7% | 0hPa | 2.6V | 00:00:00 | 00:00:00 | 00:00:00 | |
| OE3OSB-13 | 2026-09-01 00:28:11 | 49.72276 | 17.95217 | 198° | 7km/h | 27683m | 9.5m/s | -49.5°C | 0.7% | -1.0hPa | 2.6V | 00:00:00 | 00:00:00 | 00:00:00 | |
| OE5MMP-10 | 2026-09-01 00:28:10 | 49.72279 | 17.95218 | 190° | 9km/h | 27676m | 4.9m/s | -49.5°C | 3.3% | 0hPa | 2.6V | 00:00:00 | 01:40:52 | 00:00:00 | |
| PETON7-10 | 2026-09-01 00:28:09 | 49.72282 | 17.95219 | 192° | 11km/h | 27670m | 5.6m/s | -49.5°C | 3.3% | 0hPa | 2.6V | 00:00:00 | 01:40:51 | 00:00:00 | |
| OE5DRO-10 | 2026-09-01 00:28:07 | 49.72286 | 17.95222 | 248° | 7km/h | 27656m | 7.5m/s | -49.5°C | 3.3% | 0hPa | 2.6V | 00:00:00 | 00:00:00 | 08:30:00 | |
| OM5KV | 2026-09-01 00:28:06 | 49.72286 | 17.95222 | 248° | 7km/h | 27656m | 7.5m/s | -49.5°C | 0.7% | 0hPa | 2.7V | 00:00:00 | 00:00:00 | 00:00:00 | |
| OM5KV | 2026-09-01 00:28:04 | 49.72286 | 17.95228 | 283° | 9km/h | 27643m | 6.4m/s | -49.5°C | 0.7% | 0hPa | 2.7V | 00:00:00 | 00:00:00 | 00:00:00 | |
| DO3MHA-11 | 2026-09-01 00:28:03 | 49.72286 | 17.95234 | 247° | 13km/h | 27629m | 6.8m/s | -49.4°C | 3.3% | 0hPa | 2.7V | 00:00:00 | 01:40:45 | 00:00:00 | |
| S52SK | 2026-09-01 00:28:01 | 49.72287 | 17.95236 | 235° | 5km/h | 27622m | 6.8m/s | -49.4°C | 0.7% | 0hPa | 2.6V | 00:00:00 | 00:00:00 | 00:00:00 | |
| OE5MMP-10 | 2026-09-01 00:28:00 | 49.72288 | 17.95240 | 229° | 11km/h | 27607m | 6.7m/s | -49.3°C | 3.3% | 0hPa | 2.6V | 00:00:00 | 01:40:42 | 00:00:00 | |
| OM5KV | 2026-09-01 00:27:58 | 49.72290 | 17.95241 | 207° | 9km/h | 27601m | 6.0m/s | -49.3°C | 0.7% | 0hPa | 2.6V | 00:00:00 | 00:00:00 | 00:00:00 | |
| OM5KV | 2026-09-01 00:27:55 | 49.72301 | 17.95244 | 184° | 20km/h | 27580m | 6.0m/s | -49.2°C | 0.7% | 0hPa | 2.6V | 00:00:00 | 00:00:00 | 00:00:00 | |
| PETON7-10 | 2026-09-01 00:27:54 | 49.72311 | 17.95245 | 185° | 9km/h | 27567m | 7.6m/s | -49.1°C | 3.2% | 0hPa | 2.6V | 00:00:00 | 00:00:00 | 00:00:00 | |
| DO3MHA-11 | 2026-09-01 00:27:53 | 49.72314 | 17.95246 | 190° | 7km/h | 27560m | 7.1m/s | -49.1°C | 3.2% | 0hPa | 2.6V | 00:00:00 | 01:40:35 | 00:00:00 | |
| SP3BTT-10 | 2026-09-01 00:27:52 | 49.72315 | 17.95247 | 269° | 9km/h | 27553m | 5.7m/s | 0°C | 0% | 0hPa | 2.6V | 00:00:00 | 00:00:00 | 00:00:00 | |
| OE5MMP-10 | 2026-09-01 00:27:50 | 49.72314 | 17.95249 | 281° | 9km/h | 27542m | 6.5m/s | -49.1°C | 3.2% | 0hPa | 2.6V | 00:00:00 | 01:40:32 | 00:00:00 | |
| OM5KV | 2026-09-01 00:27:49 | 49.72314 | 17.95249 | 281° | 5km/h | 27542m | 6.6m/s | -49.1°C | 0.7% | 0hPa | 2.6V | 00:00:00 | 00:00:00 | 00:00:00 | |
| OE5DRO-10 | 2026-09-01 00:27:48 | 49.72316 | 17.95253 | 211° | 15km/h | 27528m | 6.9m/s | -49.1°C | 3.2% | 0hPa | 2.6V | 00:00:00 | 00:00:00 | 00:00:00 | |
| POL1PZ | 2026-09-01 00:27:47 | 49.72316 | 17.95253 | 212° | 9km/h | 27528m | 7.0m/s | -49.2°C | 0.7% | 0hPa | 2.6V | 00:00:00 | 00:00:00 | 00:00:00 | |
| OE5DXL-15 | 2026-09-01 00:27:46 | 49.72321 | 17.95255 | 180° | 18km/h | 27517m | 5.7m/s | -49.2°C | 3.2% | 0hPa | 2.6V | 00:00:00 | 00:00:00 | 00:00:00 | |
| DO3MHA-11 | 2026-09-01 00:27:43 | 49.72327 | 17.95251 | 153° | 16km/h | 27496m | 6.2m/s | -49.1°C | 3.2% | 0hPa | 2.6V | 00:00:00 | 01:40:25 | 00:00:00 | |
| OK1SLM-15 | 2026-09-01 00:27:42 | 49.72327 | 17.95251 | 154° | 9km/h | 27496m | 6.2m/s | -49.2°C | 0.7% | 0hPa | 2.6V | 00:00:00 | 00:00:00 | 00:00:00 | |
| OE5MMP-10 | 2026-09-01 00:27:40 | 49.72337 | 17.95250 | 185° | 16km/h | 27474m | 5.2m/s | -49.0°C | 3.2% | 0hPa | 2.6V | 00:00:00 | 01:40:22 | 00:00:00 | |
| PETON7-10 | 2026-09-01 00:27:39 | 49.72342 | 17.95250 | 181° | 16km/h | 27469m | 4.6m/s | -49.0°C | 3.2% | 0hPa | 2.6V | 00:00:00 | 00:00:00 | 00:00:00 | |
| OM5KV | 2026-09-01 00:27:38 | 49.72342 | 17.95250 | 181° | 18km/h | 27469m | 4.7m/s | -49.0°C | 0.7% | 0hPa | 2.6V | 00:00:00 | 00:00:00 | 00:00:00 | |
| OM5KV | 2026-09-01 00:27:36 | 49.72351 | 17.95248 | 159° | 16km/h | 27455m | 7.3m/s | -49.0°C | 0.7% | 0hPa | 2.6V | 00:00:00 | 00:00:00 | 00:00:00 | |
| DO3MHA-11 | 2026-09-01 00:27:33 | 49.72366 | 17.95236 | 160° | 16km/h | 27428m | 6.5m/s | -49.0°C | 3.1% | 0hPa | 2.6V | 00:00:00 | 01:40:15 | 08:30:00 | |
| OM5KV | 2026-09-01 00:27:32 | 49.72366 | 17.95236 | 161° | 15km/h | 27428m | 6.5m/s | -49.0°C | 0.7% | 0hPa | 2.7V | 00:00:00 | 00:00:00 | 00:00:00 | |
| OE5MMP-10 | 2026-09-01 00:27:30 | 49.72374 | 17.95226 | 111° | 20km/h | 27407m | 6.8m/s | -49.2°C | 3.2% | 0hPa | 2.7V | 00:00:00 | 01:40:12 | 00:00:00 | |
| OE5DRO-10 | 2026-09-01 00:27:29 | 49.72375 | 17.95221 | 109° | 22km/h | 27402m | 4.2m/s | -49.2°C | 3.2% | 0hPa | 2.7V | 00:00:00 | 00:00:00 | 00:00:00 | |
| POL1PZ | 2026-09-01 00:27:26 | 49.72379 | 17.95213 | 146° | 13km/h | 27389m | 8.5m/s | -49.3°C | 0.7% | 0hPa | 2.7V | 00:00:00 | 00:00:00 | 00:00:00 | |
| NBG1-10 | 2026-09-01 00:27:25 | 49.72388 | 17.95206 | 150° | 26km/h | 27376m | 5.2m/s | -49.3°C | 3.2% | 0hPa | 2.7V | 00:00:00 | 01:40:07 | 00:00:00 | |
| OM5KV | 2026-09-01 00:27:24 | 49.72393 | 17.95200 | 145° | 29km/h | 27370m | 7.8m/s | -49.4°C | 0.7% | 0hPa | 2.7V | 00:00:00 | 00:00:00 | 00:00:00 | |
| DO3MHA-11 | 2026-09-01 00:27:23 | 49.72399 | 17.95193 | 137° | 22km/h | 27361m | 9.1m/s | -49.3°C | 3.2% | 0hPa | 2.7V | 00:00:00 | 01:40:05 | 00:00:00 | |
| OM5KV | 2026-09-01 00:27:21 | 49.72404 | 17.95185 | 131° | 26km/h | 27354m | 5.4m/s | -49.4°C | 0.7% | 0hPa | 2.7V | 00:00:00 | 00:00:00 | 00:00:00 | |
| OE5MMP-10 | 2026-09-01 00:27:20 | 49.72411 | 17.95172 | 135° | 22km/h | 27341m | 8.4m/s | -49.3°C | 3.2% | 0hPa | 2.7V | 00:00:00 | 01:40:02 | 00:00:00 | |
| HA6NAB-11 | 2026-09-01 00:27:18 | 49.72416 | 17.95166 | 137° | 24km/h | 27333m | 7.1m/s | -49.4°C | 0.7% | 0hPa | 2.7V | 00:00:00 | 00:00:00 | 00:00:00 | |
| OE5DXL-15 | 2026-09-01 00:27:16 | 49.72426 | 17.95138 | 106° | 16km/h | 27313m | 8.2m/s | -49.3°C | 3.2% | 0hPa | 2.7V | 00:00:00 | 00:00:00 | 00:00:00 | |
| PG1ADW-2 | 2026-09-01 00:27:13 | 49.72429 | 17.95114 | 107° | 15km/h | 27294m | 7.5m/s | -49.3°C | 3.2% | 0hPa | 2.7V | 00:00:00 | 00:00:00 | 00:00:00 | |
| HA6NAB-11 | 2026-09-01 00:27:12 | 49.72429 | 17.95114 | 108° | 15km/h | 27294m | 7.6m/s | -49.3°C | 0.7% | 0hPa | 2.7V | 00:00:00 | 00:00:00 | 00:00:00 | |
| OE5DRO-10 | 2026-09-01 00:27:11 | 49.72436 | 17.95101 | 140° | 13km/h | 27274m | 7.1m/s | -49.3°C | 3.2% | 0hPa | 2.7V | 00:00:00 | 00:00:00 | 00:00:00 | |
| OE5MMP-10 | 2026-09-01 00:27:10 | 49.72436 | 17.95101 | 140° | 20km/h | 27274m | 7.1m/s | -49.3°C | 3.2% | 0hPa | 2.6V | 00:00:00 | 01:39:52 | 00:00:00 | |
| PETON7-10 | 2026-09-01 00:27:09 | 49.72440 | 17.95096 | 136° | 15km/h | 27266m | 8.6m/s | -49.3°C | 3.2% | 0hPa | 2.6V | 00:00:00 | 00:00:00 | 00:00:00 | |
| OM5KV | 2026-09-01 00:27:07 | 49.72442 | 17.95092 | 125° | 13km/h | 27259m | 5.7m/s | -49.4°C | 0.7% | 0hPa | 2.6V | 00:00:00 | 00:00:00 | 00:00:00 | |
| OM5KV | 2026-09-01 00:27:05 | 49.72446 | 17.95083 | 123° | 16km/h | 27247m | 7.0m/s | -49.4°C | 0.7% | 0hPa | 2.6V | 00:00:00 | 00:00:00 | 00:00:00 | |
| HA6NAB-11 | 2026-09-01 00:27:02 | 49.72454 | 17.95061 | 113° | 27km/h | 27224m | 5.0m/s | -49.4°C | 0.7% | 0hPa | 2.6V | 00:00:00 | 00:00:00 | 00:00:00 | |
| SP3WXH-11 | 2026-09-01 00:26:58 | 49.72457 | 17.95028 | 100° | 5km/h | 27189m | 7.6m/s | -49.5°C | 0.7% | -1.0hPa | 2.6V | 00:00:00 | 00:00:00 | 00:00:00 | |
| DB0DAN | 2026-09-01 00:26:55 | 49.72458 | 17.95023 | 121° | 4km/h | 27170m | 8.6m/s | -49.7°C | 0.7% | 0hPa | 2.6V | 00:00:00 | 00:00:00 | 00:00:00 | |
| OM5KV | 2026-09-01 00:26:54 | 49.72458 | 17.95023 | 122° | 4km/h | 27170m | 8.6m/s | -49.7°C | 0.7% | 0hPa | 2.6V | 00:00:00 | 00:00:00 | 00:00:00 | |
| PG1ADW-2 | 2026-09-01 00:26:53 | 49.72459 | 17.95019 | 116° | 15km/h | 27156m | 5.6m/s | -49.7°C | 3.3% | 0hPa | 2.6V | 00:00:00 | 00:00:00 | 00:00:00 | |
| SP3BTT-10 | 2026-09-01 00:26:52 | 49.72460 | 17.95016 | 113° | 16km/h | 27150m | 7.5m/s | 0°C | 0% | 0hPa | 2.6V | 00:00:00 | 00:00:00 | 00:00:00 | |
| OE5DRO-10 | 2026-09-01 00:26:51 | 49.72461 | 17.95012 | 112° | 16km/h | 27141m | 9.5m/s | -49.8°C | 3.3% | 0hPa | 2.6V | 00:00:00 | 00:00:00 | 00:00:00 | |
| OE5MMP-10 | 2026-09-01 00:26:50 | 49.72462 | 17.95004 | 95° | 18km/h | 27134m | 5.6m/s | -49.9°C | 3.3% | 0hPa | 2.6V | 00:00:00 | 01:39:32 | 00:00:00 | |
| DO3MHA-11 | 2026-09-01 00:26:49 | 49.72462 | 17.94994 | 82° | 16km/h | 27128m | 5.6m/s | -49.9°C | 3.4% | 0hPa | 2.6V | 00:00:00 | 01:39:31 | 00:00:00 | |
| OM5KV | 2026-09-01 00:26:48 | 49.72462 | 17.94994 | 83° | 27km/h | 27128m | 5.7m/s | -50.0°C | 0.8% | 0hPa | 2.7V | 00:00:00 | 00:00:00 | 00:00:00 | |
| OE5DXL-15 | 2026-09-01 00:26:46 | 49.72453 | 17.94966 | 43° | 16km/h | 27109m | 5.4m/s | -50.0°C | 3.4% | 0hPa | 2.7V | 00:00:00 | 00:00:00 | 08:30:00 | |
| POL1PZ | 2026-09-01 00:26:45 | 49.72453 | 17.94966 | 43° | 26km/h | 27109m | 5.5m/s | -50.0°C | 0.8% | 0hPa | 2.6V | 00:00:00 | 00:00:00 | 00:00:00 | |
| OK1SLM-15 | 2026-09-01 00:26:44 | 49.72448 | 17.94960 | 38° | 20km/h | 27103m | 6.7m/s | -50.0°C | 0.8% | 0hPa | 2.6V | 00:00:00 | 00:00:00 | 00:00:00 | |
| OM5KV | 2026-09-01 00:26:43 | 49.72445 | 17.94956 | 34° | 15km/h | 27095m | 8.4m/s | -50.0°C | 0.8% | 0hPa | 2.6V | 00:00:00 | 00:00:00 | 00:00:00 | |
| OE5MMP-10 | 2026-09-01 00:26:40 | 49.72440 | 17.94958 | 281° | 16km/h | 27067m | 7.4m/s | -49.9°C | 3.5% | 0hPa | 2.6V | 00:00:00 | 01:39:22 | 00:00:00 | |
| PETON7-10 | 2026-09-01 00:26:39 | 49.72440 | 17.94960 | 266° | 16km/h | 27060m | 4.8m/s | -49.8°C | 3.4% | 0hPa | 2.6V | 00:00:00 | 01:39:21 | 00:00:00 | |
| OE3OSB-13 | 2026-09-01 00:26:38 | 49.72440 | 17.94962 | 260° | 0km/h | 27055m | 6.0m/s | -49.9°C | 0.7% | -1.0hPa | 2.6V | 00:00:00 | 00:00:00 | 00:00:00 | |
| OM5KV | 2026-09-01 00:26:37 | 49.72440 | 17.94962 | 0° | 0km/h | 27055m | 6.0m/s | -49.9°C | 0.8% | 0hPa | 2.6V | 00:00:00 | 00:00:00 | 00:00:00 | |
| OM5KV | 2026-09-01 00:26:36 | 49.72440 | 17.94961 | 108° | 5km/h | 27048m | 8.3m/s | -49.8°C | 0.7% | 0hPa | 2.6V | 00:00:00 | 00:00:00 | 00:00:00 | |
| HA6NAB-11 | 2026-09-01 00:26:34 | 49.72441 | 17.94949 | 90° | 24km/h | 27034m | 6.1m/s | -49.8°C | 0.8% | 0hPa | 2.6V | 00:00:00 | 00:00:00 | 00:00:00 | |
| PG1ADW-2 | 2026-09-01 00:26:33 | 49.72439 | 17.94930 | 76° | 18km/h | 27019m | 9.1m/s | -49.7°C | 3.4% | 0hPa | 2.6V | 00:00:00 | 00:00:00 | 00:00:00 | |
| OE5DRO-10 | 2026-09-01 00:26:32 | 49.72436 | 17.94920 | 64° | 18km/h | 27012m | 5.8m/s | -49.6°C | 3.4% | 0hPa | 2.7V | 00:00:00 | 00:00:00 | 00:00:00 | |
| OM5KV | 2026-09-01 00:26:31 | 49.72436 | 17.94920 | 64° | 26km/h | 27012m | 5.8m/s | -49.7°C | 0.7% | 0hPa | 2.7V | 00:00:00 | 00:00:00 | 00:00:00 | |
| OE5MMP-10 | 2026-09-01 00:26:30 | 49.72430 | 17.94903 | 55° | 13km/h | 26999m | 7.7m/s | -49.5°C | 3.4% | 0hPa | 2.7V | 00:00:00 | 01:39:12 | 00:00:00 | |
| DO3MHA-11 | 2026-09-01 00:26:29 | 49.72426 | 17.94896 | 54° | 13km/h | 26992m | 6.9m/s | -49.5°C | 3.4% | 0hPa | 2.7V | 00:00:00 | 01:39:11 | 00:00:00 | |
| HA6NAB-11 | 2026-09-01 00:26:28 | 49.72426 | 17.94896 | 55° | 22km/h | 26992m | 7.0m/s | -49.6°C | 0.8% | 0hPa | 2.7V | 00:00:00 | 00:00:00 | 00:00:00 | |
| OM5KV | 2026-09-01 00:26:26 | 49.72421 | 17.94888 | 19° | 11km/h | 26980m | 7.0m/s | -49.5°C | 0.7% | 0hPa | 2.7V | 00:00:00 | 00:00:00 | 00:00:00 | |
| PETON7-10 | 2026-09-01 00:26:24 | 49.72417 | 17.94891 | 308° | 15km/h | 26959m | 4.6m/s | -49.3°C | 3.3% | 0hPa | 2.7V | 00:00:00 | 00:00:00 | 08:30:00 | |
| OE5MMP-10 | 2026-09-01 00:26:20 | 49.72414 | 17.94871 | 81° | 16km/h | 26933m | 5.6m/s | -49.1°C | 3.3% | 0hPa | 2.6V | 00:00:00 | 01:39:02 | 00:00:00 | |
| DO3MHA-11 | 2026-09-01 00:26:19 | 49.72412 | 17.94860 | 76° | 15km/h | 26927m | 6.4m/s | -49.1°C | 3.2% | 0hPa | 2.6V | 00:00:00 | 01:39:01 | 00:00:00 | |
| OE5DXL-15 | 2026-09-01 00:26:16 | 49.72404 | 17.94834 | 46° | 13km/h | 26907m | 5.9m/s | -49.0°C | 3.2% | 0hPa | 2.6V | 00:00:00 | 01:38:58 | 00:00:00 | |
| S52SK | 2026-09-01 00:26:15 | 49.72404 | 17.94834 | 47° | 20km/h | 26907m | 5.9m/s | -49.0°C | 0.7% | 0hPa | 2.6V | 00:00:00 | 00:00:00 | 00:00:00 | |
| OE5DRO-10 | 2026-09-01 00:26:13 | 49.72397 | 17.94825 | 50° | 13km/h | 26887m | 5.6m/s | -48.9°C | 3.2% | 0hPa | 2.6V | 00:00:00 | 00:00:00 | 00:00:00 | |
| OE5MMP-10 | 2026-09-01 00:26:10 | 49.72395 | 17.94818 | 72° | 13km/h | 26866m | 6.6m/s | -48.8°C | 3.2% | 0hPa | 2.7V | 00:00:00 | 01:38:52 | 00:00:00 | |
| PETON7-10 | 2026-09-01 00:26:09 | 49.72394 | 17.94815 | 67° | 13km/h | 26860m | 6.0m/s | -48.8°C | 3.2% | 0hPa | 2.7V | 00:00:00 | 00:00:00 | 00:00:00 | |
| OE3OSB-13 | 2026-09-01 00:26:07 | 49.72394 | 17.94810 | 108° | 7km/h | 26846m | 7.1m/s | -48.9°C | 0.7% | -1.0hPa | 2.7V | 00:00:00 | 00:00:00 | 00:00:00 | |
| S52SK | 2026-09-01 00:26:04 | 49.72395 | 17.94799 | 94° | 18km/h | 26834m | 6.3m/s | -48.9°C | 0.7% | 0hPa | 2.7V | 00:00:00 | 00:00:00 | 00:00:00 | |
| POL1PZ | 2026-09-01 00:26:03 | 49.72395 | 17.94792 | 81° | 20km/h | 26827m | 6.7m/s | -48.9°C | 0.7% | 0hPa | 2.7V | 00:00:00 | 00:00:00 | 00:00:00 | |
| OM5KV | 2026-09-01 00:26:02 | 49.72394 | 17.94785 | 68° | 18km/h | 26821m | 7.0m/s | -48.9°C | 0.7% | 0hPa | 2.7V | 00:00:00 | 00:00:00 | 00:00:00 | |
| SP3WXH-11 | 2026-09-01 00:25:56 | 49.72381 | 17.94754 | 73° | 15km/h | 26773m | 6.1m/s | -48.8°C | 0.6% | -1.0hPa | 2.7V | 00:00:00 | 00:00:00 | 00:00:00 | |
| PETON7-10 | 2026-09-01 00:25:54 | 49.72380 | 17.94743 | 104° | 13km/h | 26760m | 6.1m/s | -48.7°C | 3.2% | 0hPa | 2.7V | 00:00:00 | 01:38:36 | 00:00:00 | |
| PG1ADW-2 | 2026-09-01 00:25:53 | 49.72381 | 17.94737 | 110° | 13km/h | 26754m | 5.7m/s | -48.7°C | 3.2% | 0hPa | 2.7V | 00:00:00 | 00:00:00 | 00:00:00 | |
| OM5KV | 2026-09-01 00:25:52 | 49.72381 | 17.94737 | 111° | 15km/h | 26754m | 5.7m/s | -48.8°C | 0.7% | 0hPa | 2.7V | 00:00:00 | 00:00:00 | 00:00:00 | |
| OE5MMP-10 | 2026-09-01 00:25:50 | 49.72383 | 17.94718 | 77° | 13km/h | 26732m | 5.6m/s | -48.6°C | 3.2% | 0hPa | 2.7V | 00:00:00 | 01:38:32 | 00:00:00 | |
| DO3MHA-11 | 2026-09-01 00:25:49 | 49.72382 | 17.94712 | 65° | 11km/h | 26726m | 6.7m/s | -48.6°C | 3.2% | 0hPa | 2.7V | 00:00:00 | 01:38:31 | 08:30:00 | |
| OK1SLM-15 | 2026-09-01 00:25:48 | 49.72382 | 17.94712 | 65° | 15km/h | 26726m | 6.7m/s | -48.6°C | 0.7% | 0hPa | 2.6V | 00:00:00 | 00:00:00 | 00:00:00 | |
| OE5DXL-15 | 2026-09-01 00:25:46 | 49.72377 | 17.94703 | 34° | 9km/h | 26707m | 6.4m/s | -48.4°C | 3.2% | 0hPa | 2.6V | 00:00:00 | 00:00:00 | 00:00:00 | |
| SP3BTT-10 | 2026-09-01 00:25:45 | 49.72375 | 17.94701 | 54° | 13km/h | 26700m | 7.7m/s | 0°C | 0% | 0hPa | 2.6V | 00:00:00 | 00:00:00 | 00:00:00 | |
| POL1PZ | 2026-09-01 00:25:43 | 49.72374 | 17.94699 | 73° | 11km/h | 26692m | 9.1m/s | -48.4°C | 0.7% | 0hPa | 2.6V | 00:00:00 | 00:00:00 | 00:00:00 | |
| OK1SLM-15 | 2026-09-01 00:25:42 | 49.72373 | 17.94694 | 86° | 15km/h | 26685m | 5.0m/s | -48.3°C | 0.7% | 0hPa | 2.6V | 00:00:00 | 00:00:00 | 00:00:00 | |
| OE5MMP-10 | 2026-09-01 00:25:40 | 49.72375 | 17.94678 | 117° | 11km/h | 26665m | 7.2m/s | -48.2°C | 3.1% | 0hPa | 2.6V | 00:00:00 | 01:38:22 | 00:00:00 | |
| DO3MHA-11 | 2026-09-01 00:25:39 | 49.72377 | 17.94674 | 123° | 11km/h | 26658m | 5.1m/s | -48.2°C | 3.1% | 0hPa | 2.6V | 00:00:00 | 01:38:21 | 00:00:00 | |
| PETON7-10 | 2026-09-01 00:25:38 | 49.72378 | 17.94670 | 117° | 11km/h | 26652m | 6.4m/s | -48.2°C | 3.1% | 0hPa | 2.6V | 00:00:00 | 00:00:00 | 00:00:00 | |
| OE3OSB-13 | 2026-09-01 00:25:36 | 49.72378 | 17.94656 | 64° | 13km/h | 26631m | 5.7m/s | -48.1°C | 0.6% | -1.0hPa | 2.7V | 00:00:00 | 00:00:00 | 00:00:00 | |
| OE5DRO-10 | 2026-09-01 00:25:35 | 49.72377 | 17.94656 | 65° | 9km/h | 26632m | 5.7m/s | -48.1°C | 3.0% | 0hPa | 2.7V | 00:00:00 | 00:00:00 | 00:00:00 | |
| PG1ADW-2 | 2026-09-01 00:25:33 | 49.72374 | 17.94649 | 33° | 9km/h | 26618m | 7.0m/s | -48.1°C | 3.0% | 0hPa | 2.7V | 00:00:00 | 00:00:00 | 00:00:00 | |
| HA6NAB-11 | 2026-09-01 00:25:32 | 49.72374 | 17.94649 | 33° | 9km/h | 26618m | 7.1m/s | -48.1°C | 0.7% | 0hPa | 2.6V | 00:00:00 | 00:00:00 | 00:00:00 | |
| NBG1-10 | 2026-09-01 00:25:31 | 49.72369 | 17.94647 | 9° | 9km/h | 26605m | 7.1m/s | -48.1°C | 3.0% | 0hPa | 2.6V | 00:00:00 | 01:38:13 | 00:00:00 | |
| OE5MMP-10 | 2026-09-01 00:25:30 | 49.72367 | 17.94646 | 17° | 9km/h | 26597m | 8.0m/s | -48.1°C | 3.0% | 0hPa | 2.6V | 00:00:00 | 01:38:12 | 08:30:00 | |
| DO3MHA-11 | 2026-09-01 00:25:29 | 49.72364 | 17.94644 | 28° | 7km/h | 26591m | 5.3m/s | -48.1°C | 3.0% | 0hPa | 2.6V | 00:00:00 | 01:38:11 | 00:00:00 | |
| HA6NAB-11 | 2026-09-01 00:25:26 | 49.72360 | 17.94640 | 66° | 5km/h | 26578m | 8.1m/s | -48.3°C | 0.7% | 0hPa | 2.6V | 00:00:00 | 00:00:00 | 00:00:00 | |
| SP3WXH-11 | 2026-09-01 00:25:25 | 49.72362 | 17.94637 | 156° | 7km/h | 26563m | 6.7m/s | -48.4°C | 0.6% | -1.0hPa | 2.6V | 00:00:00 | 00:00:00 | 00:00:00 | |
| OM5KV | 2026-09-01 00:25:24 | 49.72362 | 17.94637 | 158° | 7km/h | 26564m | 6.7m/s | -48.4°C | 0.7% | 0hPa | 2.6V | 00:00:00 | 00:00:00 | 00:00:00 | |
| PETON7-10 | 2026-09-01 00:25:23 | 49.72365 | 17.94634 | 140° | 9km/h | 26548m | 7.0m/s | -48.5°C | 3.0% | 0hPa | 2.6V | 00:00:00 | 00:00:00 | 00:00:00 | |
| POL1PZ | 2026-09-01 00:25:22 | 49.72366 | 17.94634 | 141° | 9km/h | 26548m | 7.0m/s | -48.5°C | 0.7% | 0hPa | 2.6V | 00:00:00 | 00:00:00 | 00:00:00 | |
| HA6NAB-11 | 2026-09-01 00:25:21 | 49.72367 | 17.94632 | 135° | 9km/h | 26542m | 6.0m/s | -48.5°C | 0.7% | 0hPa | 2.6V | 00:00:00 | 00:00:00 | 00:00:00 | |
| OE5MMP-10 | 2026-09-01 00:25:20 | 49.72370 | 17.94627 | 140° | 9km/h | 26527m | 7.8m/s | -48.5°C | 3.0% | 0hPa | 2.6V | 00:00:00 | 01:38:02 | 00:00:00 | |
| DO3MHA-11 | 2026-09-01 00:25:19 | 49.72371 | 17.94625 | 111° | 9km/h | 26520m | 6.0m/s | -48.5°C | 3.0% | 0hPa | 2.6V | 00:00:00 | 01:38:01 | 00:00:00 | |
| OM5KV | 2026-09-01 00:25:18 | 49.72371 | 17.94625 | 112° | 4km/h | 26520m | 6.1m/s | -48.6°C | 0.6% | 0hPa | 2.6V | 00:00:00 | 00:00:00 | 00:00:00 | |
| OE5DXL-15 | 2026-09-01 00:25:16 | 49.72367 | 17.94620 | 34° | 9km/h | 26500m | 5.8m/s | -48.7°C | 3.1% | 0hPa | 2.6V | 00:00:00 | 00:00:00 | 00:00:00 | |
| HA6NAB-11 | 2026-09-01 00:25:15 | 49.72367 | 17.94620 | 34° | 13km/h | 26500m | 5.9m/s | -48.8°C | 0.7% | 0hPa | 2.7V | 00:00:00 | 00:00:00 | 00:00:00 | |
| PG1ADW-2 | 2026-09-01 00:25:13 | 49.72360 | 17.94611 | 49° | 9km/h | 26477m | 6.4m/s | -49.0°C | 3.1% | 0hPa | 2.7V | 00:00:00 | 00:00:00 | 00:00:00 | |
| OE5MMP-10 | 2026-09-01 00:25:10 | 49.72356 | 17.94603 | 51° | 11km/h | 26457m | 5.1m/s | -49.1°C | 3.1% | 0hPa | 2.7V | 00:00:00 | 01:37:52 | 00:00:00 | |
| DO3MHA-11 | 2026-09-01 00:25:09 | 49.72354 | 17.94599 | 51° | 11km/h | 26451m | 5.7m/s | -49.2°C | 3.2% | 0hPa | 2.7V | 00:00:00 | 01:37:51 | 00:00:00 | |
| PETON7-10 | 2026-09-01 00:25:08 | 49.72352 | 17.94596 | 51° | 9km/h | 26445m | 7.4m/s | -49.2°C | 3.1% | 0hPa | 2.7V | 00:00:00 | 01:37:50 | 00:00:00 | |
| OM5KV | 2026-09-01 00:25:07 | 49.72352 | 17.94596 | 51° | 11km/h | 26445m | 7.5m/s | -49.3°C | 0.7% | 0hPa | 2.7V | 00:00:00 | 00:00:00 | 00:00:00 | |
| OE3OSB-13 | 2026-09-01 00:25:05 | 49.72346 | 17.94587 | 23° | 9km/h | 26416m | 7.6m/s | -49.6°C | 0.6% | -1.0hPa | 2.7V | 00:00:00 | 00:00:00 | 00:00:00 | |
| HA6NAB-11 | 2026-09-01 00:25:04 | 49.72346 | 17.94588 | 25° | 11km/h | 26416m | 7.6m/s | -49.6°C | 0.7% | 0hPa | 2.7V | 00:00:00 | 00:00:00 | 00:00:00 | |
| SP3WXH-11 | 2026-09-01 00:24:54 | 49.72328 | 17.94567 | 45° | 11km/h | 26350m | 6.7m/s | -49.9°C | 0.7% | -1.0hPa | 2.7V | 00:00:00 | 00:00:00 | 00:00:00 | |
| PETON7-10 | 2026-09-01 00:24:53 | 49.72326 | 17.94564 | 55° | 11km/h | 26342m | 8.9m/s | -49.9°C | 3.3% | 0hPa | 2.7V | 00:00:00 | 00:00:00 | 00:00:00 | |
| SP9KGR-15 | 2026-09-01 00:24:52 | 49.72326 | 17.94564 | 56° | 11km/h | 26342m | 9.0m/s | -49.9°C | 0.7% | 0hPa | 2.6V | 00:00:00 | 00:00:00 | 00:00:00 | |
| OE5MMP-10 | 2026-09-01 00:24:50 | 49.72325 | 17.94554 | 95° | 11km/h | 26323m | 7.2m/s | -49.9°C | 3.2% | 0hPa | 2.6V | 00:00:00 | 01:37:32 | 00:00:00 | |
| DO3MHA-11 | 2026-09-01 00:24:49 | 49.72325 | 17.94550 | 79° | 11km/h | 26315m | 9.3m/s | -49.9°C | 3.3% | 0hPa | 2.6V | 00:00:00 | 01:37:31 | 00:00:00 | |
| HA6NAB-11 | 2026-09-01 00:24:47 | 49.72324 | 17.94547 | 68° | 7km/h | 26307m | 5.0m/s | -50.0°C | 0.7% | 0hPa | 2.7V | 00:00:00 | 00:00:00 | 00:00:00 | |
| OE5DXL-15 | 2026-09-01 00:24:46 | 49.72324 | 17.94542 | 102° | 16km/h | 26295m | 7.8m/s | -50.1°C | 3.3% | 0hPa | 2.7V | 00:00:00 | 00:00:00 | 00:00:00 | |
| GYPAP8-17 | 2026-09-01 00:24:43 | 49.72326 | 17.94536 | 118° | 13km/h | 26281m | 5.1m/s | -50.2°C | 0.7% | 0hPa | 2.7V | 00:00:00 | 00:00:00 | 00:00:00 | |
| POL1PZ | 2026-09-01 00:24:41 | 49.72327 | 17.94526 | 86° | 15km/h | 26268m | 8.0m/s | -50.4°C | 0.8% | 0hPa | 2.7V | 00:00:00 | 00:00:00 | 00:00:00 | |
| OE5MMP-10 | 2026-09-01 00:24:40 | 49.72325 | 17.94513 | 66° | 18km/h | 26254m | 6.7m/s | -50.4°C | 3.4% | 0hPa | 2.7V | 00:00:00 | 01:37:22 | 00:00:00 | |
| DO3MHA-11 | 2026-09-01 00:24:39 | 49.72323 | 17.94507 | 69° | 18km/h | 26246m | 8.6m/s | -50.5°C | 3.4% | 0hPa | 2.7V | 00:00:00 | 01:37:21 | 00:00:00 | |
| PETON7-10 | 2026-09-01 00:24:38 | 49.72321 | 17.94500 | 79° | 16km/h | 26238m | 6.8m/s | -50.5°C | 3.4% | 0hPa | 2.7V | 00:00:00 | 00:00:00 | 00:00:00 | |
| OM5KV | 2026-09-01 00:24:37 | 49.72322 | 17.94500 | 80° | 18km/h | 26238m | 6.9m/s | -50.6°C | 0.8% | 0hPa | 2.7V | 00:00:00 | 00:00:00 | 00:00:00 | |
| OE3OSB-13 | 2026-09-01 00:24:34 | 49.72315 | 17.94465 | 72° | 15km/h | 26205m | 7.5m/s | -50.6°C | 0.7% | -1.0hPa | 2.7V | 00:00:00 | 00:00:00 | 00:00:00 | |
| PG1ADW-2 | 2026-09-01 00:24:33 | 49.72315 | 17.94465 | 73° | 16km/h | 26205m | 7.5m/s | -50.6°C | 3.5% | 0hPa | 2.7V | 00:00:00 | 00:00:00 | 08:30:00 | |
| OM5KV | 2026-09-01 00:24:32 | 49.72314 | 17.94459 | 81° | 15km/h | 26198m | 4.7m/s | -50.7°C | 0.8% | 0hPa | 2.6V | 00:00:00 | 00:00:00 | 00:00:00 | |
| OE5MMP-10 | 2026-09-01 00:24:30 | 49.72313 | 17.94447 | 81° | 16km/h | 26184m | 8.9m/s | -50.7°C | 3.5% | 0hPa | 2.6V | 00:00:00 | 01:37:12 | 00:00:00 | |
| DO3MHA-11 | 2026-09-01 00:24:29 | 49.72312 | 17.94441 | 70° | 18km/h | 26176m | 6.2m/s | -50.7°C | 3.5% | 0hPa | 2.7V | 00:00:00 | 01:37:11 | 00:00:00 | |
| OM5KV | 2026-09-01 00:24:25 | 49.72307 | 17.94426 | 59° | 13km/h | 26156m | 7.4m/s | -50.8°C | 0.8% | 0hPa | 2.7V | 00:00:00 | 00:00:00 | 00:00:00 | |
| PETON7-10 | 2026-09-01 00:24:23 | 49.72300 | 17.94413 | 42° | 16km/h | 26136m | 9.0m/s | -50.7°C | 3.5% | 0hPa | 2.7V | 00:00:00 | 01:37:05 | 00:00:00 | |
| SP3BTT-10 | 2026-09-01 00:24:22 | 49.72295 | 17.94408 | 36° | 16km/h | 26128m | 6.8m/s | 0°C | 0% | 0hPa | 2.7V | 00:00:00 | 00:00:00 | 00:00:00 | |
| OE5MMP-10 | 2026-09-01 00:24:20 | 49.72285 | 17.94398 | 29° | 15km/h | 26116m | 7.0m/s | -50.6°C | 3.5% | 0hPa | 2.7V | 00:00:00 | 01:37:02 | 00:00:00 | |
| DO3MHA-11 | 2026-09-01 00:24:19 | 49.72281 | 17.94395 | 28° | 15km/h | 26108m | 8.2m/s | -50.6°C | 3.5% | 0hPa | 2.7V | 00:00:00 | 01:37:01 | 08:30:00 | |
| S52SK | 2026-09-01 00:24:18 | 49.72281 | 17.94395 | 28° | 16km/h | 26108m | 8.2m/s | -50.6°C | 0.8% | 0hPa | 2.6V | 00:00:00 | 00:00:00 | 00:00:00 | |
| OE5DXL-15 | 2026-09-01 00:24:16 | 49.72271 | 17.94388 | 21° | 18km/h | 26087m | 7.7m/s | -50.5°C | 3.5% | 0hPa | 2.6V | 00:00:00 | 00:00:00 | 00:00:00 | |
| OM5KV | 2026-09-01 00:24:15 | 49.72272 | 17.94388 | 21° | 15km/h | 26087m | 7.8m/s | -50.5°C | 0.8% | 0hPa | 2.6V | 00:00:00 | 00:00:00 | 00:00:00 | |
| SP9KGR-15 | 2026-09-01 00:24:14 | 49.72268 | 17.94386 | 20° | 15km/h | 26081m | 5.7m/s | -50.5°C | 0.8% | 0hPa | 2.6V | 00:00:00 | 00:00:00 | 00:00:00 | |
| PG1ADW-2 | 2026-09-01 00:24:13 | 49.72261 | 17.94383 | 18° | 20km/h | 26066m | 8.8m/s | -50.4°C | 3.5% | 0hPa | 2.6V | 00:00:00 | 00:00:00 | 00:00:00 | |
| S52SK | 2026-09-01 00:24:12 | 49.72261 | 17.94383 | 18° | 13km/h | 26066m | 8.9m/s | -50.4°C | 0.8% | 0hPa | 2.6V | 00:00:00 | 00:00:00 | 00:00:00 | |
| OE5MMP-10 | 2026-09-01 00:24:10 | 49.72252 | 17.94380 | 11° | 22km/h | 26047m | 8.1m/s | -50.4°C | 3.4% | 0hPa | 2.6V | 00:00:00 | 01:36:52 | 00:00:00 | |
| DO3MHA-11 | 2026-09-01 00:24:09 | 49.72247 | 17.94379 | 14° | 22km/h | 26038m | 8.1m/s | -50.4°C | 3.5% | 0hPa | 2.6V | 00:00:00 | 01:36:51 | 00:00:00 | |
| PETON7-10 | 2026-09-01 00:24:08 | 49.72242 | 17.94377 | 16° | 22km/h | 26031m | 5.9m/s | -50.4°C | 3.5% | 0hPa | 2.6V | 00:00:00 | 00:00:00 | 08:30:00 | |
| OE3OSB-13 | 2026-09-01 00:24:03 | 49.72210 | 17.94382 | 332° | 22km/h | 25988m | 8.6m/s | -50.3°C | 0.7% | -1.0hPa | 2.6V | 00:00:00 | 00:00:00 | 00:00:00 | |
| SP3WXH-11 | 2026-09-01 00:23:52 | 49.72159 | 17.94412 | 1° | 16km/h | 25912m | 7.5m/s | -50.1°C | 0.7% | -1.0hPa | 2.6V | 00:00:00 | 00:00:00 | 00:00:00 | |
| OM5KV | 2026-09-01 00:23:51 | 49.72163 | 17.94412 | 4° | 18km/h | 25918m | 5.2m/s | -50.1°C | 0.8% | 0hPa | 2.6V | 00:00:00 | 00:00:00 | 00:00:00 | |
| OE5MMP-10 | 2026-09-01 00:23:50 | 49.72154 | 17.94412 | 357° | 16km/h | 25904m | 8.5m/s | -50.1°C | 3.4% | 0hPa | 2.6V | 00:00:00 | 01:36:32 | 00:00:00 | |
| DO3MHA-11 | 2026-09-01 00:23:49 | 49.72150 | 17.94413 | 346° | 16km/h | 25897m | 4.0m/s | -50.1°C | 3.4% | 0hPa | 2.6V | 00:00:00 | 01:36:31 | 00:00:00 | |
| HA6NAB-11 | 2026-09-01 00:23:47 | 49.72146 | 17.94415 | 337° | 18km/h | 25893m | 5.5m/s | -50.1°C | 0.8% | 0hPa | 2.6V | 00:00:00 | 00:00:00 | 00:00:00 | |
| OE5DXL-15 | 2026-09-01 00:23:46 | 49.72138 | 17.94423 | 319° | 13km/h | 25877m | 9.7m/s | -50.0°C | 3.4% | 0hPa | 2.6V | 00:00:00 | 00:00:00 | 00:00:00 | |
| HA6NAB-11 | 2026-09-01 00:23:42 | 49.72129 | 17.94438 | 322° | 15km/h | 25857m | 6.8m/s | -50.0°C | 0.8% | 0hPa | 2.7V | 00:00:00 | 00:00:00 | 00:00:00 | |
| OE5DRO-10 | 2026-09-01 00:23:41 | 49.72123 | 17.94440 | 15° | 13km/h | 25842m | 5.7m/s | -49.9°C | 3.4% | 0hPa | 2.7V | 00:00:00 | 00:00:00 | 00:00:00 | |
| OE5MMP-10 | 2026-09-01 00:23:40 | 49.72119 | 17.94438 | 33° | 11km/h | 25836m | 6.2m/s | -49.9°C | 3.4% | 0hPa | 2.7V | 00:00:00 | 01:36:22 | 00:00:00 | |
| DO3MHA-11 | 2026-09-01 00:23:39 | 49.72117 | 17.94435 | 45° | 15km/h | 25829m | 8.5m/s | -49.9°C | 3.4% | 0hPa | 2.7V | 00:00:00 | 01:36:21 | 00:00:00 | |
| PETON7-10 | 2026-09-01 00:23:38 | 49.72115 | 17.94432 | 63° | 15km/h | 25821m | 5.8m/s | -49.9°C | 3.4% | 0hPa | 2.7V | 00:00:00 | 01:36:20 | 00:00:00 | |
| HA6NAB-11 | 2026-09-01 00:23:36 | 49.72114 | 17.94428 | 63° | 9km/h | 25816m | 6.0m/s | -50.0°C | 0.8% | 0hPa | 2.7V | 00:00:00 | 00:00:00 | 00:00:00 | |
| OM5KV | 2026-09-01 00:23:34 | 49.72111 | 17.94424 | 16° | 7km/h | 25802m | 5.1m/s | -49.9°C | 0.8% | 0hPa | 2.7V | 00:00:00 | 00:00:00 | 00:00:00 | |
| PG1ADW-2 | 2026-09-01 00:23:33 | 49.72108 | 17.94426 | 302° | 11km/h | 25789m | 8.0m/s | -49.9°C | 3.4% | 0hPa | 2.7V | 00:00:00 | 01:36:15 | 00:00:00 | |
| OE5MMP-10 | 2026-09-01 00:23:30 | 49.72105 | 17.94446 | 281° | 13km/h | 25768m | 7.4m/s | -49.9°C | 3.4% | 0hPa | 2.6V | 00:00:00 | 01:36:12 | 00:00:00 | |
| OM5KV | 2026-09-01 00:23:29 | 49.72105 | 17.94446 | 282° | 22km/h | 25768m | 7.4m/s | -49.9°C | 0.8% | 0hPa | 2.6V | 00:00:00 | 00:00:00 | 00:00:00 | |
| DO3MHA-11 | 2026-09-01 00:23:28 | 49.72102 | 17.94461 | 298° | 9km/h | 25753m | 4.8m/s | -49.8°C | 3.4% | 0hPa | 2.6V | 00:00:00 | 01:36:10 | 00:00:00 | |
| HA6NAB-11 | 2026-09-01 00:23:24 | 49.72096 | 17.94478 | 287° | 11km/h | 25733m | 6.5m/s | -49.8°C | 0.8% | 0hPa | 2.6V | 00:00:00 | 00:00:00 | 00:00:00 | |
| PETON7-10 | 2026-09-01 00:23:23 | 49.72095 | 17.94483 | 310° | 11km/h | 25721m | 7.5m/s | -49.7°C | 3.3% | 0hPa | 2.6V | 00:00:00 | 00:00:00 | 00:00:00 | |
| SP3BTT-10 | 2026-09-01 00:23:22 | 49.72095 | 17.94482 | 50° | 11km/h | 25713m | 7.7m/s | 0°C | 0% | 0hPa | 2.6V | 00:00:00 | 00:00:00 | 00:00:00 | |
| SP3WXH-11 | 2026-09-01 00:23:21 | 49.72093 | 17.94478 | 60° | 7km/h | 25700m | 7.0m/s | -49.6°C | 0.7% | -1.0hPa | 2.6V | 00:00:00 | 00:00:00 | 00:00:00 | |
| OE5MMP-10 | 2026-09-01 00:23:20 | 49.72092 | 17.94477 | 61° | 11km/h | 25700m | 6.9m/s | -49.6°C | 3.3% | 0hPa | 2.6V | 00:00:00 | 01:36:02 | 00:00:00 | |
| DO3MHA-11 | 2026-09-01 00:23:18 | 49.72092 | 17.94475 | 206° | 11km/h | 25685m | 6.0m/s | -49.6°C | 3.2% | 0hPa | 2.6V | 00:00:00 | 01:36:00 | 00:00:00 | |
| OM5KV | 2026-09-01 00:23:17 | 49.72092 | 17.94475 | 207° | 2km/h | 25685m | 6.0m/s | -49.6°C | 0.7% | 0hPa | 2.6V | 00:00:00 | 00:00:00 | 00:00:00 | |
| OE5DXL-15 | 2026-09-01 00:23:16 | 49.72093 | 17.94478 | 258° | 13km/h | 25671m | 8.2m/s | -49.7°C | 3.3% | 0hPa | 2.6V | 00:00:00 | 00:00:00 | 00:00:00 | |
| PG1ADW-2 | 2026-09-01 00:23:13 | 49.72094 | 17.94495 | 266° | 11km/h | 25651m | 7.4m/s | -49.8°C | 3.3% | 0hPa | 2.6V | 00:00:00 | 00:00:00 | 00:00:00 | |
| OE5MMP-10 | 2026-09-01 00:23:10 | 49.72095 | 17.94515 | 266° | 9km/h | 25633m | 8.4m/s | -49.7°C | 3.3% | 0hPa | 2.6V | 00:00:00 | 01:35:52 | 00:00:00 | |
| PETON7-10 | 2026-09-01 00:23:08 | 49.72094 | 17.94515 | 71° | 9km/h | 25618m | 6.0m/s | -49.6°C | 3.3% | 0hPa | 2.6V | 00:00:00 | 00:00:00 | 00:00:00 | |
| OM5KV | 2026-09-01 00:23:06 | 49.72093 | 17.94511 | 82° | 15km/h | 25612m | 7.0m/s | -49.6°C | 0.8% | 0hPa | 2.6V | 00:00:00 | 00:00:00 | 00:00:00 | |
| SP9KGR-15 | 2026-09-01 00:23:05 | 49.72093 | 17.94505 | 96° | 15km/h | 25604m | 9.2m/s | -49.6°C | 0.7% | 0hPa | 2.6V | 00:00:00 | 00:00:00 | 00:00:00 | |
| OE5DRO-10 | 2026-09-01 00:23:03 | 49.72097 | 17.94493 | 126° | 11km/h | 25585m | 7.6m/s | -49.5°C | 3.2% | 0hPa | 2.6V | 00:00:00 | 00:00:00 | 00:00:00 | |
| OE5MMP-10 | 2026-09-01 00:23:00 | 49.72098 | 17.94497 | 267° | 13km/h | 25565m | 8.0m/s | -49.5°C | 3.2% | 0hPa | 2.6V | 00:00:00 | 01:35:42 | 00:00:00 | |
| POL1PZ | 2026-09-01 00:22:59 | 49.72098 | 17.94497 | 267° | 11km/h | 25565m | 8.1m/s | -49.6°C | 0.8% | 0hPa | 2.7V | 00:00:00 | 00:00:00 | 00:00:00 | |
| DO3MHA-11 | 2026-09-01 00:22:58 | 49.72100 | 17.94504 | 211° | 15km/h | 25551m | 4.6m/s | -49.7°C | 3.2% | 0hPa | 2.7V | 00:00:00 | 01:35:40 | 00:00:00 | |
| OM5KV | 2026-09-01 00:22:55 | 49.72103 | 17.94504 | 139° | 7km/h | 25538m | 8.3m/s | -49.9°C | 0.8% | 0hPa | 2.7V | 00:00:00 | 00:00:00 | 00:00:00 | |
| OM5KV | 2026-09-01 00:22:54 | 49.72104 | 17.94501 | 98° | 11km/h | 25530m | 6.1m/s | -49.9°C | 0.8% | 0hPa | 2.7V | 00:00:00 | 00:00:00 | 00:00:00 | |
| PETON7-10 | 2026-09-01 00:22:53 | 49.72105 | 17.94490 | 98° | 15km/h | 25519m | 6.8m/s | -50.0°C | 3.3% | 0hPa | 2.7V | 00:00:00 | 01:35:35 | 00:00:00 | |
| OK1SLM-15 | 2026-09-01 00:22:51 | 49.72106 | 17.94484 | 109° | 18km/h | 25511m | 10.2m/s | -50.1°C | 0.8% | 0hPa | 2.7V | 00:00:00 | 00:00:00 | 00:00:00 | |
| OE5MMP-10 | 2026-09-01 00:22:50 | 49.72110 | 17.94470 | 116° | 13km/h | 25498m | 5.1m/s | -50.1°C | 3.3% | 0hPa | 2.7V | 00:00:00 | 01:35:32 | 00:00:00 | |
| OM5KV | 2026-09-01 00:22:49 | 49.72110 | 17.94469 | 116° | 20km/h | 25498m | 5.1m/s | -50.2°C | 0.8% | 0hPa | 2.7V | 00:00:00 | 00:00:00 | 00:00:00 | |
| DO3MHA-11 | 2026-09-01 00:22:48 | 49.72112 | 17.94456 | 90° | 11km/h | 25485m | 7.5m/s | -50.2°C | 3.4% | 0hPa | 2.7V | 00:00:00 | 01:35:30 | 08:30:00 | |
| OE5DXL-15 | 2026-09-01 00:22:46 | 49.72111 | 17.94448 | 74° | 15km/h | 25472m | 7.2m/s | -50.2°C | 3.4% | 0hPa | 2.6V | 00:00:00 | 00:00:00 | 00:00:00 | |
| OE5DRO-10 | 2026-09-01 00:22:44 | 49.72110 | 17.94443 | 66° | 16km/h | 25458m | 4.6m/s | -50.2°C | 3.4% | 0hPa | 2.6V | 00:00:00 | 00:00:00 | 00:00:00 | |
| OM5KV | 2026-09-01 00:22:43 | 49.72111 | 17.94443 | 67° | 5km/h | 25458m | 4.6m/s | -50.2°C | 0.8% | 0hPa | 2.6V | 00:00:00 | 00:00:00 | 00:00:00 | |
| DB0DAN | 2026-09-01 00:22:40 | 49.72102 | 17.94432 | 43° | 16km/h | 25432m | 5.4m/s | -50.3°C | 0.7% | 0hPa | 2.6V | 00:00:00 | 00:00:00 | 00:00:00 | |
| OE5MMP-10 | 2026-09-01 00:22:40 | 49.72102 | 17.94432 | 44° | 16km/h | 25433m | 5.3m/s | -50.2°C | 3.4% | 0hPa | 2.6V | 00:00:00 | 01:35:22 | 00:00:00 | |
| HA6NAB-11 | 2026-09-01 00:22:39 | 49.72101 | 17.94432 | 44° | 16km/h | 25433m | 5.4m/s | -50.3°C | 0.8% | 0hPa | 2.6V | 00:00:00 | 00:00:00 | 00:00:00 | |
| PETON7-10 | 2026-09-01 00:22:38 | 49.72097 | 17.94423 | 71° | 18km/h | 25419m | 6.7m/s | -50.3°C | 3.4% | 0hPa | 2.6V | 00:00:00 | 00:00:00 | 00:00:00 | |
| SP3BTT-10 | 2026-09-01 00:22:36 | 49.72095 | 17.94412 | 65° | 15km/h | 25408m | 6.6m/s | 0°C | 0% | 0hPa | 2.6V | 00:00:00 | 00:00:00 | 00:00:00 | |
| PG1ADW-2 | 2026-09-01 00:22:33 | 49.72085 | 17.94397 | 28° | 16km/h | 25387m | 5.6m/s | -50.2°C | 3.4% | 0hPa | 2.6V | 00:00:00 | 00:00:00 | 00:00:00 | |
| OM5KV | 2026-09-01 00:22:32 | 49.72085 | 17.94397 | 29° | 18km/h | 25387m | 5.6m/s | -50.3°C | 0.8% | 0hPa | 2.6V | 00:00:00 | 00:00:00 | 00:00:00 | |
| OE5MMP-10 | 2026-09-01 00:22:30 | 49.72073 | 17.94391 | 10° | 16km/h | 25368m | 5.6m/s | -50.1°C | 3.4% | 0hPa | 2.6V | 00:00:00 | 01:35:12 | 08:30:00 | |
| OE3OSB-13 | 2026-09-01 00:22:29 | 49.72069 | 17.94390 | 10° | 18km/h | 25361m | 7.1m/s | -50.2°C | 0.7% | -1.0hPa | 2.6V | 00:00:00 | 00:00:00 | 00:00:00 | |
| S52SK | 2026-09-01 00:22:28 | 49.72069 | 17.94390 | 12° | 18km/h | 25361m | 7.1m/s | -50.2°C | 0.8% | 0hPa | 2.6V | 00:00:00 | 00:00:00 | 00:00:00 | |
| OM5KV | 2026-09-01 00:22:26 | 49.72058 | 17.94385 | 25° | 22km/h | 25348m | 5.4m/s | -50.2°C | 0.8% | 0hPa | 2.6V | 00:00:00 | 00:00:00 | 00:00:00 | |
| OE5DRO-10 | 2026-09-01 00:22:25 | 49.72050 | 17.94376 | 45° | 16km/h | 25336m | 7.6m/s | -50.1°C | 3.3% | 0hPa | 2.6V | 00:00:00 | 00:00:00 | 08:30:00 | |
| PETON7-10 | 2026-09-01 00:22:23 | 49.72046 | 17.94367 | 70° | 16km/h | 25323m | 4.6m/s | -50.2°C | 3.3% | 0hPa | 2.6V | 00:00:00 | 00:00:00 | 00:00:00 | |
| GYPAP8-17 | 2026-09-01 00:22:22 | 49.72046 | 17.94367 | 70° | 11km/h | 25323m | 4.7m/s | -50.2°C | 0.8% | 0hPa | 2.6V | 00:00:00 | 00:00:00 | 00:00:00 | |
| OE5MMP-10 | 2026-09-01 00:22:20 | 49.72040 | 17.94357 | 20° | 18km/h | 25306m | 7.1m/s | -50.2°C | 3.3% | 0hPa | 2.6V | 00:00:00 | 01:35:02 | 00:00:00 | |
| SP3WXH-11 | 2026-09-01 00:22:19 | 49.72031 | 17.94356 | 353° | 16km/h | 25294m | 6.1m/s | -50.2°C | 0.7% | -1.0hPa | 2.6V | 00:00:00 | 00:00:00 | 00:00:00 | |
| DO3MHA-11 | 2026-09-01 00:22:18 | 49.72031 | 17.94356 | 354° | 18km/h | 25294m | 6.0m/s | -50.2°C | 3.4% | 0hPa | 2.6V | 00:00:00 | 01:35:00 | 00:00:00 | |
| OE5DXL-15 | 2026-09-01 00:22:16 | 49.72023 | 17.94358 | 351° | 16km/h | 25280m | 5.5m/s | -50.2°C | 3.3% | 0hPa | 2.7V | 00:00:00 | 00:00:00 | 08:30:00 | |
| OM5KV | 2026-09-01 00:22:14 | 49.72018 | 17.94358 | 359° | 18km/h | 25275m | 5.2m/s | -50.3°C | 0.8% | 0hPa | 2.6V | 00:00:00 | 00:00:00 | 00:00:00 | |
| PG1ADW-2 | 2026-09-01 00:22:13 | 49.72008 | 17.94357 | 12° | 18km/h | 25261m | 6.4m/s | -50.3°C | 3.3% | 0hPa | 2.6V | 00:00:00 | 01:34:55 | 00:00:00 | |
| OM5KV | 2026-09-01 00:22:12 | 49.72008 | 17.94357 | 12° | 22km/h | 25261m | 6.5m/s | -50.3°C | 0.8% | 0hPa | 2.6V | 00:00:00 | 00:00:00 | 00:00:00 | |
| DB0DAN | 2026-09-01 00:22:10 | 49.71994 | 17.94350 | 26° | 13km/h | 25240m | 6.7m/s | -50.4°C | 0.7% | 0hPa | 2.6V | 00:00:00 | 00:00:00 | 00:00:00 | |
| OE5MMP-10 | 2026-09-01 00:22:10 | 49.71994 | 17.94349 | 27° | 16km/h | 25241m | 6.7m/s | -50.3°C | 3.3% | 0hPa | 2.7V | 00:00:00 | 01:34:52 | 00:00:00 | |
| PETON7-10 | 2026-09-01 00:22:08 | 49.71987 | 17.94346 | 13° | 16km/h | 25230m | 5.8m/s | -50.4°C | 3.3% | 0hPa | 2.7V | 00:00:00 | 01:34:50 | 00:00:00 | |
| OM5KV | 2026-09-01 00:22:07 | 49.71988 | 17.94346 | 13° | 15km/h | 25230m | 5.9m/s | -50.5°C | 0.8% | 0hPa | 2.7V | 00:00:00 | 00:00:00 | 00:00:00 | |
| OE5DRO-10 | 2026-09-01 00:22:05 | 49.71972 | 17.94342 | 7° | 15km/h | 25212m | 4.9m/s | -50.5°C | 3.3% | 0hPa | 2.7V | 00:00:00 | 00:00:00 | 00:00:00 | |
| OM5KV | 2026-09-01 00:22:03 | 49.71967 | 17.94342 | 5° | 20km/h | 25206m | 6.1m/s | -50.6°C | 0.8% | 0hPa | 2.7V | 00:00:00 | 00:00:00 | 00:00:00 | |
| OE5MMP-10 | 2026-09-01 00:22:00 | 49.71952 | 17.94344 | 347° | 16km/h | 25179m | 7.5m/s | -51.0°C | 3.5% | 0hPa | 2.7V | 00:00:00 | 01:34:42 | 00:00:00 | |
| DO3MHA-11 | 2026-09-01 00:21:58 | 49.71943 | 17.94348 | 342° | 16km/h | 25165m | 7.0m/s | -50.9°C | 3.5% | 0hPa | 2.7V | 00:00:00 | 01:34:40 | 00:00:00 | |
| POL1PZ | 2026-09-01 00:21:57 | 49.71943 | 17.94348 | 342° | 22km/h | 25165m | 7.0m/s | -51.0°C | 0.8% | 0hPa | 2.7V | 00:00:00 | 00:00:00 | 00:00:00 | |
| OM5KV | 2026-09-01 00:21:56 | 49.71939 | 17.94351 | 338° | 20km/h | 25158m | 8.2m/s | -51.0°C | 0.8% | 0hPa | 2.7V | 00:00:00 | 00:00:00 | 00:00:00 | |
| OK1SLM-15 | 2026-09-01 00:21:55 | 49.71934 | 17.94354 | 331° | 16km/h | 25151m | 4.7m/s | -51.0°C | 0.8% | 0hPa | 2.7V | 00:00:00 | 00:00:00 | 00:00:00 | |
| PETON7-10 | 2026-09-01 00:21:53 | 49.71924 | 17.94360 | 344° | 13km/h | 25134m | 5.7m/s | -51.0°C | 3.5% | 0hPa | 2.7V | 00:00:00 | 00:00:00 | 08:30:00 | |
| OM5KV | 2026-09-01 00:21:52 | 49.71925 | 17.94360 | 344° | 15km/h | 25134m | 5.8m/s | -51.1°C | 0.8% | 0hPa | 2.7V | 00:00:00 | 00:00:00 | 00:00:00 | |
| OM5KV | 2026-09-01 00:21:50 | 49.71918 | 17.94366 | 315° | 16km/h | 25120m | 6.5m/s | -51.1°C | 0.8% | 0hPa | 2.7V | 00:00:00 | 00:00:00 | 00:00:00 | |
| DO3MHA-11 | 2026-09-01 00:21:48 | 49.71914 | 17.94379 | 280° | 11km/h | 25101m | 7.0m/s | -51.1°C | 3.5% | 0hPa | 2.7V | 00:00:00 | 01:34:30 | 00:00:00 | |
| OE5DRO-10 | 2026-09-01 00:21:46 | 49.71912 | 17.94380 | 8° | 11km/h | 25089m | 6.8m/s | -51.1°C | 3.5% | 0hPa | 2.6V | 00:00:00 | 00:00:00 | 00:00:00 | |
| OE5MMP-10 | 2026-09-01 00:21:40 | 49.71892 | 17.94370 | 21° | 9km/h | 25047m | 5.8m/s | -51.1°C | 3.5% | 0hPa | 2.6V | 00:00:00 | 01:34:22 | 00:00:00 | |
| OM5KV | 2026-09-01 00:21:39 | 49.71892 | 17.94370 | 22° | 11km/h | 25047m | 5.9m/s | -51.1°C | 0.8% | 0hPa | 2.6V | 00:00:00 | 00:00:00 | 00:00:00 | |
| PETON7-10 | 2026-09-01 00:21:38 | 49.71889 | 17.94371 | 277° | 11km/h | 25033m | 6.3m/s | -51.1°C | 3.5% | 0hPa | 2.6V | 00:00:00 | 00:00:00 | 00:00:00 | |
| SP3BTT-10 | 2026-09-01 00:21:36 | 49.71891 | 17.94379 | 232° | 11km/h | 25019m | 7.9m/s | 0°C | 0% | 0hPa | 2.6V | 00:00:00 | 00:00:00 | 00:00:00 | |
| OM5KV | 2026-09-01 00:21:34 | 49.71893 | 17.94382 | 221° | 13km/h | 25012m | 5.6m/s | -51.2°C | 0.8% | 0hPa | 2.6V | 00:00:00 | 00:00:00 | 00:00:00 | |
| OM5KV | 2026-09-01 00:21:33 | 49.71896 | 17.94386 | 218° | 11km/h | 25006m | 6.8m/s | -51.2°C | 0.8% | 0hPa | 2.6V | 00:00:00 | 00:00:00 | 00:00:00 | |
| OE5MMP-10 | 2026-09-01 00:21:30 | 49.71895 | 17.94390 | 23° | 11km/h | 24980m | 8.4m/s | -51.2°C | 3.5% | 0hPa | 2.6V | 00:00:00 | 01:34:12 | 00:00:00 | |
| DO3MHA-11 | 2026-09-01 00:21:28 | 49.71889 | 17.94383 | 39° | 9km/h | 24965m | 4.8m/s | -51.3°C | 3.5% | 0hPa | 2.7V | 00:00:00 | 01:34:10 | 00:00:00 | |
| OE5DRO-10 | 2026-09-01 00:21:27 | 49.71885 | 17.94379 | 35° | 11km/h | 24959m | 6.3m/s | -51.3°C | 3.5% | 0hPa | 2.7V | 00:00:00 | 00:00:00 | 00:00:00 | |
| PETON7-10 | 2026-09-01 00:21:23 | 49.71875 | 17.94373 | 13° | 9km/h | 24933m | 8.7m/s | -51.3°C | 3.5% | 0hPa | 2.6V | 00:00:00 | 01:34:05 | 00:00:00 | |
| HA6NAB-11 | 2026-09-01 00:21:22 | 49.71874 | 17.94373 | 80° | 2km/h | 24925m | 5.6m/s | -51.4°C | 0.9% | 0hPa | 2.6V | 00:00:00 | 00:00:00 | 00:00:00 | |
| OE5MMP-10 | 2026-09-01 00:21:20 | 49.71875 | 17.94373 | 201° | 9km/h | 24913m | 8.0m/s | -51.4°C | 3.5% | 0hPa | 2.6V | 00:00:00 | 01:34:02 | 00:00:00 | |
| HA6NAB-11 | 2026-09-01 00:21:19 | 49.71885 | 17.94377 | 155° | 9km/h | 24885m | 6.4m/s | -51.6°C | 0.8% | 0hPa | 2.6V | 00:00:00 | 00:00:00 | 00:00:00 | |
| GYPAP8-17 | 2026-09-01 00:21:18 | 49.71885 | 17.94377 | 155° | 9km/h | 24885m | 6.4m/s | -51.6°C | 0.8% | 0hPa | 2.6V | 00:00:00 | 00:00:00 | 00:00:00 | |
| OM5KV | 2026-09-01 00:21:17 | 49.71888 | 17.94373 | 125° | 9km/h | 24872m | 7.9m/s | -51.7°C | 0.8% | 0hPa | 2.6V | 00:00:00 | 00:00:00 | 00:00:00 | |
| PG1ADW-2 | 2026-09-01 00:21:16 | 49.71889 | 17.94370 | 101° | 11km/h | 24865m | 5.7m/s | -51.7°C | 3.6% | 0hPa | 2.6V | 00:00:00 | 00:00:00 | 00:00:00 | |
| OE5MMP-10 | 2026-09-01 00:21:13 | 49.71884 | 17.94362 | 28° | 11km/h | 24845m | 7.2m/s | -51.8°C | 3.7% | 0hPa | 2.6V | 00:00:00 | 01:33:52 | 00:00:00 | |
| OM5KV | 2026-09-01 00:21:12 | 49.71884 | 17.94362 | 29° | 16km/h | 24845m | 7.3m/s | -51.8°C | 0.9% | 0hPa | 2.6V | 00:00:00 | 00:00:00 | 00:00:00 | |
| SP9KGR-15 | 2026-09-01 00:21:11 | 49.71884 | 17.94362 | 29° | 16km/h | 24845m | 7.3m/s | -51.8°C | 0.9% | 0hPa | 2.6V | 00:00:00 | 00:00:00 | 00:00:00 | |
| PETON7-10 | 2026-09-01 00:21:08 | 49.71876 | 17.94358 | 10° | 11km/h | 24832m | 7.4m/s | -51.8°C | 3.7% | 0hPa | 2.6V | 00:00:00 | 00:00:00 | 00:00:00 | |
| HA6NAB-11 | 2026-09-01 00:21:04 | 49.71869 | 17.94362 | 310° | 11km/h | 24813m | 7.8m/s | -51.7°C | 0.8% | 0hPa | 2.6V | 00:00:00 | 00:00:00 | 00:00:00 | |
| OM5KV | 2026-09-01 00:21:03 | 49.71867 | 17.94365 | 312° | 9km/h | 24804m | 9.7m/s | -51.7°C | 0.9% | 0hPa | 2.6V | 00:00:00 | 00:00:00 | 00:00:00 | |
| OM5KV | 2026-09-01 00:21:02 | 49.71866 | 17.94367 | 315° | 5km/h | 24797m | 5.0m/s | -51.7°C | 0.8% | 0hPa | 2.6V | 00:00:00 | 00:00:00 | 00:00:00 | |
| OE3OSB-13 | 2026-09-01 00:20:56 | 49.71852 | 17.94384 | 357° | 15km/h | 24749m | 4.6m/s | -51.6°C | 0.7% | -1.0hPa | 2.6V | 00:00:00 | 00:00:00 | 00:00:00 | |
| SP3WXH-11 | 2026-09-01 00:20:46 | 49.71801 | 17.94431 | 332° | 24km/h | 24674m | 9.0m/s | -52.0°C | 0.8% | -1.0hPa | 2.6V | 00:00:00 | 00:00:00 | 00:00:00 | |
| OK1SLM-15 | 2026-09-01 00:20:43 | 49.71795 | 17.94435 | 337° | 24km/h | 24667m | 5.4m/s | -52.0°C | 0.8% | 0hPa | 2.6V | 00:00:00 | 00:00:00 | 00:00:00 | |
| OM5KV | 2026-09-01 00:20:41 | 49.71785 | 17.94443 | 333° | 24km/h | 24653m | 8.5m/s | -51.9°C | 0.9% | 0hPa | 2.6V | 00:00:00 | 00:00:00 | 00:00:00 | |
| OE5MMP-10 | 2026-09-01 00:20:40 | 49.71774 | 17.94454 | 323° | 29km/h | 24640m | 6.0m/s | -51.9°C | 3.6% | 0hPa | 2.6V | 00:00:00 | 01:33:22 | 00:00:00 | |
| DO3MHA-11 | 2026-09-01 00:20:38 | 49.71764 | 17.94467 | 321° | 29km/h | 24626m | 6.7m/s | -52.0°C | 3.6% | 0hPa | 2.6V | 00:00:00 | 01:33:20 | 00:00:00 | |
| OM5KV | 2026-09-01 00:20:35 | 49.71754 | 17.94481 | 316° | 29km/h | 24613m | 7.6m/s | -52.3°C | 0.9% | 0hPa | 2.6V | 00:00:00 | 00:00:00 | 00:00:00 | |
| PG1ADW-2 | 2026-09-01 00:20:33 | 49.71736 | 17.94507 | 321° | 31km/h | 24593m | 7.0m/s | -52.4°C | 3.7% | 0hPa | 2.6V | 00:00:00 | 00:00:00 | 00:00:00 | |
| OE5MMP-10 | 2026-09-01 00:20:30 | 49.71718 | 17.94526 | 329° | 27km/h | 24571m | 7.4m/s | -52.4°C | 3.8% | 0hPa | 2.7V | 00:00:00 | 01:33:12 | 00:00:00 | |
| OM5KV | 2026-09-01 00:20:29 | 49.71717 | 17.94526 | 329° | 27km/h | 24571m | 7.4m/s | -52.5°C | 0.9% | 0hPa | 2.7V | 00:00:00 | 00:00:00 | 00:00:00 | |
| DO3MHA-11 | 2026-09-01 00:20:28 | 49.71707 | 17.94540 | 316° | 29km/h | 24560m | 5.8m/s | -52.4°C | 3.7% | 0hPa | 2.7V | 00:00:00 | 01:33:10 | 00:00:00 | |
| OE3OSB-13 | 2026-09-01 00:20:25 | 49.71695 | 17.94562 | 300° | 22km/h | 24538m | 5.1m/s | -52.6°C | 0.8% | -1.0hPa | 2.7V | 00:00:00 | 00:00:00 | 00:00:00 | |
| OM5KV | 2026-09-01 00:20:24 | 49.71695 | 17.94562 | 302° | 24km/h | 24539m | 5.1m/s | -52.6°C | 0.9% | 0hPa | 2.7V | 00:00:00 | 00:00:00 | 00:00:00 | |
| PETON7-10 | 2026-09-01 00:20:23 | 49.71690 | 17.94579 | 292° | 33km/h | 24524m | 9.4m/s | -52.7°C | 3.8% | 0hPa | 2.7V | 00:00:00 | 00:00:00 | 00:00:00 | |
| SP9KGR-15 | 2026-09-01 00:20:22 | 49.71690 | 17.94579 | 292° | 27km/h | 24524m | 9.4m/s | -52.7°C | 0.9% | 0hPa | 2.7V | 00:00:00 | 00:00:00 | 00:00:00 | |
| OE5MMP-10 | 2026-09-01 00:20:20 | 49.71680 | 17.94616 | 300° | 31km/h | 24505m | 6.3m/s | -52.7°C | 3.8% | 0hPa | 2.7V | 00:00:00 | 01:33:02 | 00:00:00 | |
| OM5KV | 2026-09-01 00:20:19 | 49.71680 | 17.94616 | 300° | 35km/h | 24505m | 6.4m/s | -52.8°C | 0.9% | 0hPa | 2.7V | 00:00:00 | 00:00:00 | 00:00:00 | |
| DO3MHA-11 | 2026-09-01 00:20:18 | 49.71669 | 17.94636 | 318° | 26km/h | 24492m | 4.7m/s | -52.7°C | 3.8% | 0hPa | 2.7V | 00:00:00 | 01:33:00 | 00:00:00 | |
| POL1PZ | 2026-09-01 00:20:14 | 49.71650 | 17.94664 | 309° | 35km/h | 24471m | 4.0m/s | -52.7°C | 0.9% | 0hPa | 2.6V | 00:00:00 | 00:00:00 | 00:00:00 | |
| PG1ADW-2 | 2026-09-01 00:20:13 | 49.71642 | 17.94685 | 298° | 24km/h | 24461m | 6.6m/s | -52.6°C | 3.8% | 0hPa | 2.6V | 00:00:00 | 00:00:00 | 00:00:00 | |
| OE5MMP-10 | 2026-09-01 00:20:10 | 49.71638 | 17.94715 | 270° | 29km/h | 24440m | 7.9m/s | -52.6°C | 3.8% | 0hPa | 2.6V | 00:00:00 | 01:32:52 | 00:00:00 | |
| PETON7-10 | 2026-09-01 00:20:08 | 49.71638 | 17.94740 | 271° | 24km/h | 24428m | 6.4m/s | -52.6°C | 3.8% | 0hPa | 2.6V | 00:00:00 | 00:00:00 | 00:00:00 | |
| OM5KV | 2026-09-01 00:20:07 | 49.71638 | 17.94740 | 271° | 33km/h | 24428m | 6.4m/s | -52.7°C | 0.9% | 0hPa | 2.6V | 00:00:00 | 00:00:00 | 00:00:00 | |
| OM5KV | 2026-09-01 00:20:06 | 49.71638 | 17.94752 | 271° | 31km/h | 24421m | 8.1m/s | -52.6°C | 0.9% | 0hPa | 2.6V | 00:00:00 | 00:00:00 | 00:00:00 | |
| HA6NAB-11 | 2026-09-01 00:20:05 | 49.71638 | 17.94763 | 273° | 26km/h | 24414m | 4.3m/s | -52.6°C | 0.9% | 0hPa | 2.6V | 00:00:00 | 00:00:00 | 00:00:00 | |
| OM5KV | 2026-09-01 00:20:02 | 49.71636 | 17.94793 | 281° | 27km/h | 24395m | 7.5m/s | -52.6°C | 0.9% | 0hPa | 2.6V | 00:00:00 | 00:00:00 | 00:00:00 | |
| OE3OSB-13 | 2026-09-01 00:19:54 | 49.71618 | 17.94866 | 265° | 22km/h | 24336m | 7.6m/s | -52.5°C | 0.8% | -1.0hPa | 2.6V | 00:00:00 | 00:00:00 | 00:00:00 | |
| PETON7-10 | 2026-09-01 00:19:53 | 49.71619 | 17.94874 | 256° | 16km/h | 24329m | 7.1m/s | -52.4°C | 3.8% | 0hPa | 2.6V | 00:00:00 | 01:32:35 | 00:00:00 | |
| OE5DRO-10 | 2026-09-01 00:19:52 | 49.71621 | 17.94882 | 251° | 15km/h | 24322m | 5.6m/s | -52.4°C | 3.8% | 0hPa | 2.6V | 00:00:00 | 00:00:00 | 00:00:00 | |
| PG1ADW-2 | 2026-09-01 00:19:51 | 49.71623 | 17.94890 | 254° | 15km/h | 24316m | 7.0m/s | -52.4°C | 3.8% | 0hPa | 2.6V | 00:00:00 | 00:00:00 | 00:00:00 | |
| OE5MMP-10 | 2026-09-01 00:19:50 | 49.71624 | 17.94899 | 264° | 16km/h | 24309m | 5.0m/s | -52.3°C | 3.8% | 0hPa | 2.6V | 00:00:00 | 01:32:32 | 00:00:00 | |
| OM5KV | 2026-09-01 00:19:48 | 49.71624 | 17.94908 | 272° | 24km/h | 24304m | 6.4m/s | -52.4°C | 0.9% | 0hPa | 2.6V | 00:00:00 | 00:00:00 | 00:00:00 | |
| HA6NAB-11 | 2026-09-01 00:19:47 | 49.71623 | 17.94917 | 279° | 22km/h | 24297m | 7.9m/s | -52.3°C | 0.9% | 0hPa | 2.6V | 00:00:00 | 00:00:00 | 00:00:00 | |
| DO3MHA-11 | 2026-09-01 00:19:46 | 49.71621 | 17.94930 | 292° | 13km/h | 24283m | 5.9m/s | -52.2°C | 3.7% | 0hPa | 2.6V | 00:00:00 | 01:32:28 | 00:00:00 | |
| SP3WXH-11 | 2026-09-01 00:19:44 | 49.71618 | 17.94947 | 274° | 15km/h | 24262m | 5.0m/s | -52.2°C | 0.8% | -1.0hPa | 2.6V | 00:00:00 | 00:00:00 | 00:00:00 | |
| OM5KV | 2026-09-01 00:19:42 | 49.71618 | 17.94947 | 276° | 15km/h | 24262m | 5.0m/s | -52.2°C | 0.9% | 0hPa | 2.6V | 00:00:00 | 00:00:00 | 00:00:00 | |
| HA6NAB-11 | 2026-09-01 00:19:41 | 49.71618 | 17.94953 | 268° | 15km/h | 24257m | 6.1m/s | -52.2°C | 0.9% | 0hPa | 2.6V | 00:00:00 | 00:00:00 | 00:00:00 | |
| OE5MMP-10 | 2026-09-01 00:19:40 | 49.71619 | 17.94961 | 234° | 11km/h | 24242m | 5.5m/s | -52.2°C | 3.7% | 0hPa | 2.6V | 00:00:00 | 01:32:22 | 00:00:00 | |
| OM5KV | 2026-09-01 00:19:39 | 49.71619 | 17.94961 | 235° | 9km/h | 24242m | 5.5m/s | -52.2°C | 0.9% | 0hPa | 2.6V | 00:00:00 | 00:00:00 | 00:00:00 | |
| PETON7-10 | 2026-09-01 00:19:38 | 49.71622 | 17.94967 | 237° | 7km/h | 24229m | 8.3m/s | -52.3°C | 3.7% | 0hPa | 2.6V | 00:00:00 | 00:00:00 | 08:30:00 | |
| DO3MHA-11 | 2026-09-01 00:19:36 | 49.71624 | 17.94976 | 256° | 7km/h | 24216m | 5.8m/s | -52.3°C | 3.7% | 0hPa | 2.6V | 00:00:00 | 01:32:18 | 08:30:00 | |
| SP9KGR-15 | 2026-09-01 00:19:35 | 49.71624 | 17.94976 | 256° | 13km/h | 24216m | 5.8m/s | -52.4°C | 0.9% | 0hPa | 2.7V | 00:00:00 | 00:00:00 | 00:00:00 | |
| OE5DRO-10 | 2026-09-01 00:19:33 | 49.71627 | 17.94988 | 245° | 5km/h | 24196m | 5.9m/s | -52.4°C | 3.8% | 0hPa | 2.7V | 00:00:00 | 00:00:00 | 08:30:00 | |
| OM5KV | 2026-09-01 00:19:32 | 49.71627 | 17.94988 | 246° | 7km/h | 24196m | 5.9m/s | -52.5°C | 0.9% | 0hPa | 2.6V | 00:00:00 | 00:00:00 | 00:00:00 | |
| OE5MMP-10 | 2026-09-01 00:19:30 | 49.71627 | 17.94996 | 301° | 4km/h | 24176m | 5.1m/s | -52.4°C | 3.7% | 0hPa | 2.6V | 00:00:00 | 01:32:12 | 08:30:00 | |
| DO3MHA-11 | 2026-09-01 00:19:26 | 49.71625 | 17.95002 | 253° | 5km/h | 24150m | 6.2m/s | -52.4°C | 3.7% | 0hPa | 2.6V | 00:00:00 | 01:32:08 | 00:00:00 | |
| OM5KV | 2026-09-01 00:19:25 | 49.71625 | 17.95002 | 253° | 2km/h | 24150m | 6.2m/s | -52.4°C | 0.9% | 0hPa | 2.6V | 00:00:00 | 00:00:00 | 00:00:00 | |
| PETON7-10 | 2026-09-01 00:19:23 | 49.71624 | 17.95006 | 305° | 7km/h | 24131m | 5.8m/s | -52.4°C | 3.7% | 0hPa | 2.6V | 00:00:00 | 00:00:00 | 00:00:00 | |
| OE5MMP-10 | 2026-09-01 00:19:20 | 49.71622 | 17.95005 | 71° | 7km/h | 24111m | 5.3m/s | 0°C | 0% | 0hPa | 2.6V | 00:00:00 | 01:32:02 | 00:00:00 | |
| SP9KGR-15 | 2026-09-01 00:19:19 | 49.71622 | 17.95005 | 72° | 7km/h | 24111m | 5.3m/s | -52.5°C | 0.9% | 0hPa | 2.6V | 00:00:00 | 00:00:00 | 00:00:00 | |
| DO3MHA-11 | 2026-09-01 00:19:16 | 49.71616 | 17.94996 | 25° | 5km/h | 24084m | 5.7m/s | -52.3°C | 3.7% | 0hPa | 2.6V | 00:00:00 | 01:31:58 | 00:00:00 | |
| OM5KV | 2026-09-01 00:19:15 | 49.71616 | 17.94996 | 25° | 9km/h | 24084m | 5.8m/s | -52.3°C | 0.9% | 0hPa | 2.6V | 00:00:00 | 00:00:00 | 00:00:00 | |
| OE5DRO-10 | 2026-09-01 00:19:14 | 49.71613 | 17.94992 | 69° | 7km/h | 24072m | 4.4m/s | -52.2°C | 3.7% | 0hPa | 2.6V | 00:00:00 | 00:00:00 | 00:00:00 | |
| SP3WXH-11 | 2026-09-01 00:19:13 | 49.71612 | 17.94989 | 49° | 4km/h | 24058m | 8.8m/s | -52.2°C | 0.8% | -1.0hPa | 2.6V | 00:00:00 | 00:00:00 | 00:00:00 | |
| PG1ADW-2 | 2026-09-01 00:19:11 | 49.71611 | 17.94988 | 15° | 7km/h | 24051m | 5.1m/s | -52.2°C | 3.6% | 0hPa | 2.6V | 00:00:00 | 00:00:00 | 00:00:00 | |
| OE5MMP-10 | 2026-09-01 00:19:10 | 49.71609 | 17.94988 | 13° | 7km/h | 24046m | 4.5m/s | -52.2°C | 3.6% | 0hPa | 2.6V | 00:00:00 | 01:31:52 | 00:00:00 | |
| PETON7-10 | 2026-09-01 00:19:08 | 49.71605 | 17.94986 | 22° | 5km/h | 24033m | 9.0m/s | -52.2°C | 3.6% | 0hPa | 2.6V | 00:00:00 | 01:31:50 | 00:00:00 | |
| DO3MHA-11 | 2026-09-01 00:19:06 | 49.71603 | 17.94986 | 347° | 7km/h | 24020m | 6.8m/s | -52.3°C | 3.6% | 0hPa | 2.6V | 00:00:00 | 01:31:48 | 00:00:00 | |
| OM5KV | 2026-09-01 00:19:05 | 49.71603 | 17.94986 | 348° | 5km/h | 24020m | 6.8m/s | -52.3°C | 0.9% | 0hPa | 2.6V | 00:00:00 | 00:00:00 | 00:00:00 | |
| HA6NAB-11 | 2026-09-01 00:19:04 | 49.71601 | 17.94986 | 351° | 9km/h | 24012m | 8.8m/s | -52.4°C | 0.9% | 0hPa | 2.6V | 00:00:00 | 00:00:00 | 00:00:00 | |
| OE3OSB-13 | 2026-09-01 00:18:52 | 49.71585 | 17.95006 | 333° | 15km/h | 23925m | 4.8m/s | -53.0°C | 0.9% | -1.0hPa | 2.6V | 00:00:00 | 00:00:00 | 00:00:00 | |
| PG1ADW-2 | 2026-09-01 00:18:51 | 49.71585 | 17.95006 | 334° | 13km/h | 23925m | 4.8m/s | -52.9°C | 3.8% | 0hPa | 2.6V | 00:00:00 | 00:00:00 | 00:00:00 | |
| OE5MMP-10 | 2026-09-01 00:18:50 | 49.71582 | 17.95009 | 330° | 13km/h | 23919m | 6.7m/s | -53.0°C | 3.8% | 0hPa | 2.6V | 00:00:00 | 01:31:32 | 00:00:00 | |
| SP9KGR-15 | 2026-09-01 00:18:49 | 49.71582 | 17.95009 | 331° | 15km/h | 23919m | 6.7m/s | -53.0°C | 0.9% | 0hPa | 2.6V | 00:00:00 | 00:00:00 | 00:00:00 | |
| HA6NAB-11 | 2026-09-01 00:18:48 | 49.71579 | 17.95012 | 320° | 15km/h | 23912m | 8.1m/s | -53.1°C | 0.9% | 0hPa | 2.6V | 00:00:00 | 00:00:00 | 00:00:00 | |
| OE5DXL-15 | 2026-09-01 00:18:47 | 49.71573 | 17.95028 | 298° | 16km/h | 23893m | 5.9m/s | -53.1°C | 3.8% | 0hPa | 2.6V | 00:00:00 | 00:00:00 | 00:00:00 | |
| DO3MHA-11 | 2026-09-01 00:18:46 | 49.71573 | 17.95028 | 298° | 13km/h | 23893m | 5.9m/s | -53.1°C | 3.8% | 0hPa | 2.6V | 00:00:00 | 01:31:28 | 00:00:00 | |
| OK1SLM-15 | 2026-09-01 00:18:45 | 49.71571 | 17.95034 | 303° | 16km/h | 23887m | 6.0m/s | -53.2°C | 0.9% | 0hPa | 2.6V | 00:00:00 | 00:00:00 | 00:00:00 | |
| OM5KV | 2026-09-01 00:18:43 | 49.71569 | 17.95039 | 303° | 13km/h | 23880m | 7.9m/s | -53.2°C | 1.0% | 0hPa | 2.6V | 00:00:00 | 00:00:00 | 00:00:00 | |
| SP3WXH-11 | 2026-09-01 00:18:42 | 49.71565 | 17.95049 | 293° | 9km/h | 23859m | 7.2m/s | -53.3°C | 0.8% | -1.0hPa | 2.6V | 00:00:00 | 00:00:00 | 00:00:00 | |
| OE5MMP-10 | 2026-09-01 00:18:40 | 49.71564 | 17.95053 | 305° | 15km/h | 23852m | 7.6m/s | -53.3°C | 3.8% | 0hPa | 2.6V | 00:00:00 | 01:31:22 | 00:00:00 | |
| PETON7-10 | 2026-09-01 00:18:38 | 49.71560 | 17.95061 | 307° | 18km/h | 23840m | 6.3m/s | -53.4°C | 3.8% | 0hPa | 2.6V | 00:00:00 | 00:00:00 | 00:00:00 | |
| DO3MHA-11 | 2026-09-01 00:18:36 | 49.71558 | 17.95069 | 286° | 18km/h | 23825m | 5.0m/s | -53.5°C | 3.9% | 0hPa | 2.6V | 00:00:00 | 01:31:18 | 00:00:00 | |
| SP9KGR-15 | 2026-09-01 00:18:33 | 49.71556 | 17.95078 | 293° | 15km/h | 23813m | 8.1m/s | -53.5°C | 0.9% | 0hPa | 2.6V | 00:00:00 | 00:00:00 | 00:00:00 | |
| GYPAP8-17 | 2026-09-01 00:18:32 | 49.71554 | 17.95083 | 293° | 16km/h | 23806m | 5.4m/s | -53.5°C | 0% | 0hPa | 2.6V | 00:00:00 | 00:00:00 | 00:00:00 | |
| PG1ADW-2 | 2026-09-01 00:18:31 | 49.71552 | 17.95097 | 274° | 18km/h | 23793m | 7.8m/s | -53.5°C | 3.9% | 0hPa | 2.6V | 00:00:00 | 00:00:00 | 08:30:00 | |
| OE5MMP-10 | 2026-09-01 00:18:30 | 49.71552 | 17.95105 | 268° | 18km/h | 23787m | 4.7m/s | -53.5°C | 3.9% | 0hPa | 2.6V | 00:00:00 | 01:31:12 | 00:00:00 | |
| OM5KV | 2026-09-01 00:18:27 | 49.71552 | 17.95122 | 273° | 22km/h | 23773m | 9.2m/s | -53.8°C | 1.0% | 0hPa | 2.7V | 00:00:00 | 00:00:00 | 00:00:00 | |
| DO3MHA-11 | 2026-09-01 00:18:26 | 49.71551 | 17.95139 | 280° | 16km/h | 23761m | 6.2m/s | -53.8°C | 4.0% | 0hPa | 2.7V | 00:00:00 | 01:31:08 | 00:00:00 | |
| OM5KV | 2026-09-01 00:18:25 | 49.71551 | 17.95140 | 281° | 22km/h | 23761m | 6.3m/s | -53.9°C | 1.0% | 0hPa | 2.7V | 00:00:00 | 00:00:00 | 00:00:00 | |
| PETON7-10 | 2026-09-01 00:18:23 | 49.71550 | 17.95159 | 276° | 16km/h | 23741m | 6.0m/s | -53.8°C | 4.0% | 0hPa | 2.7V | 00:00:00 | 01:31:05 | 00:00:00 | |
| OE3OSB-13 | 2026-09-01 00:18:21 | 49.71546 | 17.95175 | 293° | 16km/h | 23721m | 6.1m/s | -53.9°C | 0.9% | -1.0hPa | 2.7V | 00:00:00 | 00:00:00 | 00:00:00 | |
| OE5MMP-10 | 2026-09-01 00:18:20 | 49.71546 | 17.95175 | 294° | 18km/h | 23721m | 6.1m/s | -53.8°C | 3.9% | 0hPa | 2.7V | 00:00:00 | 01:31:02 | 00:00:00 | |
| SP9KGR-15 | 2026-09-01 00:18:18 | 49.71544 | 17.95182 | 289° | 18km/h | 23714m | 7.1m/s | -53.9°C | 1.0% | 0hPa | 2.7V | 00:00:00 | 00:00:00 | 00:00:00 | |
| OE5DRO-10 | 2026-09-01 00:18:17 | 49.71543 | 17.95195 | 263° | 11km/h | 23700m | 5.3m/s | -53.8°C | 3.9% | 0hPa | 2.7V | 00:00:00 | 00:00:00 | 00:00:00 | |
| DO3MHA-11 | 2026-09-01 00:18:16 | 49.71544 | 17.95202 | 259° | 16km/h | 23694m | 6.7m/s | -53.8°C | 3.9% | 0hPa | 2.7V | 00:00:00 | 01:30:58 | 00:00:00 | |
| OM5KV | 2026-09-01 00:18:14 | 49.71546 | 17.95219 | 263° | 22km/h | 23680m | 4.5m/s | -54.0°C | 1.0% | 0hPa | 2.7V | 00:00:00 | 00:00:00 | 00:00:00 | |
| PG1ADW-2 | 2026-09-01 00:18:11 | 49.71549 | 17.95241 | 249° | 7km/h | 23660m | 5.1m/s | -54.2°C | 4.0% | 0hPa | 2.7V | 00:00:00 | 01:30:53 | 00:00:00 | |
| OE5MMP-10 | 2026-09-01 00:18:10 | 49.71550 | 17.95246 | 246° | 7km/h | 23655m | 5.5m/s | -54.2°C | 4.0% | 0hPa | 2.7V | 00:00:00 | 01:30:52 | 00:00:00 | |
| PETON7-10 | 2026-09-01 00:18:07 | 49.71550 | 17.95253 | 341° | 7km/h | 23635m | 5.1m/s | -54.5°C | 4.1% | 0hPa | 2.7V | 00:00:00 | 00:00:00 | 00:00:00 | |
| DO3MHA-11 | 2026-09-01 00:18:06 | 49.71548 | 17.95254 | 10° | 7km/h | 23629m | 6.5m/s | -54.6°C | 4.2% | 0hPa | 2.6V | 00:00:00 | 01:30:48 | 08:30:00 | |
| OM5KV | 2026-09-01 00:18:05 | 49.71548 | 17.95254 | 11° | 7km/h | 23629m | 6.6m/s | -54.6°C | 1.0% | 0hPa | 2.6V | 00:00:00 | 00:00:00 | 00:00:00 | |
| SP9KGR-15 | 2026-09-01 00:18:02 | 49.71547 | 17.95249 | 134° | 5km/h | 23610m | 7.1m/s | -54.7°C | 1.0% | 0hPa | 2.6V | 00:00:00 | 00:00:00 | 00:00:00 | |
| OE3OSB-13 | 2026-09-01 00:17:50 | 49.71556 | 17.95272 | 179° | 2km/h | 23517m | 8.4m/s | -54.5°C | 0.9% | -1.0hPa | 2.6V | 00:00:00 | 00:00:00 | 00:00:00 | |
| HA6NAB-11 | 2026-09-01 00:17:48 | 49.71556 | 17.95272 | 180° | 4km/h | 23517m | 8.4m/s | -54.5°C | 1.0% | 0hPa | 2.6V | 00:00:00 | 00:00:00 | 00:00:00 | |
| S52SK | 2026-09-01 00:17:47 | 49.71556 | 17.95272 | 205° | 4km/h | 23510m | 5.4m/s | -54.5°C | 1.1% | 0hPa | 2.6V | 00:00:00 | 00:00:00 | 00:00:00 | |
| DO3MHA-11 | 2026-09-01 00:17:46 | 49.71559 | 17.95273 | 193° | 7km/h | 23498m | 6.7m/s | -54.4°C | 4.2% | 0hPa | 2.6V | 00:00:00 | 01:30:28 | 00:00:00 | |
| OM5KV | 2026-09-01 00:17:43 | 49.71562 | 17.95276 | 242° | 7km/h | 23486m | 7.3m/s | -54.5°C | 1.0% | 0hPa | 2.6V | 00:00:00 | 00:00:00 | 00:00:00 | |
| OK1SLM-15 | 2026-09-01 00:17:42 | 49.71562 | 17.95279 | 280° | 9km/h | 23478m | 8.2m/s | -54.5°C | 0% | 0hPa | 2.6V | 00:00:00 | 00:00:00 | 00:00:00 | |
| OE5MMP-10 | 2026-09-01 00:17:40 | 49.71557 | 17.95287 | 340° | 5km/h | 23457m | 8.5m/s | -54.5°C | 4.1% | 0hPa | 2.6V | 00:00:00 | 01:30:22 | 00:00:00 | |
| OE5DRO-10 | 2026-09-01 00:17:39 | 49.71555 | 17.95288 | 358° | 7km/h | 23450m | 5.6m/s | -54.5°C | 4.2% | 0hPa | 2.6V | 00:00:00 | 00:00:00 | 00:00:00 | |
| OM5KV | 2026-09-01 00:17:38 | 49.71555 | 17.95288 | 359° | 7km/h | 23450m | 5.7m/s | -54.5°C | 1.1% | 0hPa | 2.7V | 00:00:00 | 00:00:00 | 00:00:00 | |
| PETON7-10 | 2026-09-01 00:17:37 | 49.71552 | 17.95288 | 355° | 7km/h | 23438m | 6.0m/s | -54.5°C | 4.2% | 0hPa | 2.7V | 00:00:00 | 01:30:19 | 00:00:00 | |
| OM5KV | 2026-09-01 00:17:36 | 49.71552 | 17.95288 | 356° | 5km/h | 23438m | 6.1m/s | -54.6°C | 1.1% | 0hPa | 2.7V | 00:00:00 | 00:00:00 | 00:00:00 | |
| PG1ADW-2 | 2026-09-01 00:17:31 | 49.71553 | 17.95292 | 263° | 11km/h | 23398m | 7.9m/s | -54.4°C | 4.2% | 0hPa | 2.7V | 00:00:00 | 00:00:00 | 00:00:00 | |
| OE5MMP-10 | 2026-09-01 00:17:30 | 49.71553 | 17.95295 | 287° | 9km/h | 23392m | 5.1m/s | -54.4°C | 4.2% | 0hPa | 2.7V | 00:00:00 | 01:30:12 | 00:00:00 | |
| POL1PZ | 2026-09-01 00:17:29 | 49.71553 | 17.95295 | 288° | 9km/h | 23392m | 5.1m/s | -54.5°C | 1.1% | 0hPa | 2.6V | 00:00:00 | 00:00:00 | 00:00:00 | |
| DB0DAN | 2026-09-01 00:17:25 | 49.71544 | 17.95303 | 0° | 13km/h | 23358m | 7.9m/s | -54.4°C | 1% | 0hPa | 2.6V | 00:00:00 | 00:00:00 | 00:00:00 | |
| OM5KV | 2026-09-01 00:17:23 | 49.71540 | 17.95303 | 357° | 13km/h | 23352m | 5.6m/s | -54.4°C | 1.0% | 0hPa | 2.6V | 00:00:00 | 00:00:00 | 00:00:00 | |
| PETON7-10 | 2026-09-01 00:17:22 | 49.71535 | 17.95304 | 357° | 13km/h | 23338m | 7.6m/s | -54.3°C | 4.2% | 0hPa | 2.6V | 00:00:00 | 00:00:00 | 08:30:00 | |
| OE5MMP-10 | 2026-09-01 00:17:20 | 49.71532 | 17.95304 | 343° | 13km/h | 23327m | 7.0m/s | -54.3°C | 4.1% | 0hPa | 2.7V | 00:00:00 | 01:30:02 | 00:00:00 | |
| OE3OSB-13 | 2026-09-01 00:17:19 | 49.71529 | 17.95307 | 323° | 13km/h | 23310m | 6.7m/s | -54.3°C | 0.9% | -1.0hPa | 2.7V | 00:00:00 | 00:00:00 | 00:00:00 | |
| OM5KV | 2026-09-01 00:17:17 | 49.71529 | 17.95307 | 325° | 13km/h | 23310m | 6.7m/s | -54.3°C | 1.0% | 0hPa | 2.7V | 00:00:00 | 00:00:00 | 00:00:00 | |
| OE5DXL-15 | 2026-09-01 00:17:16 | 49.71523 | 17.95314 | 328° | 15km/h | 23299m | 6.3m/s | -54.2°C | 4.1% | 0hPa | 2.7V | 00:00:00 | 00:00:00 | 00:00:00 | |
| SP9KGR-15 | 2026-09-01 00:17:14 | 49.71519 | 17.95317 | 335° | 15km/h | 23291m | 8.5m/s | -54.2°C | 1.0% | 0hPa | 2.7V | 00:00:00 | 00:00:00 | 00:00:00 | |
| PG1ADW-2 | 2026-09-01 00:17:11 | 49.71505 | 17.95323 | 344° | 15km/h | 23264m | 4.9m/s | -54.1°C | 4.1% | 0hPa | 2.7V | 00:00:00 | 00:00:00 | 00:00:00 | |
| OE5MMP-10 | 2026-09-01 00:17:10 | 49.71501 | 17.95325 | 347° | 13km/h | 23259m | 5.7m/s | -54.1°C | 4.1% | 0hPa | 2.7V | 00:00:00 | 01:29:52 | 00:00:00 | |
| POL1PZ | 2026-09-01 00:17:08 | 49.71497 | 17.95326 | 353° | 13km/h | 23251m | 8.9m/s | -54.1°C | 1.0% | 0hPa | 2.7V | 00:00:00 | 00:00:00 | 00:00:00 | |
| PETON7-10 | 2026-09-01 00:17:07 | 49.71492 | 17.95327 | 336° | 15km/h | 23239m | 5.9m/s | -54.1°C | 4.1% | 0hPa | 2.7V | 00:00:00 | 00:00:00 | 00:00:00 | |
| DO3MHA-11 | 2026-09-01 00:17:06 | 49.71490 | 17.95330 | 322° | 15km/h | 23231m | 8.4m/s | -54.0°C | 4.1% | 0hPa | 2.7V | 00:00:00 | 01:29:48 | 00:00:00 | |
| OM5KV | 2026-09-01 00:17:05 | 49.71490 | 17.95330 | 323° | 13km/h | 23231m | 8.5m/s | -54.1°C | 1.0% | 0hPa | 2.7V | 00:00:00 | 00:00:00 | 00:00:00 | |
| OE3OSB-13 | 2026-09-01 00:16:47 | 49.71451 | 17.95399 | 324° | 9km/h | 23110m | 7.4m/s | -53.8°C | 0.9% | -1.0hPa | 2.7V | 00:00:00 | 00:00:00 | 00:00:00 | |
| DO3MHA-11 | 2026-09-01 00:16:46 | 49.71448 | 17.95401 | 340° | 13km/h | 23104m | 5.1m/s | -53.8°C | 3.9% | 0hPa | 2.7V | 00:00:00 | 01:29:28 | 00:00:00 | |
| SP9KGR-15 | 2026-09-01 00:16:44 | 49.71445 | 17.95402 | 354° | 11km/h | 23098m | 6.4m/s | -53.9°C | 1.0% | 0hPa | 2.7V | 00:00:00 | 00:00:00 | 00:00:00 | |
| OM5KV | 2026-09-01 00:16:43 | 49.71443 | 17.95402 | 12° | 9km/h | 23091m | 7.4m/s | -53.9°C | 1.0% | 0hPa | 2.7V | 00:00:00 | 00:00:00 | 00:00:00 | |
| OE5DRO-10 | 2026-09-01 00:16:42 | 49.71438 | 17.95402 | 344° | 15km/h | 23080m | 5.4m/s | -53.9°C | 4.0% | 0hPa | 2.7V | 00:00:00 | 00:00:00 | 08:30:00 | |
| OK1SLM-15 | 2026-09-01 00:16:41 | 49.71438 | 17.95402 | 344° | 11km/h | 23080m | 5.5m/s | -54.0°C | 0% | 0hPa | 2.7V | 00:00:00 | 00:00:00 | 00:00:00 | |
| OE5MMP-10 | 2026-09-01 00:16:40 | 49.71432 | 17.95408 | 309° | 15km/h | 23067m | 5.8m/s | -54.0°C | 4.0% | 0hPa | 2.7V | 00:00:00 | 01:29:22 | 00:00:00 | |
| OM5KV | 2026-09-01 00:16:39 | 49.71430 | 17.95414 | 297° | 18km/h | 23061m | 5.3m/s | -54.1°C | 1.0% | 0hPa | 2.7V | 00:00:00 | 00:00:00 | 00:00:00 | |
| PETON7-10 | 2026-09-01 00:16:37 | 49.71429 | 17.95427 | 261° | 13km/h | 23048m | 6.2m/s | -54.2°C | 4.1% | 0hPa | 2.7V | 00:00:00 | 00:00:00 | 00:00:00 | |
| DO3MHA-11 | 2026-09-01 00:16:36 | 49.71430 | 17.95433 | 249° | 13km/h | 23042m | 5.6m/s | -54.2°C | 4.0% | 0hPa | 2.7V | 00:00:00 | 01:29:18 | 08:30:00 | |
| OM5KV | 2026-09-01 00:16:32 | 49.71435 | 17.95453 | 249° | 15km/h | 23024m | 4.7m/s | -54.3°C | 1.0% | 0hPa | 2.6V | 00:00:00 | 00:00:00 | 00:00:00 | |
| PG1ADW-2 | 2026-09-01 00:16:31 | 49.71437 | 17.95458 | 134° | 11km/h | 23011m | 6.4m/s | -54.3°C | 4.1% | 0hPa | 2.6V | 00:00:00 | 00:00:00 | 00:00:00 | |
| OE5MMP-10 | 2026-09-01 00:16:30 | 49.71437 | 17.95457 | 62° | 13km/h | 23006m | 4.9m/s | -54.3°C | 4.1% | 0hPa | 2.7V | 00:00:00 | 01:29:12 | 08:30:00 | |
| SP9KGR-15 | 2026-09-01 00:16:27 | 49.71432 | 17.95452 | 9° | 13km/h | 22994m | 6.8m/s | 0°C | 0% | 0hPa | 2.7V | 00:00:00 | 00:00:00 | 00:00:00 | |
| DO3MHA-11 | 2026-09-01 00:16:26 | 49.71425 | 17.95455 | 329° | 13km/h | 22983m | 4.8m/s | -54.4°C | 4.1% | 0hPa | 2.7V | 00:00:00 | 01:29:08 | 00:00:00 | |
| OM5KV | 2026-09-01 00:16:25 | 49.71425 | 17.95455 | 329° | 15km/h | 22983m | 4.8m/s | -54.4°C | 1.0% | 0hPa | 2.7V | 00:00:00 | 00:00:00 | 00:00:00 | |
| NBG1-10 | 2026-09-01 00:16:23 | 49.71421 | 17.95465 | 261° | 16km/h | 22963m | 6.3m/s | -54.4°C | 4.1% | 0hPa | 2.7V | 00:00:00 | 01:29:05 | 00:00:00 | |
| PETON7-10 | 2026-09-01 00:16:22 | 49.71421 | 17.95469 | 246° | 9km/h | 22957m | 6.1m/s | -54.4°C | 4.2% | 0hPa | 2.7V | 00:00:00 | 00:00:00 | 00:00:00 | |
| OM5KV | 2026-09-01 00:16:21 | 49.71421 | 17.95469 | 247° | 13km/h | 22957m | 6.1m/s | -54.4°C | 1.1% | 0hPa | 2.7V | 00:00:00 | 00:00:00 | 00:00:00 | |
| OE5MMP-10 | 2026-09-01 00:16:20 | 49.71425 | 17.95480 | 233° | 9km/h | 22945m | 4.3m/s | -54.3°C | 4.2% | 0hPa | 2.7V | 00:00:00 | 01:29:02 | 00:00:00 | |
| OM5KV | 2026-09-01 00:16:19 | 49.71425 | 17.95480 | 233° | 15km/h | 22945m | 4.3m/s | -54.4°C | 1.0% | 0hPa | 2.7V | 00:00:00 | 00:00:00 | 00:00:00 | |
| DO3MHA-11 | 2026-09-01 00:16:16 | 49.71435 | 17.95481 | 132° | 7km/h | 22922m | 4.6m/s | -54.2°C | 4.1% | 0hPa | 2.7V | 00:00:00 | 01:28:58 | 00:00:00 | |
| OM5KV | 2026-09-01 00:16:13 | 49.71436 | 17.95478 | 7° | 4km/h | 22908m | 6.3m/s | -54.2°C | 1.1% | 0hPa | 2.7V | 00:00:00 | 00:00:00 | 00:00:00 | |
| PG1ADW-2 | 2026-09-01 00:16:11 | 49.71432 | 17.95478 | 1° | 9km/h | 22889m | 6.6m/s | -54.1°C | 4.1% | 0hPa | 2.7V | 00:00:00 | 00:00:00 | 00:00:00 | |
| OE5MMP-10 | 2026-09-01 00:16:10 | 49.71430 | 17.95479 | 352° | 7km/h | 22883m | 5.0m/s | -54.0°C | 4.0% | 0hPa | 2.7V | 00:00:00 | 01:28:52 | 00:00:00 | |
| OM5KV | 2026-09-01 00:16:08 | 49.71428 | 17.95480 | 340° | 9km/h | 22877m | 7.1m/s | -54.1°C | 1.0% | 0hPa | 2.7V | 00:00:00 | 00:00:00 | 00:00:00 | |
| PETON7-10 | 2026-09-01 00:16:07 | 49.71424 | 17.95482 | 346° | 9km/h | 22865m | 4.8m/s | -54.0°C | 4.0% | 0hPa | 2.7V | 00:00:00 | 01:28:49 | 00:00:00 | |
| DO3MHA-11 | 2026-09-01 00:16:06 | 49.71423 | 17.95482 | 35° | 7km/h | 22859m | 7.2m/s | -54.0°C | 4.1% | 0hPa | 2.7V | 00:00:00 | 01:28:48 | 00:00:00 | |
| OE5DRO-10 | 2026-09-01 00:16:04 | 49.71422 | 17.95477 | 106° | 9km/h | 22847m | 4.6m/s | -54.0°C | 4.0% | 0hPa | 2.6V | 00:00:00 | 00:00:00 | 00:00:00 | |
| OM5KV | 2026-09-01 00:16:03 | 49.71422 | 17.95477 | 106° | 9km/h | 22847m | 4.7m/s | -54.0°C | 1.0% | 0hPa | 2.6V | 00:00:00 | 00:00:00 | 00:00:00 | |
| S52SK | 2026-09-01 00:16:02 | 49.71423 | 17.95473 | 121° | 9km/h | 22842m | 6.4m/s | -54.0°C | 1.0% | 0hPa | 2.6V | 00:00:00 | 00:00:00 | 00:00:00 | |
| OM5KV | 2026-09-01 00:16:01 | 49.71424 | 17.95471 | 140° | 7km/h | 22835m | 6.5m/s | -54.0°C | 1.0% | 0hPa | 2.6V | 00:00:00 | 00:00:00 | 00:00:00 | |
| OE5MMP-10 | 2026-09-01 00:16:00 | 49.71427 | 17.95467 | 124° | 11km/h | 22823m | 6.4m/s | -54.0°C | 4.1% | 0hPa | 2.6V | 00:00:00 | 01:28:42 | 00:00:00 | |
| OM5KV | 2026-09-01 00:15:57 | 49.71427 | 17.95462 | 59° | 9km/h | 22811m | 4.6m/s | -54.0°C | 1.0% | 0hPa | 2.6V | 00:00:00 | 00:00:00 | 00:00:00 | |
| OM5KV | 2026-09-01 00:15:56 | 49.71423 | 17.95459 | 360° | 11km/h | 22799m | 7.5m/s | -53.9°C | 1.0% | 0hPa | 2.6V | 00:00:00 | 00:00:00 | 00:00:00 | |
| SP9KGR-15 | 2026-09-01 00:15:55 | 49.71423 | 17.95459 | 360° | 11km/h | 22799m | 7.5m/s | 0°C | 0% | 0hPa | 2.6V | 00:00:00 | 00:00:00 | 00:00:00 | |
| PETON7-10 | 2026-09-01 00:15:52 | 49.71411 | 17.95458 | 36° | 15km/h | 22774m | 5.1m/s | -53.7°C | 4.1% | 0hPa | 2.6V | 00:00:00 | 00:00:00 | 00:00:00 | |
| HA6NAB-11 | 2026-09-01 00:15:51 | 49.71411 | 17.95457 | 37° | 13km/h | 22774m | 5.1m/s | -53.8°C | 1.0% | 0hPa | 2.6V | 00:00:00 | 00:00:00 | 00:00:00 | |
| OE5MMP-10 | 2026-09-01 00:15:50 | 49.71408 | 17.95452 | 56° | 15km/h | 22763m | 7.8m/s | -53.6°C | 4.0% | 0hPa | 2.6V | 00:00:00 | 01:28:32 | 00:00:00 | |
| OM5KV | 2026-09-01 00:15:48 | 49.71407 | 17.95449 | 84° | 5km/h | 22757m | 5.4m/s | -53.6°C | 1.0% | 0hPa | 2.6V | 00:00:00 | 00:00:00 | 00:00:00 | |
| DO3MHA-11 | 2026-09-01 00:15:46 | 49.71405 | 17.95437 | 67° | 18km/h | 22738m | 6.6m/s | -53.4°C | 3.9% | 0hPa | 2.6V | 00:00:00 | 01:28:28 | 00:00:00 | |
| OE5DRO-10 | 2026-09-01 00:15:45 | 49.71403 | 17.95432 | 51° | 16km/h | 22732m | 4.1m/s | -53.5°C | 3.9% | 0hPa | 2.6V | 00:00:00 | 00:00:00 | 00:00:00 | |
| OM5KV | 2026-09-01 00:15:43 | 49.71400 | 17.95427 | 42° | 16km/h | 22726m | 7.5m/s | -53.5°C | 1.0% | 0hPa | 2.7V | 00:00:00 | 00:00:00 | 00:00:00 | |
| OE5MMP-10 | 2026-09-01 00:15:40 | 49.71382 | 17.95418 | 20° | 16km/h | 22700m | 7.2m/s | -53.6°C | 4.0% | 0hPa | 2.7V | 00:00:00 | 01:28:22 | 00:00:00 | |
| OK1SLM-15 | 2026-09-01 00:15:39 | 49.71382 | 17.95418 | 20° | 22km/h | 22700m | 7.2m/s | 0°C | 0% | 0hPa | 2.7V | 00:00:00 | 00:00:00 | 00:00:00 | |
| PETON7-10 | 2026-09-01 00:15:37 | 49.71371 | 17.95408 | 35° | 15km/h | 22682m | 7.5m/s | -53.7°C | 4.0% | 0hPa | 2.7V | 00:00:00 | 00:00:00 | 00:00:00 | |
| HA6NAB-11 | 2026-09-01 00:15:36 | 49.71368 | 17.95405 | 56° | 11km/h | 22676m | 4.6m/s | -53.7°C | 1.0% | 0hPa | 2.7V | 00:00:00 | 00:00:00 | 00:00:00 | |
| SP3WXH-11 | 2026-09-01 00:15:35 | 49.71367 | 17.95401 | 65° | 13km/h | 22670m | 6.7m/s | -53.7°C | -1.0% | -1.0hPa | 2.7V | 00:00:00 | 00:00:00 | 00:00:00 | |
| PG1ADW-2 | 2026-09-01 00:15:31 | 49.71359 | 17.95377 | 55° | 16km/h | 22645m | 7.3m/s | -53.6°C | 4.0% | 0hPa | 2.7V | 00:00:00 | 01:28:13 | 08:30:00 | |
| OE5MMP-10 | 2026-09-01 00:15:30 | 49.71357 | 17.95372 | 53° | 15km/h | 22640m | 4.5m/s | -53.6°C | 4.0% | 0hPa | 2.7V | 00:00:00 | 01:28:12 | 00:00:00 | |
| HA6NAB-11 | 2026-09-01 00:15:29 | 49.71357 | 17.95372 | 54° | 13km/h | 22640m | 4.5m/s | -53.7°C | 1.0% | 0hPa | 2.7V | 00:00:00 | 00:00:00 | 00:00:00 | |
| DO3MHA-11 | 2026-09-01 00:15:26 | 49.71348 | 17.95352 | 52° | 16km/h | 22616m | 5.7m/s | -53.6°C | 4.0% | 0hPa | 2.7V | 00:00:00 | 01:28:08 | 00:00:00 | |
| PETON7-10 | 2026-09-01 00:15:22 | 49.71337 | 17.95340 | 34° | 18km/h | 22591m | 7.6m/s | -53.7°C | 4.0% | 0hPa | 2.7V | 00:00:00 | 01:28:04 | 00:00:00 | |
| OE5MMP-10 | 2026-09-01 00:15:20 | 49.71329 | 17.95331 | 28° | 18km/h | 22580m | 4.2m/s | -53.7°C | 4.0% | 0hPa | 2.7V | 00:00:00 | 01:28:02 | 00:00:00 | |
| OE5DXL-15 | 2026-09-01 00:15:17 | 49.71308 | 17.95319 | 24° | 16km/h | 22556m | 7.2m/s | -53.8°C | 4.0% | 0hPa | 2.7V | 00:00:00 | 00:00:00 | 00:00:00 | |
| OE3OSB-13 | 2026-09-01 00:15:14 | 49.71299 | 17.95311 | 31° | 18km/h | 22545m | 5.4m/s | -53.8°C | 0.9% | -1.0hPa | 2.7V | 00:00:00 | 00:00:00 | 00:00:00 | |
| PG1ADW-2 | 2026-09-01 00:15:11 | 49.71290 | 17.95303 | 38° | 16km/h | 22527m | 4.8m/s | -53.8°C | 4.0% | 0hPa | 2.7V | 00:00:00 | 00:00:00 | 00:00:00 | |
| OE5MMP-10 | 2026-09-01 00:15:10 | 49.71288 | 17.95301 | 48° | 15km/h | 22520m | 7.8m/s | -53.7°C | 4.0% | 0hPa | 2.7V | 00:00:00 | 01:27:52 | 00:00:00 | |
| PETON7-10 | 2026-09-01 00:15:07 | 49.71282 | 17.95290 | 36° | 16km/h | 22502m | 7.3m/s | -53.7°C | 4.0% | 0hPa | 2.7V | 00:00:00 | 00:00:00 | 08:30:00 | |
| SP9KGR-15 | 2026-09-01 00:15:05 | 49.71280 | 17.95289 | 349° | 9km/h | 22495m | 7.5m/s | 0°C | 0% | 0hPa | 2.7V | 00:00:00 | 00:00:00 | 00:00:00 | |
| SP3WXH-11 | 2026-09-01 00:15:04 | 49.71274 | 17.95293 | 337° | 15km/h | 22485m | 6.6m/s | -53.8°C | -1.0% | -1.0hPa | 2.7V | 00:00:00 | 00:00:00 | 00:00:00 | |
| DO3MHA-11 | 2026-09-01 00:15:03 | 49.71270 | 17.95295 | 350° | 16km/h | 22477m | 8.9m/s | -53.8°C | 4.0% | 0hPa | 2.7V | 00:00:00 | 01:27:45 | 08:30:00 | |
| OE5MMP-10 | 2026-09-01 00:15:00 | 49.71254 | 17.95299 | 346° | 18km/h | 22458m | 8.3m/s | -53.8°C | 4.1% | 0hPa | 2.6V | 00:00:00 | 01:27:42 | 08:30:00 | |
| OM5KV | 2026-09-01 00:14:57 | 49.71243 | 17.95303 | 349° | 22km/h | 22447m | 5.9m/s | -53.8°C | 1.0% | 0hPa | 2.6V | 00:00:00 | 00:00:00 | 00:00:00 | |
| OM5KV | 2026-09-01 00:14:54 | 49.71230 | 17.95306 | 341° | 15km/h | 22429m | 5.6m/s | -53.8°C | 1.0% | 0hPa | 2.6V | 00:00:00 | 00:00:00 | 00:00:00 | |
| PETON7-10 | 2026-09-01 00:14:52 | 49.71222 | 17.95318 | 297° | 15km/h | 22410m | 6.2m/s | -53.6°C | 4.1% | 0hPa | 2.6V | 00:00:00 | 00:00:00 | 00:00:00 | |
| PG1ADW-2 | 2026-09-01 00:14:51 | 49.71221 | 17.95323 | 300° | 15km/h | 22402m | 8.0m/s | -53.5°C | 4.0% | 0hPa | 2.6V | 00:00:00 | 00:00:00 | 00:00:00 | |
| OE5MMP-10 | 2026-09-01 00:14:50 | 49.71219 | 17.95328 | 307° | 16km/h | 22396m | 5.5m/s | -53.5°C | 4.0% | 0hPa | 2.6V | 00:00:00 | 01:27:32 | 00:00:00 | |
| DO3MHA-11 | 2026-09-01 00:14:49 | 49.71216 | 17.95332 | 309° | 16km/h | 22390m | 6.2m/s | -53.5°C | 4.0% | 0hPa | 2.6V | 00:00:00 | 01:27:31 | 00:00:00 | |
| OE5DRO-10 | 2026-09-01 00:14:48 | 49.71214 | 17.95337 | 311° | 15km/h | 22383m | 7.0m/s | -53.5°C | 4.0% | 0hPa | 2.6V | 00:00:00 | 00:00:00 | 00:00:00 | |
| OM5KV | 2026-09-01 00:14:47 | 49.71214 | 17.95337 | 311° | 18km/h | 22383m | 7.1m/s | -53.5°C | 1.0% | 0hPa | 2.6V | 00:00:00 | 00:00:00 | 00:00:00 | |
| OE5DXL-15 | 2026-09-01 00:14:46 | 49.71206 | 17.95347 | 330° | 13km/h | 22372m | 6.0m/s | -53.4°C | 4.0% | 0hPa | 2.6V | 00:00:00 | 00:00:00 | 00:00:00 | |
| POL1PZ | 2026-09-01 00:14:45 | 49.71206 | 17.95347 | 331° | 20km/h | 22372m | 6.1m/s | -53.5°C | 1.0% | 0hPa | 2.6V | 00:00:00 | 00:00:00 | 00:00:00 | |
| OM5KV | 2026-09-01 00:14:44 | 49.71202 | 17.95350 | 344° | 18km/h | 22365m | 7.5m/s | -53.4°C | 1.0% | 0hPa | 2.6V | 00:00:00 | 00:00:00 | 00:00:00 | |
| OE3OSB-13 | 2026-09-01 00:14:43 | 49.71194 | 17.95354 | 336° | 15km/h | 22353m | 6.1m/s | -53.4°C | 0.9% | -1.0hPa | 2.6V | 00:00:00 | 00:00:00 | 00:00:00 | |
| OK1SLM-15 | 2026-09-01 00:14:42 | 49.71194 | 17.95353 | 337° | 15km/h | 22353m | 6.1m/s | 0°C | 0% | 0hPa | 2.6V | 00:00:00 | 00:00:00 | 00:00:00 | |
| OE5MMP-10 | 2026-09-01 00:14:40 | 49.71188 | 17.95366 | 286° | 13km/h | 22336m | 4.9m/s | -53.3°C | 3.9% | 0hPa | 2.6V | 00:00:00 | 01:27:22 | 00:00:00 | |
| DO3MHA-11 | 2026-09-01 00:14:39 | 49.71187 | 17.95370 | 283° | 13km/h | 22329m | 8.3m/s | -53.3°C | 4.0% | 0hPa | 2.6V | 00:00:00 | 01:27:21 | 00:00:00 | |
| OM5KV | 2026-09-01 00:14:38 | 49.71187 | 17.95370 | 284° | 11km/h | 22329m | 8.4m/s | -53.3°C | 1.0% | 0hPa | 2.6V | 00:00:00 | 00:00:00 | 00:00:00 | |
| PETON7-10 | 2026-09-01 00:14:37 | 49.71186 | 17.95378 | 271° | 11km/h | 22317m | 5.2m/s | -53.2°C | 3.9% | 0hPa | 2.6V | 00:00:00 | 01:27:19 | 00:00:00 | |
| HA6NAB-11 | 2026-09-01 00:14:33 | 49.71184 | 17.95399 | 303° | 13km/h | 22292m | 7.6m/s | -53.2°C | 1.0% | 0hPa | 2.6V | 00:00:00 | 00:00:00 | 00:00:00 | |
| PG1ADW-2 | 2026-09-01 00:14:31 | 49.71180 | 17.95406 | 310° | 13km/h | 22281m | 5.2m/s | -53.3°C | 3.8% | 0hPa | 2.6V | 00:00:00 | 00:00:00 | 00:00:00 | |
| OE5MMP-10 | 2026-09-01 00:14:30 | 49.71179 | 17.95410 | 294° | 11km/h | 22274m | 8.0m/s | -53.3°C | 3.9% | 0hPa | 2.6V | 00:00:00 | 01:27:12 | 00:00:00 | |
| OE5DRO-10 | 2026-09-01 00:14:29 | 49.71178 | 17.95415 | 275° | 13km/h | 22267m | 5.1m/s | -53.3°C | 3.9% | 0hPa | 2.6V | 00:00:00 | 00:00:00 | 00:00:00 | |
| GYPAP8-17 | 2026-09-01 00:14:28 | 49.71178 | 17.95415 | 275° | 13km/h | 22267m | 5.1m/s | -53.4°C | 0% | 0hPa | 2.6V | 00:00:00 | 00:00:00 | 00:00:00 | |
| OM5KV | 2026-09-01 00:14:27 | 49.71178 | 17.95420 | 270° | 13km/h | 22263m | 4.6m/s | -53.4°C | 1.0% | 0hPa | 2.6V | 00:00:00 | 00:00:00 | 00:00:00 | |
| DB0DAN | 2026-09-01 00:14:25 | 49.71179 | 17.95429 | 239° | 7km/h | 22244m | 5.4m/s | -53.4°C | 0.9% | 0hPa | 2.6V | 00:00:00 | 00:00:00 | 00:00:00 | |
| S52SK | 2026-09-01 00:14:23 | 49.71180 | 17.95432 | 234° | 9km/h | 22238m | 7.4m/s | -53.4°C | 1.0% | 0hPa | 2.7V | 00:00:00 | 00:00:00 | 00:00:00 | |
| HA6NAB-11 | 2026-09-01 00:14:22 | 49.71183 | 17.95439 | 237° | 11km/h | 22225m | 5.7m/s | -53.3°C | 1.0% | 0hPa | 2.7V | 00:00:00 | 00:00:00 | 00:00:00 | |
| OM5KV | 2026-09-01 00:14:21 | 49.71183 | 17.95439 | 237° | 11km/h | 22225m | 5.7m/s | -53.3°C | 1.0% | 0hPa | 2.7V | 00:00:00 | 00:00:00 | 00:00:00 | |
| OE5MMP-10 | 2026-09-01 00:14:20 | 49.71185 | 17.95445 | 253° | 16km/h | 22212m | 5.1m/s | -53.2°C | 3.8% | 0hPa | 2.7V | 00:00:00 | 01:27:02 | 00:00:00 | |
| OM5KV | 2026-09-01 00:14:19 | 49.71185 | 17.95445 | 253° | 7km/h | 22212m | 5.2m/s | -53.2°C | 1.0% | 0hPa | 2.7V | 00:00:00 | 00:00:00 | 00:00:00 | |
| DO3MHA-11 | 2026-09-01 00:14:16 | 49.71191 | 17.95467 | 246° | 18km/h | 22189m | 4.8m/s | -53.3°C | 3.8% | 0hPa | 2.7V | 00:00:00 | 01:26:58 | 00:00:00 | |
| OM5KV | 2026-09-01 00:14:15 | 49.71191 | 17.95467 | 246° | 20km/h | 22189m | 4.9m/s | -53.3°C | 1.0% | 0hPa | 2.7V | 00:00:00 | 00:00:00 | 00:00:00 | |
| OM5KV | 2026-09-01 00:14:13 | 49.71194 | 17.95481 | 259° | 16km/h | 22176m | 6.2m/s | -53.5°C | 1.0% | 0hPa | 2.7V | 00:00:00 | 00:00:00 | 00:00:00 | |
| DB0DAN | 2026-09-01 00:14:10 | 49.71199 | 17.95510 | 252° | 20km/h | 22152m | 5.2m/s | -53.8°C | 0.9% | 0hPa | 2.7V | 00:00:00 | 00:00:00 | 00:00:00 | |
| OE5MMP-10 | 2026-09-01 00:14:10 | 49.71199 | 17.95510 | 252° | 18km/h | 22153m | 5.1m/s | -53.8°C | 4.0% | 0hPa | 2.7V | 00:00:00 | 01:26:52 | 00:00:00 | |
| NBG1-10 | 2026-09-01 00:14:09 | 49.71200 | 17.95518 | 253° | 15km/h | 22146m | 6.9m/s | -53.8°C | 4.1% | 0hPa | 2.7V | 00:00:00 | 01:26:51 | 08:30:00 | |
| OM5KV | 2026-09-01 00:14:08 | 49.71201 | 17.95518 | 254° | 18km/h | 22146m | 6.9m/s | -53.9°C | 1.1% | 0hPa | 2.6V | 00:00:00 | 00:00:00 | 00:00:00 | |
| PETON7-10 | 2026-09-01 00:14:07 | 49.71204 | 17.95529 | 231° | 13km/h | 22135m | 4.2m/s | -53.8°C | 4.0% | 0hPa | 2.6V | 00:00:00 | 00:00:00 | 00:00:00 | |
| DO3MHA-11 | 2026-09-01 00:14:06 | 49.71207 | 17.95534 | 225° | 15km/h | 22130m | 7.4m/s | -53.9°C | 4.0% | 0hPa | 2.6V | 00:00:00 | 01:26:48 | 00:00:00 | |
| POL1PZ | 2026-09-01 00:14:05 | 49.71211 | 17.95540 | 218° | 22km/h | 22122m | 7.0m/s | -54.0°C | 1.1% | 0hPa | 2.6V | 00:00:00 | 00:00:00 | 00:00:00 | |
| OM5KV | 2026-09-01 00:14:04 | 49.71211 | 17.95540 | 218° | 22km/h | 22122m | 7.0m/s | -54.0°C | 1.1% | 0hPa | 2.6V | 00:00:00 | 00:00:00 | 00:00:00 | |
| OM5KV | 2026-09-01 00:14:02 | 49.71221 | 17.95549 | 209° | 20km/h | 22112m | 5.1m/s | -54.1°C | 1.1% | 0hPa | 2.6V | 00:00:00 | 00:00:00 | 00:00:00 | |
| OE5MMP-10 | 2026-09-01 00:14:00 | 49.71230 | 17.95556 | 218° | 11km/h | 22094m | 4.7m/s | -54.1°C | 4.0% | 0hPa | 2.6V | 00:00:00 | 01:26:42 | 00:00:00 | |
| OM5KV | 2026-09-01 00:13:58 | 49.71231 | 17.95558 | 233° | 7km/h | 22088m | 6.9m/s | -54.1°C | 1.0% | 0hPa | 2.6V | 00:00:00 | 00:00:00 | 00:00:00 | |
| OM5KV | 2026-09-01 00:13:57 | 49.71232 | 17.95560 | 237° | 9km/h | 22082m | 5.8m/s | -54.1°C | 1.0% | 0hPa | 2.6V | 00:00:00 | 00:00:00 | 00:00:00 | |
| DB0DAN | 2026-09-01 00:13:55 | 49.71236 | 17.95567 | 182° | 5km/h | 22064m | 6.7m/s | 0°C | 0% | 0hPa | 2.6V | 00:00:00 | 00:00:00 | 00:00:00 | |
| PETON7-10 | 2026-09-01 00:13:52 | 49.71244 | 17.95562 | 161° | 15km/h | 22047m | 6.7m/s | -54.0°C | 4.1% | 0hPa | 2.7V | 00:00:00 | 01:26:34 | 00:00:00 | |
| PG1ADW-2 | 2026-09-01 00:13:51 | 49.71248 | 17.95560 | 164° | 13km/h | 22041m | 5.6m/s | -54.0°C | 4.1% | 0hPa | 2.7V | 00:00:00 | 00:00:00 | 00:00:00 | |
| OE5MMP-10 | 2026-09-01 00:13:50 | 49.71252 | 17.95558 | 158° | 15km/h | 22036m | 4.6m/s | -54.0°C | 4.1% | 0hPa | 2.7V | 00:00:00 | 01:26:32 | 00:00:00 | |
| OM5KV | 2026-09-01 00:13:47 | 49.71260 | 17.95550 | 133° | 18km/h | 22023m | 6.6m/s | -54.0°C | 1.1% | 0hPa | 2.7V | 00:00:00 | 00:00:00 | 00:00:00 | |
| DO3MHA-11 | 2026-09-01 00:13:46 | 49.71265 | 17.95540 | 136° | 13km/h | 22011m | 7.1m/s | -54.0°C | 4.1% | 0hPa | 2.7V | 00:00:00 | 01:26:28 | 00:00:00 | |
| POL1PZ | 2026-09-01 00:13:44 | 49.71268 | 17.95537 | 150° | 13km/h | 22005m | 6.0m/s | -54.0°C | 1.1% | 0hPa | 2.7V | 00:00:00 | 00:00:00 | 00:00:00 | |
| DB0DAN | 2026-09-01 00:13:40 | 49.71278 | 17.95520 | 135° | 13km/h | 21975m | 7.3m/s | 0°C | 0% | 0hPa | 2.7V | 00:00:00 | 00:00:00 | 00:00:00 | |
| OE5MMP-10 | 2026-09-01 00:13:40 | 49.71278 | 17.95520 | 135° | 11km/h | 21975m | 7.3m/s | -53.9°C | 4.0% | 0hPa | 2.6V | 00:00:00 | 01:26:22 | 00:00:00 | |
| PETON7-10 | 2026-09-01 00:13:37 | 49.71285 | 17.95510 | 126° | 15km/h | 21956m | 7.7m/s | -53.9°C | 4.0% | 0hPa | 2.6V | 00:00:00 | 00:00:00 | 00:00:00 | |
| DO3MHA-11 | 2026-09-01 00:13:36 | 49.71286 | 17.95506 | 111° | 13km/h | 21949m | 6.0m/s | -54.0°C | 4.0% | 0hPa | 2.7V | 00:00:00 | 01:26:18 | 00:00:00 | |
| OM5KV | 2026-09-01 00:13:35 | 49.71286 | 17.95506 | 112° | 15km/h | 21949m | 6.1m/s | -54.0°C | 1.0% | 0hPa | 2.7V | 00:00:00 | 00:00:00 | 00:00:00 | |
| OE5DRO-10 | 2026-09-01 00:13:32 | 49.71289 | 17.95490 | 103° | 15km/h | 21925m | 4.9m/s | -54.1°C | 4.1% | 0hPa | 2.7V | 00:00:00 | 00:00:00 | 00:00:00 | |
| HA6NAB-11 | 2026-09-01 00:13:31 | 49.71290 | 17.95486 | 104° | 13km/h | 21919m | 7.7m/s | -54.1°C | 1.0% | 0hPa | 2.7V | 00:00:00 | 00:00:00 | 00:00:00 | |
| OM5KV | 2026-09-01 00:13:30 | 49.71290 | 17.95480 | 104° | 16km/h | 21912m | 6.1m/s | -54.1°C | 1.1% | 0hPa | 2.7V | 00:00:00 | 00:00:00 | 00:00:00 | |
| DB0DAN | 2026-09-01 00:13:25 | 49.71301 | 17.95451 | 121° | 18km/h | 21881m | 7.2m/s | 0°C | 0% | 0hPa | 2.7V | 00:00:00 | 00:00:00 | 00:00:00 | |
| HA6NAB-11 | 2026-09-01 00:13:25 | 49.71301 | 17.95451 | 122° | 18km/h | 21882m | 7.2m/s | -54.0°C | 1.1% | 0hPa | 2.6V | 00:00:00 | 00:00:00 | 00:00:00 | |
| POL1PZ | 2026-09-01 00:13:24 | 49.71301 | 17.95451 | 122° | 18km/h | 21882m | 7.2m/s | -54.0°C | 1.1% | 0hPa | 2.6V | 00:00:00 | 00:00:00 | 00:00:00 | |
| OM5KV | 2026-09-01 00:13:23 | 49.71303 | 17.95444 | 116° | 20km/h | 21875m | 5.5m/s | -54.0°C | 1.1% | 0hPa | 2.6V | 00:00:00 | 00:00:00 | 00:00:00 | |
| PETON7-10 | 2026-09-01 00:13:22 | 49.71306 | 17.95433 | 105° | 13km/h | 21864m | 6.8m/s | -53.9°C | 4.1% | 0hPa | 2.6V | 00:00:00 | 00:00:00 | 00:00:00 | |
| OE5MMP-10 | 2026-09-01 00:13:20 | 49.71307 | 17.95426 | 86° | 15km/h | 21852m | 4.7m/s | -53.8°C | 4.1% | 0hPa | 2.6V | 00:00:00 | 01:26:02 | 00:00:00 | |
| HA6NAB-11 | 2026-09-01 00:13:19 | 49.71306 | 17.95427 | 86° | 7km/h | 21852m | 4.7m/s | -53.9°C | 1.1% | 0hPa | 2.6V | 00:00:00 | 00:00:00 | 00:00:00 | |
| OM5KV | 2026-09-01 00:13:17 | 49.71306 | 17.95419 | 86° | 15km/h | 21840m | 6.3m/s | -53.8°C | 1.0% | 0hPa | 2.6V | 00:00:00 | 00:00:00 | 00:00:00 | |
| DO3MHA-11 | 2026-09-01 00:13:16 | 49.71306 | 17.95407 | 102° | 13km/h | 21829m | 5.9m/s | -53.7°C | 4.0% | 0hPa | 2.6V | 00:00:00 | 01:25:58 | 08:30:00 | |
| HA6NAB-11 | 2026-09-01 00:13:14 | 49.71307 | 17.95401 | 110° | 15km/h | 21822m | 6.9m/s | -53.8°C | 1.1% | 0hPa | 2.6V | 00:00:00 | 00:00:00 | 00:00:00 | |
| OE5DRO-10 | 2026-09-01 00:13:13 | 49.71310 | 17.95391 | 109° | 13km/h | 21810m | 6.7m/s | -53.7°C | 4.1% | 0hPa | 2.6V | 00:00:00 | 00:00:00 | 00:00:00 | |
| OM5KV | 2026-09-01 00:13:12 | 49.71310 | 17.95391 | 109° | 15km/h | 21810m | 6.7m/s | -53.8°C | 1.1% | 0hPa | 2.6V | 00:00:00 | 00:00:00 | 00:00:00 | |
| PG1ADW-2 | 2026-09-01 00:13:11 | 49.71312 | 17.95379 | 106° | 13km/h | 21799m | 4.1m/s | -53.7°C | 4.1% | 0hPa | 2.6V | 00:00:00 | 00:00:00 | 00:00:00 | |
| OE5MMP-10 | 2026-09-01 00:13:10 | 49.71313 | 17.95373 | 109° | 13km/h | 21794m | 6.1m/s | -53.7°C | 4.0% | 0hPa | 2.6V | 00:00:00 | 01:25:52 | 00:00:00 | |
| HA6NAB-11 | 2026-09-01 00:13:08 | 49.71314 | 17.95370 | 112° | 9km/h | 21786m | 7.3m/s | -53.7°C | 1.0% | 0hPa | 2.6V | 00:00:00 | 00:00:00 | 00:00:00 | |
| PETON7-10 | 2026-09-01 00:13:07 | 49.71315 | 17.95364 | 101° | 13km/h | 21775m | 6.3m/s | -53.6°C | 4.0% | 0hPa | 2.6V | 00:00:00 | 01:25:49 | 00:00:00 | |
| DO3MHA-11 | 2026-09-01 00:13:06 | 49.71315 | 17.95360 | 94° | 15km/h | 21768m | 7.3m/s | -53.6°C | 4.0% | 0hPa | 2.6V | 00:00:00 | 01:25:48 | 00:00:00 | |
| OM5KV | 2026-09-01 00:13:03 | 49.71314 | 17.95350 | 67° | 13km/h | 21756m | 6.7m/s | -53.6°C | 1.0% | 0hPa | 2.6V | 00:00:00 | 00:00:00 | 00:00:00 | |
| HA6NAB-11 | 2026-09-01 00:13:02 | 49.71312 | 17.95346 | 50° | 15km/h | 21749m | 7.1m/s | -53.6°C | 1.1% | 0hPa | 2.6V | 00:00:00 | 00:00:00 | 00:00:00 | |
| OE5MMP-10 | 2026-09-01 00:13:00 | 49.71303 | 17.95330 | 59° | 13km/h | 21730m | 6.7m/s | -53.4°C | 4.0% | 0hPa | 2.6V | 00:00:00 | 01:25:42 | 00:00:00 | |
| HA6NAB-11 | 2026-09-01 00:12:57 | 49.71300 | 17.95319 | 68° | 15km/h | 21719m | 6.5m/s | -53.4°C | 1.0% | 0hPa | 2.7V | 00:00:00 | 00:00:00 | 00:00:00 | |
| DO3MHA-11 | 2026-09-01 00:12:56 | 49.71298 | 17.95311 | 79° | 13km/h | 21706m | 5.4m/s | -53.3°C | 3.9% | 0hPa | 2.7V | 00:00:00 | 01:25:38 | 00:00:00 | |
| NBG1-10 | 2026-09-01 00:12:54 | 49.71299 | 17.95304 | 120° | 16km/h | 21693m | 7.2m/s | -53.3°C | 3.9% | 0hPa | 2.7V | 00:00:00 | 01:25:36 | 00:00:00 | |
| PETON7-10 | 2026-09-01 00:12:52 | 49.71302 | 17.95295 | 113° | 16km/h | 21681m | 5.4m/s | -53.3°C | 3.9% | 0hPa | 2.7V | 00:00:00 | 00:00:00 | 08:30:00 | |
| PG1ADW-2 | 2026-09-01 00:12:51 | 49.71303 | 17.95290 | 100° | 16km/h | 21675m | 7.0m/s | -53.3°C | 3.9% | 0hPa | 2.7V | 00:00:00 | 01:25:33 | 00:00:00 | |
| OE5MMP-10 | 2026-09-01 00:12:50 | 49.71303 | 17.95286 | 81° | 20km/h | 21669m | 4.8m/s | -53.2°C | 4.0% | 0hPa | 2.7V | 00:00:00 | 01:25:32 | 00:00:00 | |
| OK1SLM-15 | 2026-09-01 00:12:48 | 49.71303 | 17.95282 | 77° | 13km/h | 21664m | 5.4m/s | 0°C | 0% | 0hPa | 2.7V | 00:00:00 | 00:00:00 | 00:00:00 | |
| DO3MHA-11 | 2026-09-01 00:12:46 | 49.71300 | 17.95262 | 77° | 18km/h | 21644m | 5.5m/s | -53.3°C | 3.9% | 0hPa | 2.7V | 00:00:00 | 01:25:28 | 00:00:00 | |
| HA6NAB-11 | 2026-09-01 00:12:45 | 49.71301 | 17.95262 | 77° | 22km/h | 21644m | 5.6m/s | -53.3°C | 1.0% | 0hPa | 2.7V | 00:00:00 | 00:00:00 | 00:00:00 | |
| OM5KV | 2026-09-01 00:12:43 | 49.71297 | 17.95246 | 67° | 24km/h | 21632m | 5.6m/s | -53.3°C | 1.1% | 0hPa | 2.7V | 00:00:00 | 00:00:00 | 00:00:00 | |
| DB0DAN | 2026-09-01 00:12:40 | 49.71292 | 17.95212 | 91° | 16km/h | 21609m | 5.5m/s | 0°C | 0% | 0hPa | 2.7V | 00:00:00 | 00:00:00 | 00:00:00 | |
| OE5MMP-10 | 2026-09-01 00:12:40 | 49.71292 | 17.95212 | 91° | 13km/h | 21609m | 5.5m/s | -53.2°C | 3.9% | 0hPa | 2.6V | 00:00:00 | 01:25:22 | 00:00:00 | |
| OE3OSB-13 | 2026-09-01 00:12:39 | 49.71292 | 17.95203 | 92° | 5km/h | 21596m | 5.7m/s | -53.2°C | 0.9% | -1.0hPa | 2.6V | 00:00:00 | 00:00:00 | 00:00:00 | |
| PETON7-10 | 2026-09-01 00:12:37 | 49.71292 | 17.95201 | 101° | 13km/h | 21591m | 4.6m/s | -53.2°C | 3.9% | 0hPa | 2.6V | 00:00:00 | 00:00:00 | 00:00:00 | |
| DO3MHA-11 | 2026-09-01 00:12:36 | 49.71292 | 17.95199 | 98° | 15km/h | 21586m | 5.9m/s | -53.2°C | 3.9% | 0hPa | 2.6V | 00:00:00 | 01:25:18 | 00:00:00 | |
| OE5DRO-10 | 2026-09-01 00:12:35 | 49.71293 | 17.95195 | 94° | 16km/h | 21580m | 6.4m/s | -53.2°C | 4.0% | 0hPa | 2.6V | 00:00:00 | 00:00:00 | 00:00:00 | |
| PG1ADW-2 | 2026-09-01 00:12:31 | 49.71290 | 17.95170 | 63° | 16km/h | 21556m | 6.7m/s | -53.2°C | 4.0% | 0hPa | 2.6V | 00:00:00 | 00:00:00 | 08:30:00 | |
| OE5MMP-10 | 2026-09-01 00:12:30 | 49.71288 | 17.95165 | 57° | 13km/h | 21550m | 6.0m/s | -53.2°C | 4.0% | 0hPa | 2.7V | 00:00:00 | 01:25:12 | 00:00:00 | |
| DO3MHA-11 | 2026-09-01 00:12:26 | 49.71283 | 17.95143 | 88° | 16km/h | 21526m | 4.2m/s | -53.2°C | 4.0% | 0hPa | 2.6V | 00:00:00 | 01:25:08 | 00:00:00 | |
| OM5KV | 2026-09-01 00:12:24 | 49.71283 | 17.95138 | 85° | 11km/h | 21520m | 7.5m/s | -53.2°C | 1.0% | 0hPa | 2.6V | 00:00:00 | 00:00:00 | 00:00:00 | |
| POL1PZ | 2026-09-01 00:12:23 | 49.71282 | 17.95131 | 69° | 11km/h | 21508m | 4.6m/s | -53.1°C | 1.0% | 0hPa | 2.6V | 00:00:00 | 00:00:00 | 00:00:00 | |
| PETON7-10 | 2026-09-01 00:12:22 | 49.71281 | 17.95127 | 70° | 18km/h | 21502m | 7.4m/s | -53.1°C | 4.0% | 0hPa | 2.6V | 00:00:00 | 01:25:04 | 00:00:00 | |
| NBG1-10 | 2026-09-01 00:12:21 | 49.71279 | 17.95122 | 70° | 20km/h | 21495m | 6.4m/s | -53.0°C | 4.0% | 0hPa | 2.6V | 00:00:00 | 01:25:03 | 00:00:00 | |
| OE5MMP-10 | 2026-09-01 00:12:20 | 49.71277 | 17.95115 | 63° | 20km/h | 21489m | 5.5m/s | -53.0°C | 4.0% | 0hPa | 2.7V | 00:00:00 | 01:25:02 | 00:00:00 | |
| OM5KV | 2026-09-01 00:12:18 | 49.71275 | 17.95108 | 53° | 22km/h | 21483m | 7.1m/s | -53.0°C | 1.0% | 0hPa | 2.7V | 00:00:00 | 00:00:00 | 00:00:00 | |
| OE5DRO-10 | 2026-09-01 00:12:16 | 49.71263 | 17.95089 | 53° | 20km/h | 21465m | 7.0m/s | -52.9°C | 4.0% | 0hPa | 2.7V | 00:00:00 | 00:00:00 | 00:00:00 | |
| OM5KV | 2026-09-01 00:12:13 | 49.71257 | 17.95073 | 66° | 22km/h | 21453m | 5.1m/s | -52.8°C | 1.0% | 0hPa | 2.7V | 00:00:00 | 00:00:00 | 00:00:00 | |
| OE5MMP-10 | 2026-09-01 00:12:10 | 49.71250 | 17.95049 | 74° | 16km/h | 21431m | 6.1m/s | -52.6°C | 3.9% | 0hPa | 2.7V | 00:00:00 | 01:24:52 | 00:00:00 | |
| OE3OSB-13 | 2026-09-01 00:12:08 | 49.71250 | 17.95030 | 101° | 13km/h | 21413m | 5.8m/s | -52.6°C | 0.9% | -1.0hPa | 2.7V | 00:00:00 | 00:00:00 | 00:00:00 | |
| PETON7-10 | 2026-09-01 00:12:07 | 49.71250 | 17.95030 | 102° | 20km/h | 21413m | 5.7m/s | -52.5°C | 3.9% | 0hPa | 2.7V | 00:00:00 | 00:00:00 | 00:00:00 | |
| DO3MHA-11 | 2026-09-01 00:12:06 | 49.71251 | 17.95025 | 102° | 22km/h | 21407m | 7.0m/s | -52.5°C | 3.8% | 0hPa | 2.6V | 00:00:00 | 01:24:48 | 00:00:00 | |
| OM5KV | 2026-09-01 00:12:02 | 49.71251 | 17.95011 | 86° | 18km/h | 21389m | 7.7m/s | -52.4°C | 1.0% | 0hPa | 2.6V | 00:00:00 | 00:00:00 | 00:00:00 | |
| POL1PZ | 2026-09-01 00:12:01 | 49.71250 | 17.95003 | 78° | 24km/h | 21382m | 5.8m/s | -52.4°C | 1.0% | 0hPa | 2.6V | 00:00:00 | 00:00:00 | 00:00:00 | |
| OE5MMP-10 | 2026-09-01 00:12:00 | 49.71246 | 17.94985 | 64° | 22km/h | 21369m | 7.1m/s | -52.3°C | 3.8% | 0hPa | 2.6V | 00:00:00 | 01:24:42 | 08:30:00 | |
| OM5KV | 2026-09-01 00:11:57 | 49.71237 | 17.94956 | 73° | 29km/h | 21351m | 7.2m/s | -52.3°C | 1.0% | 0hPa | 2.7V | 00:00:00 | 00:00:00 | 00:00:00 | |
| DO3MHA-11 | 2026-09-01 00:11:56 | 49.71235 | 17.94945 | 78° | 16km/h | 21345m | 4.6m/s | -52.2°C | 3.8% | 0hPa | 2.7V | 00:00:00 | 01:24:38 | 00:00:00 | |
| PETON7-10 | 2026-09-01 00:11:52 | 49.71233 | 17.94918 | 103° | 16km/h | 21321m | 6.7m/s | -52.2°C | 3.8% | 0hPa | 2.7V | 00:00:00 | 00:00:00 | 00:00:00 | |
| PG1ADW-2 | 2026-09-01 00:11:51 | 49.71234 | 17.94912 | 107° | 16km/h | 21314m | 6.8m/s | -52.2°C | 3.8% | 0hPa | 2.7V | 00:00:00 | 00:00:00 | 00:00:00 | |
| OE5MMP-10 | 2026-09-01 00:11:50 | 49.71235 | 17.94907 | 108° | 18km/h | 21308m | 5.1m/s | -52.2°C | 3.7% | 0hPa | 2.7V | 00:00:00 | 01:24:32 | 00:00:00 | |
| DO3MHA-11 | 2026-09-01 00:11:46 | 49.71238 | 17.94885 | 95° | 20km/h | 21283m | 7.3m/s | -52.2°C | 3.8% | 0hPa | 2.7V | 00:00:00 | 01:24:28 | 08:30:00 | |
| OK1SLM-15 | 2026-09-01 00:11:45 | 49.71238 | 17.94885 | 95° | 20km/h | 21283m | 7.4m/s | 0°C | 0% | 0hPa | 2.6V | 00:00:00 | 00:00:00 | 00:00:00 | |
| GYPAP8-17 | 2026-09-01 00:11:42 | 49.71238 | 17.94859 | 89° | 22km/h | 21266m | 7.4m/s | -52.2°C | 0% | 0hPa | 2.6V | 00:00:00 | 00:00:00 | 00:00:00 | |
| OM5KV | 2026-09-01 00:11:41 | 49.71238 | 17.94851 | 81° | 18km/h | 21259m | 5.9m/s | -52.2°C | 1.0% | 0hPa | 2.6V | 00:00:00 | 00:00:00 | 00:00:00 | |
| POL1PZ | 2026-09-01 00:11:40 | 49.71236 | 17.94845 | 76° | 18km/h | 21253m | 5.8m/s | -52.2°C | 1.0% | 0hPa | 2.6V | 00:00:00 | 00:00:00 | 00:00:00 | |
| OE5DRO-10 | 2026-09-01 00:11:38 | 49.71232 | 17.94825 | 65° | 18km/h | 21234m | 5.0m/s | -52.0°C | 3.7% | 0hPa | 2.6V | 00:00:00 | 00:00:00 | 00:00:00 | |
| PETON7-10 | 2026-09-01 00:11:37 | 49.71230 | 17.94820 | 57° | 18km/h | 21228m | 7.5m/s | -52.0°C | 3.7% | 0hPa | 2.6V | 00:00:00 | 01:24:19 | 00:00:00 | |
| DO3MHA-11 | 2026-09-01 00:11:36 | 49.71229 | 17.94817 | 50° | 11km/h | 21221m | 5.4m/s | -52.0°C | 3.7% | 0hPa | 2.6V | 00:00:00 | 01:24:18 | 00:00:00 | |
| OM5KV | 2026-09-01 00:11:34 | 49.71227 | 17.94813 | 61° | 13km/h | 21216m | 5.2m/s | -52.0°C | 1.0% | 0hPa | 2.6V | 00:00:00 | 00:00:00 | 00:00:00 | |
| PG1ADW-2 | 2026-09-01 00:11:31 | 49.71221 | 17.94785 | 73° | 18km/h | 21192m | 7.4m/s | -51.9°C | 3.6% | 0hPa | 2.6V | 00:00:00 | 01:24:13 | 00:00:00 | |
| OE5MMP-10 | 2026-09-01 00:11:30 | 49.71219 | 17.94777 | 72° | 18km/h | 21185m | 5.7m/s | -51.9°C | 3.7% | 0hPa | 2.6V | 00:00:00 | 01:24:12 | 00:00:00 | |
| DO3MHA-11 | 2026-09-01 00:11:26 | 49.71214 | 17.94740 | 83° | 16km/h | 21162m | 5.3m/s | -51.9°C | 3.6% | 0hPa | 2.6V | 00:00:00 | 01:24:08 | 00:00:00 | |
| OM5KV | 2026-09-01 00:11:24 | 49.71214 | 17.94733 | 86° | 16km/h | 21156m | 7.2m/s | -51.9°C | 1.0% | 0hPa | 2.6V | 00:00:00 | 00:00:00 | 00:00:00 | |
| PETON7-10 | 2026-09-01 00:11:22 | 49.71214 | 17.94718 | 91° | 16km/h | 21138m | 7.1m/s | -52.0°C | 3.6% | 0hPa | 2.6V | 00:00:00 | 00:00:00 | 00:00:00 | |
| OE5MMP-10 | 2026-09-01 00:11:20 | 49.71212 | 17.94708 | 61° | 18km/h | 21126m | 6.0m/s | -52.0°C | 3.6% | 0hPa | 2.6V | 00:00:00 | 01:24:02 | 00:00:00 | |
| OE5DRO-10 | 2026-09-01 00:11:19 | 49.71210 | 17.94703 | 45° | 16km/h | 21119m | 7.4m/s | -52.0°C | 3.6% | 0hPa | 2.6V | 00:00:00 | 00:00:00 | 00:00:00 | |
| OM5KV | 2026-09-01 00:11:18 | 49.71207 | 17.94699 | 39° | 18km/h | 21113m | 5.1m/s | -52.1°C | 1.0% | 0hPa | 2.6V | 00:00:00 | 00:00:00 | 00:00:00 | |
| DO3MHA-11 | 2026-09-01 00:11:16 | 49.71199 | 17.94688 | 54° | 18km/h | 21100m | 7.3m/s | -52.0°C | 3.6% | 0hPa | 2.6V | 00:00:00 | 01:23:58 | 00:00:00 | |
| PG1ADW-2 | 2026-09-01 00:11:11 | 49.71190 | 17.94652 | 87° | 15km/h | 21070m | 6.5m/s | -52.0°C | 3.5% | 0hPa | 2.6V | 00:00:00 | 00:00:00 | 00:00:00 | |
| OE5MMP-10 | 2026-09-01 00:11:10 | 49.71190 | 17.94645 | 88° | 15km/h | 21063m | 7.1m/s | -52.0°C | 3.6% | 0hPa | 2.6V | 00:00:00 | 01:23:52 | 00:00:00 | |
| S52SK | 2026-09-01 00:11:08 | 49.71189 | 17.94639 | 83° | 15km/h | 21057m | 4.6m/s | -52.1°C | 1.0% | 0hPa | 2.6V | 00:00:00 | 00:00:00 | 00:00:00 | |
| PETON7-10 | 2026-09-01 00:11:07 | 49.71188 | 17.94630 | 48° | 15km/h | 21045m | 6.1m/s | -52.2°C | 3.6% | 0hPa | 2.6V | 00:00:00 | 00:00:00 | 00:00:00 | |
| DO3MHA-11 | 2026-09-01 00:11:06 | 49.71185 | 17.94627 | 31° | 16km/h | 21039m | 4.8m/s | -52.3°C | 3.7% | 0hPa | 2.6V | 00:00:00 | 01:23:48 | 00:00:00 | |
| OM5KV | 2026-09-01 00:11:05 | 49.71185 | 17.94627 | 32° | 13km/h | 21039m | 4.9m/s | -52.3°C | 1.0% | 0hPa | 2.6V | 00:00:00 | 00:00:00 | 00:00:00 | |
| S52SK | 2026-09-01 00:11:03 | 49.71179 | 17.94621 | 31° | 18km/h | 21026m | 6.1m/s | -52.5°C | 1.0% | 0hPa | 2.6V | 00:00:00 | 00:00:00 | 00:00:00 | |
| OE5MMP-10 | 2026-09-01 00:11:00 | 49.71162 | 17.94611 | 22° | 15km/h | 21002m | 5.2m/s | -52.6°C | 3.8% | 0hPa | 2.6V | 00:00:00 | 01:23:42 | 00:00:00 | |
| POL1PZ | 2026-09-01 00:10:59 | 49.71162 | 17.94611 | 23° | 16km/h | 21002m | 5.2m/s | -52.7°C | 1.0% | 0hPa | 2.7V | 00:00:00 | 00:00:00 | 00:00:00 | |
| S52SK | 2026-09-01 00:10:58 | 49.71158 | 17.94608 | 33° | 16km/h | 20996m | 7.5m/s | -52.6°C | 1.0% | 0hPa | 2.7V | 00:00:00 | 00:00:00 | 00:00:00 | |
| NBG1-10 | 2026-09-01 00:10:57 | 49.71151 | 17.94600 | 40° | 16km/h | 20985m | 4.9m/s | -52.7°C | 3.8% | 0hPa | 2.7V | 00:00:00 | 01:23:39 | 00:00:00 | |
| DO3MHA-11 | 2026-09-01 00:10:56 | 49.71149 | 17.94597 | 30° | 16km/h | 20978m | 7.2m/s | -52.8°C | 3.8% | 0hPa | 2.7V | 00:00:00 | 01:23:38 | 00:00:00 | |
| OM5KV | 2026-09-01 00:10:54 | 49.71145 | 17.94595 | 15° | 11km/h | 20972m | 5.4m/s | -52.9°C | 1.0% | 0hPa | 2.7V | 00:00:00 | 00:00:00 | 00:00:00 | |
| PETON7-10 | 2026-09-01 00:10:52 | 49.71135 | 17.94591 | 16° | 16km/h | 20954m | 5.4m/s | -52.9°C | 3.8% | 0hPa | 2.7V | 00:00:00 | 01:23:34 | 00:00:00 | |
| PG1ADW-2 | 2026-09-01 00:10:51 | 49.71131 | 17.94590 | 8° | 18km/h | 20948m | 5.7m/s | -52.9°C | 3.8% | 0hPa | 2.7V | 00:00:00 | 00:00:00 | 00:00:00 | |
| OE5MMP-10 | 2026-09-01 00:10:50 | 49.71126 | 17.94589 | 359° | 16km/h | 20942m | 6.8m/s | -52.9°C | 3.8% | 0hPa | 2.7V | 00:00:00 | 01:23:32 | 00:00:00 | |
| OM5KV | 2026-09-01 00:10:49 | 49.71126 | 17.94589 | 360° | 20km/h | 20942m | 6.9m/s | -52.9°C | 1.0% | 0hPa | 2.7V | 00:00:00 | 00:00:00 | 00:00:00 | |
| OM5KV | 2026-09-01 00:10:47 | 49.71116 | 17.94589 | 7° | 18km/h | 20931m | 5.4m/s | -52.9°C | 1.0% | 0hPa | 2.7V | 00:00:00 | 00:00:00 | 00:00:00 | |
| DO3MHA-11 | 2026-09-01 00:10:46 | 49.71107 | 17.94585 | 27° | 15km/h | 20919m | 4.4m/s | -52.9°C | 3.8% | 0hPa | 2.7V | 00:00:00 | 01:23:28 | 00:00:00 | |
| OE5DRO-10 | 2026-09-01 00:10:41 | 49.71093 | 17.94568 | 67° | 18km/h | 20890m | 6.3m/s | -52.9°C | 3.9% | 0hPa | 2.6V | 00:00:00 | 00:00:00 | 00:00:00 | |
| OE5MMP-10 | 2026-09-01 00:10:40 | 49.71092 | 17.94562 | 70° | 20km/h | 20885m | 4.6m/s | -52.9°C | 3.9% | 0hPa | 2.6V | 00:00:00 | 01:23:22 | 00:00:00 | |
| OK1SLM-15 | 2026-09-01 00:10:39 | 49.71091 | 17.94562 | 70° | 16km/h | 20885m | 4.7m/s | 0°C | 0% | 0hPa | 2.6V | 00:00:00 | 00:00:00 | 00:00:00 | |
| OM5KV | 2026-09-01 00:10:38 | 49.71090 | 17.94556 | 62° | 15km/h | 20879m | 6.0m/s | -52.9°C | 1.0% | 0hPa | 2.6V | 00:00:00 | 00:00:00 | 00:00:00 | |
| PETON7-10 | 2026-09-01 00:10:37 | 49.71084 | 17.94548 | 32° | 20km/h | 20867m | 3.7m/s | -52.9°C | 3.9% | 0hPa | 2.6V | 00:00:00 | 00:00:00 | 08:30:00 | |
| DO3MHA-11 | 2026-09-01 00:10:36 | 49.71080 | 17.94544 | 34° | 20km/h | 20862m | 6.1m/s | -52.9°C | 3.9% | 0hPa | 2.7V | 00:00:00 | 01:23:18 | 00:00:00 | |
| OK1SLM-15 | 2026-09-01 00:10:34 | 49.71076 | 17.94539 | 41° | 22km/h | 20855m | 7.9m/s | 0°C | 0% | 0hPa | 2.7V | 00:00:00 | 00:00:00 | 00:00:00 | |
| GYPAP8-17 | 2026-09-01 00:10:32 | 49.71067 | 17.94527 | 41° | 24km/h | 20843m | 7.1m/s | -52.9°C | 0% | 0hPa | 2.7V | 00:00:00 | 00:00:00 | 00:00:00 | |
| PG1ADW-2 | 2026-09-01 00:10:31 | 49.71059 | 17.94516 | 47° | 22km/h | 20831m | 5.3m/s | -52.9°C | 3.9% | 0hPa | 2.7V | 00:00:00 | 00:00:00 | 00:00:00 | |
| OE5MMP-10 | 2026-09-01 00:10:30 | 49.71056 | 17.94509 | 58° | 20km/h | 20825m | 7.4m/s | -52.9°C | 3.9% | 0hPa | 2.7V | 00:00:00 | 01:23:12 | 08:30:00 | |
| OK1SLM-15 | 2026-09-01 00:10:28 | 49.71054 | 17.94502 | 72° | 18km/h | 20818m | 5.0m/s | 0°C | 0% | 0hPa | 2.6V | 00:00:00 | 00:00:00 | 00:00:00 | |
| DO3MHA-11 | 2026-09-01 00:10:26 | 49.71050 | 17.94486 | 62° | 26km/h | 20801m | 5.2m/s | -53.0°C | 3.9% | 0hPa | 2.6V | 00:00:00 | 01:23:08 | 00:00:00 | |
| NBG1-10 | 2026-09-01 00:10:23 | 49.71042 | 17.94468 | 49° | 24km/h | 20785m | 4.9m/s | -52.9°C | 3.9% | 0hPa | 2.6V | 00:00:00 | 01:23:05 | 00:00:00 | |
| HA6NAB-11 | 2026-09-01 00:10:22 | 49.71038 | 17.94461 | 41° | 27km/h | 20779m | 6.0m/s | -52.9°C | 1.0% | 0hPa | 2.6V | 00:00:00 | 00:00:00 | 00:00:00 | |
| OE5MMP-10 | 2026-09-01 00:10:20 | 49.71025 | 17.94449 | 32° | 26km/h | 20767m | 4.3m/s | -52.8°C | 3.8% | 0hPa | 2.6V | 00:00:00 | 01:23:02 | 00:00:00 | |
| HA6NAB-11 | 2026-09-01 00:10:17 | 49.71008 | 17.94426 | 49° | 27km/h | 20750m | 4.7m/s | -52.8°C | 1.0% | 0hPa | 2.6V | 00:00:00 | 00:00:00 | 00:00:00 | |
| DO3MHA-11 | 2026-09-01 00:10:16 | 49.71003 | 17.94419 | 48° | 26km/h | 20744m | 6.5m/s | -52.7°C | 3.8% | 0hPa | 2.6V | 00:00:00 | 01:22:58 | 08:30:00 | |
| OM5KV | 2026-09-01 00:10:15 | 49.71004 | 17.94419 | 48° | 24km/h | 20744m | 6.6m/s | -52.7°C | 1.0% | 0hPa | 2.7V | 00:00:00 | 00:00:00 | 00:00:00 | |
| OM5KV | 2026-09-01 00:10:13 | 49.70995 | 17.94407 | 42° | 20km/h | 20732m | 5.1m/s | -52.7°C | 1.0% | 0hPa | 2.7V | 00:00:00 | 00:00:00 | 00:00:00 | |
| PG1ADW-2 | 2026-09-01 00:10:11 | 49.70981 | 17.94390 | 30° | 24km/h | 20714m | 4.5m/s | -52.6°C | 3.8% | 0hPa | 2.7V | 00:00:00 | 01:22:53 | 00:00:00 | |
| OE5MMP-10 | 2026-09-01 00:10:10 | 49.70975 | 17.94386 | 22° | 26km/h | 20708m | 7.1m/s | -52.6°C | 3.8% | 0hPa | 2.7V | 00:00:00 | 01:22:52 | 00:00:00 | |
| OM5KV | 2026-09-01 00:10:09 | 49.70975 | 17.94386 | 23° | 27km/h | 20708m | 7.1m/s | -52.6°C | 1.0% | 0hPa | 2.7V | 00:00:00 | 00:00:00 | 00:00:00 | |
| PETON7-10 | 2026-09-01 00:10:07 | 49.70954 | 17.94377 | 17° | 22km/h | 20690m | 6.4m/s | -52.5°C | 3.8% | 0hPa | 2.7V | 00:00:00 | 01:22:49 | 00:00:00 | |
| DO3MHA-11 | 2026-09-01 00:10:06 | 49.70947 | 17.94374 | 23° | 22km/h | 20684m | 5.1m/s | -52.5°C | 3.8% | 0hPa | 2.7V | 00:00:00 | 01:22:48 | 00:00:00 | |
| OM5KV | 2026-09-01 00:10:04 | 49.70941 | 17.94370 | 25° | 26km/h | 20679m | 5.0m/s | -52.5°C | 1.0% | 0hPa | 2.7V | 00:00:00 | 00:00:00 | 00:00:00 | |
| OE5DRO-10 | 2026-09-01 00:10:03 | 49.70930 | 17.94363 | 19° | 20km/h | 20667m | 5.5m/s | -52.3°C | 3.8% | 0hPa | 2.7V | 00:00:00 | 00:00:00 | 00:00:00 | |
| OE5MMP-10 | 2026-09-01 00:10:00 | 49.70917 | 17.94352 | 42° | 20km/h | 20651m | 6.0m/s | -52.2°C | 3.7% | 0hPa | 2.6V | 00:00:00 | 01:22:42 | 00:00:00 | |
| OM5KV | 2026-09-01 00:09:58 | 49.70909 | 17.94341 | 36° | 22km/h | 20640m | 5.7m/s | -52.2°C | 1.0% | 0hPa | 2.7V | 00:00:00 | 00:00:00 | 00:00:00 | |
| POL1PZ | 2026-09-01 00:09:57 | 49.70904 | 17.94337 | 25° | 22km/h | 20634m | 6.0m/s | -52.2°C | 1.0% | 0hPa | 2.7V | 00:00:00 | 00:00:00 | 00:00:00 | |
| DO3MHA-11 | 2026-09-01 00:09:54 | 49.70888 | 17.94330 | 17° | 20km/h | 20617m | 7.0m/s | -52.0°C | 3.6% | 0hPa | 2.7V | 00:00:00 | 01:22:36 | 00:00:00 | |
| OM5KV | 2026-09-01 00:09:53 | 49.70884 | 17.94328 | 20° | 16km/h | 20611m | 4.5m/s | -52.1°C | 1.0% | 0hPa | 2.7V | 00:00:00 | 00:00:00 | 00:00:00 | |
| PETON7-10 | 2026-09-01 00:09:52 | 49.70880 | 17.94327 | 14° | 16km/h | 20608m | 3.8m/s | -52.0°C | 3.6% | 0hPa | 2.7V | 00:00:00 | 00:00:00 | 00:00:00 | |
| PG1ADW-2 | 2026-09-01 00:09:51 | 49.70876 | 17.94326 | 8° | 15km/h | 20602m | 6.6m/s | -52.0°C | 3.6% | 0hPa | 2.6V | 00:00:00 | 00:00:00 | 00:00:00 | |
| OE5MMP-10 | 2026-09-01 00:09:50 | 49.70872 | 17.94325 | 5° | 18km/h | 20596m | 5.2m/s | -52.0°C | 3.6% | 0hPa | 2.6V | 00:00:00 | 01:22:32 | 00:00:00 | |
| HA6NAB-11 | 2026-09-01 00:09:47 | 49.70864 | 17.94321 | 29° | 16km/h | 20585m | 6.5m/s | -52.1°C | 1.0% | 0hPa | 2.6V | 00:00:00 | 00:00:00 | 00:00:00 | |
| OE5DXL-15 | 2026-09-01 00:09:46 | 49.70856 | 17.94313 | 38° | 9km/h | 20575m | 4.7m/s | -52.0°C | 3.5% | 0hPa | 2.6V | 00:00:00 | 00:00:00 | 00:00:00 | |
| DO3MHA-11 | 2026-09-01 00:09:44 | 49.70847 | 17.94304 | 27° | 9km/h | 20564m | 4.9m/s | -52.0°C | 3.5% | 0hPa | 2.6V | 00:00:00 | 01:22:26 | 00:00:00 | |
| OM5KV | 2026-09-01 00:09:41 | 49.70839 | 17.94297 | 34° | 16km/h | 20554m | 5.6m/s | -52.1°C | 1.0% | 0hPa | 2.6V | 00:00:00 | 00:00:00 | 00:00:00 | |
| OE5MMP-10 | 2026-09-01 00:09:40 | 49.70833 | 17.94292 | 24° | 9km/h | 20544m | 4.7m/s | -52.3°C | 3.6% | 0hPa | 2.6V | 00:00:00 | 01:22:22 | 00:00:00 | |
| POL1PZ | 2026-09-01 00:09:37 | 49.70823 | 17.94289 | 360° | 11km/h | 20527m | 5.4m/s | -53.0°C | 1.0% | 0hPa | 2.6V | 00:00:00 | 00:00:00 | 00:00:00 | |
| OM5KV | 2026-09-01 00:09:34 | 49.70819 | 17.94290 | 352° | 4km/h | 20515m | 4.5m/s | -53.0°C | 1.0% | 0hPa | 2.6V | 00:00:00 | 00:00:00 | 00:00:00 | |
| OE3OSB-13 | 2026-09-01 00:09:32 | 49.70815 | 17.94291 | 336° | 7km/h | 20499m | 3.2m/s | -53.1°C | 0.9% | -1.0hPa | 2.6V | 00:00:00 | 00:00:00 | 00:00:00 | |
| DO3MHA-11 | 2026-09-01 00:09:31 | 49.70814 | 17.94292 | 324° | 5km/h | 20494m | 6.3m/s | -53.0°C | 3.8% | 0hPa | 2.6V | 00:00:00 | 01:22:13 | 00:00:00 | |
| GYPAP8-17 | 2026-09-01 00:09:30 | 49.70813 | 17.94294 | 296° | 5km/h | 20488m | 7.4m/s | -53.2°C | 0% | 0hPa | 2.6V | 00:00:00 | 00:00:00 | 00:00:00 | |
| OM5KV | 2026-09-01 00:09:28 | 49.70812 | 17.94296 | 291° | 5km/h | 20482m | 3.8m/s | -53.2°C | 1.1% | 0hPa | 2.6V | 00:00:00 | 00:00:00 | 00:00:00 | |
| OE5DRO-10 | 2026-09-01 00:09:25 | 49.70808 | 17.94300 | 19° | 9km/h | 20459m | 7.0m/s | -53.1°C | 3.9% | 0hPa | 2.6V | 00:00:00 | 00:00:00 | 00:00:00 | |
| OM5KV | 2026-09-01 00:09:24 | 49.70808 | 17.94300 | 20° | 2km/h | 20459m | 7.0m/s | -53.2°C | 1.1% | 0hPa | 2.6V | 00:00:00 | 00:00:00 | 00:00:00 | |
| PETON7-10 | 2026-09-01 00:09:22 | 49.70808 | 17.94295 | 78° | 11km/h | 20443m | 6.6m/s | -53.1°C | 3.9% | 0hPa | 2.6V | 00:00:00 | 01:22:04 | 00:00:00 | |
| DO3MHA-11 | 2026-09-01 00:09:21 | 49.70807 | 17.94292 | 68° | 11km/h | 20437m | 5.1m/s | -53.1°C | 3.9% | 0hPa | 2.6V | 00:00:00 | 01:22:03 | 00:00:00 | |
| OE5MMP-10 | 2026-09-01 00:09:20 | 49.70806 | 17.94288 | 65° | 11km/h | 20431m | 5.2m/s | -53.0°C | 3.8% | 0hPa | 2.6V | 00:00:00 | 01:22:02 | 00:00:00 | |
| S52SK | 2026-09-01 00:09:18 | 49.70805 | 17.94286 | 62° | 7km/h | 20426m | 5.8m/s | -53.0°C | 1.0% | 0hPa | 2.6V | 00:00:00 | 00:00:00 | 00:00:00 | |
| OM5KV | 2026-09-01 00:09:17 | 49.70803 | 17.94283 | 10° | 9km/h | 20416m | 3.7m/s | -53.0°C | 1.0% | 0hPa | 2.6V | 00:00:00 | 00:00:00 | 00:00:00 | |
| OE5DXL-15 | 2026-09-01 00:09:16 | 49.70800 | 17.94283 | 8° | 16km/h | 20411m | 6.4m/s | -52.9°C | 3.8% | 0hPa | 2.6V | 00:00:00 | 00:00:00 | 00:00:00 | |
| POL1PZ | 2026-09-01 00:09:15 | 49.70800 | 17.94283 | 9° | 13km/h | 20411m | 6.4m/s | -53.0°C | 1.0% | 0hPa | 2.6V | 00:00:00 | 00:00:00 | 00:00:00 | |
| OM5KV | 2026-09-01 00:09:13 | 49.70793 | 17.94281 | 11° | 16km/h | 20401m | 4.2m/s | -53.0°C | 1.0% | 0hPa | 2.6V | 00:00:00 | 00:00:00 | 00:00:00 | |
| S52SK | 2026-09-01 00:09:12 | 49.70789 | 17.94280 | 12° | 13km/h | 20395m | 6.3m/s | -53.0°C | 1.0% | 0hPa | 2.6V | 00:00:00 | 00:00:00 | 00:00:00 | |
| DO3MHA-11 | 2026-09-01 00:09:11 | 49.70785 | 17.94277 | 56° | 15km/h | 20384m | 4.7m/s | -53.0°C | 3.7% | 0hPa | 2.6V | 00:00:00 | 01:21:53 | 00:00:00 | |
| OE5MMP-10 | 2026-09-01 00:09:10 | 49.70784 | 17.94273 | 69° | 15km/h | 20379m | 6.3m/s | -53.0°C | 3.7% | 0hPa | 2.7V | 00:00:00 | 01:21:52 | 00:00:00 | |
| GYPAP8-17 | 2026-09-01 00:09:09 | 49.70784 | 17.94273 | 69° | 11km/h | 20379m | 6.4m/s | -53.0°C | 0% | 0hPa | 2.7V | 00:00:00 | 00:00:00 | 00:00:00 | |
| OM5KV | 2026-09-01 00:09:08 | 49.70782 | 17.94263 | 82° | 15km/h | 20369m | 4.4m/s | -53.1°C | 1.0% | 0hPa | 2.7V | 00:00:00 | 00:00:00 | 00:00:00 | |
| PETON7-10 | 2026-09-01 00:09:07 | 49.70782 | 17.94257 | 87° | 16km/h | 20363m | 6.4m/s | -53.1°C | 3.8% | 0hPa | 2.7V | 00:00:00 | 00:00:00 | 00:00:00 | |
| OE5DRO-10 | 2026-09-01 00:09:06 | 49.70781 | 17.94252 | 80° | 18km/h | 20358m | 4.6m/s | -53.1°C | 3.8% | 0hPa | 2.6V | 00:00:00 | 00:00:00 | 00:00:00 | |
| OM5KV | 2026-09-01 00:09:03 | 49.70776 | 17.94237 | 50° | 18km/h | 20343m | 4.8m/s | -53.2°C | 1.1% | 0hPa | 2.6V | 00:00:00 | 00:00:00 | 00:00:00 | |
| DO3MHA-11 | 2026-09-01 00:09:01 | 49.70770 | 17.94227 | 48° | 16km/h | 20334m | 5.8m/s | -53.3°C | 3.8% | 0hPa | 2.6V | 00:00:00 | 01:21:43 | 00:00:00 | |
| OE5MMP-10 | 2026-09-01 00:09:00 | 49.70767 | 17.94223 | 53° | 18km/h | 20328m | 5.4m/s | -53.4°C | 3.9% | 0hPa | 2.6V | 00:00:00 | 01:21:42 | 08:30:00 | |
| OM5KV | 2026-09-01 00:08:58 | 49.70766 | 17.94219 | 61° | 11km/h | 20323m | 4.3m/s | -53.5°C | 1.1% | 0hPa | 2.6V | 00:00:00 | 00:00:00 | 00:00:00 | |
| OM5KV | 2026-09-01 00:08:56 | 49.70762 | 17.94209 | 61° | 16km/h | 20313m | 5.9m/s | -53.6°C | 1.0% | 0hPa | 2.6V | 00:00:00 | 00:00:00 | 00:00:00 | |
| POL1PZ | 2026-09-01 00:08:55 | 49.70757 | 17.94197 | 53° | 22km/h | 20303m | 4.1m/s | -53.6°C | 1.1% | 0hPa | 2.6V | 00:00:00 | 00:00:00 | 00:00:00 | |
| PETON7-10 | 2026-09-01 00:08:52 | 49.70747 | 17.94179 | 51° | 29km/h | 20288m | 3.7m/s | -53.7°C | 3.9% | 0hPa | 2.6V | 00:00:00 | 00:00:00 | 00:00:00 | |
| DO3MHA-11 | 2026-09-01 00:08:51 | 49.70743 | 17.94171 | 56° | 29km/h | 20283m | 6.6m/s | -53.8°C | 3.9% | 0hPa | 2.6V | 00:00:00 | 01:21:33 | 00:00:00 | |
| OE5MMP-10 | 2026-09-01 00:08:50 | 49.70740 | 17.94163 | 62° | 29km/h | 20277m | 5.4m/s | -53.9°C | 3.9% | 0hPa | 2.6V | 00:00:00 | 01:21:32 | 00:00:00 | |
| OE5DRO-10 | 2026-09-01 00:08:47 | 49.70730 | 17.94135 | 58° | 29km/h | 20261m | 5.1m/s | -54.1°C | 4.0% | 0hPa | 2.6V | 00:00:00 | 00:00:00 | 00:00:00 | |
| OE5DXL-15 | 2026-09-01 00:08:46 | 49.70727 | 17.94127 | 53° | 29km/h | 20256m | 4.2m/s | -54.1°C | 4.1% | 0hPa | 2.6V | 00:00:00 | 00:00:00 | 08:30:00 | |
| OM5KV | 2026-09-01 00:08:43 | 49.70717 | 17.94110 | 44° | 33km/h | 20245m | 5.1m/s | -54.1°C | 1.1% | 0hPa | 2.6V | 00:00:00 | 00:00:00 | 00:00:00 | |
| DO3MHA-11 | 2026-09-01 00:08:41 | 49.70696 | 17.94090 | 23° | 31km/h | 20227m | 4.7m/s | -54.0°C | 4.0% | 0hPa | 2.6V | 00:00:00 | 01:21:23 | 08:30:00 | |
| OE5MMP-10 | 2026-09-01 00:08:40 | 49.70688 | 17.94085 | 23° | 29km/h | 20222m | 5.6m/s | -54.1°C | 4.0% | 0hPa | 2.6V | 00:00:00 | 01:21:22 | 00:00:00 | |
| HA6NAB-11 | 2026-09-01 00:08:39 | 49.70688 | 17.94085 | 24° | 33km/h | 20222m | 5.6m/s | -54.1°C | 1.1% | 0hPa | 2.6V | 00:00:00 | 00:00:00 | 00:00:00 | |
| OM5KV | 2026-09-01 00:08:38 | 49.70673 | 17.94073 | 34° | 33km/h | 20210m | 4.6m/s | -54.2°C | 1.1% | 0hPa | 2.6V | 00:00:00 | 00:00:00 | 00:00:00 | |
| PETON7-10 | 2026-09-01 00:08:37 | 49.70666 | 17.94066 | 35° | 29km/h | 20205m | 5.8m/s | -54.1°C | 4.0% | 0hPa | 2.6V | 00:00:00 | 01:21:19 | 00:00:00 | |
| POL1PZ | 2026-09-01 00:08:35 | 49.70655 | 17.94053 | 38° | 27km/h | 20193m | 4.2m/s | -54.2°C | 1.1% | 0hPa | 2.6V | 00:00:00 | 00:00:00 | 00:00:00 | |
| HA6NAB-11 | 2026-09-01 00:08:32 | 49.70644 | 17.94039 | 45° | 29km/h | 20181m | 6.0m/s | -54.4°C | 1.1% | 0hPa | 2.6V | 00:00:00 | 00:00:00 | 00:00:00 | |
| DO3MHA-11 | 2026-09-01 00:08:31 | 49.70633 | 17.94023 | 41° | 20km/h | 20170m | 6.9m/s | -54.5°C | 4.2% | 0hPa | 2.6V | 00:00:00 | 01:21:13 | 00:00:00 | |
| OE5MMP-10 | 2026-09-01 00:08:30 | 49.70628 | 17.94017 | 36° | 29km/h | 20164m | 5.0m/s | -54.5°C | 4.2% | 0hPa | 2.6V | 00:00:00 | 01:21:12 | 00:00:00 | |
| OM5KV | 2026-09-01 00:08:25 | 49.70603 | 17.93992 | 27° | 31km/h | 20143m | 5.7m/s | -54.5°C | 1.1% | 0hPa | 2.6V | 00:00:00 | 00:00:00 | 00:00:00 | |
| HA6NAB-11 | 2026-09-01 00:08:22 | 49.70576 | 17.93978 | 22° | 29km/h | 20120m | 5.9m/s | -54.4°C | 1.2% | 0hPa | 2.6V | 00:00:00 | 00:00:00 | 00:00:00 | |
| OE5MMP-10 | 2026-09-01 00:08:20 | 49.70563 | 17.93970 | 19° | 22km/h | 20110m | 5.3m/s | -54.3°C | 4.1% | 0hPa | 2.6V | 00:00:00 | 01:21:02 | 00:00:00 | |
| HA6NAB-11 | 2026-09-01 00:08:16 | 49.70542 | 17.93960 | 30° | 20km/h | 20089m | 6.0m/s | -54.3°C | 1.1% | 0hPa | 2.6V | 00:00:00 | 00:00:00 | 00:00:00 | |
| OM5KV | 2026-09-01 00:08:15 | 49.70538 | 17.93955 | 35° | 24km/h | 20084m | 4.3m/s | -54.3°C | 1.1% | 0hPa | 2.6V | 00:00:00 | 00:00:00 | 00:00:00 | |
| POL1PZ | 2026-09-01 00:08:14 | 49.70532 | 17.93950 | 32° | 24km/h | 20079m | 4.6m/s | -54.3°C | 1.1% | 0hPa | 2.6V | 00:00:00 | 00:00:00 | 00:00:00 | |
| PG1ADW-2 | 2026-09-01 00:08:11 | 49.70518 | 17.93939 | 26° | 22km/h | 20063m | 4.3m/s | -54.2°C | 4.0% | 0hPa | 2.6V | 00:00:00 | 00:00:00 | 00:00:00 | |
| OE5MMP-10 | 2026-09-01 00:08:10 | 49.70513 | 17.93935 | 33° | 18km/h | 20057m | 7.1m/s | -54.2°C | 4.0% | 0hPa | 2.6V | 00:00:00 | 01:20:52 | 00:00:00 | |
| OE5DRO-10 | 2026-09-01 00:08:09 | 49.70509 | 17.93931 | 41° | 22km/h | 20050m | 5.4m/s | -54.3°C | 4.0% | 0hPa | 2.6V | 00:00:00 | 00:00:00 | 08:30:00 | |
| PETON7-10 | 2026-09-01 00:08:07 | 49.70502 | 17.93922 | 37° | 22km/h | 20038m | 7.0m/s | -54.5°C | 4.1% | 0hPa | 2.6V | 00:00:00 | 00:00:00 | 00:00:00 | |
| OM5KV | 2026-09-01 00:08:05 | 49.70499 | 17.93919 | 38° | 13km/h | 20033m | 4.0m/s | -54.7°C | 1.1% | 0hPa | 2.6V | 00:00:00 | 00:00:00 | 00:00:00 | |
| DO3MHA-11 | 2026-09-01 00:08:04 | 49.70494 | 17.93910 | 57° | 22km/h | 20022m | 7.0m/s | -54.7°C | 4.2% | 0hPa | 2.6V | 00:00:00 | 01:20:46 | 00:00:00 | |
| OM5KV | 2026-09-01 00:08:03 | 49.70494 | 17.93910 | 57° | 16km/h | 20022m | 7.1m/s | -54.7°C | 1.1% | 0hPa | 2.6V | 00:00:00 | 00:00:00 | 00:00:00 | |
| OE3OSB-13 | 2026-09-01 00:07:59 | 49.70474 | 17.93871 | 53° | 27km/h | 19987m | 5.1m/s | -54.5°C | 1.0% | -1.0hPa | 2.6V | 00:00:00 | 00:00:00 | 00:00:00 | |
| GYPAP8-17 | 2026-09-01 00:07:57 | 49.70474 | 17.93871 | 54° | 27km/h | 19988m | 5.1m/s | 0°C | 0% | 0hPa | 2.6V | 00:00:00 | 00:00:00 | 00:00:00 | |
| DO3MHA-11 | 2026-09-01 00:07:54 | 49.70459 | 17.93839 | 58° | 24km/h | 19966m | 4.8m/s | -54.2°C | 4.2% | 0hPa | 2.6V | 00:00:00 | 01:20:36 | 00:00:00 | |
| OM5KV | 2026-09-01 00:07:53 | 49.70458 | 17.93839 | 58° | 22km/h | 19966m | 4.8m/s | -54.3°C | 1.1% | 0hPa | 2.7V | 00:00:00 | 00:00:00 | 00:00:00 | |
| PETON7-10 | 2026-09-01 00:07:52 | 49.70453 | 17.93823 | 62° | 22km/h | 19954m | 4.9m/s | -54.1°C | 4.2% | 0hPa | 2.7V | 00:00:00 | 01:20:34 | 00:00:00 | |
| PG1ADW-2 | 2026-09-01 00:07:51 | 49.70450 | 17.93815 | 57° | 24km/h | 19949m | 5.1m/s | -54.1°C | 4.1% | 0hPa | 2.7V | 00:00:00 | 00:00:00 | 00:00:00 | |
| OE5MMP-10 | 2026-09-01 00:07:50 | 49.70447 | 17.93808 | 47° | 22km/h | 19943m | 6.6m/s | -54.1°C | 4.1% | 0hPa | 2.7V | 00:00:00 | 01:20:32 | 00:00:00 | |
| OM5KV | 2026-09-01 00:07:47 | 49.70438 | 17.93798 | 34° | 24km/h | 19932m | 4.9m/s | -54.0°C | 1.1% | 0hPa | 2.7V | 00:00:00 | 00:00:00 | 00:00:00 | |
| OE5DXL-15 | 2026-09-01 00:07:46 | 49.70428 | 17.93786 | 47° | 24km/h | 19920m | 5.9m/s | -54.0°C | 4.0% | 0hPa | 2.7V | 00:00:00 | 00:00:00 | 00:00:00 | |
| OM5KV | 2026-09-01 00:07:45 | 49.70428 | 17.93786 | 47° | 26km/h | 19920m | 6.0m/s | -54.0°C | 1.1% | 0hPa | 2.7V | 00:00:00 | 00:00:00 | 00:00:00 | |
| DO3MHA-11 | 2026-09-01 00:07:44 | 49.70420 | 17.93770 | 55° | 22km/h | 19909m | 5.9m/s | -54.1°C | 4.1% | 0hPa | 2.7V | 00:00:00 | 01:20:26 | 00:00:00 | |
| OM5KV | 2026-09-01 00:07:41 | 49.70411 | 17.93751 | 53° | 18km/h | 19892m | 4.4m/s | -54.1°C | 1.1% | 0hPa | 2.7V | 00:00:00 | 00:00:00 | 00:00:00 | |
| OE5MMP-10 | 2026-09-01 00:07:40 | 49.70408 | 17.93745 | 55° | 26km/h | 19886m | 6.8m/s | -54.0°C | 4.1% | 0hPa | 2.7V | 00:00:00 | 01:20:22 | 00:00:00 | |
| NBG1-10 | 2026-09-01 00:07:38 | 49.70401 | 17.93732 | 44° | 26km/h | 19875m | 4.4m/s | 0°C | 0% | 0hPa | 2.7V | 00:00:00 | 01:20:20 | 00:00:00 | |
| PETON7-10 | 2026-09-01 00:07:37 | 49.70396 | 17.93726 | 35° | 26km/h | 19869m | 7.3m/s | -53.9°C | 4.1% | 0hPa | 2.7V | 00:00:00 | 00:00:00 | 00:00:00 | |
| OM5KV | 2026-09-01 00:07:35 | 49.70391 | 17.93721 | 25° | 26km/h | 19863m | 6.2m/s | -54.0°C | 1.1% | 0hPa | 2.6V | 00:00:00 | 00:00:00 | 00:00:00 | |
| DO3MHA-11 | 2026-09-01 00:07:34 | 49.70378 | 17.93713 | 22° | 26km/h | 19851m | 6.1m/s | -53.8°C | 4.1% | 0hPa | 2.6V | 00:00:00 | 01:20:16 | 00:00:00 | |
| POL1PZ | 2026-09-01 00:07:33 | 49.70371 | 17.93710 | 22° | 27km/h | 19846m | 4.5m/s | -53.9°C | 1.1% | 0hPa | 2.6V | 00:00:00 | 00:00:00 | 00:00:00 | |
| OE5DRO-10 | 2026-09-01 00:07:31 | 49.70358 | 17.93703 | 12° | 24km/h | 19835m | 6.2m/s | -53.8°C | 4.0% | 0hPa | 2.6V | 00:00:00 | 00:00:00 | 00:00:00 | |
| OE5MMP-10 | 2026-09-01 00:07:30 | 49.70352 | 17.93701 | 11° | 24km/h | 19829m | 4.6m/s | -53.8°C | 4.0% | 0hPa | 2.6V | 00:00:00 | 01:20:12 | 08:30:00 | |
| S52SK | 2026-09-01 00:07:29 | 49.70352 | 17.93701 | 11° | 26km/h | 19829m | 4.7m/s | -53.8°C | 1.1% | 0hPa | 2.6V | 00:00:00 | 00:00:00 | 00:00:00 | |
| OE3OSB-13 | 2026-09-01 00:07:28 | 49.70339 | 17.93696 | 23° | 26km/h | 19818m | 6.1m/s | -53.8°C | 1.0% | -1.0hPa | 2.6V | 00:00:00 | 00:00:00 | 00:00:00 | |
| HA6NAB-11 | 2026-09-01 00:07:27 | 49.70333 | 17.93691 | 30° | 26km/h | 19813m | 4.4m/s | -53.7°C | 1.1% | 0hPa | 2.6V | 00:00:00 | 00:00:00 | 00:00:00 | |
| DO3MHA-11 | 2026-09-01 00:07:24 | 49.70318 | 17.93679 | 25° | 24km/h | 19796m | 5.0m/s | -53.6°C | 3.9% | 0hPa | 2.6V | 00:00:00 | 01:20:06 | 00:00:00 | |
| PETON7-10 | 2026-09-01 00:07:22 | 49.70310 | 17.93672 | 31° | 22km/h | 19785m | 6.0m/s | -53.5°C | 3.9% | 0hPa | 2.6V | 00:00:00 | 00:00:00 | 00:00:00 | |
| OE5MMP-10 | 2026-09-01 00:07:20 | 49.70300 | 17.93665 | 22° | 24km/h | 19773m | 6.4m/s | -53.4°C | 3.8% | 0hPa | 2.6V | 00:00:00 | 01:20:02 | 00:00:00 | |
| OM5KV | 2026-09-01 00:07:18 | 49.70295 | 17.93662 | 18° | 24km/h | 19767m | 5.5m/s | -53.5°C | 1.0% | 0hPa | 2.6V | 00:00:00 | 00:00:00 | 00:00:00 | |
| OE5DXL-15 | 2026-09-01 00:07:16 | 49.70276 | 17.93650 | 32° | 18km/h | 19751m | 6.1m/s | -53.5°C | 3.9% | 0hPa | 2.6V | 00:00:00 | 00:00:00 | 00:00:00 | |
| HA6NAB-11 | 2026-09-01 00:07:15 | 49.70270 | 17.93644 | 35° | 29km/h | 19746m | 4.5m/s | -53.5°C | 1.1% | 0hPa | 2.6V | 00:00:00 | 00:00:00 | 00:00:00 | |
| DO3MHA-11 | 2026-09-01 00:07:14 | 49.70264 | 17.93638 | 32° | 16km/h | 19740m | 6.2m/s | -53.5°C | 3.9% | 0hPa | 2.6V | 00:00:00 | 01:19:56 | 00:00:00 | |
| OM5KV | 2026-09-01 00:07:13 | 49.70264 | 17.93638 | 33° | 27km/h | 19740m | 6.3m/s | -53.5°C | 1.1% | 0hPa | 2.6V | 00:00:00 | 00:00:00 | 00:00:00 | |
| POL1PZ | 2026-09-01 00:07:12 | 49.70255 | 17.93629 | 35° | 18km/h | 19729m | 4.4m/s | -53.6°C | 1.1% | 0hPa | 2.6V | 00:00:00 | 00:00:00 | 00:00:00 | |
| PG1ADW-2 | 2026-09-01 00:07:11 | 49.70251 | 17.93625 | 46° | 16km/h | 19724m | 6.6m/s | -53.5°C | 3.9% | 0hPa | 2.6V | 00:00:00 | 00:00:00 | 00:00:00 | |
| OE5MMP-10 | 2026-09-01 00:07:10 | 49.70249 | 17.93620 | 62° | 18km/h | 19718m | 5.3m/s | -53.5°C | 3.9% | 0hPa | 2.6V | 00:00:00 | 01:19:52 | 00:00:00 | |
| OM5KV | 2026-09-01 00:07:08 | 49.70247 | 17.93616 | 67° | 11km/h | 19713m | 3.8m/s | -53.6°C | 1.1% | 0hPa | 2.6V | 00:00:00 | 00:00:00 | 00:00:00 | |
| PETON7-10 | 2026-09-01 00:07:07 | 49.70244 | 17.93610 | 25° | 16km/h | 19702m | 6.2m/s | -53.6°C | 3.9% | 0hPa | 2.6V | 00:00:00 | 01:19:49 | 00:00:00 | |
| DO3MHA-11 | 2026-09-01 00:07:04 | 49.70231 | 17.93604 | 20° | 18km/h | 19685m | 6.2m/s | -54.0°C | 4.1% | 0hPa | 2.6V | 00:00:00 | 01:19:46 | 00:00:00 | |
| OM5KV | 2026-09-01 00:07:02 | 49.70225 | 17.93601 | 21° | 26km/h | 19679m | 5.0m/s | -54.2°C | 1.1% | 0hPa | 2.6V | 00:00:00 | 00:00:00 | 00:00:00 | |
| OE3OSB-13 | 2026-09-01 00:06:57 | 49.70193 | 17.93589 | 28° | 9km/h | 19645m | 5.3m/s | -54.0°C | 1.0% | -1.0hPa | 2.6V | 00:00:00 | 00:00:00 | 00:00:00 | |
| OM5KV | 2026-09-01 00:06:56 | 49.70193 | 17.93588 | 29° | 11km/h | 19645m | 5.3m/s | -54.0°C | 1.1% | 0hPa | 2.6V | 00:00:00 | 00:00:00 | 00:00:00 | |
| DO3MHA-11 | 2026-09-01 00:06:54 | 49.70186 | 17.93586 | 2° | 18km/h | 19628m | 3.9m/s | -53.8°C | 4.1% | 0hPa | 2.6V | 00:00:00 | 01:19:36 | 08:30:00 | |
| OE5DRO-10 | 2026-09-01 00:06:53 | 49.70183 | 17.93586 | 9° | 15km/h | 19623m | 5.9m/s | -53.7°C | 4.0% | 0hPa | 2.7V | 00:00:00 | 00:00:00 | 00:00:00 | |
| PETON7-10 | 2026-09-01 00:06:52 | 49.70180 | 17.93584 | 17° | 15km/h | 19617m | 6.3m/s | -53.7°C | 4.0% | 0hPa | 2.7V | 00:00:00 | 00:00:00 | 00:00:00 | |
| PG1ADW-2 | 2026-09-01 00:06:51 | 49.70175 | 17.93582 | 18° | 15km/h | 19611m | 5.6m/s | -53.7°C | 4.0% | 0hPa | 2.6V | 00:00:00 | 00:00:00 | 00:00:00 | |
| OE5MMP-10 | 2026-09-01 00:06:50 | 49.70171 | 17.93580 | 13° | 16km/h | 19605m | 7.0m/s | -53.6°C | 4.0% | 0hPa | 2.6V | 00:00:00 | 01:19:32 | 00:00:00 | |
| OE5DXL-15 | 2026-09-01 00:06:46 | 49.70150 | 17.93575 | 21° | 15km/h | 19583m | 6.2m/s | -53.5°C | 4.0% | 0hPa | 2.6V | 00:00:00 | 00:00:00 | 00:00:00 | |
| OM5KV | 2026-09-01 00:06:45 | 49.70150 | 17.93575 | 21° | 18km/h | 19583m | 6.3m/s | -53.6°C | 1.1% | 0hPa | 2.6V | 00:00:00 | 00:00:00 | 00:00:00 | |
| DO3MHA-11 | 2026-09-01 00:06:44 | 49.70142 | 17.93570 | 22° | 13km/h | 19571m | 7.0m/s | -53.5°C | 3.9% | 0hPa | 2.6V | 00:00:00 | 01:19:26 | 00:00:00 | |
| OE5MMP-10 | 2026-09-01 00:06:40 | 49.70134 | 17.93563 | 53° | 15km/h | 19547m | 6.6m/s | -53.3°C | 3.9% | 0hPa | 2.6V | 00:00:00 | 01:19:22 | 00:00:00 | |
| OM5KV | 2026-09-01 00:06:39 | 49.70134 | 17.93563 | 53° | 11km/h | 19547m | 6.7m/s | -53.4°C | 1.1% | 0hPa | 2.6V | 00:00:00 | 00:00:00 | 00:00:00 | |
| PETON7-10 | 2026-09-01 00:06:37 | 49.70127 | 17.93553 | 38° | 16km/h | 19528m | 5.3m/s | -53.2°C | 3.9% | 0hPa | 2.6V | 00:00:00 | 00:00:00 | 00:00:00 | |
| OM5KV | 2026-09-01 00:06:35 | 49.70119 | 17.93541 | 43° | 16km/h | 19511m | 4.9m/s | -53.3°C | 1.1% | 0hPa | 2.6V | 00:00:00 | 00:00:00 | 00:00:00 | |
| POL1PZ | 2026-09-01 00:06:31 | 49.70110 | 17.93532 | 21° | 15km/h | 19493m | 4.7m/s | -53.4°C | 1.1% | 0hPa | 2.6V | 00:00:00 | 00:00:00 | 00:00:00 | |
| OE5MMP-10 | 2026-09-01 00:06:30 | 49.70106 | 17.93530 | 25° | 18km/h | 19488m | 5.9m/s | -53.3°C | 3.9% | 0hPa | 2.6V | 00:00:00 | 01:19:12 | 00:00:00 | |
| OM5KV | 2026-09-01 00:06:28 | 49.70099 | 17.93522 | 45° | 20km/h | 19476m | 5.1m/s | -53.4°C | 1.1% | 0hPa | 2.6V | 00:00:00 | 00:00:00 | 00:00:00 | |
| OE3OSB-13 | 2026-09-01 00:06:26 | 49.70090 | 17.93506 | 54° | 16km/h | 19459m | 5.6m/s | -53.6°C | 1.0% | -1.0hPa | 2.6V | 00:00:00 | 00:00:00 | 00:00:00 | |
| DO3MHA-11 | 2026-09-01 00:06:24 | 49.70087 | 17.93500 | 65° | 15km/h | 19454m | 5.9m/s | -53.6°C | 3.9% | 0hPa | 2.6V | 00:00:00 | 01:19:06 | 00:00:00 | |
| OM5KV | 2026-09-01 00:06:23 | 49.70087 | 17.93500 | 66° | 18km/h | 19454m | 5.9m/s | -53.7°C | 1.1% | 0hPa | 2.6V | 00:00:00 | 00:00:00 | 00:00:00 | |
| PETON7-10 | 2026-09-01 00:06:22 | 49.70085 | 17.93485 | 85° | 15km/h | 19442m | 4.4m/s | -53.7°C | 4.0% | 0hPa | 2.6V | 00:00:00 | 01:19:04 | 00:00:00 | |
| HA6NAB-11 | 2026-09-01 00:06:21 | 49.70085 | 17.93485 | 86° | 20km/h | 19442m | 4.5m/s | -53.8°C | 1.1% | 0hPa | 2.6V | 00:00:00 | 00:00:00 | 00:00:00 | |
| OE5MMP-10 | 2026-09-01 00:06:20 | 49.70085 | 17.93471 | 98° | 15km/h | 19430m | 6.2m/s | -53.7°C | 4.0% | 0hPa | 2.6V | 00:00:00 | 01:19:02 | 00:00:00 | |
| OM5KV | 2026-09-01 00:06:17 | 49.70086 | 17.93462 | 89° | 11km/h | 19420m | 6.4m/s | -53.7°C | 1.1% | 0hPa | 2.6V | 00:00:00 | 00:00:00 | 00:00:00 | |
| OE5DXL-15 | 2026-09-01 00:06:16 | 49.70083 | 17.93454 | 39° | 13km/h | 19408m | 4.6m/s | -53.6°C | 4.0% | 0hPa | 2.6V | 00:00:00 | 00:00:00 | 00:00:00 | |
| OE5DRO-10 | 2026-09-01 00:06:15 | 49.70080 | 17.93452 | 18° | 11km/h | 19403m | 6.5m/s | -53.6°C | 4.0% | 0hPa | 2.6V | 00:00:00 | 00:00:00 | 00:00:00 | |
| DO3MHA-11 | 2026-09-01 00:06:14 | 49.70077 | 17.93451 | 6° | 13km/h | 19397m | 5.5m/s | -53.6°C | 3.9% | 0hPa | 2.7V | 00:00:00 | 01:18:56 | 00:00:00 | |
| PG1ADW-2 | 2026-09-01 00:06:11 | 49.70066 | 17.93446 | 37° | 13km/h | 19380m | 5.6m/s | -53.5°C | 3.9% | 0hPa | 2.7V | 00:00:00 | 01:18:53 | 00:00:00 | |
| HA6NAB-11 | 2026-09-01 00:06:10 | 49.70063 | 17.93442 | 54° | 16km/h | 19375m | 4.8m/s | -53.6°C | 1.1% | 0hPa | 2.7V | 00:00:00 | 00:00:00 | 00:00:00 | |
| PETON7-10 | 2026-09-01 00:06:08 | 49.70059 | 17.93430 | 63° | 13km/h | 19358m | 4.5m/s | -53.5°C | 3.9% | 0hPa | 2.7V | 00:00:00 | 00:00:00 | 08:30:00 | |
| OM5KV | 2026-09-01 00:06:05 | 49.70058 | 17.93427 | 49° | 7km/h | 19353m | 5.8m/s | -53.6°C | 1.1% | 0hPa | 2.6V | 00:00:00 | 00:00:00 | 00:00:00 | |
| HA6NAB-11 | 2026-09-01 00:06:04 | 49.70054 | 17.93424 | 8° | 9km/h | 19342m | 4.7m/s | -53.6°C | 1.1% | 0hPa | 2.6V | 00:00:00 | 00:00:00 | 00:00:00 | |
| OE3OSB-13 | 2026-09-01 00:05:55 | 49.70026 | 17.93433 | 12° | 16km/h | 19283m | 7.1m/s | -53.9°C | 1.0% | -1.0hPa | 2.6V | 00:00:00 | 00:00:00 | 00:00:00 | |
| DO3MHA-11 | 2026-09-01 00:05:54 | 49.70026 | 17.93432 | 13° | 13km/h | 19283m | 7.0m/s | -53.8°C | 4.0% | 0hPa | 2.6V | 00:00:00 | 01:18:36 | 00:00:00 | |
| OM5KV | 2026-09-01 00:05:53 | 49.70026 | 17.93432 | 13° | 16km/h | 19283m | 7.1m/s | -53.9°C | 1.1% | 0hPa | 2.7V | 00:00:00 | 00:00:00 | 00:00:00 | |
| GYPAP8-17 | 2026-09-01 00:05:52 | 49.70018 | 17.93431 | 355° | 15km/h | 19272m | 4.2m/s | 0°C | 0% | 0hPa | 2.7V | 00:00:00 | 00:00:00 | 00:00:00 | |
| PG1ADW-2 | 2026-09-01 00:05:51 | 49.70014 | 17.93432 | 340° | 11km/h | 19266m | 6.7m/s | -53.8°C | 4.1% | 0hPa | 2.7V | 00:00:00 | 00:00:00 | 00:00:00 | |
| OE5MMP-10 | 2026-09-01 00:05:50 | 49.70012 | 17.93435 | 309° | 9km/h | 19260m | 5.7m/s | -53.7°C | 4.1% | 0hPa | 2.7V | 00:00:00 | 01:18:32 | 00:00:00 | |
| POL1PZ | 2026-09-01 00:05:49 | 49.70012 | 17.93435 | 309° | 11km/h | 19260m | 5.8m/s | -53.8°C | 1.2% | 0hPa | 2.7V | 00:00:00 | 00:00:00 | 00:00:00 | |
| OE5DXL-15 | 2026-09-01 00:05:47 | 49.70006 | 17.93452 | 307° | 9km/h | 19237m | 5.8m/s | -53.6°C | 4.0% | 0hPa | 2.7V | 00:00:00 | 00:00:00 | 00:00:00 | |
| OE5MMP-10 | 2026-09-01 00:05:40 | 49.69993 | 17.93458 | 5° | 11km/h | 19201m | 7.1m/s | -53.3°C | 3.8% | 0hPa | 2.7V | 00:00:00 | 01:18:22 | 00:00:00 | |
| PETON7-10 | 2026-09-01 00:05:38 | 49.69990 | 17.93462 | 287° | 11km/h | 19182m | 6.6m/s | -53.2°C | 3.7% | 0hPa | 2.7V | 00:00:00 | 01:18:19 | 00:00:00 | |
| OM5KV | 2026-09-01 00:05:36 | 49.69990 | 17.93473 | 263° | 16km/h | 19171m | 6.3m/s | -53.2°C | 1.1% | 0hPa | 2.7V | 00:00:00 | 00:00:00 | 00:00:00 | |
| PG1ADW-2 | 2026-09-01 00:05:32 | 49.69993 | 17.93494 | 285° | 9km/h | 19147m | 5.3m/s | -53.2°C | 3.7% | 0hPa | 2.7V | 00:00:00 | 00:00:00 | 00:00:00 | |
| POL1PZ | 2026-09-01 00:05:30 | 49.69992 | 17.93496 | 332° | 5km/h | 19142m | 5.7m/s | -53.3°C | 1.1% | 0hPa | 2.6V | 00:00:00 | 00:00:00 | 00:00:00 | |
| OM5KV | 2026-09-01 00:05:29 | 49.69991 | 17.93496 | 29° | 5km/h | 19135m | 7.2m/s | -53.3°C | 1.1% | 0hPa | 2.6V | 00:00:00 | 00:00:00 | 00:00:00 | |
| DO3MHA-11 | 2026-09-01 00:05:28 | 49.69990 | 17.93493 | 54° | 9km/h | 19129m | 5.5m/s | -53.3°C | 3.7% | 0hPa | 2.6V | 00:00:00 | 01:18:10 | 00:00:00 | |
| OE5MMP-10 | 2026-09-01 00:05:27 | 49.69988 | 17.93490 | 52° | 9km/h | 19124m | 4.8m/s | -53.4°C | 3.7% | 0hPa | 2.6V | 00:00:00 | 01:18:09 | 00:00:00 | |
| OE3OSB-13 | 2026-09-01 00:05:24 | 49.69979 | 17.93481 | 312° | 2km/h | 19099m | 6.9m/s | -54.3°C | 1.0% | -1.0hPa | 2.6V | 00:00:00 | 00:00:00 | 00:00:00 | |
| OM5KV | 2026-09-01 00:05:23 | 49.69979 | 17.93481 | 313° | 2km/h | 19099m | 6.9m/s | -54.3°C | 1.1% | 0hPa | 2.6V | 00:00:00 | 00:00:00 | 00:00:00 | |
| PETON7-10 | 2026-09-01 00:05:22 | 49.69980 | 17.93482 | 217° | 11km/h | 19093m | 5.8m/s | -54.6°C | 4.0% | 0hPa | 2.6V | 00:00:00 | 00:00:00 | 00:00:00 | |
| DO3MHA-11 | 2026-09-01 00:05:20 | 49.69985 | 17.93490 | 334° | 11km/h | 19070m | 4.5m/s | -55.2°C | 4.3% | 0hPa | 2.6V | 00:00:00 | 01:18:00 | 00:00:00 | |
| OE5MMP-10 | 2026-09-01 00:05:19 | 49.69984 | 17.93490 | 17° | 13km/h | 19065m | 5.0m/s | -55.2°C | 4.3% | 0hPa | 2.6V | 00:00:00 | 01:17:59 | 00:00:00 | |
| HA6NAB-11 | 2026-09-01 00:05:17 | 49.69982 | 17.93488 | 43° | 9km/h | 19059m | 7.1m/s | -55.3°C | 1.2% | 0hPa | 2.6V | 00:00:00 | 00:00:00 | 00:00:00 | |
| OM5KV | 2026-09-01 00:05:11 | 49.69978 | 17.93467 | 96° | 13km/h | 19028m | 4.5m/s | -55.2°C | 1.2% | 0hPa | 2.6V | 00:00:00 | 00:00:00 | 00:00:00 | |
| HA6NAB-11 | 2026-09-01 00:05:10 | 49.69978 | 17.93467 | 96° | 13km/h | 19028m | 4.5m/s | -55.2°C | 1.2% | 0hPa | 2.6V | 00:00:00 | 00:00:00 | 00:00:00 | |
| DO3MHA-11 | 2026-09-01 00:05:08 | 49.69979 | 17.93448 | 97° | 13km/h | 19011m | 6.0m/s | -55.2°C | 4.2% | 0hPa | 2.6V | 00:00:00 | 01:17:50 | 08:30:00 | |
| OE5MMP-10 | 2026-09-01 00:05:07 | 49.69980 | 17.93442 | 99° | 13km/h | 19005m | 6.3m/s | -55.2°C | 4.2% | 0hPa | 2.6V | 00:00:00 | 01:17:49 | 00:00:00 | |
| OM5KV | 2026-09-01 00:05:06 | 49.69980 | 17.93436 | 91° | 13km/h | 18999m | 5.1m/s | -55.3°C | 1.2% | 0hPa | 2.6V | 00:00:00 | 00:00:00 | 00:00:00 | |
| HA6NAB-11 | 2026-09-01 00:05:05 | 49.69979 | 17.93431 | 79° | 15km/h | 18993m | 7.2m/s | -55.3°C | 1.2% | 0hPa | 2.6V | 00:00:00 | 00:00:00 | 00:00:00 | |
| OM5KV | 2026-09-01 00:05:02 | 49.69973 | 17.93414 | 45° | 11km/h | 18970m | 4.5m/s | -55.4°C | 1.2% | 0hPa | 2.6V | 00:00:00 | 00:00:00 | 00:00:00 | |
| HA6NAB-11 | 2026-09-01 00:05:01 | 49.69971 | 17.93410 | 48° | 11km/h | 18965m | 5.0m/s | -55.4°C | 1.2% | 0hPa | 2.6V | 00:00:00 | 00:00:00 | 00:00:00 | |
| OE5DRO-10 | 2026-09-01 00:05:00 | 49.69968 | 17.93407 | 48° | 11km/h | 18959m | 6.4m/s | -55.3°C | 4.4% | 0hPa | 2.6V | 00:00:00 | 00:00:00 | 00:00:00 | |
| DO3MHA-11 | 2026-09-01 00:04:58 | 49.69966 | 17.93403 | 49° | 9km/h | 18953m | 5.0m/s | -55.3°C | 4.4% | 0hPa | 2.6V | 00:00:00 | 01:17:40 | 00:00:00 | |
| OE5MMP-10 | 2026-09-01 00:04:57 | 49.69962 | 17.93395 | 51° | 9km/h | 18942m | 6.5m/s | -55.2°C | 4.2% | 0hPa | 2.6V | 00:00:00 | 01:17:38 | 00:00:00 | |
| OM5KV | 2026-09-01 00:04:56 | 49.69962 | 17.93395 | 52° | 11km/h | 18942m | 6.5m/s | -55.3°C | 1.2% | 0hPa | 2.6V | 00:00:00 | 00:00:00 | 00:00:00 | |
| HA6NAB-11 | 2026-09-01 00:04:54 | 49.69959 | 17.93390 | 52° | 9km/h | 18931m | 5.8m/s | -55.3°C | 1.2% | 0hPa | 2.6V | 00:00:00 | 00:00:00 | 00:00:00 | |
| PETON7-10 | 2026-09-01 00:04:53 | 49.69956 | 17.93382 | 61° | 11km/h | 18920m | 4.8m/s | -55.3°C | 4.3% | 0hPa | 2.6V | 00:00:00 | 01:17:34 | 00:00:00 | |
| PG1ADW-2 | 2026-09-01 00:04:52 | 49.69954 | 17.93379 | 68° | 11km/h | 18914m | 6.7m/s | -55.3°C | 4.2% | 0hPa | 2.6V | 00:00:00 | 01:17:33 | 00:00:00 | |
| OM5KV | 2026-09-01 00:04:51 | 49.69954 | 17.93376 | 81° | 5km/h | 18908m | 6.0m/s | -55.4°C | 1.2% | 0hPa | 2.6V | 00:00:00 | 00:00:00 | 00:00:00 | |
| POL1PZ | 2026-09-01 00:04:50 | 49.69953 | 17.93371 | 63° | 7km/h | 18897m | 6.4m/s | -55.4°C | 1.2% | 0hPa | 2.6V | 00:00:00 | 00:00:00 | 00:00:00 | |
| OE5DXL-15 | 2026-09-01 00:04:49 | 49.69950 | 17.93367 | 43° | 16km/h | 18886m | 5.1m/s | -55.3°C | 4.2% | 0hPa | 2.6V | 00:00:00 | 00:00:00 | 00:00:00 | |
| OM5KV | 2026-09-01 00:04:47 | 49.69949 | 17.93365 | 43° | 7km/h | 18880m | 6.9m/s | -55.3°C | 1.2% | 0hPa | 2.6V | 00:00:00 | 00:00:00 | 00:00:00 | |
| OM5KV | 2026-09-01 00:04:45 | 49.69948 | 17.93363 | 53° | 5km/h | 18874m | 5.4m/s | -55.3°C | 1.2% | 0hPa | 2.6V | 00:00:00 | 00:00:00 | 00:00:00 | |
| OE5DRO-10 | 2026-09-01 00:04:40 | 49.69944 | 17.93343 | 82° | 16km/h | 18852m | 4.6m/s | -55.2°C | 4.2% | 0hPa | 2.6V | 00:00:00 | 00:00:00 | 00:00:00 | |
| OM5KV | 2026-09-01 00:04:38 | 49.69943 | 17.93328 | 96° | 18km/h | 18841m | 5.0m/s | -55.5°C | 1.2% | 0hPa | 2.6V | 00:00:00 | 00:00:00 | 00:00:00 | |
| PETON7-10 | 2026-09-01 00:04:37 | 49.69944 | 17.93322 | 92° | 15km/h | 18836m | 5.5m/s | -55.6°C | 4.3% | 0hPa | 2.6V | 00:00:00 | 00:00:00 | 00:00:00 | |
| OE5MMP-10 | 2026-09-01 00:04:36 | 49.69944 | 17.93316 | 84° | 13km/h | 18830m | 7.0m/s | -55.7°C | 4.4% | 0hPa | 2.7V | 00:00:00 | 01:17:18 | 00:00:00 | |
| OM5KV | 2026-09-01 00:04:34 | 49.69942 | 17.93307 | 79° | 11km/h | 18819m | 3.5m/s | -55.9°C | 1.3% | 0hPa | 2.7V | 00:00:00 | 00:00:00 | 00:00:00 | |
| PG1ADW-2 | 2026-09-01 00:04:32 | 49.69943 | 17.93297 | 120° | 18km/h | 18804m | 4.6m/s | -56.0°C | 4.6% | 0hPa | 2.7V | 00:00:00 | 00:00:00 | 00:00:00 | |
| DO3MHA-11 | 2026-09-01 00:04:28 | 49.69946 | 17.93284 | 96° | 20km/h | 18788m | 4.8m/s | -55.9°C | 4.5% | 0hPa | 2.7V | 00:00:00 | 01:17:10 | 00:00:00 | |
| OM5KV | 2026-09-01 00:04:27 | 49.69947 | 17.93278 | 101° | 16km/h | 18784m | 5.3m/s | -55.9°C | 1.3% | 0hPa | 2.7V | 00:00:00 | 00:00:00 | 00:00:00 | |
| OE5MMP-10 | 2026-09-01 00:04:26 | 49.69947 | 17.93272 | 105° | 22km/h | 18778m | 6.1m/s | -55.8°C | 4.5% | 0hPa | 2.7V | 00:00:00 | 01:17:08 | 08:30:00 | |
| OM5KV | 2026-09-01 00:04:25 | 49.69947 | 17.93271 | 106° | 18km/h | 18778m | 6.1m/s | -55.8°C | 1.3% | 0hPa | 2.7V | 00:00:00 | 00:00:00 | 00:00:00 | |
| PETON7-10 | 2026-09-01 00:04:22 | 49.69951 | 17.93237 | 92° | 22km/h | 18756m | 3.8m/s | -55.6°C | 4.4% | 0hPa | 2.7V | 00:00:00 | 00:00:00 | 00:00:00 | |
| OE5DRO-10 | 2026-09-01 00:04:21 | 49.69951 | 17.93227 | 97° | 22km/h | 18751m | 5.7m/s | -55.5°C | 4.4% | 0hPa | 2.7V | 00:00:00 | 00:00:00 | 00:00:00 | |
| DO3MHA-11 | 2026-09-01 00:04:18 | 49.69954 | 17.93202 | 97° | 22km/h | 18734m | 6.3m/s | -55.5°C | 4.4% | 0hPa | 2.6V | 00:00:00 | 01:17:00 | 00:00:00 | |
| OM5KV | 2026-09-01 00:04:16 | 49.69955 | 17.93187 | 91° | 18km/h | 18723m | 4.4m/s | -55.5°C | 1.3% | 0hPa | 2.6V | 00:00:00 | 00:00:00 | 00:00:00 | |
| OM5KV | 2026-09-01 00:04:14 | 49.69955 | 17.93180 | 97° | 18km/h | 18717m | 6.5m/s | -55.4°C | 1.2% | 0hPa | 2.6V | 00:00:00 | 00:00:00 | 00:00:00 | |
| S52SK | 2026-09-01 00:04:12 | 49.69956 | 17.93164 | 95° | 20km/h | 18708m | 4.1m/s | -55.4°C | 1.3% | 0hPa | 2.6V | 00:00:00 | 00:00:00 | 00:00:00 | |
| PG1ADW-2 | 2026-09-01 00:04:11 | 49.69956 | 17.93147 | 82° | 20km/h | 18696m | 5.3m/s | -55.4°C | 4.3% | 0hPa | 2.6V | 00:00:00 | 00:00:00 | 00:00:00 | |
| HA6NAB-11 | 2026-09-01 00:04:10 | 49.69955 | 17.93147 | 82° | 24km/h | 18696m | 5.4m/s | -55.4°C | 1.2% | 0hPa | 2.6V | 00:00:00 | 00:00:00 | 00:00:00 | |
| DO3MHA-11 | 2026-09-01 00:04:08 | 49.69955 | 17.93119 | 98° | 20km/h | 18681m | 5.5m/s | -55.3°C | 4.3% | 0hPa | 2.6V | 00:00:00 | 01:16:50 | 00:00:00 | |
| S52SK | 2026-09-01 00:04:07 | 49.69956 | 17.93110 | 98° | 24km/h | 18675m | 4.5m/s | -55.3°C | 1.3% | 0hPa | 2.6V | 00:00:00 | 00:00:00 | 00:00:00 | |
| OE5MMP-10 | 2026-09-01 00:04:06 | 49.69956 | 17.93100 | 93° | 20km/h | 18670m | 6.4m/s | -55.2°C | 4.4% | 0hPa | 2.6V | 00:00:00 | 01:16:48 | 00:00:00 | |
| OM5KV | 2026-09-01 00:04:05 | 49.69956 | 17.93092 | 89° | 22km/h | 18664m | 4.7m/s | -55.3°C | 1.3% | 0hPa | 2.6V | 00:00:00 | 00:00:00 | 00:00:00 | |
| OE3OSB-13 | 2026-09-01 00:03:52 | 49.69956 | 17.92994 | 97° | 11km/h | 18580m | 6.0m/s | -54.6°C | 1.1% | -1.0hPa | 2.6V | 00:00:00 | 00:00:00 | 00:00:00 | |
| DO3MHA-11 | 2026-09-01 00:03:51 | 49.69955 | 17.92984 | 80° | 18km/h | 18569m | 4.9m/s | -54.4°C | 4.2% | 0hPa | 2.6V | 00:00:00 | 01:16:30 | 00:00:00 | |
| OE5MMP-10 | 2026-09-01 00:03:50 | 49.69954 | 17.92970 | 89° | 16km/h | 18557m | 5.4m/s | -54.4°C | 4.2% | 0hPa | 2.6V | 00:00:00 | 01:16:28 | 00:00:00 | |
| POL1PZ | 2026-09-01 00:03:49 | 49.69954 | 17.92970 | 90° | 20km/h | 18557m | 5.4m/s | -54.4°C | 1.2% | 0hPa | 2.6V | 00:00:00 | 00:00:00 | 00:00:00 | |
| HA6NAB-11 | 2026-09-01 00:03:47 | 49.69953 | 17.92946 | 81° | 20km/h | 18541m | 5.1m/s | -54.3°C | 1.2% | 0hPa | 2.6V | 00:00:00 | 00:00:00 | 00:00:00 | |
| OM5KV | 2026-09-01 00:03:46 | 49.69952 | 17.92939 | 89° | 16km/h | 18536m | 4.4m/s | -54.2°C | 1.2% | 0hPa | 2.6V | 00:00:00 | 00:00:00 | 00:00:00 | |
| OM5KV | 2026-09-01 00:03:45 | 49.69953 | 17.92933 | 103° | 16km/h | 18530m | 6.7m/s | -54.2°C | 1.2% | 0hPa | 2.6V | 00:00:00 | 00:00:00 | 00:00:00 | |
| DO3MHA-11 | 2026-09-01 00:03:43 | 49.69960 | 17.92919 | 145° | 13km/h | 18512m | 7.2m/s | -54.0°C | 4.1% | 0hPa | 2.6V | 00:00:00 | 01:16:20 | 08:30:00 | |
| OM5KV | 2026-09-01 00:03:42 | 49.69963 | 17.92916 | 138° | 5km/h | 18500m | 4.4m/s | -54.0°C | 1.2% | 0hPa | 2.7V | 00:00:00 | 00:00:00 | 00:00:00 | |
| PG1ADW-2 | 2026-09-01 00:03:40 | 49.69960 | 17.92889 | 72° | 18km/h | 18466m | 5.6m/s | -54.1°C | 4.1% | 0hPa | 2.7V | 00:00:00 | 01:16:12 | 08:30:00 | |
| DO3MHA-11 | 2026-09-01 00:03:39 | 49.69959 | 17.92872 | 95° | 15km/h | 18455m | 4.6m/s | -54.0°C | 4.2% | 0hPa | 2.6V | 00:00:00 | 01:16:10 | 00:00:00 | |
| POL1PZ | 2026-09-01 00:03:38 | 49.69961 | 17.92858 | 114° | 16km/h | 18445m | 5.6m/s | -53.9°C | 1.2% | 0hPa | 2.6V | 00:00:00 | 00:00:00 | 00:00:00 | |
| OM5KV | 2026-09-01 00:03:37 | 49.69963 | 17.92853 | 124° | 13km/h | 18439m | 6.4m/s | -53.9°C | 1.2% | 0hPa | 2.6V | 00:00:00 | 00:00:00 | 00:00:00 | |
| OE5DRO-10 | 2026-09-01 00:03:36 | 49.69965 | 17.92848 | 134° | 18km/h | 18433m | 5.0m/s | -53.8°C | 4.0% | 0hPa | 2.6V | 00:00:00 | 00:00:00 | 00:00:00 | |
| DO3MHA-11 | 2026-09-01 00:03:34 | 49.69977 | 17.92825 | 94° | 22km/h | 18398m | 6.8m/s | -53.6°C | 4.0% | 0hPa | 2.6V | 00:00:00 | 01:16:00 | 00:00:00 | |
| OE5MMP-10 | 2026-09-01 00:03:33 | 49.69977 | 17.92811 | 83° | 22km/h | 18385m | 4.4m/s | -53.5°C | 4.0% | 0hPa | 2.6V | 00:00:00 | 01:15:58 | 00:00:00 | |
| GYPAP8-17 | 2026-09-01 00:03:32 | 49.69974 | 17.92795 | 70° | 22km/h | 18372m | 8.4m/s | 0°C | 0% | 0hPa | 2.6V | 00:00:00 | 00:00:00 | 00:00:00 | |
| OM5KV | 2026-09-01 00:03:30 | 49.69972 | 17.92787 | 64° | 22km/h | 18365m | 5.8m/s | -53.5°C | 1.2% | 0hPa | 2.6V | 00:00:00 | 00:00:00 | 00:00:00 | |
| OM5KV | 2026-09-01 00:03:28 | 49.69968 | 17.92753 | 99° | 26km/h | 18343m | 4.5m/s | -53.3°C | 1.1% | 0hPa | 2.6V | 00:00:00 | 00:00:00 | 00:00:00 | |
| OM5KV | 2026-09-01 00:03:27 | 49.69968 | 17.92743 | 103° | 24km/h | 18338m | 5.5m/s | -53.3°C | 1.1% | 0hPa | 2.6V | 00:00:00 | 00:00:00 | 00:00:00 | |
| OE5MMP-10 | 2026-09-01 00:03:25 | 49.69970 | 17.92726 | 93° | 24km/h | 18328m | 4.8m/s | -53.2°C | 3.9% | 0hPa | 2.6V | 00:00:00 | 01:15:48 | 00:00:00 | |
| HA6NAB-11 | 2026-09-01 00:03:24 | 49.69970 | 17.92718 | 88° | 22km/h | 18322m | 5.1m/s | -53.2°C | 1.2% | 0hPa | 2.6V | 00:00:00 | 00:00:00 | 00:00:00 | |
| OM5KV | 2026-09-01 00:03:23 | 49.69969 | 17.92699 | 84° | 26km/h | 18311m | 5.0m/s | -53.1°C | 1.1% | 0hPa | 2.6V | 00:00:00 | 00:00:00 | 00:00:00 | |
| HA6NAB-11 | 2026-09-01 00:03:18 | 49.69967 | 17.92662 | 85° | 24km/h | 18290m | 5.7m/s | -53.0°C | 1.2% | 0hPa | 2.6V | 00:00:00 | 00:00:00 | 00:00:00 | |
| DO3MHA-11 | 2026-09-01 00:03:17 | 49.69966 | 17.92653 | 82° | 29km/h | 18284m | 6.1m/s | -52.9°C | 3.8% | 0hPa | 2.6V | 00:00:00 | 01:15:40 | 00:00:00 | |
| OM5KV | 2026-09-01 00:03:16 | 49.69964 | 17.92632 | 82° | 27km/h | 18273m | 5.9m/s | -52.9°C | 1.1% | 0hPa | 2.6V | 00:00:00 | 00:00:00 | 00:00:00 | |
| HA6NAB-11 | 2026-09-01 00:03:14 | 49.69962 | 17.92611 | 86° | 27km/h | 18261m | 4.3m/s | -52.9°C | 1.1% | 0hPa | 2.6V | 00:00:00 | 00:00:00 | 00:00:00 | |
| OM5KV | 2026-09-01 00:03:13 | 49.69961 | 17.92575 | 91° | 33km/h | 18245m | 5.9m/s | -53.0°C | 1.1% | 0hPa | 2.6V | 00:00:00 | 00:00:00 | 00:00:00 | |
| PG1ADW-2 | 2026-09-01 00:03:12 | 49.69961 | 17.92563 | 93° | 33km/h | 18238m | 7.0m/s | -53.0°C | 3.8% | 0hPa | 2.6V | 00:00:00 | 00:00:00 | 00:00:00 | |
| OM5KV | 2026-09-01 00:03:11 | 49.69961 | 17.92563 | 94° | 31km/h | 18238m | 7.1m/s | -53.1°C | 1.1% | 0hPa | 2.6V | 00:00:00 | 00:00:00 | 00:00:00 | |
| OE3OSB-13 | 2026-09-01 00:03:10 | 49.69961 | 17.92539 | 86° | 29km/h | 18227m | 4.0m/s | -53.1°C | 1.0% | -1.0hPa | 2.6V | 00:00:00 | 00:00:00 | 00:00:00 | |
| HA6NAB-11 | 2026-09-01 00:03:09 | 49.69962 | 17.92539 | 88° | 31km/h | 18227m | 4.0m/s | -53.1°C | 1.1% | 0hPa | 2.6V | 00:00:00 | 00:00:00 | 00:00:00 | |
| OE5MMP-10 | 2026-09-01 00:03:07 | 49.69959 | 17.92514 | 77° | 35km/h | 18216m | 5.5m/s | -53.1°C | 3.9% | 0hPa | 2.6V | 00:00:00 | 01:15:28 | 00:00:00 | |
| OE5DXL-15 | 2026-09-01 00:03:06 | 49.69959 | 17.92514 | 77° | 33km/h | 18216m | 5.5m/s | -53.1°C | 3.9% | 0hPa | 2.6V | 00:00:00 | 00:00:00 | 00:00:00 | |
| OM5KV | 2026-09-01 00:03:03 | 49.69957 | 17.92501 | 74° | 35km/h | 18211m | 5.4m/s | -53.1°C | 1.1% | 0hPa | 2.7V | 00:00:00 | 00:00:00 | 00:00:00 | |
| POL1PZ | 2026-09-01 00:03:01 | 49.69954 | 17.92489 | 72° | 33km/h | 18204m | 7.0m/s | -53.1°C | 1.1% | 0hPa | 2.7V | 00:00:00 | 00:00:00 | 00:00:00 | |
| HA6NAB-11 | 2026-09-01 00:02:59 | 49.69951 | 17.92477 | 69° | 31km/h | 18198m | 5.5m/s | -53.1°C | 1.1% | 0hPa | 2.7V | 00:00:00 | 00:00:00 | 00:00:00 | |
| OM5KV | 2026-09-01 00:02:51 | 49.69938 | 17.92427 | 73° | 35km/h | 18176m | 5.5m/s | -53.3°C | 1.1% | 0hPa | 2.7V | 00:00:00 | 00:00:00 | 00:00:00 | |
| HA6NAB-11 | 2026-09-01 00:02:48 | 49.69934 | 17.92402 | 79° | 33km/h | 18165m | 4.9m/s | -53.3°C | 1.1% | 0hPa | 2.7V | 00:00:00 | 00:00:00 | 00:00:00 | |
| S52SK | 2026-09-01 00:02:46 | 49.69930 | 17.92362 | 79° | 35km/h | 18150m | 4.5m/s | -53.3°C | 1.1% | 0hPa | 2.7V | 00:00:00 | 00:00:00 | 00:00:00 | |
| OM5KV | 2026-09-01 00:02:45 | 49.69928 | 17.92349 | 76° | 31km/h | 18144m | 6.4m/s | -53.3°C | 1.1% | 0hPa | 2.7V | 00:00:00 | 00:00:00 | 00:00:00 | |
| PG1ADW-2 | 2026-09-01 00:02:43 | 49.69917 | 17.92317 | 56° | 33km/h | 18127m | 5.8m/s | -53.2°C | 3.9% | 0hPa | 2.7V | 00:00:00 | 00:00:00 | 00:00:00 | |
| S52SK | 2026-09-01 00:02:41 | 49.69912 | 17.92306 | 54° | 37km/h | 18122m | 4.3m/s | -53.2°C | 1.1% | 0hPa | 2.6V | 00:00:00 | 00:00:00 | 00:00:00 | |
| OM5KV | 2026-09-01 00:02:39 | 49.69907 | 17.92295 | 53° | 35km/h | 18117m | 5.2m/s | -53.2°C | 1.1% | 0hPa | 2.6V | 00:00:00 | 00:00:00 | 00:00:00 | |
| OE5DRO-10 | 2026-09-01 00:02:37 | 49.69901 | 17.92284 | 53° | 33km/h | 18112m | 5.8m/s | -53.1°C | 3.8% | 0hPa | 2.6V | 00:00:00 | 00:00:00 | 08:30:00 | |
| OM5KV | 2026-09-01 00:02:36 | 49.69901 | 17.92284 | 53° | 33km/h | 18112m | 5.8m/s | -53.1°C | 1.1% | 0hPa | 2.7V | 00:00:00 | 00:00:00 | 00:00:00 | |
| OE5MMP-10 | 2026-09-01 00:02:34 | 49.69897 | 17.92274 | 54° | 33km/h | 18107m | 4.7m/s | -53.1°C | 3.9% | 0hPa | 2.7V | 00:00:00 | 01:15:08 | 00:00:00 | |
| POL1PZ | 2026-09-01 00:02:29 | 49.69884 | 17.92241 | 64° | 37km/h | 18091m | 4.4m/s | -53.3°C | 1.1% | 0hPa | 2.6V | 00:00:00 | 00:00:00 | 00:00:00 | |
| PETON7-10 | 2026-09-01 00:02:28 | 49.69880 | 17.92228 | 64° | 35km/h | 18087m | 4.9m/s | -53.3°C | 3.8% | 0hPa | 2.6V | 00:00:00 | 00:00:00 | 00:00:00 | |
| OM5KV | 2026-09-01 00:02:25 | 49.69876 | 17.92217 | 65° | 31km/h | 18081m | 6.4m/s | -53.4°C | 1.1% | 0hPa | 2.7V | 00:00:00 | 00:00:00 | 00:00:00 | |
| DO3MHA-11 | 2026-09-01 00:02:24 | 49.69869 | 17.92196 | 60° | 33km/h | 18070m | 5.3m/s | -53.5°C | 3.9% | 0hPa | 2.7V | 00:00:00 | 01:15:01 | 00:00:00 | |
| OE3OSB-13 | 2026-09-01 00:02:23 | 49.69861 | 17.92175 | 60° | 33km/h | 18059m | 4.4m/s | -53.7°C | 1.0% | -1.0hPa | 2.7V | 00:00:00 | 00:00:00 | 00:00:00 | |
| OE5DXL-15 | 2026-09-01 00:02:20 | 49.69857 | 17.92164 | 60° | 38km/h | 18055m | 5.2m/s | -53.7°C | 3.9% | 0hPa | 2.7V | 00:00:00 | 00:00:00 | 00:00:00 | |
| OE5MMP-10 | 2026-09-01 00:02:19 | 49.69857 | 17.92164 | 60° | 37km/h | 18055m | 5.2m/s | -53.7°C | 3.9% | 0hPa | 2.7V | 00:00:00 | 01:14:58 | 00:00:00 | |
| PG1ADW-2 | 2026-09-01 00:02:13 | 49.69844 | 17.92089 | 90° | 40km/h | 18022m | 6.1m/s | -53.8°C | 4.0% | 0hPa | 2.7V | 00:00:00 | 01:14:52 | 00:00:00 | |
| OM5KV | 2026-09-01 00:02:12 | 49.69844 | 17.92089 | 91° | 40km/h | 18022m | 6.2m/s | -53.9°C | 1.2% | 0hPa | 2.7V | 00:00:00 | 00:00:00 | 00:00:00 | |
| DO3MHA-11 | 2026-09-01 00:02:10 | 49.69844 | 17.92074 | 90° | 38km/h | 18016m | 4.7m/s | -53.8°C | 4.0% | 0hPa | 2.7V | 00:00:00 | 01:14:51 | 00:00:00 | |
| OE5DRO-10 | 2026-09-01 00:02:09 | 49.69844 | 17.92058 | 88° | 40km/h | 18011m | 4.4m/s | -53.8°C | 4.0% | 0hPa | 2.7V | 00:00:00 | 00:00:00 | 00:00:00 | |
| PETON7-10 | 2026-09-01 00:02:08 | 49.69843 | 17.92042 | 86° | 40km/h | 18006m | 6.4m/s | -53.8°C | 4.0% | 0hPa | 2.7V | 00:00:00 | 00:00:00 | 00:00:00 | |
| OE5MMP-10 | 2026-09-01 00:02:07 | 49.69842 | 17.92025 | 83° | 38km/h | 18000m | 4.8m/s | -53.8°C | 4.0% | 0hPa | 2.7V | 00:00:00 | 01:14:48 | 00:00:00 | |
| OM5KV | 2026-09-01 00:02:05 | 49.69841 | 17.92009 | 82° | 42km/h | 17996m | 4.0m/s | -53.9°C | 1.2% | 0hPa | 2.7V | 00:00:00 | 00:00:00 | 00:00:00 | |
| HA6NAB-11 | 2026-09-01 00:01:59 | 49.69780 | 17.91677 | 75° | 42km/h | 17877m | 4.5m/s | -53.8°C | 1.2% | 0hPa | 2.7V | 00:00:00 | 00:00:00 | 00:00:00 | |
| POL1PZ | 2026-09-01 00:01:57 | 49.69777 | 17.91662 | 80° | 38km/h | 17871m | 6.9m/s | -53.9°C | 1.2% | 0hPa | 2.7V | 00:00:00 | 00:00:00 | 00:00:00 | |
| OM5KV | 2026-09-01 00:01:55 | 49.69775 | 17.91633 | 88° | 37km/h | 17861m | 4.6m/s | -53.9°C | 1.2% | 0hPa | 2.7V | 00:00:00 | 00:00:00 | 00:00:00 | |
| DO3MHA-11 | 2026-09-01 00:01:53 | 49.69775 | 17.91618 | 86° | 42km/h | 17856m | 5.4m/s | -53.8°C | 4.0% | 0hPa | 2.7V | 00:00:00 | 01:14:21 | 00:00:00 | |
| PETON7-10 | 2026-09-01 00:01:48 | 49.69772 | 17.91590 | 78° | 44km/h | 17846m | 4.5m/s | -53.9°C | 4.0% | 0hPa | 2.7V | 00:00:00 | 00:00:00 | 08:30:00 | |
| HA6NAB-11 | 2026-09-01 00:01:47 | 49.69771 | 17.91590 | 78° | 37km/h | 17846m | 4.5m/s | -53.9°C | 1.2% | 0hPa | 2.7V | 00:00:00 | 00:00:00 | 00:00:00 | |
| OM5KV | 2026-09-01 00:01:44 | 49.69767 | 17.91562 | 74° | 37km/h | 17835m | 5.3m/s | -54.0°C | 1.2% | 0hPa | 2.7V | 00:00:00 | 00:00:00 | 00:00:00 | |
| PG1ADW-2 | 2026-09-01 00:01:40 | 49.69738 | 17.91488 | 58° | 42km/h | 17806m | 6.9m/s | -53.7°C | 4.1% | 0hPa | 2.7V | 00:00:00 | 00:00:00 | 00:00:00 | |
| DO3MHA-11 | 2026-09-01 00:01:39 | 49.69732 | 17.91472 | 62° | 44km/h | 17800m | 5.5m/s | -53.7°C | 4.1% | 0hPa | 2.6V | 00:00:00 | 01:14:11 | 00:00:00 | |
| OM5KV | 2026-09-01 00:01:32 | 49.69704 | 17.91396 | 63° | 44km/h | 17772m | 6.7m/s | -53.5°C | 1.2% | 0hPa | 2.7V | 00:00:00 | 00:00:00 | 00:00:00 | |
| PETON7-10 | 2026-09-01 00:01:30 | 49.69695 | 17.91366 | 63° | 42km/h | 17761m | 4.1m/s | -53.4°C | 4.0% | 0hPa | 2.7V | 00:00:00 | 00:00:00 | 00:00:00 | |
| POL1PZ | 2026-09-01 00:01:28 | 49.69695 | 17.91367 | 63° | 42km/h | 17761m | 4.2m/s | -53.4°C | 1.2% | 0hPa | 2.7V | 00:00:00 | 00:00:00 | 00:00:00 | |
| DO3MHA-11 | 2026-09-01 00:01:26 | 49.69678 | 17.91325 | 56° | 42km/h | 17745m | 4.9m/s | -53.2°C | 3.9% | 0hPa | 2.7V | 00:00:00 | 01:14:01 | 00:00:00 | |
| OM5KV | 2026-09-01 00:01:24 | 49.69672 | 17.91312 | 59° | 40km/h | 17739m | 6.9m/s | -53.2°C | 1.2% | 0hPa | 2.7V | 00:00:00 | 00:00:00 | 00:00:00 | |
| OM5KV | 2026-09-01 00:01:22 | 49.69667 | 17.91299 | 60° | 38km/h | 17733m | 5.0m/s | -53.2°C | 1.1% | 0hPa | 2.7V | 00:00:00 | 00:00:00 | 00:00:00 | |
| OE3OSB-13 | 2026-09-01 00:01:21 | 49.69650 | 17.91262 | 51° | 40km/h | 17717m | 3.8m/s | -53.1°C | 1.0% | -1.0hPa | 2.7V | 00:00:00 | 00:00:00 | 00:00:00 | |
| OM5KV | 2026-09-01 00:01:14 | 49.69631 | 17.91221 | 58° | 46km/h | 17702m | 4.2m/s | -53.0°C | 1.2% | 0hPa | 2.7V | 00:00:00 | 00:00:00 | 00:00:00 | |
| PG1ADW-2 | 2026-09-01 00:01:13 | 49.69625 | 17.91206 | 56° | 42km/h | 17697m | 4.8m/s | -52.9°C | 3.9% | 0hPa | 2.7V | 00:00:00 | 00:00:00 | 00:00:00 | |
| DO3MHA-11 | 2026-09-01 00:01:12 | 49.69618 | 17.91192 | 53° | 42km/h | 17691m | 6.3m/s | -52.9°C | 3.9% | 0hPa | 2.7V | 00:00:00 | 01:13:51 | 00:00:00 | |
| PETON7-10 | 2026-09-01 00:01:09 | 49.69604 | 17.91165 | 51° | 42km/h | 17680m | 5.3m/s | -52.9°C | 3.8% | 0hPa | 2.7V | 00:00:00 | 01:13:49 | 00:00:00 | |
| OM5KV | 2026-09-01 00:01:07 | 49.69597 | 17.91152 | 55° | 42km/h | 17674m | 6.7m/s | -52.9°C | 1.2% | 0hPa | 2.7V | 00:00:00 | 00:00:00 | 00:00:00 | |
| OM5KV | 2026-09-01 00:01:06 | 49.69592 | 17.91139 | 58° | 40km/h | 17669m | 4.4m/s | -52.9°C | 1.1% | 0hPa | 2.7V | 00:00:00 | 00:00:00 | 00:00:00 | |
| HA6NAB-11 | 2026-09-01 00:01:01 | 49.69544 | 17.91032 | 53° | 46km/h | 17626m | 5.4m/s | -52.7°C | 1.2% | 0hPa | 2.7V | 00:00:00 | 00:00:00 | 00:00:00 | |
| OE5DRO-10 | 2026-09-01 00:00:59 | 49.69513 | 17.90965 | 58° | 40km/h | 17599m | 6.1m/s | -52.8°C | 3.9% | 0hPa | 2.7V | 00:00:00 | 00:00:00 | 00:00:00 | |
| PETON7-10 | 2026-09-01 00:00:58 | 49.69513 | 17.90965 | 58° | 40km/h | 17599m | 6.1m/s | -52.8°C | 3.9% | 0hPa | 2.7V | 00:00:00 | 00:00:00 | 00:00:00 | |
| PG1ADW-2 | 2026-09-01 00:00:56 | 49.69501 | 17.90939 | 55° | 38km/h | 17588m | 4.0m/s | -52.9°C | 3.9% | 0hPa | 2.7V | 00:00:00 | 01:13:32 | 00:00:00 | |
| OM5KV | 2026-09-01 00:00:53 | 49.69496 | 17.90927 | 59° | 38km/h | 17584m | 5.6m/s | -53.0°C | 1.1% | 0hPa | 2.7V | 00:00:00 | 00:00:00 | 00:00:00 | |
| DO3MHA-11 | 2026-09-01 00:00:52 | 49.69491 | 17.90914 | 63° | 35km/h | 17578m | 5.8m/s | -53.0°C | 4.0% | 0hPa | 2.7V | 00:00:00 | 01:13:30 | 00:00:00 | |
| GYPAP8-17 | 2026-09-01 00:00:51 | 49.69492 | 17.90914 | 63° | 38km/h | 17578m | 5.8m/s | 0°C | 0% | 0hPa | 2.7V | 00:00:00 | 00:00:00 | 00:00:00 | |
| HA6NAB-11 | 2026-09-01 00:00:50 | 49.69482 | 17.90887 | 59° | 40km/h | 17569m | 5.1m/s | -53.0°C | 1.2% | 0hPa | 2.7V | 00:00:00 | 00:00:00 | 00:00:00 | |
| OE3OSB-13 | 2026-09-01 00:00:46 | 49.69463 | 17.90852 | 47° | 37km/h | 17552m | 5.9m/s | -52.9°C | 1.1% | -1.0hPa | 2.7V | 00:00:00 | 00:00:00 | 00:00:00 | |
| OM5KV | 2026-09-01 00:00:45 | 49.69469 | 17.90862 | 49° | 40km/h | 17558m | 5.4m/s | -52.9°C | 1.2% | 0hPa | 2.7V | 00:00:00 | 00:00:00 | 00:00:00 | |
| OE5MMP-10 | 2026-09-01 00:00:43 | 49.69456 | 17.90840 | 49° | 38km/h | 17546m | 6.2m/s | -52.8°C | 3.9% | 0hPa | 2.7V | 00:00:00 | 01:13:24 | 00:00:00 | |
| POL1PZ | 2026-09-01 00:00:40 | 49.69443 | 17.90818 | 47° | 40km/h | 17536m | 6.3m/s | -52.8°C | 1.2% | 0hPa | 2.7V | 00:00:00 | 00:00:00 | 00:00:00 | |
| OM5KV | 2026-09-01 00:00:39 | 49.69428 | 17.90795 | 49° | 42km/h | 17525m | 5.4m/s | -52.7°C | 1.2% | 0hPa | 2.7V | 00:00:00 | 00:00:00 | 00:00:00 | |
| PETON7-10 | 2026-09-01 00:00:37 | 49.69421 | 17.90782 | 53° | 37km/h | 17520m | 6.3m/s | -52.6°C | 3.9% | 0hPa | 2.7V | 00:00:00 | 00:00:00 | 00:00:00 | |
| OE5DRO-10 | 2026-09-01 00:00:33 | 49.69396 | 17.90735 | 48° | 35km/h | 17498m | 4.8m/s | -52.5°C | 3.8% | 0hPa | 2.7V | 00:00:00 | 00:00:00 | 00:00:00 | |
| OM5KV | 2026-09-01 00:00:32 | 49.69390 | 17.90725 | 51° | 35km/h | 17492m | 6.4m/s | -52.5°C | 1.1% | 0hPa | 2.6V | 00:00:00 | 00:00:00 | 00:00:00 | |
| OE5MMP-10 | 2026-09-01 00:00:31 | 49.69380 | 17.90705 | 50° | 35km/h | 17482m | 4.1m/s | 0°C | 0% | 0hPa | 2.6V | 00:00:00 | 01:13:12 | 00:00:00 | |
| PG1ADW-2 | 2026-09-01 00:00:30 | 49.69380 | 17.90705 | 50° | 35km/h | 17482m | 4.1m/s | -52.4°C | 3.7% | 0hPa | 2.6V | 00:00:00 | 00:00:00 | 08:30:00 | |
| HA6NAB-11 | 2026-09-01 00:00:29 | 49.69368 | 17.90688 | 41° | 33km/h | 17471m | 4.0m/s | -52.4°C | 1.1% | 0hPa | 2.6V | 00:00:00 | 00:00:00 | 00:00:00 | |
| OM5KV | 2026-09-01 00:00:28 | 49.69355 | 17.90669 | 47° | 35km/h | 17461m | 5.7m/s | -52.4°C | 1.1% | 0hPa | 2.6V | 00:00:00 | 00:00:00 | 00:00:00 | |
| HA6NAB-11 | 2026-09-01 00:00:27 | 49.69336 | 17.90640 | 40° | 37km/h | 17445m | 4.9m/s | -52.3°C | 1.2% | 0hPa | 2.6V | 00:00:00 | 00:00:00 | 00:00:00 | |
| PETON7-10 | 2026-09-01 00:00:26 | 49.69328 | 17.90631 | 41° | 35km/h | 17440m | 4.5m/s | -52.2°C | 3.7% | 0hPa | 2.6V | 00:00:00 | 01:13:04 | 00:00:00 | |
| POL1PZ | 2026-09-01 00:00:25 | 49.69315 | 17.90612 | 49° | 35km/h | 17429m | 5.8m/s | -52.4°C | 1.1% | 0hPa | 2.6V | 00:00:00 | 00:00:00 | 00:00:00 | |
| OM5KV | 2026-09-01 00:00:23 | 49.69304 | 17.90592 | 47° | 35km/h | 17420m | 4.6m/s | -52.4°C | 1.2% | 0hPa | 2.6V | 00:00:00 | 00:00:00 | 00:00:00 | |
| OE5DXL-15 | 2026-09-01 00:00:22 | 49.69291 | 17.90575 | 36° | 35km/h | 17409m | 5.0m/s | -52.3°C | 3.8% | 0hPa | 2.6V | 00:00:00 | 00:00:00 | 00:00:00 | |
| OM5KV | 2026-09-01 00:00:19 | 49.69276 | 17.90558 | 40° | 37km/h | 17398m | 6.4m/s | -52.3°C | 1.1% | 0hPa | 2.6V | 00:00:00 | 00:00:00 | 00:00:00 | |
| OE3OSB-13 | 2026-09-01 00:00:18 | 49.69263 | 17.90540 | 40° | 33km/h | 17388m | 4.6m/s | -52.2°C | 1.0% | -1.0hPa | 2.6V | 00:00:00 | 00:00:00 | 00:00:00 | |
| HA6NAB-11 | 2026-09-01 00:00:13 | 49.69256 | 17.90532 | 39° | 33km/h | 17383m | 6.0m/s | -52.2°C | 1.1% | 0hPa | 2.6V | 00:00:00 | 00:00:00 | 00:00:00 | |
| OE5MMP-10 | 2026-09-01 00:00:12 | 49.69250 | 17.90525 | 39° | 33km/h | 17377m | 4.7m/s | 0°C | 0% | 0hPa | 2.6V | 00:00:00 | 01:12:52 | 00:00:00 | |
| OM5KV | 2026-09-01 00:00:07 | 49.69233 | 17.90499 | 50° | 33km/h | 17359m | 5.7m/s | -52.2°C | 1.1% | 0hPa | 2.6V | 00:00:00 | 00:00:00 | 00:00:00 | |
| HA6NAB-11 | 2026-09-01 00:00:04 | 49.69223 | 17.90481 | 50° | 31km/h | 17346m | 5.6m/s | -52.3°C | 1.1% | 0hPa | 2.6V | 00:00:00 | 00:00:00 | 00:00:00 | |
| OE5MMP-10 | 2026-09-01 00:00:00 | 49.69194 | 17.90428 | 51° | 37km/h | 17318m | 4.5m/s | 0°C | 0% | 0hPa | 2.6V | 00:00:00 | 01:12:42 | 00:00:00 | |
| OM5KV | 2026-08-31 23:59:59 | 49.69194 | 17.90428 | 51° | 37km/h | 17318m | 4.5m/s | -52.6°C | 1.1% | 0hPa | 2.6V | 00:00:00 | 00:00:00 | 00:00:00 | |
| POL1PZ | 2026-08-31 23:59:58 | 49.69188 | 17.90417 | 52° | 38km/h | 17313m | 4.9m/s | -52.6°C | 1.1% | 0hPa | 2.6V | 00:00:00 | 00:00:00 | 00:00:00 | |
| OE5DRO-10 | 2026-08-31 23:59:55 | 49.69167 | 17.90367 | 64° | 33km/h | 17290m | 4.3m/s | -52.7°C | 3.8% | 0hPa | 2.6V | 00:00:00 | 00:00:00 | 00:00:00 | |
| OM5KV | 2026-08-31 23:59:54 | 49.69167 | 17.90367 | 65° | 35km/h | 17290m | 4.3m/s | -52.8°C | 1.2% | 0hPa | 2.6V | 00:00:00 | 00:00:00 | 00:00:00 | |
| HA6NAB-11 | 2026-08-31 23:59:53 | 49.69164 | 17.90355 | 66° | 35km/h | 17286m | 4.1m/s | -52.8°C | 1.1% | 0hPa | 2.6V | 00:00:00 | 00:00:00 | 00:00:00 | |
| PETON7-10 | 2026-08-31 23:59:51 | 49.69152 | 17.90318 | 64° | 33km/h | 17271m | 4.0m/s | -52.8°C | 3.8% | 0hPa | 2.6V | 00:00:00 | 00:00:00 | 00:00:00 | |
| PG1ADW-2 | 2026-08-31 23:59:50 | 49.69148 | 17.90305 | 63° | 33km/h | 17266m | 5.7m/s | -53.0°C | 3.8% | 0hPa | 2.6V | 00:00:00 | 00:00:00 | 00:00:00 | |
| HA6NAB-11 | 2026-08-31 23:59:47 | 49.69140 | 17.90281 | 64° | 37km/h | 17256m | 5.1m/s | -53.3°C | 1.2% | 0hPa | 2.6V | 00:00:00 | 00:00:00 | 00:00:00 | |
| OE5DXL-15 | 2026-08-31 23:59:46 | 49.69131 | 17.90256 | 61° | 35km/h | 17246m | 4.3m/s | -53.5°C | 4.0% | 0hPa | 2.6V | 00:00:00 | 00:00:00 | 08:30:00 | |
| OM5KV | 2026-08-31 23:59:45 | 49.69131 | 17.90256 | 61° | 38km/h | 17246m | 4.3m/s | -53.6°C | 1.3% | 0hPa | 2.6V | 00:00:00 | 00:00:00 | 00:00:00 | |
| OM5KV | 2026-08-31 23:59:44 | 49.69121 | 17.90232 | 55° | 33km/h | 17235m | 6.0m/s | -53.7°C | 1.3% | 0hPa | 2.6V | 00:00:00 | 00:00:00 | 00:00:00 | |
| HA6NAB-11 | 2026-08-31 23:59:43 | 49.69117 | 17.90223 | 51° | 29km/h | 17229m | 5.0m/s | -53.7°C | 1.3% | 0hPa | 2.6V | 00:00:00 | 00:00:00 | 00:00:00 | |
| OE3OSB-13 | 2026-08-31 23:59:42 | 49.69108 | 17.90206 | 51° | 27km/h | 17218m | 5.3m/s | -53.7°C | 1.1% | -1.0hPa | 2.6V | 00:00:00 | 00:00:00 | 00:00:00 | |
| OE5MMP-10 | 2026-08-31 23:59:40 | 49.69103 | 17.90198 | 51° | 35km/h | 17213m | 5.2m/s | 0°C | 0% | 0hPa | 2.6V | 00:00:00 | 01:12:22 | 00:00:00 | |
| OM5KV | 2026-08-31 23:59:39 | 49.69103 | 17.90198 | 52° | 27km/h | 17213m | 5.2m/s | -53.7°C | 1.3% | 0hPa | 2.6V | 00:00:00 | 00:00:00 | 00:00:00 | |
| OM5KV | 2026-08-31 23:59:38 | 49.69099 | 17.90190 | 50° | 26km/h | 17208m | 6.3m/s | -53.7°C | 1.2% | 0hPa | 2.6V | 00:00:00 | 00:00:00 | 00:00:00 | |
| PETON7-10 | 2026-08-31 23:59:36 | 49.69086 | 17.90160 | 63° | 35km/h | 17192m | 6.4m/s | -53.6°C | 4.0% | 0hPa | 2.6V | 00:00:00 | 01:12:18 | 00:00:00 | |
| OM5KV | 2026-08-31 23:59:32 | 49.69074 | 17.90118 | 69° | 38km/h | 17174m | 6.7m/s | -53.5°C | 1.3% | 0hPa | 2.6V | 00:00:00 | 00:00:00 | 00:00:00 | |
| OE5MMP-10 | 2026-08-31 23:59:30 | 49.69066 | 17.90078 | 79° | 33km/h | 17160m | 6.5m/s | 0°C | 0% | 0hPa | 2.6V | 00:00:00 | 01:12:12 | 00:00:00 | |
| HA6NAB-11 | 2026-08-31 23:59:29 | 49.69065 | 17.90065 | 81° | 33km/h | 17154m | 5.4m/s | -53.4°C | 1.2% | 0hPa | 2.6V | 00:00:00 | 00:00:00 | 00:00:00 | |
| S52SK | 2026-08-31 23:59:25 | 49.69058 | 17.90030 | 71° | 31km/h | 17135m | 5.1m/s | -53.4°C | 1.3% | 0hPa | 2.6V | 00:00:00 | 00:00:00 | 00:00:00 | |
| OM5KV | 2026-08-31 23:59:22 | 49.69052 | 17.89992 | 83° | 35km/h | 17117m | 3.1m/s | -53.4°C | 1.3% | 0hPa | 2.6V | 00:00:00 | 00:00:00 | 00:00:00 | |
| DO3MHA-11 | 2026-08-31 23:59:21 | 49.69049 | 17.89966 | 82° | 46km/h | 17106m | 6.7m/s | -53.3°C | 4.0% | 0hPa | 2.6V | 00:00:00 | 01:12:03 | 00:00:00 | |
| OE5MMP-10 | 2026-08-31 23:59:20 | 49.69048 | 17.89953 | 85° | 40km/h | 17100m | 3.8m/s | 0°C | 0% | 0hPa | 2.6V | 00:00:00 | 01:12:02 | 00:00:00 | |
| POL1PZ | 2026-08-31 23:59:18 | 49.69047 | 17.89939 | 88° | 37km/h | 17096m | 5.6m/s | -53.4°C | 1.3% | 0hPa | 2.6V | 00:00:00 | 00:00:00 | 00:00:00 | |
| OE5DRO-10 | 2026-08-31 23:59:17 | 49.69047 | 17.89908 | 91° | 46km/h | 17084m | 4.8m/s | -53.3°C | 4.0% | 0hPa | 2.6V | 00:00:00 | 00:00:00 | 00:00:00 | |
| OE5DXL-15 | 2026-08-31 23:59:16 | 49.69047 | 17.89891 | 90° | 49km/h | 17079m | 6.0m/s | -53.3°C | 4.0% | 0hPa | 2.6V | 00:00:00 | 00:00:00 | 00:00:00 | |
| S52SK | 2026-08-31 23:59:15 | 49.69047 | 17.89891 | 90° | 44km/h | 17079m | 6.1m/s | -53.4°C | 1.3% | 0hPa | 2.6V | 00:00:00 | 00:00:00 | 00:00:00 | |
| HA6NAB-11 | 2026-08-31 23:59:12 | 49.69043 | 17.89827 | 83° | 42km/h | 17056m | 4.9m/s | -53.4°C | 1.3% | 0hPa | 2.6V | 00:00:00 | 00:00:00 | 00:00:00 | |
| OE3OSB-13 | 2026-08-31 23:59:11 | 49.69040 | 17.89796 | 77° | 38km/h | 17044m | 7.4m/s | -53.3°C | 1.1% | -1.0hPa | 2.6V | 00:00:00 | 00:00:00 | 00:00:00 | |
| OE5MMP-10 | 2026-08-31 23:59:10 | 49.69040 | 17.89796 | 78° | 47km/h | 17044m | 7.4m/s | 0°C | 0% | 0hPa | 2.6V | 00:00:00 | 01:11:52 | 00:00:00 | |
| HA6NAB-11 | 2026-08-31 23:59:06 | 49.69033 | 17.89728 | 90° | 51km/h | 17023m | 4.1m/s | -53.3°C | 1.3% | 0hPa | 2.6V | 00:00:00 | 00:00:00 | 00:00:00 | |
| OM5KV | 2026-08-31 23:59:04 | 49.69033 | 17.89708 | 93° | 51km/h | 17018m | 5.3m/s | -53.2°C | 1.3% | 0hPa | 2.6V | 00:00:00 | 00:00:00 | 00:00:00 | |
| OE5MMP-10 | 2026-08-31 23:59:00 | 49.69035 | 17.89610 | 88° | 62km/h | 16990m | 4.8m/s | 0°C | 0% | 0hPa | 2.6V | 00:00:00 | 01:11:42 | 00:00:00 | |
| HA6NAB-11 | 2026-08-31 23:58:59 | 49.69035 | 17.89610 | 88° | 53km/h | 16990m | 4.9m/s | -53.2°C | 1.3% | 0hPa | 2.6V | 00:00:00 | 00:00:00 | 00:00:00 | |
| OE5DRO-10 | 2026-08-31 23:58:58 | 49.69034 | 17.89571 | 86° | 57km/h | 16979m | 5.8m/s | -53.2°C | 3.8% | 0hPa | 2.6V | 00:00:00 | 00:00:00 | 00:00:00 | |
| POL1PZ | 2026-08-31 23:58:57 | 49.69033 | 17.89571 | 86° | 47km/h | 16979m | 5.9m/s | -53.3°C | 1.2% | 0hPa | 2.6V | 00:00:00 | 00:00:00 | 00:00:00 | |
| HA6NAB-11 | 2026-08-31 23:58:53 | 49.69030 | 17.89493 | 88° | 58km/h | 16958m | 6.5m/s | -53.9°C | 1.3% | 0hPa | 2.6V | 00:00:00 | 00:00:00 | 00:00:00 | |
| DO3MHA-11 | 2026-08-31 23:58:52 | 49.69030 | 17.89445 | 91° | 57km/h | 16945m | 7.2m/s | -53.9°C | 4.0% | 0hPa | 2.6V | 00:00:00 | 01:11:34 | 08:30:00 | |
| PETON7-10 | 2026-08-31 23:58:51 | 49.69030 | 17.89422 | 93° | 60km/h | 16939m | 5.7m/s | -54.0°C | 4.0% | 0hPa | 2.6V | 00:00:00 | 01:11:33 | 00:00:00 | |
| PG1ADW-2 | 2026-08-31 23:58:50 | 49.69030 | 17.89399 | 93° | 62km/h | 16934m | 4.6m/s | -54.1°C | 4.0% | 0hPa | 2.6V | 00:00:00 | 00:00:00 | 00:00:00 | |
| HA6NAB-11 | 2026-08-31 23:58:48 | 49.69031 | 17.89376 | 92° | 57km/h | 16927m | 7.8m/s | -54.2°C | 1.3% | 0hPa | 2.6V | 00:00:00 | 00:00:00 | 00:00:00 | |
| OE5DXL-15 | 2026-08-31 23:58:46 | 49.69030 | 17.89311 | 88° | 68km/h | 16911m | 6.2m/s | -54.3°C | 4.1% | 0hPa | 2.6V | 00:00:00 | 00:00:00 | 00:00:00 | |
| OM5KV | 2026-08-31 23:58:45 | 49.69030 | 17.89311 | 89° | 55km/h | 16911m | 6.3m/s | -54.3°C | 1.4% | 0hPa | 2.6V | 00:00:00 | 00:00:00 | 00:00:00 | |
| DO3MHA-11 | 2026-08-31 23:58:42 | 49.69028 | 17.89222 | 86° | 66km/h | 16889m | 4.5m/s | -54.7°C | 4.2% | 0hPa | 2.6V | 00:00:00 | 01:11:24 | 00:00:00 | |
| OE3OSB-13 | 2026-08-31 23:58:40 | 49.69026 | 17.89147 | 89° | 66km/h | 16873m | 4.9m/s | -54.9°C | 1.3% | -1.0hPa | 2.6V | 00:00:00 | 00:00:00 | 00:00:00 | |
| OE5DRO-10 | 2026-08-31 23:58:39 | 49.69026 | 17.89147 | 90° | 69km/h | 16873m | 4.9m/s | -54.8°C | 4.2% | 0hPa | 2.6V | 00:00:00 | 00:00:00 | 00:00:00 | |
| OE5MMP-10 | 2026-08-31 23:58:37 | 49.69024 | 17.89095 | 85° | 66km/h | 16862m | 6.0m/s | 0°C | 0% | 0hPa | 2.7V | 00:00:00 | 01:11:19 | 00:00:00 | |
| PETON7-10 | 2026-08-31 23:58:36 | 49.69022 | 17.89069 | 81° | 69km/h | 16857m | 4.5m/s | -55.2°C | 4.3% | 0hPa | 2.7V | 00:00:00 | 00:00:00 | 00:00:00 | |
| OM5KV | 2026-08-31 23:58:35 | 49.69021 | 17.89069 | 82° | 68km/h | 16857m | 4.5m/s | -55.2°C | 1.5% | 0hPa | 2.6V | 00:00:00 | 00:00:00 | 00:00:00 | |
| OM5KV | 2026-08-31 23:58:34 | 49.69019 | 17.89043 | 82° | 66km/h | 16852m | 5.8m/s | -55.3°C | 1.4% | 0hPa | 2.6V | 00:00:00 | 00:00:00 | 00:00:00 | |
| DO3MHA-11 | 2026-08-31 23:58:32 | 49.69010 | 17.88969 | 78° | 71km/h | 16836m | 5.7m/s | -55.4°C | 4.4% | 0hPa | 2.6V | 00:00:00 | 01:11:14 | 00:00:00 | |
| PG1ADW-2 | 2026-08-31 23:58:30 | 49.68999 | 17.88895 | 80° | 77km/h | 16819m | 6.4m/s | -55.5°C | 4.4% | 0hPa | 2.6V | 00:00:00 | 00:00:00 | 00:00:00 | |
| OM5KV | 2026-08-31 23:58:28 | 49.68999 | 17.88895 | 81° | 68km/h | 16819m | 6.4m/s | -55.5°C | 1.5% | 0hPa | 2.6V | 00:00:00 | 00:00:00 | 00:00:00 | |
| OM5KV | 2026-08-31 23:58:24 | 49.68989 | 17.88780 | 81° | 78km/h | 16799m | 4.9m/s | -55.6°C | 1.5% | 0hPa | 2.6V | 00:00:00 | 00:00:00 | 00:00:00 | |
| DO3MHA-11 | 2026-08-31 23:58:22 | 49.68978 | 17.88695 | 78° | 77km/h | 16785m | 5.8m/s | -55.8°C | 4.4% | 0hPa | 2.6V | 00:00:00 | 01:11:04 | 00:00:00 | |
| PETON7-10 | 2026-08-31 23:58:21 | 49.68974 | 17.88668 | 77° | 77km/h | 16780m | 3.2m/s | -55.9°C | 4.5% | 0hPa | 2.7V | 00:00:00 | 00:00:00 | 00:00:00 | |
| OE5DRO-10 | 2026-08-31 23:58:20 | 49.68970 | 17.88642 | 76° | 78km/h | 16776m | 5.1m/s | -56.1°C | 4.6% | 0hPa | 2.7V | 00:00:00 | 00:00:00 | 00:00:00 | |
| OM5KV | 2026-08-31 23:58:18 | 49.68965 | 17.88615 | 74° | 75km/h | 16770m | 6.6m/s | -56.4°C | 1.6% | 0hPa | 2.7V | 00:00:00 | 00:00:00 | 00:00:00 | |
| OE5DXL-15 | 2026-08-31 23:58:16 | 49.68943 | 17.88527 | 69° | 80km/h | 16754m | 6.1m/s | -56.6°C | 4.7% | 0hPa | 2.7V | 00:00:00 | 00:00:00 | 00:00:00 | |
| OM5KV | 2026-08-31 23:58:13 | 49.68929 | 17.88469 | 71° | 77km/h | 16739m | 4.7m/s | -56.6°C | 1.6% | 0hPa | 2.7V | 00:00:00 | 00:00:00 | 00:00:00 | |
| DO3MHA-11 | 2026-08-31 23:58:12 | 49.68915 | 17.88412 | 70° | 78km/h | 16727m | 5.9m/s | -56.5°C | 4.7% | 0hPa | 2.7V | 00:00:00 | 01:10:54 | 00:00:00 | |
| OM5KV | 2026-08-31 23:58:11 | 49.68915 | 17.88412 | 70° | 78km/h | 16727m | 5.9m/s | -56.6°C | 1.6% | 0hPa | 2.7V | 00:00:00 | 00:00:00 | 00:00:00 | |
| PG1ADW-2 | 2026-08-31 23:58:10 | 49.68900 | 17.88356 | 67° | 80km/h | 16719m | 5.2m/s | -56.6°C | 4.8% | 0hPa | 2.7V | 00:00:00 | 01:10:52 | 00:00:00 | |
| OE3OSB-13 | 2026-08-31 23:58:09 | 49.68884 | 17.88303 | 63° | 73km/h | 16706m | 4.6m/s | -56.7°C | 1.5% | -1.0hPa | 2.7V | 00:00:00 | 00:00:00 | 00:00:00 | |
| OM5KV | 2026-08-31 23:58:08 | 49.68884 | 17.88303 | 64° | 73km/h | 16706m | 4.6m/s | -56.7°C | 1.6% | 0hPa | 2.7V | 00:00:00 | 00:00:00 | 00:00:00 | |
| PETON7-10 | 2026-08-31 23:58:06 | 49.68866 | 17.88250 | 65° | 82km/h | 16695m | 7.0m/s | -56.8°C | 4.7% | 0hPa | 2.7V | 00:00:00 | 01:10:48 | 00:00:00 | |
| OM5KV | 2026-08-31 23:58:05 | 49.68866 | 17.88250 | 65° | 78km/h | 16695m | 7.1m/s | -56.8°C | 1.6% | 0hPa | 2.7V | 00:00:00 | 00:00:00 | 00:00:00 | |
| DO3MHA-11 | 2026-08-31 23:58:02 | 49.68828 | 17.88134 | 62° | 82km/h | 16672m | 4.8m/s | -57.1°C | 4.9% | 0hPa | 2.7V | 00:00:00 | 01:10:44 | 00:00:00 | |
| OE5DRO-10 | 2026-08-31 23:58:01 | 49.68817 | 17.88103 | 62° | 80km/h | 16666m | 6.6m/s | -57.1°C | 5.0% | 0hPa | 2.7V | 00:00:00 | 00:00:00 | 00:00:00 | |
| OM5KV | 2026-08-31 23:58:00 | 49.68817 | 17.88103 | 63° | 88km/h | 16666m | 6.6m/s | -57.2°C | 1.7% | 0hPa | 2.7V | 00:00:00 | 00:00:00 | 00:00:00 | |
| HA6NAB-11 | 2026-08-31 23:57:57 | 49.68785 | 17.88016 | 60° | 82km/h | 16649m | 5.1m/s | -57.1°C | 1.7% | 0hPa | 2.7V | 00:00:00 | 00:00:00 | 00:00:00 | |
| OM5KV | 2026-08-31 23:57:56 | 49.68775 | 17.87990 | 60° | 78km/h | 16645m | 3.2m/s | -57.1°C | 1.7% | 0hPa | 2.7V | 00:00:00 | 00:00:00 | 00:00:00 | |
| POL1PZ | 2026-08-31 23:57:55 | 49.68765 | 17.87963 | 61° | 78km/h | 16641m | 5.6m/s | -57.1°C | 1.7% | 0hPa | 2.7V | 00:00:00 | 00:00:00 | 00:00:00 | |
| OM5KV | 2026-08-31 23:57:54 | 49.68755 | 17.87937 | 61° | 78km/h | 16635m | 5.0m/s | -57.1°C | 1.7% | 0hPa | 2.7V | 00:00:00 | 00:00:00 | 00:00:00 | |
| DO3MHA-11 | 2026-08-31 23:57:52 | 49.68723 | 17.87858 | 56° | 80km/h | 16620m | 4.5m/s | 0°C | 0% | 0hPa | 2.7V | 00:00:00 | 01:10:34 | 00:00:00 | |
| PETON7-10 | 2026-08-31 23:57:51 | 49.68712 | 17.87832 | 57° | 77km/h | 16616m | 4.6m/s | -56.9°C | 5.0% | 0hPa | 2.7V | 00:00:00 | 00:00:00 | 00:00:00 | |
| PG1ADW-2 | 2026-08-31 23:57:50 | 49.68700 | 17.87806 | 57° | 75km/h | 16610m | 5.3m/s | -56.9°C | 5.1% | 0hPa | 2.6V | 00:00:00 | 00:00:00 | 00:00:00 | |
| OE5DXL-15 | 2026-08-31 23:57:46 | 49.68653 | 17.87701 | 54° | 71km/h | 16591m | 4.2m/s | -56.8°C | 5.0% | 0hPa | 2.6V | 00:00:00 | 00:00:00 | 00:00:00 | |
| S52SK | 2026-08-31 23:57:44 | 49.68641 | 17.87676 | 55° | 78km/h | 16586m | 5.4m/s | -56.8°C | 1.7% | 0hPa | 2.6V | 00:00:00 | 00:00:00 | 00:00:00 | |
| OM5KV | 2026-08-31 23:57:43 | 49.68629 | 17.87651 | 55° | 77km/h | 16581m | 5.4m/s | -56.8°C | 1.7% | 0hPa | 2.6V | 00:00:00 | 00:00:00 | 00:00:00 | |
| DO3MHA-11 | 2026-08-31 23:57:42 | 49.68607 | 17.87604 | 53° | 73km/h | 16572m | 5.8m/s | 0°C | 0% | 0hPa | 2.6V | 00:00:00 | 01:10:24 | 00:00:00 | |
| HA6NAB-11 | 2026-08-31 23:57:41 | 49.68607 | 17.87604 | 54° | 73km/h | 16572m | 5.8m/s | -56.7°C | 1.7% | 0hPa | 2.6V | 00:00:00 | 00:00:00 | 00:00:00 | |
| S52SK | 2026-08-31 23:57:38 | 49.68574 | 17.87539 | 53° | 71km/h | 16556m | 6.3m/s | -56.6°C | 1.7% | 0hPa | 2.6V | 00:00:00 | 00:00:00 | 00:00:00 | |
| HA6NAB-11 | 2026-08-31 23:57:37 | 49.68552 | 17.87493 | 56° | 75km/h | 16545m | 4.3m/s | -56.5°C | 1.7% | 0hPa | 2.6V | 00:00:00 | 00:00:00 | 00:00:00 | |
| PETON7-10 | 2026-08-31 23:57:36 | 49.68542 | 17.87469 | 55° | 71km/h | 16541m | 4.0m/s | -56.4°C | 4.9% | 0hPa | 2.6V | 00:00:00 | 00:00:00 | 00:00:00 | |
| POL1PZ | 2026-08-31 23:57:35 | 49.68542 | 17.87470 | 56° | 75km/h | 16541m | 4.1m/s | -56.5°C | 1.7% | 0hPa | 2.6V | 00:00:00 | 00:00:00 | 00:00:00 | |
| DO3MHA-11 | 2026-08-31 23:57:32 | 49.68499 | 17.87380 | 57° | 71km/h | 16520m | 6.5m/s | 0°C | 0% | 0hPa | 2.6V | 00:00:00 | 01:10:14 | 00:00:00 | |
| OM5KV | 2026-08-31 23:57:31 | 49.68499 | 17.87380 | 58° | 66km/h | 16520m | 6.6m/s | -56.3°C | 1.7% | 0hPa | 2.6V | 00:00:00 | 00:00:00 | 00:00:00 | |
| PG1ADW-2 | 2026-08-31 23:57:30 | 49.68481 | 17.87336 | 56° | 69km/h | 16509m | 5.9m/s | -56.2°C | 4.9% | 0hPa | 2.6V | 00:00:00 | 00:00:00 | 08:30:00 | |
| OM5KV | 2026-08-31 23:57:26 | 49.68449 | 17.87272 | 53° | 71km/h | 16492m | 6.2m/s | -56.1°C | 1.6% | 0hPa | 2.6V | 00:00:00 | 00:00:00 | 00:00:00 | |
| OM5KV | 2026-08-31 23:57:25 | 49.68438 | 17.87250 | 53° | 73km/h | 16487m | 4.8m/s | -56.1°C | 1.6% | 0hPa | 2.6V | 00:00:00 | 00:00:00 | 00:00:00 | |
| HA6NAB-11 | 2026-08-31 23:57:24 | 49.68427 | 17.87227 | 52° | 75km/h | 16481m | 6.1m/s | -56.0°C | 1.7% | 0hPa | 2.6V | 00:00:00 | 00:00:00 | 00:00:00 | |
| OE5DRO-10 | 2026-08-31 23:57:23 | 49.68402 | 17.87183 | 50° | 71km/h | 16470m | 4.1m/s | -55.9°C | 4.8% | 0hPa | 2.6V | 00:00:00 | 00:00:00 | 00:00:00 | |
| DO3MHA-11 | 2026-08-31 23:57:22 | 49.68390 | 17.87161 | 51° | 68km/h | 16465m | 6.6m/s | 0°C | 0% | 0hPa | 2.6V | 00:00:00 | 01:10:04 | 08:30:00 | |
| PETON7-10 | 2026-08-31 23:57:21 | 49.68379 | 17.87140 | 54° | 71km/h | 16459m | 5.4m/s | -55.8°C | 4.8% | 0hPa | 2.6V | 00:00:00 | 01:10:03 | 00:00:00 | |
| HA6NAB-11 | 2026-08-31 23:57:18 | 49.68360 | 17.87097 | 56° | 66km/h | 16448m | 6.8m/s | -55.8°C | 1.6% | 0hPa | 2.6V | 00:00:00 | 00:00:00 | 00:00:00 | |
| OE5DXL-15 | 2026-08-31 23:57:16 | 49.68333 | 17.87036 | 58° | 68km/h | 16432m | 6.1m/s | -55.6°C | 4.7% | 0hPa | 2.6V | 00:00:00 | 00:00:00 | 00:00:00 | |
| POL1PZ | 2026-08-31 23:57:14 | 49.68325 | 17.87015 | 58° | 64km/h | 16427m | 4.1m/s | -55.6°C | 1.6% | 0hPa | 2.6V | 00:00:00 | 00:00:00 | 00:00:00 | |
| DO3MHA-11 | 2026-08-31 23:57:12 | 49.68292 | 17.86948 | 49° | 73km/h | 16409m | 5.1m/s | 0°C | 0% | 0hPa | 2.6V | 00:00:00 | 01:09:54 | 00:00:00 | |
| PG1ADW-2 | 2026-08-31 23:57:10 | 49.68263 | 17.86901 | 46° | 69km/h | 16398m | 4.8m/s | -55.5°C | 4.6% | 0hPa | 2.6V | 00:00:00 | 00:00:00 | 00:00:00 | |
| OM5KV | 2026-08-31 23:57:09 | 49.68263 | 17.86901 | 46° | 84km/h | 16398m | 4.8m/s | -55.5°C | 1.6% | 0hPa | 2.6V | 00:00:00 | 00:00:00 | 00:00:00 | |
| HA6NAB-11 | 2026-08-31 23:57:08 | 49.68248 | 17.86878 | 46° | 84km/h | 16392m | 5.5m/s | -55.6°C | 1.6% | 0hPa | 2.6V | 00:00:00 | 00:00:00 | 00:00:00 | |
| PETON7-10 | 2026-08-31 23:57:06 | 49.68209 | 17.86811 | 55° | 66km/h | 16378m | 6.8m/s | -55.5°C | 4.7% | 0hPa | 2.6V | 00:00:00 | 00:00:00 | 08:30:00 | |
| OE5DRO-10 | 2026-08-31 23:57:04 | 49.68195 | 17.86770 | 70° | 60km/h | 16364m | 6.5m/s | -55.3°C | 4.7% | 0hPa | 2.7V | 00:00:00 | 00:00:00 | 00:00:00 | |
| OM5KV | 2026-08-31 23:57:03 | 49.68195 | 17.86770 | 71° | 55km/h | 16364m | 6.6m/s | -55.4°C | 1.6% | 0hPa | 2.7V | 00:00:00 | 00:00:00 | 00:00:00 | |
| DO3MHA-11 | 2026-08-31 23:57:02 | 49.68188 | 17.86730 | 76° | 66km/h | 16353m | 2.7m/s | 0°C | 0% | 0hPa | 2.7V | 00:00:00 | 01:09:44 | 00:00:00 | |
| OM5KV | 2026-08-31 23:56:57 | 49.68169 | 17.86651 | 61° | 60km/h | 16330m | 9.5m/s | -55.3°C | 1.6% | 0hPa | 2.7V | 00:00:00 | 00:00:00 | 00:00:00 | |
| HA6NAB-11 | 2026-08-31 23:56:56 | 49.68160 | 17.86630 | 55° | 69km/h | 16320m | 8.9m/s | -55.3°C | 1.6% | 0hPa | 2.7V | 00:00:00 | 00:00:00 | 00:00:00 | |
| POL1PZ | 2026-08-31 23:56:53 | 49.68122 | 17.86557 | 54° | 86km/h | 16298m | 6.0m/s | -55.2°C | 1.6% | 0hPa | 2.7V | 00:00:00 | 00:00:00 | 00:00:00 | |
| DO3MHA-11 | 2026-08-31 23:56:52 | 49.68100 | 17.86500 | 67° | 60km/h | 16284m | 5.2m/s | 0°C | 0% | 0hPa | 2.7V | 00:00:00 | 01:09:34 | 00:00:00 | |
| PETON7-10 | 2026-08-31 23:56:51 | 49.68092 | 17.86472 | 70° | 57km/h | 16277m | 7.8m/s | -55.0°C | 4.7% | 0hPa | 2.7V | 00:00:00 | 00:00:00 | 00:00:00 | |
| PG1ADW-2 | 2026-08-31 23:56:50 | 49.68087 | 17.86447 | 72° | 55km/h | 16269m | 8.0m/s | -54.9°C | 4.7% | 0hPa | 2.7V | 00:00:00 | 01:09:32 | 00:00:00 | |
| OM5KV | 2026-08-31 23:56:48 | 49.68082 | 17.86427 | 70° | 47km/h | 16262m | 6.8m/s | -54.9°C | 1.6% | 0hPa | 2.7V | 00:00:00 | 00:00:00 | 00:00:00 | |
| OE5DXL-15 | 2026-08-31 23:56:46 | 49.68065 | 17.86393 | 34° | 53km/h | 16239m | 7.3m/s | -54.6°C | 4.5% | 0hPa | 2.7V | 00:00:00 | 00:00:00 | 00:00:00 | |
| OE5DRO-10 | 2026-08-31 23:56:45 | 49.68055 | 17.86383 | 32° | 60km/h | 16231m | 8.4m/s | -54.6°C | 4.5% | 0hPa | 2.7V | 00:00:00 | 00:00:00 | 08:30:00 | |
| OM5KV | 2026-08-31 23:56:42 | 49.68031 | 17.86358 | 36° | 62km/h | 16214m | 11.4m/s | -54.5°C | 1.5% | 0hPa | 2.6V | 00:00:00 | 00:00:00 | 00:00:00 | |
| DO3MHA-11 | 2026-08-31 23:56:41 | 49.68006 | 17.86325 | 45° | 57km/h | 16194m | 9.3m/s | 0°C | 0% | 0hPa | 2.6V | 00:00:00 | 01:09:23 | 00:00:00 | |
| PETON7-10 | 2026-08-31 23:56:36 | 49.67952 | 17.86240 | 42° | 53km/h | 16155m | 7.8m/s | -54.2°C | 4.5% | 0hPa | 2.6V | 00:00:00 | 01:09:18 | 00:00:00 | |
| OE3OSB-13 | 2026-08-31 23:56:35 | 49.67942 | 17.86228 | 39° | 49km/h | 16147m | 7.5m/s | -54.2°C | 1.3% | -1.0hPa | 2.6V | 00:00:00 | 00:00:00 | 00:00:00 | |
| POL1PZ | 2026-08-31 23:56:32 | 49.67922 | 17.86203 | 42° | 57km/h | 16129m | 5.4m/s | -54.0°C | 1.5% | 0hPa | 2.6V | 00:00:00 | 00:00:00 | 00:00:00 | |
| PG1ADW-2 | 2026-08-31 23:56:30 | 49.67890 | 17.86150 | 52° | 44km/h | 16106m | 7.1m/s | -53.8°C | 4.4% | 0hPa | 2.6V | 00:00:00 | 00:00:00 | 00:00:00 | |
| OM5KV | 2026-08-31 23:56:29 | 49.67890 | 17.86150 | 53° | 66km/h | 16106m | 7.1m/s | -53.9°C | 1.5% | 0hPa | 2.7V | 00:00:00 | 00:00:00 | 00:00:00 | |
| OM5KV | 2026-08-31 23:56:28 | 49.67880 | 17.86129 | 54° | 68km/h | 16099m | 7.4m/s | -53.8°C | 1.5% | 0hPa | 2.7V | 00:00:00 | 00:00:00 | 00:00:00 | |
| OE5DRO-10 | 2026-08-31 23:56:26 | 49.67855 | 17.86074 | 62° | 40km/h | 16083m | 4.4m/s | -53.7°C | 4.2% | 0hPa | 2.7V | 00:00:00 | 00:00:00 | 00:00:00 | |
| DO3MHA-11 | 2026-08-31 23:56:24 | 49.67844 | 17.86045 | 59° | 38km/h | 16068m | 9.6m/s | 0°C | 0% | 0hPa | 2.7V | 00:00:00 | 01:09:06 | 00:00:00 | |
| PETON7-10 | 2026-08-31 23:56:21 | 49.67827 | 17.86007 | 48° | 40km/h | 16040m | 10.9m/s | -53.3°C | 4.2% | 0hPa | 2.7V | 00:00:00 | 00:00:00 | 00:00:00 | |
| HA6NAB-11 | 2026-08-31 23:56:20 | 49.67827 | 17.86007 | 48° | 40km/h | 16040m | 10.9m/s | -53.4°C | 1.5% | 0hPa | 2.7V | 00:00:00 | 00:00:00 | 00:00:00 | |
| OM5KV | 2026-08-31 23:56:19 | 49.67819 | 17.85996 | 41° | 42km/h | 16032m | 5.4m/s | -53.3°C | 1.5% | 0hPa | 2.7V | 00:00:00 | 00:00:00 | 00:00:00 | |
| OE5DXL-15 | 2026-08-31 23:56:16 | 49.67789 | 17.85958 | 44° | 37km/h | 16002m | 3.8m/s | -53.1°C | 4.2% | 0hPa | 2.7V | 00:00:00 | 00:00:00 | 00:00:00 | |
| OM5KV | 2026-08-31 23:56:15 | 49.67789 | 17.85958 | 44° | 38km/h | 16002m | 3.9m/s | -53.1°C | 1.4% | 0hPa | 2.7V | 00:00:00 | 00:00:00 | 00:00:00 | |
| HA6NAB-11 | 2026-08-31 23:56:14 | 49.67782 | 17.85947 | 47° | 37km/h | 15996m | 9.2m/s | -53.1°C | 1.4% | 0hPa | 2.7V | 00:00:00 | 00:00:00 | 00:00:00 | |
| DO3MHA-11 | 2026-08-31 23:56:12 | 49.67764 | 17.85913 | 51° | 35km/h | 15973m | 9.1m/s | 0°C | 0% | 0hPa | 2.7V | 00:00:00 | 01:08:54 | 00:00:00 | |
| POL1PZ | 2026-08-31 23:56:11 | 49.67764 | 17.85913 | 52° | 38km/h | 15973m | 9.1m/s | -53.1°C | 1.4% | 0hPa | 2.7V | 00:00:00 | 00:00:00 | 00:00:00 | |
| PG1ADW-2 | 2026-08-31 23:56:10 | 49.67751 | 17.85891 | 47° | 35km/h | 15960m | 7.3m/s | -52.9°C | 4.0% | 0hPa | 2.7V | 00:00:00 | 00:00:00 | 00:00:00 | |
| HA6NAB-11 | 2026-08-31 23:56:09 | 49.67751 | 17.85891 | 47° | 42km/h | 15960m | 7.3m/s | -53.0°C | 1.4% | 0hPa | 2.7V | 00:00:00 | 00:00:00 | 00:00:00 | |
| OM5KV | 2026-08-31 23:56:08 | 49.67744 | 17.85879 | 48° | 42km/h | 15953m | 7.8m/s | -53.0°C | 1.4% | 0hPa | 2.7V | 00:00:00 | 00:00:00 | 00:00:00 | |
| OE5DRO-10 | 2026-08-31 23:56:07 | 49.67728 | 17.85857 | 39° | 35km/h | 15937m | 8.3m/s | -52.9°C | 4.0% | 0hPa | 2.7V | 00:00:00 | 00:00:00 | 00:00:00 | |
| PETON7-10 | 2026-08-31 23:56:06 | 49.67720 | 17.85849 | 30° | 31km/h | 15929m | 8.3m/s | -52.9°C | 4.0% | 0hPa | 2.7V | 00:00:00 | 00:00:00 | 00:00:00 | |
| OM5KV | 2026-08-31 23:56:03 | 49.67695 | 17.85833 | 24° | 35km/h | 15910m | 6.8m/s | -53.0°C | 1.4% | 0hPa | 2.7V | 00:00:00 | 00:00:00 | 00:00:00 | |
| S52SK | 2026-08-31 23:56:01 | 49.67688 | 17.85827 | 36° | 31km/h | 15905m | 3.7m/s | -52.9°C | 1.4% | 0hPa | 2.7V | 00:00:00 | 00:00:00 | 00:00:00 | |
| DO3MHA-11 | 2026-08-31 23:55:59 | 49.67674 | 17.85804 | 62° | 33km/h | 15883m | 10.8m/s | 0°C | 0% | 0hPa | 2.7V | 00:00:00 | 01:08:41 | 00:00:00 | |
| OM5KV | 2026-08-31 23:55:57 | 49.67672 | 17.85797 | 78° | 22km/h | 15876m | 4.6m/s | -52.8°C | 1.4% | 0hPa | 2.7V | 00:00:00 | 00:00:00 | 00:00:00 | |
| S52SK | 2026-08-31 23:55:55 | 49.67669 | 17.85779 | 65° | 27km/h | 15864m | 4.8m/s | -52.8°C | 1.5% | 0hPa | 2.7V | 00:00:00 | 00:00:00 | 00:00:00 | |
| PETON7-10 | 2026-08-31 23:55:51 | 49.67631 | 17.85735 | 27° | 33km/h | 15834m | 7.1m/s | -52.7°C | 3.9% | 0hPa | 2.7V | 00:00:00 | 01:08:33 | 00:00:00 | |
| PG1ADW-2 | 2026-08-31 23:55:50 | 49.67621 | 17.85727 | 28° | 35km/h | 15827m | 7.5m/s | -52.8°C | 4.0% | 0hPa | 2.7V | 00:00:00 | 00:00:00 | 00:00:00 | |
| DO3MHA-11 | 2026-08-31 23:55:49 | 49.67612 | 17.85719 | 30° | 31km/h | 15819m | 6.9m/s | 0°C | 0% | 0hPa | 2.7V | 00:00:00 | 01:08:31 | 00:00:00 | |
| OE5DRO-10 | 2026-08-31 23:55:48 | 49.67603 | 17.85711 | 33° | 35km/h | 15812m | 7.0m/s | -52.8°C | 3.9% | 0hPa | 2.7V | 00:00:00 | 00:00:00 | 00:00:00 | |
| OE5DXL-15 | 2026-08-31 23:55:46 | 49.67588 | 17.85696 | 38° | 40km/h | 15795m | 8.8m/s | -52.8°C | 4.0% | 0hPa | 2.7V | 00:00:00 | 00:00:00 | 00:00:00 | |
| OM5KV | 2026-08-31 23:55:45 | 49.67588 | 17.85696 | 38° | 29km/h | 15795m | 8.9m/s | -52.8°C | 1.4% | 0hPa | 2.7V | 00:00:00 | 00:00:00 | 00:00:00 | |
| HA6NAB-11 | 2026-08-31 23:55:44 | 49.67583 | 17.85688 | 51° | 26km/h | 15787m | 7.9m/s | -52.8°C | 1.4% | 0hPa | 2.7V | 00:00:00 | 00:00:00 | 00:00:00 | |
| OM5KV | 2026-08-31 23:55:40 | 49.67569 | 17.85653 | 55° | 27km/h | 15756m | 9.5m/s | -53.0°C | 1.3% | 0hPa | 2.7V | 00:00:00 | 00:00:00 | 00:00:00 | |
| DO3MHA-11 | 2026-08-31 23:55:39 | 49.67560 | 17.85636 | 50° | 29km/h | 15739m | 9.4m/s | 0°C | 0% | 0hPa | 2.7V | 00:00:00 | 01:08:21 | 00:00:00 | |
| HA6NAB-11 | 2026-08-31 23:55:38 | 49.67560 | 17.85637 | 51° | 27km/h | 15739m | 9.4m/s | -52.9°C | 1.4% | 0hPa | 2.7V | 00:00:00 | 00:00:00 | 00:00:00 | |
| PETON7-10 | 2026-08-31 23:55:36 | 49.67553 | 17.85605 | 83° | 46km/h | 15715m | 6.8m/s | -52.9°C | 4.0% | 0hPa | 2.7V | 00:00:00 | 00:00:00 | 00:00:00 | |
| OM5KV | 2026-08-31 23:55:34 | 49.67551 | 17.85590 | 84° | 40km/h | 15708m | 8.2m/s | -53.1°C | 1.4% | 0hPa | 2.7V | 00:00:00 | 00:00:00 | 00:00:00 | |
| OE3OSB-13 | 2026-08-31 23:55:33 | 49.67549 | 17.85557 | 86° | 44km/h | 15694m | 8.3m/s | -53.2°C | 1.3% | -1.0hPa | 2.7V | 00:00:00 | 00:00:00 | 00:00:00 | |
| PG1ADW-2 | 2026-08-31 23:55:31 | 49.67547 | 17.85499 | 87° | 49km/h | 15674m | 7.7m/s | -53.2°C | 4.1% | 0hPa | 2.7V | 00:00:00 | 01:08:12 | 00:00:00 | |
| OE5DRO-10 | 2026-08-31 23:55:29 | 49.67546 | 17.85477 | 82° | 49km/h | 15666m | 8.6m/s | -53.2°C | 4.1% | 0hPa | 2.7V | 00:00:00 | 00:00:00 | 00:00:00 | |
| OM5KV | 2026-08-31 23:55:28 | 49.67546 | 17.85477 | 83° | 58km/h | 15666m | 8.6m/s | -53.3°C | 1.4% | 0hPa | 2.7V | 00:00:00 | 00:00:00 | 00:00:00 | |
| OM5KV | 2026-08-31 23:55:26 | 49.67535 | 17.85415 | 72° | 47km/h | 15647m | 4.4m/s | -53.5°C | 1.4% | 0hPa | 2.7V | 00:00:00 | 00:00:00 | 00:00:00 | |
| OM5KV | 2026-08-31 23:55:23 | 49.67530 | 17.85383 | 79° | 38km/h | 15635m | 5.9m/s | -53.4°C | 1.4% | 0hPa | 2.7V | 00:00:00 | 00:00:00 | 00:00:00 | |
| HA6NAB-11 | 2026-08-31 23:55:22 | 49.67527 | 17.85353 | 87° | 38km/h | 15625m | 6.6m/s | -53.4°C | 1.5% | 0hPa | 2.7V | 00:00:00 | 00:00:00 | 00:00:00 | |
| OE5DXL-15 | 2026-08-31 23:55:16 | 49.67519 | 17.85247 | 86° | 55km/h | 15588m | 4.4m/s | -53.2°C | 4.2% | 0hPa | 2.7V | 00:00:00 | 00:00:00 | 08:30:00 | |
| OM5KV | 2026-08-31 23:55:12 | 49.67516 | 17.85184 | 87° | 58km/h | 15573m | 5.0m/s | -53.2°C | 1.5% | 0hPa | 2.7V | 00:00:00 | 00:00:00 | 00:00:00 | |
| POL1PZ | 2026-08-31 23:55:10 | 49.67513 | 17.85120 | 86° | 51km/h | 15556m | 5.3m/s | -53.0°C | 1.4% | 0hPa | 2.7V | 00:00:00 | 00:00:00 | 00:00:00 | |
| OM5KV | 2026-08-31 23:55:07 | 49.67509 | 17.85082 | 81° | 49km/h | 15545m | 5.5m/s | -52.9°C | 1.4% | 0hPa | 2.7V | 00:00:00 | 00:00:00 | 00:00:00 | |
| PETON7-10 | 2026-08-31 23:55:06 | 49.67506 | 17.85045 | 82° | 55km/h | 15536m | 5.8m/s | -52.8°C | 4.1% | 0hPa | 2.7V | 00:00:00 | 01:07:48 | 00:00:00 | |
| OM5KV | 2026-08-31 23:55:03 | 49.67501 | 17.84991 | 84° | 51km/h | 15519m | 5.9m/s | -52.7°C | 1.4% | 0hPa | 2.7V | 00:00:00 | 00:00:00 | 00:00:00 | |
| OE3OSB-13 | 2026-08-31 23:55:02 | 49.67500 | 17.84971 | 82° | 55km/h | 15513m | 5.4m/s | -52.7°C | 1.3% | -1.0hPa | 2.7V | 00:00:00 | 00:00:00 | 00:00:00 | |
| OM5KV | 2026-08-31 23:55:01 | 49.67500 | 17.84970 | 84° | 57km/h | 15514m | 5.4m/s | -52.7°C | 1.4% | 0hPa | 2.7V | 00:00:00 | 00:00:00 | 00:00:00 | |
| OM5KV | 2026-08-31 23:54:58 | 49.67493 | 17.84875 | 90° | 58km/h | 15493m | 6.0m/s | -52.6°C | 1.4% | 0hPa | 2.7V | 00:00:00 | 00:00:00 | 00:00:00 | |
| OM5KV | 2026-08-31 23:54:55 | 49.67495 | 17.84832 | 96° | 55km/h | 15483m | 5.2m/s | -52.5°C | 1.4% | 0hPa | 2.7V | 00:00:00 | 00:00:00 | 00:00:00 | |
| PETON7-10 | 2026-08-31 23:54:51 | 49.67495 | 17.84722 | 89° | 57km/h | 15453m | 5.3m/s | -52.3°C | 3.9% | 0hPa | 2.7V | 00:00:00 | 00:00:00 | 08:30:00 | |
| PG1ADW-2 | 2026-08-31 23:54:50 | 49.67495 | 17.84699 | 92° | 57km/h | 15447m | 7.2m/s | -52.3°C | 3.9% | 0hPa | 2.6V | 00:00:00 | 00:00:00 | 00:00:00 | |
| POL1PZ | 2026-08-31 23:54:49 | 49.67495 | 17.84699 | 92° | 57km/h | 15447m | 7.3m/s | -52.3°C | 1.4% | 0hPa | 2.6V | 00:00:00 | 00:00:00 | 00:00:00 | |
| HA6NAB-11 | 2026-08-31 23:54:47 | 49.67496 | 17.84656 | 93° | 55km/h | 15435m | 6.9m/s | -52.4°C | 1.4% | 0hPa | 2.6V | 00:00:00 | 00:00:00 | 00:00:00 | |
| OE5DXL-15 | 2026-08-31 23:54:46 | 49.67497 | 17.84614 | 92° | 60km/h | 15423m | 5.5m/s | -52.5°C | 3.9% | 0hPa | 2.6V | 00:00:00 | 00:00:00 | 00:00:00 | |
| HA6NAB-11 | 2026-08-31 23:54:42 | 49.67497 | 17.84553 | 90° | 55km/h | 15408m | 6.6m/s | -52.6°C | 1.4% | 0hPa | 2.6V | 00:00:00 | 00:00:00 | 00:00:00 | |
| OM5KV | 2026-08-31 23:54:39 | 49.67496 | 17.84484 | 91° | 62km/h | 15392m | 6.7m/s | -52.6°C | 1.4% | 0hPa | 2.6V | 00:00:00 | 00:00:00 | 00:00:00 | |
| OM5KV | 2026-08-31 23:54:38 | 49.67496 | 17.84460 | 94° | 62km/h | 15386m | 4.9m/s | -52.6°C | 1.4% | 0hPa | 2.6V | 00:00:00 | 00:00:00 | 00:00:00 | |
| HA6NAB-11 | 2026-08-31 23:54:37 | 49.67498 | 17.84436 | 96° | 62km/h | 15381m | 4.6m/s | -52.5°C | 1.5% | 0hPa | 2.6V | 00:00:00 | 00:00:00 | 00:00:00 | |
| PETON7-10 | 2026-08-31 23:54:36 | 49.67501 | 17.84388 | 98° | 62km/h | 15371m | 5.3m/s | -52.5°C | 4.1% | 0hPa | 2.6V | 00:00:00 | 00:00:00 | 00:00:00 | |
| OM5KV | 2026-08-31 23:54:34 | 49.67503 | 17.84365 | 101° | 57km/h | 15365m | 7.0m/s | -52.6°C | 1.5% | 0hPa | 2.6V | 00:00:00 | 00:00:00 | 00:00:00 | |
| OE5DRO-10 | 2026-08-31 23:54:32 | 49.67508 | 17.84303 | 93° | 62km/h | 15351m | 5.1m/s | -52.5°C | 4.1% | 0hPa | 2.6V | 00:00:00 | 00:00:00 | 00:00:00 | |
| OE3OSB-13 | 2026-08-31 23:54:31 | 49.67508 | 17.84280 | 88° | 60km/h | 15345m | 6.4m/s | -52.5°C | 1.3% | -1.0hPa | 2.6V | 00:00:00 | 00:00:00 | 00:00:00 | |
| PG1ADW-2 | 2026-08-31 23:54:30 | 49.67508 | 17.84255 | 88° | 66km/h | 15339m | 7.2m/s | -52.4°C | 4.0% | 0hPa | 2.6V | 00:00:00 | 00:00:00 | 08:30:00 | |
| OM5KV | 2026-08-31 23:54:29 | 49.67507 | 17.84227 | 88° | 75km/h | 15332m | 6.6m/s | -52.4°C | 1.4% | 0hPa | 2.7V | 00:00:00 | 00:00:00 | 00:00:00 | |
| OM5KV | 2026-08-31 23:54:27 | 49.67506 | 17.84198 | 90° | 75km/h | 15325m | 7.3m/s | -52.4°C | 1.4% | 0hPa | 2.7V | 00:00:00 | 00:00:00 | 00:00:00 | |
| HA6NAB-11 | 2026-08-31 23:54:26 | 49.67506 | 17.84169 | 92° | 71km/h | 15318m | 7.3m/s | -52.5°C | 1.4% | 0hPa | 2.7V | 00:00:00 | 00:00:00 | 00:00:00 | |
| S52SK | 2026-08-31 23:54:24 | 49.67507 | 17.84119 | 94° | 60km/h | 15307m | 7.1m/s | -52.6°C | 1.4% | 0hPa | 2.7V | 00:00:00 | 00:00:00 | 00:00:00 | |
| HA6NAB-11 | 2026-08-31 23:54:22 | 49.67509 | 17.84050 | 93° | 60km/h | 15286m | 7.1m/s | -52.5°C | 1.4% | 0hPa | 2.7V | 00:00:00 | 00:00:00 | 00:00:00 | |
| PETON7-10 | 2026-08-31 23:54:21 | 49.67509 | 17.84027 | 90° | 64km/h | 15280m | 5.5m/s | -52.4°C | 3.9% | 0hPa | 2.7V | 00:00:00 | 01:07:03 | 00:00:00 | |
| S52SK | 2026-08-31 23:54:19 | 49.67509 | 17.83980 | 90° | 58km/h | 15268m | 6.4m/s | -52.5°C | 0% | 0hPa | 2.7V | 00:00:00 | 00:00:00 | 00:00:00 | |
| OE5DXL-15 | 2026-08-31 23:54:16 | 49.67503 | 17.83914 | 78° | 71km/h | 15251m | 5.2m/s | -52.4°C | 3.9% | 0hPa | 2.7V | 00:00:00 | 00:00:00 | 00:00:00 | |
| HA6NAB-11 | 2026-08-31 23:54:15 | 49.67503 | 17.83914 | 78° | 60km/h | 15251m | 5.2m/s | -52.4°C | 1.4% | 0hPa | 2.7V | 00:00:00 | 00:00:00 | 00:00:00 | |
| OE5DRO-10 | 2026-08-31 23:54:13 | 49.67492 | 17.83837 | 78° | 69km/h | 15235m | 6.3m/s | -52.4°C | 3.8% | 0hPa | 2.7V | 00:00:00 | 00:00:00 | 00:00:00 | |
| OM5KV | 2026-08-31 23:54:12 | 49.67488 | 17.83809 | 78° | 75km/h | 15229m | 5.4m/s | -52.4°C | 1.4% | 0hPa | 2.7V | 00:00:00 | 00:00:00 | 00:00:00 | |
| PG1ADW-2 | 2026-08-31 23:54:10 | 49.67479 | 17.83755 | 77° | 71km/h | 15215m | 3.8m/s | -52.5°C | 3.9% | 0hPa | 2.7V | 00:00:00 | 01:06:52 | 00:00:00 | |
| POL1PZ | 2026-08-31 23:54:07 | 49.67472 | 17.83704 | 83° | 66km/h | 15203m | 6.1m/s | -52.8°C | 1.4% | 0hPa | 2.7V | 00:00:00 | 00:00:00 | 00:00:00 | |
| PETON7-10 | 2026-08-31 23:54:06 | 49.67469 | 17.83654 | 87° | 71km/h | 15190m | 6.9m/s | -53.0°C | 4.0% | 0hPa | 2.7V | 00:00:00 | 00:00:00 | 00:00:00 | |
| OE3OSB-13 | 2026-08-31 23:54:00 | 49.67461 | 17.83491 | 74° | 64km/h | 15157m | 4.2m/s | -53.8°C | 1.4% | -1.0hPa | 2.7V | 00:00:00 | 00:00:00 | 00:00:00 | |
| OM5KV | 2026-08-31 23:53:57 | 49.67451 | 17.83440 | 74° | 71km/h | 15145m | 5.5m/s | -53.9°C | 1.6% | 0hPa | 2.7V | 00:00:00 | 00:00:00 | 00:00:00 | |
| OE5DRO-10 | 2026-08-31 23:53:54 | 49.67430 | 17.83328 | 76° | 78km/h | 15117m | 6.8m/s | -54.2°C | 4.4% | 0hPa | 2.7V | 00:00:00 | 00:00:00 | 08:30:00 | |
| OM5KV | 2026-08-31 23:53:52 | 49.67425 | 17.83300 | 75° | 73km/h | 15110m | 9.2m/s | -54.3°C | 1.6% | 0hPa | 2.7V | 00:00:00 | 00:00:00 | 00:00:00 | |
| PETON7-10 | 2026-08-31 23:53:51 | 49.67413 | 17.83244 | 70° | 78km/h | 15093m | 11.5m/s | -54.2°C | 4.4% | 0hPa | 2.7V | 00:00:00 | 00:00:00 | 00:00:00 | |
| PG1ADW-2 | 2026-08-31 23:53:50 | 49.67405 | 17.83216 | 66° | 80km/h | 15086m | 4.3m/s | -54.2°C | 4.4% | 0hPa | 2.7V | 00:00:00 | 00:00:00 | 00:00:00 | |
| OE5DXL-15 | 2026-08-31 23:53:46 | 49.67365 | 17.83102 | 60° | 80km/h | 15058m | 2.9m/s | -54.1°C | 4.5% | 0hPa | 2.7V | 00:00:00 | 00:00:00 | 00:00:00 | |
| OM5KV | 2026-08-31 23:53:44 | 49.67355 | 17.83074 | 60° | 80km/h | 15053m | 7.3m/s | -54.1°C | 1.6% | 0hPa | 2.7V | 00:00:00 | 00:00:00 | 00:00:00 | |
| OM5KV | 2026-08-31 23:53:39 | 49.67309 | 17.82913 | 74° | 77km/h | 15020m | 6.4m/s | -54.5°C | 1.7% | 0hPa | 2.7V | 00:00:00 | 00:00:00 | 00:00:00 | |
| HA6NAB-11 | 2026-08-31 23:53:38 | 49.67303 | 17.82884 | 74° | 80km/h | 15012m | 10.5m/s | -54.4°C | 1.7% | 0hPa | 2.7V | 00:00:00 | 00:00:00 | 00:00:00 | |
| PETON7-10 | 2026-08-31 23:53:36 | 49.67289 | 17.82822 | 69° | 78km/h | 14997m | 8.6m/s | -54.4°C | 4.5% | 0hPa | 2.7V | 00:00:00 | 01:06:18 | 00:00:00 | |
| OE5DRO-10 | 2026-08-31 23:53:35 | 49.67281 | 17.82792 | 67° | 82km/h | 14991m | 3.6m/s | -54.3°C | 4.6% | 0hPa | 2.7V | 00:00:00 | 00:00:00 | 00:00:00 | |
| OM5KV | 2026-08-31 23:53:34 | 49.67281 | 17.82792 | 68° | 84km/h | 14991m | 3.7m/s | -54.4°C | 1.7% | 0hPa | 2.7V | 00:00:00 | 00:00:00 | 00:00:00 | |
| HA6NAB-11 | 2026-08-31 23:53:32 | 49.67255 | 17.82702 | 67° | 80km/h | 14975m | 4.7m/s | -54.3°C | 1.7% | 0hPa | 2.7V | 00:00:00 | 00:00:00 | 00:00:00 | |
| PG1ADW-2 | 2026-08-31 23:53:30 | 49.67238 | 17.82648 | 64° | 80km/h | 14964m | 6.2m/s | -54.1°C | 4.4% | 0hPa | 2.7V | 00:00:00 | 00:00:00 | 00:00:00 | |
| OM5KV | 2026-08-31 23:53:29 | 49.67230 | 17.82622 | 64° | 73km/h | 14956m | 10.5m/s | -54.1°C | 1.7% | 0hPa | 2.7V | 00:00:00 | 00:00:00 | 00:00:00 | |
| OM5KV | 2026-08-31 23:53:28 | 49.67222 | 17.82597 | 65° | 71km/h | 14949m | 3.8m/s | -54.1°C | 1.7% | 0hPa | 2.7V | 00:00:00 | 00:00:00 | 00:00:00 | |
| POL1PZ | 2026-08-31 23:53:26 | 49.67207 | 17.82546 | 69° | 71km/h | 14937m | 4.8m/s | -54.0°C | 1.6% | 0hPa | 2.7V | 00:00:00 | 00:00:00 | 00:00:00 | |
| PETON7-10 | 2026-08-31 23:53:21 | 49.67171 | 17.82395 | 72° | 82km/h | 14903m | 7.7m/s | -53.9°C | 4.4% | 0hPa | 2.7V | 00:00:00 | 00:00:00 | 00:00:00 | |
| OE5DXL-15 | 2026-08-31 23:53:16 | 49.67122 | 17.82233 | 61° | 84km/h | 14873m | 3.5m/s | -53.8°C | 4.5% | 0hPa | 2.7V | 00:00:00 | 00:00:00 | 00:00:00 | |
| OM5KV | 2026-08-31 23:53:15 | 49.67122 | 17.82233 | 61° | 82km/h | 14873m | 3.6m/s | -53.9°C | 1.7% | 0hPa | 2.7V | 00:00:00 | 00:00:00 | 00:00:00 | |
| OM5KV | 2026-08-31 23:53:11 | 49.67082 | 17.82128 | 62° | 73km/h | 14847m | 7.4m/s | -53.9°C | 1.7% | 0hPa | 2.7V | 00:00:00 | 00:00:00 | 00:00:00 | |
| PG1ADW-2 | 2026-08-31 23:53:10 | 49.67067 | 17.82079 | 70° | 84km/h | 14835m | 7.6m/s | -53.9°C | 4.4% | 0hPa | 2.7V | 00:00:00 | 00:00:00 | 00:00:00 | |
| OM5KV | 2026-08-31 23:53:09 | 49.67067 | 17.82079 | 70° | 69km/h | 14835m | 7.6m/s | -53.9°C | 1.7% | 0hPa | 2.7V | 00:00:00 | 00:00:00 | 00:00:00 | |
| PETON7-10 | 2026-08-31 23:53:06 | 49.67046 | 17.81960 | 73° | 84km/h | 14812m | 6.7m/s | -54.1°C | 4.5% | 0hPa | 2.7V | 00:00:00 | 00:00:00 | 00:00:00 | |
| POL1PZ | 2026-08-31 23:53:05 | 49.67046 | 17.81960 | 73° | 86km/h | 14812m | 6.8m/s | -54.1°C | 1.7% | 0hPa | 2.7V | 00:00:00 | 00:00:00 | 00:00:00 | |
| OM5KV | 2026-08-31 23:53:03 | 49.67027 | 17.81897 | 62° | 91km/h | 14800m | 6.9m/s | -54.1°C | 1.7% | 0hPa | 2.7V | 00:00:00 | 00:00:00 | 00:00:00 | |
| OE3OSB-13 | 2026-08-31 23:52:59 | 49.66943 | 17.81695 | 57° | 75km/h | 14755m | 7.7m/s | -53.7°C | 1.5% | -1.0hPa | 2.7V | 00:00:00 | 00:00:00 | 00:00:00 | |
| OM5KV | 2026-08-31 23:52:58 | 49.66965 | 17.81748 | 59° | 84km/h | 14769m | 7.0m/s | -53.8°C | 1.7% | 0hPa | 2.7V | 00:00:00 | 00:00:00 | 00:00:00 | |
| OE5DRO-10 | 2026-08-31 23:52:57 | 49.66943 | 17.81695 | 58° | 82km/h | 14755m | 7.7m/s | -53.7°C | 4.4% | 0hPa | 2.7V | 00:00:00 | 00:00:00 | 00:00:00 | |
| S52SK | 2026-08-31 23:52:53 | 49.66908 | 17.81589 | 71° | 80km/h | 14731m | 5.3m/s | -53.5°C | 0% | 0hPa | 2.7V | 00:00:00 | 00:00:00 | 00:00:00 | |
| PETON7-10 | 2026-08-31 23:52:51 | 49.66893 | 17.81526 | 72° | 84km/h | 14720m | 7.0m/s | -53.4°C | 4.4% | 0hPa | 2.7V | 00:00:00 | 01:05:33 | 00:00:00 | |
| PG1ADW-2 | 2026-08-31 23:52:50 | 49.66886 | 17.81492 | 70° | 84km/h | 14714m | 4.5m/s | -53.4°C | 4.5% | 0hPa | 2.7V | 00:00:00 | 01:05:32 | 00:00:00 | |
| OM5KV | 2026-08-31 23:52:49 | 49.66885 | 17.81492 | 71° | 97km/h | 14714m | 4.5m/s | -53.4°C | 1.7% | 0hPa | 2.7V | 00:00:00 | 00:00:00 | 00:00:00 | |
| S52SK | 2026-08-31 23:52:47 | 49.66867 | 17.81423 | 68° | 93km/h | 14707m | 4.8m/s | -53.4°C | 0% | 0hPa | 2.7V | 00:00:00 | 00:00:00 | 00:00:00 | |
| OE5DXL-15 | 2026-08-31 23:52:46 | 49.66850 | 17.81362 | 65° | 86km/h | 14694m | 5.6m/s | -53.3°C | 4.3% | 0hPa | 2.7V | 00:00:00 | 00:00:00 | 00:00:00 | |
| OM5KV | 2026-08-31 23:52:45 | 49.66850 | 17.81362 | 66° | 77km/h | 14694m | 5.7m/s | -53.4°C | 1.6% | 0hPa | 2.7V | 00:00:00 | 00:00:00 | 00:00:00 | |
| OM5KV | 2026-08-31 23:52:44 | 49.66832 | 17.81310 | 61° | 75km/h | 14679m | 9.9m/s | -53.5°C | 1.6% | 0hPa | 2.7V | 00:00:00 | 00:00:00 | 00:00:00 | |
| S52SK | 2026-08-31 23:52:41 | 49.66813 | 17.81257 | 63° | 82km/h | 14660m | 7.6m/s | -53.5°C | 0% | 0hPa | 2.7V | 00:00:00 | 00:00:00 | 00:00:00 | |
| OM5KV | 2026-08-31 23:52:39 | 49.66796 | 17.81197 | 69° | 84km/h | 14649m | 6.4m/s | -53.5°C | 1.7% | 0hPa | 2.7V | 00:00:00 | 00:00:00 | 00:00:00 | |
| OE5DRO-10 | 2026-08-31 23:52:38 | 49.66781 | 17.81136 | 71° | 88km/h | 14637m | 5.4m/s | -53.5°C | 4.3% | 0hPa | 2.7V | 00:00:00 | 00:00:00 | 00:00:00 | |
| PETON7-10 | 2026-08-31 23:52:36 | 49.66765 | 17.81074 | 69° | 86km/h | 14626m | 4.6m/s | -53.5°C | 4.4% | 0hPa | 2.7V | 00:00:00 | 00:00:00 | 08:30:00 | |
| OM5KV | 2026-08-31 23:52:33 | 49.66749 | 17.81011 | 70° | 86km/h | 14616m | 5.9m/s | -53.5°C | 1.7% | 0hPa | 2.7V | 00:00:00 | 00:00:00 | 00:00:00 | |
| PG1ADW-2 | 2026-08-31 23:52:30 | 49.66716 | 17.80888 | 67° | 88km/h | 14596m | 4.4m/s | -53.4°C | 4.4% | 0hPa | 2.7V | 00:00:00 | 00:00:00 | 00:00:00 | |
| OM5KV | 2026-08-31 23:52:28 | 49.66700 | 17.80827 | 71° | 84km/h | 14586m | 5.7m/s | -53.6°C | 1.7% | 0hPa | 2.7V | 00:00:00 | 00:00:00 | 00:00:00 | |
| OE3OSB-13 | 2026-08-31 23:52:27 | 49.66686 | 17.80766 | 70° | 82km/h | 14576m | 5.9m/s | -53.6°C | 1.6% | -1.0hPa | 2.7V | 00:00:00 | 00:00:00 | 00:00:00 | |
| HA6NAB-11 | 2026-08-31 23:52:23 | 49.66662 | 17.80671 | 69° | 89km/h | 14563m | 4.8m/s | -53.5°C | 1.8% | 0hPa | 2.7V | 00:00:00 | 00:00:00 | 00:00:00 | |
| OM5KV | 2026-08-31 23:52:22 | 49.66653 | 17.80639 | 68° | 91km/h | 14558m | 4.9m/s | -53.5°C | 1.8% | 0hPa | 2.7V | 00:00:00 | 00:00:00 | 00:00:00 | |
| PETON7-10 | 2026-08-31 23:52:21 | 49.66644 | 17.80606 | 66° | 88km/h | 14552m | 6.1m/s | -53.5°C | 4.5% | 0hPa | 2.7V | 00:00:00 | 00:00:00 | 00:00:00 | |
| OE5DRO-10 | 2026-08-31 23:52:19 | 49.66623 | 17.80539 | 64° | 86km/h | 14542m | 6.4m/s | -53.5°C | 4.5% | 0hPa | 2.7V | 00:00:00 | 00:00:00 | 00:00:00 | |
| HA6NAB-11 | 2026-08-31 23:52:18 | 49.66613 | 17.80507 | 64° | 89km/h | 14537m | 5.3m/s | -53.5°C | 1.8% | 0hPa | 2.7V | 00:00:00 | 00:00:00 | 00:00:00 | |
| OM5KV | 2026-08-31 23:52:17 | 49.66613 | 17.80507 | 64° | 89km/h | 14537m | 5.3m/s | -53.5°C | 1.8% | 0hPa | 2.7V | 00:00:00 | 00:00:00 | 00:00:00 | |
| OE5DXL-15 | 2026-08-31 23:52:16 | 49.66592 | 17.80448 | 61° | 86km/h | 14527m | 6.4m/s | -53.4°C | 4.4% | 0hPa | 2.7V | 00:00:00 | 00:00:00 | 00:00:00 | |
| OM5KV | 2026-08-31 23:52:13 | 49.66572 | 17.80390 | 64° | 84km/h | 14515m | 6.4m/s | -53.4°C | 1.7% | 0hPa | 2.7V | 00:00:00 | 00:00:00 | 00:00:00 | |
| HA6NAB-11 | 2026-08-31 23:52:12 | 49.66554 | 17.80331 | 67° | 84km/h | 14505m | 4.7m/s | -53.3°C | 1.7% | 0hPa | 2.7V | 00:00:00 | 00:00:00 | 00:00:00 | |
| PG1ADW-2 | 2026-08-31 23:52:10 | 49.66536 | 17.80270 | 65° | 86km/h | 14494m | 4.2m/s | -53.2°C | 4.3% | 0hPa | 2.7V | 00:00:00 | 00:00:00 | 00:00:00 | |
| OM5KV | 2026-08-31 23:52:07 | 49.66516 | 17.80208 | 65° | 88km/h | 14484m | 4.6m/s | -53.2°C | 1.7% | 0hPa | 2.7V | 00:00:00 | 00:00:00 | 00:00:00 | |
| PETON7-10 | 2026-08-31 23:52:06 | 49.66495 | 17.80147 | 60° | 84km/h | 14475m | 5.8m/s | -53.1°C | 4.4% | 0hPa | 2.7V | 00:00:00 | 01:04:48 | 00:00:00 | |
| HA6NAB-11 | 2026-08-31 23:52:05 | 49.66495 | 17.80147 | 61° | 89km/h | 14475m | 5.9m/s | -53.2°C | 1.7% | 0hPa | 2.7V | 00:00:00 | 00:00:00 | 00:00:00 | |
| POL1PZ | 2026-08-31 23:52:02 | 49.66460 | 17.80060 | 58° | 84km/h | 14459m | 6.2m/s | -53.1°C | 1.7% | 0hPa | 2.7V | 00:00:00 | 00:00:00 | 00:00:00 | |
| OM5KV | 2026-08-31 23:52:01 | 49.66449 | 17.80033 | 60° | 80km/h | 14455m | 3.3m/s | -53.1°C | 1.8% | 0hPa | 2.7V | 00:00:00 | 00:00:00 | 00:00:00 | |
| OE5DRO-10 | 2026-08-31 23:52:00 | 49.66428 | 17.79979 | 61° | 82km/h | 14445m | 5.4m/s | -53.0°C | 4.4% | 0hPa | 2.7V | 00:00:00 | 00:00:00 | 00:00:00 | |
| HA6NAB-11 | 2026-08-31 23:51:59 | 49.66428 | 17.79979 | 62° | 80km/h | 14445m | 5.5m/s | 0°C | 0% | 0hPa | 2.7V | 00:00:00 | 00:00:00 | 00:00:00 | |
| OM5KV | 2026-08-31 23:51:56 | 49.66384 | 17.79872 | 57° | 84km/h | 14424m | 3.7m/s | -53.3°C | 1.7% | 0hPa | 2.7V | 00:00:00 | 00:00:00 | 00:00:00 | |
| PETON7-10 | 2026-08-31 23:51:51 | 49.66332 | 17.79722 | 65° | 78km/h | 14397m | 6.0m/s | -53.2°C | 4.4% | 0hPa | 2.7V | 00:00:00 | 00:00:00 | 00:00:00 | |
| PG1ADW-2 | 2026-08-31 23:51:50 | 49.66322 | 17.79691 | 65° | 80km/h | 14391m | 5.4m/s | -53.2°C | 4.4% | 0hPa | 2.7V | 00:00:00 | 00:00:00 | 00:00:00 | |
| OE5DXL-15 | 2026-08-31 23:51:46 | 49.66284 | 17.79578 | 59° | 77km/h | 14371m | 6.6m/s | -53.2°C | 4.3% | 0hPa | 2.7V | 00:00:00 | 00:00:00 | 00:00:00 | |
| OM5KV | 2026-08-31 23:51:45 | 49.66273 | 17.79553 | 55° | 75km/h | 14364m | 6.6m/s | -53.2°C | 1.7% | 0hPa | 2.7V | 00:00:00 | 00:00:00 | 00:00:00 | |
| OE5DRO-10 | 2026-08-31 23:51:41 | 49.66230 | 17.79458 | 59° | 78km/h | 14342m | 3.2m/s | -53.1°C | 4.4% | 0hPa | 2.7V | 00:00:00 | 00:00:00 | 00:00:00 | |
| OM5KV | 2026-08-31 23:51:39 | 49.66220 | 17.79432 | 61° | 77km/h | 14337m | 6.6m/s | -53.2°C | 1.7% | 0hPa | 2.7V | 00:00:00 | 00:00:00 | 00:00:00 | |
| PETON7-10 | 2026-08-31 23:51:36 | 49.66177 | 17.79324 | 57° | 78km/h | 14314m | 7.1m/s | -53.0°C | 4.4% | 0hPa | 2.7V | 00:00:00 | 00:00:00 | 00:00:00 | |
| OE3JTB-15 | 2026-08-31 23:51:34 | 49.66153 | 17.79267 | 57° | 86km/h | 14303m | 5.5m/s | -52.9°C | 4.4% | 0hPa | 2.7V | 00:00:00 | 00:00:00 | 00:00:00 | |
| OM5KV | 2026-08-31 23:51:32 | 49.66141 | 17.79239 | 59° | 84km/h | 14297m | 6.6m/s | -52.9°C | 1.7% | 0hPa | 2.7V | 00:00:00 | 00:00:00 | 00:00:00 | |
| PG1ADW-2 | 2026-08-31 23:51:30 | 49.66111 | 17.79161 | 59° | 73km/h | 14281m | 5.3m/s | -52.8°C | 4.4% | 0hPa | 2.7V | 00:00:00 | 01:04:12 | 08:30:00 | |
| OM5KV | 2026-08-31 23:51:29 | 49.66111 | 17.79161 | 60° | 73km/h | 14281m | 5.4m/s | -52.8°C | 1.8% | 0hPa | 2.7V | 00:00:00 | 00:00:00 | 00:00:00 | |
| OE3OSB-13 | 2026-08-31 23:51:25 | 49.66048 | 17.79020 | 55° | 73km/h | 14249m | 4.1m/s | -52.6°C | 1.6% | -1.0hPa | 2.7V | 00:00:00 | 00:00:00 | 00:00:00 | |
| OM5KV | 2026-08-31 23:51:24 | 49.66048 | 17.79020 | 57° | 75km/h | 14249m | 4.1m/s | -52.6°C | 1.8% | 0hPa | 2.7V | 00:00:00 | 00:00:00 | 00:00:00 | |
| OE5DRO-10 | 2026-08-31 23:51:22 | 49.66026 | 17.78971 | 57° | 73km/h | 14238m | 4.5m/s | -52.4°C | 4.4% | 0hPa | 2.7V | 00:00:00 | 00:00:00 | 00:00:00 | |
| PETON7-10 | 2026-08-31 23:51:21 | 49.66015 | 17.78945 | 59° | 73km/h | 14234m | 4.6m/s | -52.4°C | 4.4% | 0hPa | 2.7V | 00:00:00 | 01:04:03 | 00:00:00 | |
| OM5KV | 2026-08-31 23:51:19 | 49.65997 | 17.78893 | 63° | 75km/h | 14223m | 4.8m/s | -52.3°C | 1.7% | 0hPa | 2.7V | 00:00:00 | 00:00:00 | 00:00:00 | |
| HA6NAB-11 | 2026-08-31 23:51:17 | 49.65988 | 17.78868 | 63° | 73km/h | 14217m | 6.2m/s | 0°C | 0% | 0hPa | 2.7V | 00:00:00 | 00:00:00 | 00:00:00 | |
| OE5DXL-15 | 2026-08-31 23:51:16 | 49.65969 | 17.78818 | 61° | 71km/h | 14207m | 4.7m/s | -52.2°C | 4.2% | 0hPa | 2.7V | 00:00:00 | 00:00:00 | 00:00:00 | |
| OM5KV | 2026-08-31 23:51:13 | 49.65951 | 17.78769 | 60° | 71km/h | 14195m | 4.8m/s | -52.2°C | 1.7% | 0hPa | 2.7V | 00:00:00 | 00:00:00 | 00:00:00 | |
| S52SK | 2026-08-31 23:51:12 | 49.65932 | 17.78723 | 56° | 69km/h | 14184m | 5.0m/s | -52.1°C | 0% | 0hPa | 2.7V | 00:00:00 | 00:00:00 | 00:00:00 | |
| PG1ADW-2 | 2026-08-31 23:51:10 | 49.65912 | 17.78679 | 57° | 71km/h | 14173m | 6.3m/s | -51.9°C | 4.2% | 0hPa | 2.7V | 00:00:00 | 00:00:00 | 00:00:00 | |
| OM5KV | 2026-08-31 23:51:08 | 49.65892 | 17.78632 | 57° | 73km/h | 14162m | 6.3m/s | -51.9°C | 1.7% | 0hPa | 2.7V | 00:00:00 | 00:00:00 | 00:00:00 | |
| HA6NAB-11 | 2026-08-31 23:51:06 | 49.65871 | 17.78584 | 58° | 75km/h | 14151m | 4.6m/s | 0°C | 0% | 0hPa | 2.7V | 00:00:00 | 00:00:00 | 00:00:00 | |
| S52SK | 2026-08-31 23:51:05 | 49.65871 | 17.78584 | 58° | 75km/h | 14151m | 4.6m/s | -51.8°C | 0% | 0hPa | 2.7V | 00:00:00 | 00:00:00 | 00:00:00 | |
| OE5DRO-10 | 2026-08-31 23:51:03 | 49.65842 | 17.78509 | 60° | 69km/h | 14136m | 5.0m/s | -51.7°C | 4.2% | 0hPa | 2.7V | 00:00:00 | 00:00:00 | 08:30:00 | |
| OE3OSB-13 | 2026-08-31 23:50:54 | 49.65754 | 17.78287 | 58° | 78km/h | 14080m | 7.7m/s | -52.1°C | 1.6% | -1.0hPa | 2.7V | 00:00:00 | 00:00:00 | 00:00:00 | |
| OM5KV | 2026-08-31 23:50:53 | 49.65754 | 17.78287 | 59° | 78km/h | 14080m | 7.7m/s | -52.1°C | 1.7% | 0hPa | 2.7V | 00:00:00 | 00:00:00 | 00:00:00 | |
| PETON7-10 | 2026-08-31 23:50:51 | 49.65732 | 17.78234 | 58° | 75km/h | 14067m | 6.8m/s | -52.1°C | 4.3% | 0hPa | 2.7V | 00:00:00 | 00:00:00 | 00:00:00 | |
| PG1ADW-2 | 2026-08-31 23:50:50 | 49.65722 | 17.78208 | 61° | 77km/h | 14061m | 5.6m/s | -52.0°C | 4.3% | 0hPa | 2.7V | 00:00:00 | 00:00:00 | 00:00:00 | |
| OM5KV | 2026-08-31 23:50:48 | 49.65713 | 17.78183 | 62° | 71km/h | 14056m | 4.1m/s | -52.1°C | 1.8% | 0hPa | 2.7V | 00:00:00 | 00:00:00 | 00:00:00 | |
| OM5KV | 2026-08-31 23:50:47 | 49.65705 | 17.78160 | 63° | 68km/h | 14051m | 6.7m/s | -52.0°C | 1.7% | 0hPa | 2.7V | 00:00:00 | 00:00:00 | 00:00:00 | |
| OE5DXL-15 | 2026-08-31 23:50:46 | 49.65690 | 17.78114 | 66° | 84km/h | 14040m | 5.2m/s | -51.9°C | 4.2% | 0hPa | 2.7V | 00:00:00 | 00:00:00 | 08:30:00 | |
| OE5DRO-10 | 2026-08-31 23:50:44 | 49.65677 | 17.78065 | 69° | 84km/h | 14029m | 4.1m/s | -51.9°C | 4.2% | 0hPa | 2.7V | 00:00:00 | 00:00:00 | 00:00:00 | |
| POL1PZ | 2026-08-31 23:50:42 | 49.65662 | 17.78012 | 65° | 77km/h | 14018m | 6.2m/s | -51.9°C | 1.7% | 0hPa | 2.7V | 00:00:00 | 00:00:00 | 00:00:00 | |
| OM5KV | 2026-08-31 23:50:41 | 49.65662 | 17.78012 | 65° | 77km/h | 14018m | 6.2m/s | -51.9°C | 1.7% | 0hPa | 2.7V | 00:00:00 | 00:00:00 | 00:00:00 | |
| OM5KV | 2026-08-31 23:50:38 | 49.65597 | 17.77845 | 58° | 80km/h | 13984m | 6.5m/s | -52.1°C | 1.7% | 0hPa | 2.7V | 00:00:00 | 00:00:00 | 00:00:00 | |
| PG1ADW-2 | 2026-08-31 23:50:37 | 49.65532 | 17.77682 | 64° | 91km/h | 13950m | 5.4m/s | -52.0°C | 4.2% | 0hPa | 2.7V | 00:00:00 | 00:00:00 | 00:00:00 | |
| OM5KV | 2026-08-31 23:50:36 | 49.65532 | 17.77682 | 65° | 82km/h | 13950m | 5.4m/s | -52.0°C | 1.7% | 0hPa | 2.7V | 00:00:00 | 00:00:00 | 00:00:00 | |
| OE5DRO-10 | 2026-08-31 23:50:35 | 49.65480 | 17.77527 | 60° | 93km/h | 13926m | 4.3m/s | -51.9°C | 4.2% | 0hPa | 2.7V | 00:00:00 | 00:00:00 | 00:00:00 | |
| OM5KV | 2026-08-31 23:50:34 | 49.65480 | 17.77526 | 61° | 97km/h | 13926m | 4.3m/s | -52.0°C | 1.8% | 0hPa | 2.7V | 00:00:00 | 00:00:00 | 00:00:00 | |
| OE3OSB-13 | 2026-08-31 23:50:32 | 49.65444 | 17.77431 | 60° | 91km/h | 13909m | 5.9m/s | -51.9°C | 1.6% | -1.0hPa | 2.7V | 00:00:00 | 00:00:00 | 00:00:00 | |
| POL1PZ | 2026-08-31 23:50:31 | 49.65444 | 17.77431 | 62° | 93km/h | 13910m | 5.9m/s | -51.9°C | 1.7% | 0hPa | 2.7V | 00:00:00 | 00:00:00 | 00:00:00 | |
| OE3JTB-15 | 2026-08-31 23:50:30 | 49.65433 | 17.77400 | 61° | 91km/h | 13904m | 5.0m/s | -51.9°C | 4.1% | 0hPa | 2.7V | 00:00:00 | 01:03:03 | 00:00:00 | |
| PETON7-10 | 2026-08-31 23:50:28 | 49.65433 | 17.77400 | 61° | 93km/h | 13904m | 5.0m/s | -51.9°C | 4.1% | 0hPa | 2.7V | 00:00:00 | 00:00:00 | 08:30:00 | |
| OM5KV | 2026-08-31 23:50:19 | 49.65422 | 17.77371 | 60° | 86km/h | 13899m | 5.9m/s | -51.9°C | 1.7% | 0hPa | 2.7V | 00:00:00 | 00:00:00 | 00:00:00 | |
| OM5KV | 2026-08-31 23:50:18 | 49.65410 | 17.77342 | 59° | 84km/h | 13894m | 3.6m/s | -51.9°C | 1.7% | 0hPa | 2.7V | 00:00:00 | 00:00:00 | 00:00:00 | |
| OE5DXL-15 | 2026-08-31 23:50:16 | 49.65376 | 17.77256 | 60° | 95km/h | 13878m | 4.4m/s | -52.0°C | 4.3% | 0hPa | 2.7V | 00:00:00 | 00:00:00 | 00:00:00 | |
| OM5KV | 2026-08-31 23:50:13 | 49.65352 | 17.77195 | 57° | 93km/h | 13868m | 5.9m/s | -52.0°C | 1.8% | 0hPa | 2.7V | 00:00:00 | 00:00:00 | 00:00:00 | |
| OM5KV | 2026-08-31 23:50:12 | 49.65338 | 17.77165 | 56° | 95km/h | 13863m | 4.5m/s | -52.0°C | 1.8% | 0hPa | 2.7V | 00:00:00 | 00:00:00 | 00:00:00 | |
| PG1ADW-2 | 2026-08-31 23:50:10 | 49.65296 | 17.77069 | 57° | 93km/h | 13847m | 3.9m/s | -52.0°C | 4.3% | 0hPa | 2.7V | 00:00:00 | 01:02:52 | 00:00:00 | |
| OM5KV | 2026-08-31 23:50:08 | 49.65282 | 17.77036 | 57° | 102km/h | 13842m | 6.6m/s | -52.0°C | 1.8% | 0hPa | 2.7V | 00:00:00 | 00:00:00 | 00:00:00 | |
| PETON7-10 | 2026-08-31 23:50:06 | 49.65240 | 17.76942 | 57° | 93km/h | 13827m | 5.7m/s | -51.9°C | 4.3% | 0hPa | 2.7V | 00:00:00 | 00:00:00 | 00:00:00 | |
| OM5KV | 2026-08-31 23:50:02 | 49.65201 | 17.76849 | 59° | 93km/h | 13810m | 5.7m/s | -51.9°C | 1.8% | 0hPa | 2.7V | 00:00:00 | 00:00:00 | 00:00:00 | |
| OM5KV | 2026-08-31 23:49:58 | 49.65136 | 17.76693 | 57° | 95km/h | 13786m | 6.0m/s | -51.7°C | 1.8% | 0hPa | 2.7V | 00:00:00 | 00:00:00 | 00:00:00 | |
| POL1PZ | 2026-08-31 23:49:56 | 49.65122 | 17.76663 | 58° | 91km/h | 13780m | 5.5m/s | -51.7°C | 1.8% | 0hPa | 2.7V | 00:00:00 | 00:00:00 | 00:00:00 | |
| OE3JTB-15 | 2026-08-31 23:49:52 | 49.65062 | 17.76519 | 55° | 80km/h | 13752m | 4.5m/s | -51.5°C | 4.3% | 0hPa | 2.7V | 00:00:00 | 00:00:00 | 00:00:00 | |
| PETON7-10 | 2026-08-31 23:49:51 | 49.65048 | 17.76491 | 54° | 86km/h | 13746m | 6.8m/s | -51.5°C | 4.2% | 0hPa | 2.7V | 00:00:00 | 01:02:33 | 00:00:00 | |
| PG1ADW-2 | 2026-08-31 23:49:50 | 49.65035 | 17.76462 | 54° | 86km/h | 13741m | 4.2m/s | -51.4°C | 4.3% | 0hPa | 2.7V | 00:00:00 | 00:00:00 | 00:00:00 | |
| OE5DRO-10 | 2026-08-31 23:49:47 | 49.64995 | 17.76372 | 58° | 86km/h | 13725m | 5.1m/s | -51.3°C | 4.2% | 0hPa | 2.7V | 00:00:00 | 00:00:00 | 00:00:00 | |
| OE5DXL-15 | 2026-08-31 23:49:46 | 49.64982 | 17.76340 | 61° | 80km/h | 13719m | 6.3m/s | -51.3°C | 4.2% | 0hPa | 2.7V | 00:00:00 | 00:00:00 | 00:00:00 | |
| OM5KV | 2026-08-31 23:49:45 | 49.64971 | 17.76308 | 63° | 91km/h | 13713m | 5.6m/s | -51.3°C | 1.8% | 0hPa | 2.7V | 00:00:00 | 00:00:00 | 00:00:00 | |
| OM5KV | 2026-08-31 23:49:38 | 49.64898 | 17.76149 | 47° | 80km/h | 13682m | 5.8m/s | -51.0°C | 1.7% | 0hPa | 2.7V | 00:00:00 | 00:00:00 | 00:00:00 | |
| PETON7-10 | 2026-08-31 23:49:36 | 49.64861 | 17.76084 | 52° | 82km/h | 13666m | 5.0m/s | -50.9°C | 4.2% | 0hPa | 2.7V | 00:00:00 | 00:00:00 | 00:00:00 | |
| POL1PZ | 2026-08-31 23:49:35 | 49.64860 | 17.76084 | 53° | 71km/h | 13666m | 5.0m/s | -50.9°C | 1.7% | 0hPa | 2.7V | 00:00:00 | 00:00:00 | 00:00:00 | |
| S52SK | 2026-08-31 23:49:33 | 49.64839 | 17.76037 | 57° | 80km/h | 13654m | 6.2m/s | -50.9°C | 0% | 0hPa | 2.7V | 00:00:00 | 00:00:00 | 00:00:00 | |
| PG1ADW-2 | 2026-08-31 23:49:30 | 49.64787 | 17.75918 | 54° | 73km/h | 13634m | 5.1m/s | -50.7°C | 4.0% | 0hPa | 2.7V | 00:00:00 | 00:00:00 | 00:00:00 | |
| OM5KV | 2026-08-31 23:49:29 | 49.64787 | 17.75918 | 54° | 99km/h | 13634m | 5.2m/s | -50.7°C | 1.7% | 0hPa | 2.7V | 00:00:00 | 00:00:00 | 00:00:00 | |
| OE5DRO-10 | 2026-08-31 23:49:28 | 49.64758 | 17.75859 | 53° | 69km/h | 13624m | 4.6m/s | -50.7°C | 4.1% | 0hPa | 2.7V | 00:00:00 | 00:00:00 | 00:00:00 | |
| OM5KV | 2026-08-31 23:49:23 | 49.64716 | 17.75754 | 66° | 69km/h | 13590m | 8.7m/s | -50.9°C | 1.7% | 0hPa | 2.7V | 00:00:00 | 00:00:00 | 00:00:00 | |
| OM5KV | 2026-08-31 23:49:22 | 49.64709 | 17.75729 | 68° | 69km/h | 13582m | 8.0m/s | -51.0°C | 1.7% | 0hPa | 2.7V | 00:00:00 | 00:00:00 | 00:00:00 | |
| PETON7-10 | 2026-08-31 23:49:21 | 49.64695 | 17.75678 | 69° | 66km/h | 13569m | 4.0m/s | -50.9°C | 4.1% | 0hPa | 2.7V | 00:00:00 | 00:00:00 | 00:00:00 | |
| OE3OSB-13 | 2026-08-31 23:49:20 | 49.64689 | 17.75652 | 69° | 69km/h | 13564m | 6.6m/s | -50.9°C | 1.6% | -1.0hPa | 2.7V | 00:00:00 | 00:00:00 | 00:00:00 | |
| OM5KV | 2026-08-31 23:49:18 | 49.64683 | 17.75627 | 69° | 68km/h | 13556m | 9.4m/s | -50.9°C | 1.7% | 0hPa | 2.7V | 00:00:00 | 00:00:00 | 00:00:00 | |
| OE5DXL-15 | 2026-08-31 23:49:16 | 49.64666 | 17.75561 | 69° | 66km/h | 13532m | 8.7m/s | -50.8°C | 4.0% | 0hPa | 2.7V | 00:00:00 | 00:00:00 | 00:00:00 | |
| POL1PZ | 2026-08-31 23:49:14 | 49.64660 | 17.75539 | 71° | 62km/h | 13523m | 9.3m/s | -50.7°C | 1.6% | 0hPa | 2.7V | 00:00:00 | 00:00:00 | 00:00:00 | |
| OM5KV | 2026-08-31 23:49:13 | 49.64649 | 17.75490 | 72° | 69km/h | 13505m | 8.2m/s | -50.6°C | 1.7% | 0hPa | 2.7V | 00:00:00 | 00:00:00 | 00:00:00 | |
| OE3JTB-15 | 2026-08-31 23:49:12 | 49.64643 | 17.75465 | 68° | 113km/h | 13497m | 8.1m/s | -50.5°C | 4.0% | 0hPa | 2.7V | 00:00:00 | 00:00:00 | 00:00:00 | |
| OM5KV | 2026-08-31 23:49:11 | 49.64643 | 17.75465 | 68° | 71km/h | 13497m | 8.1m/s | -50.6°C | 1.7% | 0hPa | 2.7V | 00:00:00 | 00:00:00 | 00:00:00 | |
| PG1ADW-2 | 2026-08-31 23:49:10 | 49.64628 | 17.75417 | 60° | 62km/h | 13483m | 8.6m/s | -50.5°C | 4.1% | 0hPa | 2.7V | 00:00:00 | 00:00:00 | 00:00:00 | |
| OE5DRO-10 | 2026-08-31 23:49:09 | 49.64619 | 17.75395 | 57° | 62km/h | 13476m | 5.1m/s | -50.5°C | 4.2% | 0hPa | 2.7V | 00:00:00 | 00:00:00 | 00:00:00 | |
| OM5KV | 2026-08-31 23:49:07 | 49.64611 | 17.75375 | 58° | 60km/h | 13470m | 7.1m/s | -50.5°C | 1.8% | 0hPa | 2.7V | 00:00:00 | 00:00:00 | 00:00:00 | |
| PETON7-10 | 2026-08-31 23:49:06 | 49.64595 | 17.75334 | 61° | 60km/h | 13458m | 6.6m/s | -50.4°C | 4.3% | 0hPa | 2.7V | 00:00:00 | 01:01:48 | 00:00:00 | |
| OE3OSB-13 | 2026-08-31 23:48:49 | 49.64517 | 17.74950 | 89° | 88km/h | 13313m | 9.0m/s | -49.3°C | 1.4% | -1.0hPa | 2.7V | 00:00:00 | 00:00:00 | 00:00:00 | |
| OM5KV | 2026-08-31 23:48:48 | 49.64516 | 17.74950 | 91° | 89km/h | 13314m | 9.0m/s | -49.3°C | 1.6% | 0hPa | 2.7V | 00:00:00 | 00:00:00 | 00:00:00 | |
| OE5DXL-15 | 2026-08-31 23:48:46 | 49.64506 | 17.74848 | 72° | 84km/h | 13288m | 6.6m/s | -49.1°C | 3.8% | 0hPa | 2.7V | 00:00:00 | 00:00:00 | 00:00:00 | |
| OM5KV | 2026-08-31 23:48:45 | 49.64498 | 17.74816 | 68° | 88km/h | 13281m | 6.2m/s | -49.0°C | 1.6% | 0hPa | 2.7V | 00:00:00 | 00:00:00 | 00:00:00 | |
| OM5KV | 2026-08-31 23:48:39 | 49.64468 | 17.74656 | 89° | 86km/h | 13245m | 7.8m/s | -48.8°C | 1.6% | 0hPa | 2.7V | 00:00:00 | 00:00:00 | 00:00:00 | |
| OM5KV | 2026-08-31 23:48:37 | 49.64468 | 17.74588 | 90° | 91km/h | 13227m | 9.7m/s | -48.7°C | 1.6% | 0hPa | 2.7V | 00:00:00 | 00:00:00 | 00:00:00 | |
| PETON7-10 | 2026-08-31 23:48:36 | 49.64462 | 17.74516 | 77° | 82km/h | 13209m | 7.5m/s | -48.5°C | 3.7% | 0hPa | 2.7V | 00:00:00 | 00:00:00 | 00:00:00 | |
| OM5KV | 2026-08-31 23:48:33 | 49.64447 | 17.74445 | 71° | 95km/h | 13198m | 5.1m/s | -48.5°C | 1.5% | 0hPa | 2.7V | 00:00:00 | 00:00:00 | 00:00:00 | |
| POL1PZ | 2026-08-31 23:48:32 | 49.64439 | 17.74410 | 71° | 97km/h | 13192m | 7.4m/s | -48.5°C | 1.5% | 0hPa | 2.7V | 00:00:00 | 00:00:00 | 00:00:00 | |
| OE5DRO-10 | 2026-08-31 23:48:31 | 49.64425 | 17.74340 | 78° | 78km/h | 13175m | 8.5m/s | -48.4°C | 3.6% | 0hPa | 2.7V | 00:00:00 | 00:00:00 | 00:00:00 | |
| PG1ADW-2 | 2026-08-31 23:48:30 | 49.64421 | 17.74306 | 84° | 78km/h | 13167m | 8.2m/s | -48.3°C | 3.6% | 0hPa | 2.7V | 00:00:00 | 00:00:00 | 08:30:00 | |
| OM5KV | 2026-08-31 23:48:28 | 49.64417 | 17.74242 | 87° | 78km/h | 13147m | 11.6m/s | -48.3°C | 1.5% | 0hPa | 2.7V | 00:00:00 | 00:00:00 | 00:00:00 | |
| OM5KV | 2026-08-31 23:48:26 | 49.64415 | 17.74186 | 86° | 68km/h | 13128m | 6.6m/s | -48.2°C | 1.5% | 0hPa | 2.7V | 00:00:00 | 00:00:00 | 00:00:00 | |
| PETON7-10 | 2026-08-31 23:48:21 | 49.64407 | 17.74047 | 87° | 88km/h | 13100m | 6.5m/s | -48.1°C | 3.5% | 0hPa | 2.7V | 00:00:00 | 01:01:03 | 00:00:00 | |
| OM5KV | 2026-08-31 23:48:19 | 49.64404 | 17.73987 | 84° | 78km/h | 13088m | 6.3m/s | -48.1°C | 1.5% | 0hPa | 2.7V | 00:00:00 | 00:00:00 | 00:00:00 | |
| OE3OSB-13 | 2026-08-31 23:48:18 | 49.64401 | 17.73956 | 81° | 78km/h | 13082m | 5.7m/s | -48.1°C | 1.3% | -1.0hPa | 2.7V | 00:00:00 | 00:00:00 | 00:00:00 | |
| OE5DXL-15 | 2026-08-31 23:48:16 | 49.64396 | 17.73895 | 85° | 93km/h | 13067m | 6.9m/s | -48.2°C | 3.5% | 0hPa | 2.7V | 00:00:00 | 00:00:00 | 00:00:00 | |
| OM5KV | 2026-08-31 23:48:13 | 49.64395 | 17.73802 | 93° | 86km/h | 13049m | 7.6m/s | -48.5°C | 1.5% | 0hPa | 2.7V | 00:00:00 | 00:00:00 | 00:00:00 | |
| OE5DRO-10 | 2026-08-31 23:48:12 | 49.64396 | 17.73768 | 91° | 93km/h | 13041m | 7.9m/s | -48.4°C | 3.5% | 0hPa | 2.7V | 00:00:00 | 00:00:00 | 08:30:00 | |
| HA6NAB-11 | 2026-08-31 23:48:11 | 49.64396 | 17.73768 | 91° | 91km/h | 13041m | 8.0m/s | 0°C | 0% | 0hPa | 2.7V | 00:00:00 | 00:00:00 | 00:00:00 | |
| PG1ADW-2 | 2026-08-31 23:48:10 | 49.64395 | 17.73692 | 88° | 93km/h | 13027m | 7.5m/s | -48.5°C | 3.6% | 0hPa | 2.7V | 00:00:00 | 00:00:00 | 00:00:00 | |
| PETON7-10 | 2026-08-31 23:48:06 | 49.64392 | 17.73535 | 91° | 91km/h | 13002m | 5.2m/s | -48.5°C | 3.6% | 0hPa | 2.7V | 00:00:00 | 00:00:00 | 08:30:00 | |
| OM5KV | 2026-08-31 23:48:04 | 49.64393 | 17.73499 | 93° | 93km/h | 12997m | 5.9m/s | -48.5°C | 1.5% | 0hPa | 2.7V | 00:00:00 | 00:00:00 | 00:00:00 | |
| OE3OSB-13 | 2026-08-31 23:47:47 | 49.64391 | 17.72850 | 84° | 88km/h | 12873m | 3.7m/s | -47.8°C | 1.3% | -1.0hPa | 2.7V | 00:00:00 | 00:00:00 | 00:00:00 | |
| OE5DXL-15 | 2026-08-31 23:47:46 | 49.64390 | 17.72817 | 86° | 84km/h | 12867m | 7.9m/s | -47.7°C | 3.3% | 0hPa | 2.7V | 00:00:00 | 00:00:00 | 00:00:00 | |
| OM5KV | 2026-08-31 23:47:45 | 49.64390 | 17.72817 | 87° | 84km/h | 12867m | 8.0m/s | -47.8°C | 1.4% | 0hPa | 2.7V | 00:00:00 | 00:00:00 | 00:00:00 | |
| OM5KV | 2026-08-31 23:47:44 | 49.64386 | 17.72756 | 86° | 73km/h | 12852m | 5.9m/s | -47.7°C | 1.4% | 0hPa | 2.7V | 00:00:00 | 00:00:00 | 00:00:00 | |
| OM5KV | 2026-08-31 23:47:40 | 49.64380 | 17.72669 | 83° | 80km/h | 12832m | 4.5m/s | -47.7°C | 1.4% | 0hPa | 2.7V | 00:00:00 | 00:00:00 | 00:00:00 | |
| OM5KV | 2026-08-31 23:47:37 | 49.64373 | 17.72567 | 86° | 95km/h | 12816m | 5.7m/s | -47.6°C | 1.5% | 0hPa | 2.7V | 00:00:00 | 00:00:00 | 00:00:00 | |
| PETON7-10 | 2026-08-31 23:47:36 | 49.64367 | 17.72493 | 80° | 77km/h | 12802m | 8.5m/s | -47.5°C | 3.5% | 0hPa | 2.7V | 00:00:00 | 01:00:18 | 00:00:00 | |
| OM5KV | 2026-08-31 23:47:35 | 49.64367 | 17.72493 | 81° | 95km/h | 12802m | 8.6m/s | -47.6°C | 1.5% | 0hPa | 2.7V | 00:00:00 | 00:00:00 | 00:00:00 | |
| OE5DRO-10 | 2026-08-31 23:47:34 | 49.64358 | 17.72425 | 79° | 86km/h | 12790m | 6.5m/s | -47.5°C | 3.5% | 0hPa | 2.7V | 00:00:00 | 00:00:00 | 00:00:00 | |
| POL1PZ | 2026-08-31 23:47:31 | 49.64351 | 17.72368 | 82° | 68km/h | 12777m | 6.4m/s | -47.5°C | 1.5% | 0hPa | 2.7V | 00:00:00 | 00:00:00 | 00:00:00 | |
| PG1ADW-2 | 2026-08-31 23:47:30 | 49.64348 | 17.72318 | 88° | 89km/h | 12763m | 6.3m/s | -47.4°C | 3.4% | 0hPa | 2.7V | 00:00:00 | 01:00:12 | 00:00:00 | |
| OM5KV | 2026-08-31 23:47:25 | 49.64345 | 17.72217 | 85° | 68km/h | 12734m | 9.6m/s | -47.4°C | 1.4% | 0hPa | 2.7V | 00:00:00 | 00:00:00 | 00:00:00 | |
| OM5KV | 2026-08-31 23:47:24 | 49.64343 | 17.72189 | 82° | 77km/h | 12725m | 8.3m/s | -47.5°C | 1.5% | 0hPa | 2.7V | 00:00:00 | 00:00:00 | 00:00:00 | |
| PETON7-10 | 2026-08-31 23:47:21 | 49.64332 | 17.72044 | 87° | 102km/h | 12690m | 9.6m/s | -47.7°C | 3.4% | 0hPa | 2.7V | 00:00:00 | 00:00:00 | 00:00:00 | |
| OE5DXL-15 | 2026-08-31 23:47:16 | 49.64320 | 17.71837 | 82° | 97km/h | 12659m | 2.5m/s | -47.8°C | 3.5% | 0hPa | 2.7V | 00:00:00 | 00:00:00 | 00:00:00 | |
| OE5DRO-10 | 2026-08-31 23:47:15 | 49.64317 | 17.71796 | 83° | 97km/h | 12654m | 5.8m/s | -47.7°C | 3.5% | 0hPa | 2.7V | 00:00:00 | 00:00:00 | 00:00:00 | |
| OM5KV | 2026-08-31 23:47:13 | 49.64314 | 17.71756 | 85° | 100km/h | 12649m | 5.2m/s | -47.7°C | 1.5% | 0hPa | 2.7V | 00:00:00 | 00:00:00 | 00:00:00 | |
| POL1PZ | 2026-08-31 23:47:11 | 49.64308 | 17.71679 | 85° | 100km/h | 12638m | 6.6m/s | -47.7°C | 1.5% | 0hPa | 2.7V | 00:00:00 | 00:00:00 | 00:00:00 | |
| PG1ADW-2 | 2026-08-31 23:47:10 | 49.64303 | 17.71602 | 85° | 97km/h | 12629m | 5.7m/s | -47.5°C | 3.5% | 0hPa | 2.7V | 00:00:00 | 00:00:00 | 00:00:00 | |
| OM5KV | 2026-08-31 23:47:08 | 49.64299 | 17.71527 | 85° | 97km/h | 12620m | 3.4m/s | -47.6°C | 1.6% | 0hPa | 2.7V | 00:00:00 | 00:00:00 | 00:00:00 | |
| PETON7-10 | 2026-08-31 23:47:06 | 49.64292 | 17.71451 | 81° | 97km/h | 12610m | 4.3m/s | -47.9°C | 3.6% | 0hPa | 2.7V | 00:00:00 | 00:00:00 | 00:00:00 | |
| OE3OSB-13 | 2026-08-31 23:46:45 | 49.64223 | 17.70670 | 81° | 111km/h | 12486m | 6.4m/s | -47.8°C | 1.6% | -1.0hPa | 2.7V | 00:00:00 | 00:00:00 | 00:00:00 | |
| OM5KV | 2026-08-31 23:46:42 | 49.64215 | 17.70582 | 83° | 115km/h | 12473m | 6.8m/s | -47.9°C | 1.8% | 0hPa | 2.7V | 00:00:00 | 00:00:00 | 00:00:00 | |
| HA6NAB-11 | 2026-08-31 23:46:41 | 49.64206 | 17.70494 | 82° | 113km/h | 12459m | 7.0m/s | 0°C | 0% | 0hPa | 2.7V | 00:00:00 | 00:00:00 | 00:00:00 | |
| OE5DRO-10 | 2026-08-31 23:46:37 | 49.64185 | 17.70321 | 78° | 106km/h | 12434m | 6.6m/s | -48.2°C | 3.9% | 0hPa | 2.7V | 00:00:00 | 00:00:00 | 00:00:00 | |
| PETON7-10 | 2026-08-31 23:46:36 | 49.64179 | 17.70279 | 79° | 106km/h | 12428m | 4.3m/s | -48.5°C | 4.1% | 0hPa | 2.7V | 00:00:00 | 00:00:00 | 00:00:00 | |
| HA6NAB-11 | 2026-08-31 23:46:35 | 49.64179 | 17.70279 | 79° | 110km/h | 12428m | 4.3m/s | 0°C | 0% | 0hPa | 2.7V | 00:00:00 | 00:00:00 | 00:00:00 | |
| OM5KV | 2026-08-31 23:46:32 | 49.64162 | 17.70155 | 79° | 108km/h | 12411m | 5.8m/s | -48.7°C | 2.0% | 0hPa | 2.7V | 00:00:00 | 00:00:00 | 00:00:00 | |
| PG1ADW-2 | 2026-08-31 23:46:30 | 49.64150 | 17.70034 | 84° | 104km/h | 12392m | 5.5m/s | 0°C | 0% | 0hPa | 2.7V | 00:00:00 | 00:00:00 | 00:00:00 | |
| OM5KV | 2026-08-31 23:46:29 | 49.64150 | 17.70034 | 84° | 102km/h | 12392m | 5.6m/s | -48.8°C | 2.0% | 0hPa | 2.7V | 00:00:00 | 00:00:00 | 00:00:00 | |
| OM5KV | 2026-08-31 23:46:26 | 49.64138 | 17.69918 | 80° | 102km/h | 12375m | 3.1m/s | -48.8°C | 2.2% | 0hPa | 2.7V | 00:00:00 | 00:00:00 | 00:00:00 | |
| S52SK | 2026-08-31 23:46:23 | 49.64125 | 17.69796 | 84° | 113km/h | 12358m | 4.8m/s | -48.8°C | 0% | 0hPa | 2.7V | 00:00:00 | 00:00:00 | 00:00:00 | |
| PETON7-10 | 2026-08-31 23:46:21 | 49.64116 | 17.69667 | 85° | 106km/h | 12339m | 6.3m/s | -48.7°C | 4.6% | 0hPa | 2.7V | 00:00:00 | 00:00:00 | 00:00:00 | |
| OM5KV | 2026-08-31 23:46:18 | 49.64112 | 17.69550 | 91° | 99km/h | 12323m | 5.6m/s | -48.9°C | 2.6% | 0hPa | 2.7V | 00:00:00 | 00:00:00 | 00:00:00 | |
| OE5DXL-15 | 2026-08-31 23:46:16 | 49.64112 | 17.69473 | 90° | 124km/h | 12313m | 7.5m/s | -48.9°C | 4.8% | 0hPa | 2.7V | 00:00:00 | 00:00:00 | 08:30:00 | |
| OM5KV | 2026-08-31 23:46:15 | 49.64112 | 17.69473 | 91° | 99km/h | 12313m | 7.6m/s | -49.0°C | 2.6% | 0hPa | 2.7V | 00:00:00 | 00:00:00 | 00:00:00 | |
| OE3OSB-13 | 2026-08-31 23:46:14 | 49.64108 | 17.69394 | 81° | 104km/h | 12301m | 4.4m/s | -49.3°C | 2.6% | -1.0hPa | 2.7V | 00:00:00 | 00:00:00 | 00:00:00 | |
| OE5DRO-10 | 2026-08-31 23:46:11 | 49.64094 | 17.69270 | 83° | 128km/h | 12282m | 7.2m/s | -49.5°C | 5.2% | 0hPa | 2.7V | 00:00:00 | 00:00:00 | 00:00:00 | |
| PG1ADW-2 | 2026-08-31 23:46:10 | 49.64091 | 17.69227 | 85° | 130km/h | 12275m | 6.4m/s | 0°C | 0% | 0hPa | 2.7V | 00:00:00 | 00:58:52 | 00:00:00 | |
| POL1PZ | 2026-08-31 23:46:09 | 49.64091 | 17.69227 | 85° | 110km/h | 12275m | 6.5m/s | -49.5°C | 2.9% | 0hPa | 2.7V | 00:00:00 | 00:00:00 | 00:00:00 | |
| PETON7-10 | 2026-08-31 23:46:06 | 49.64082 | 17.69055 | 85° | 133km/h | 12248m | 4.6m/s | -49.7°C | 5.6% | 0hPa | 2.7V | 00:00:00 | 00:58:48 | 00:00:00 | |
| OM5KV | 2026-08-31 23:46:05 | 49.64080 | 17.69008 | 87° | 124km/h | 12243m | 5.1m/s | -49.7°C | 3.2% | 0hPa | 2.7V | 00:00:00 | 00:00:00 | 00:00:00 | |
| OM5KV | 2026-08-31 23:45:58 | 49.64081 | 17.68703 | 89° | 131km/h | 12210m | 4.1m/s | -49.9°C | 3.5% | 0hPa | 2.7V | 00:00:00 | 00:00:00 | 00:00:00 | |
| OE5DRO-10 | 2026-08-31 23:45:52 | 49.64052 | 17.68328 | 85° | 135km/h | 12166m | 5.7m/s | -50.2°C | 6.4% | 0hPa | 2.7V | 00:00:00 | 00:00:00 | 00:00:00 | |
| OM5KV | 2026-08-31 23:45:51 | 49.64049 | 17.68273 | 87° | 139km/h | 12161m | 4.5m/s | -50.2°C | 3.8% | 0hPa | 2.7V | 00:00:00 | 00:00:00 | 00:00:00 | |
| PG1ADW-2 | 2026-08-31 23:45:50 | 49.64047 | 17.68220 | 87° | 137km/h | 12156m | 4.3m/s | 0°C | 0% | 0hPa | 2.7V | 00:00:00 | 00:00:00 | 00:00:00 | |
| POL1PZ | 2026-08-31 23:45:49 | 49.64045 | 17.68169 | 89° | 131km/h | 12151m | 5.8m/s | -50.2°C | 3.8% | 0hPa | 2.7V | 00:00:00 | 00:00:00 | 00:00:00 | |
| OE5DXL-15 | 2026-08-31 23:45:46 | 49.64039 | 17.68022 | 83° | 146km/h | 12136m | 4.7m/s | -50.2°C | 6.5% | 0hPa | 2.7V | 00:00:00 | 00:00:00 | 00:00:00 | |
| OM5KV | 2026-08-31 23:45:44 | 49.64034 | 17.67975 | 81° | 120km/h | 12132m | 2.9m/s | -50.3°C | 4.0% | 0hPa | 2.7V | 00:00:00 | 00:00:00 | 00:00:00 | |
| OE3OSB-13 | 2026-08-31 23:45:43 | 49.64018 | 17.67830 | 82° | 137km/h | 12116m | 4.8m/s | -50.6°C | 4.0% | -1.0hPa | 2.7V | 00:00:00 | 00:00:00 | 00:00:00 | |
| OM5KV | 2026-08-31 23:45:39 | 49.64010 | 17.67719 | 86° | 150km/h | 12105m | 7.3m/s | -50.6°C | 4.2% | 0hPa | 2.7V | 00:00:00 | 00:00:00 | 00:00:00 | |
| PETON7-10 | 2026-08-31 23:45:36 | 49.64002 | 17.67492 | 89° | 151km/h | 12077m | 4.2m/s | -50.5°C | 7.1% | 0hPa | 2.7V | 00:00:00 | 00:00:00 | 00:00:00 | |
| OE5DRO-10 | 2026-08-31 23:45:34 | 49.63998 | 17.67331 | 86° | 153km/h | 12057m | 8.5m/s | -50.7°C | 7.3% | 0hPa | 2.7V | 00:00:00 | 00:00:00 | 00:00:00 | |
| PG1ADW-2 | 2026-08-31 23:45:30 | 49.63982 | 17.67148 | 80° | 153km/h | 12036m | 7.4m/s | 0°C | 0% | 0hPa | 2.7V | 00:00:00 | 00:00:00 | 00:00:00 | |
| POL1PZ | 2026-08-31 23:45:27 | 49.63966 | 17.67022 | 80° | 162km/h | 12023m | 5.4m/s | -51.9°C | 5.6% | 0hPa | 2.7V | 00:00:00 | 00:00:00 | 00:00:00 | |
| PETON7-10 | 2026-08-31 23:45:21 | 49.63887 | 17.66629 | 67° | 146km/h | 11966m | 6.4m/s | -52.4°C | 9.3% | 0hPa | 2.7V | 00:00:00 | 00:58:03 | 00:00:00 | |
| OM5KV | 2026-08-31 23:45:20 | 49.63887 | 17.66629 | 67° | 148km/h | 11966m | 6.5m/s | -52.4°C | 6.1% | 0hPa | 2.7V | 00:00:00 | 00:00:00 | 00:00:00 | |
| OM5KV | 2026-08-31 23:45:17 | 49.63814 | 17.66359 | 73° | 153km/h | 11936m | 7.5m/s | -52.3°C | 6.3% | 0hPa | 2.7V | 00:00:00 | 00:00:00 | 00:00:00 | |
| OM5KV | 2026-08-31 23:45:15 | 49.63804 | 17.66302 | 77° | 150km/h | 11929m | 6.7m/s | -52.3°C | 6.3% | 0hPa | 2.7V | 00:00:00 | 00:00:00 | 00:00:00 | |
| OE5DRO-10 | 2026-08-31 23:45:14 | 49.63795 | 17.66245 | 79° | 137km/h | 11921m | 8.5m/s | -52.2°C | 9.4% | 0hPa | 2.7V | 00:00:00 | 00:00:00 | 08:30:00 | |
| OE3OSB-13 | 2026-08-31 23:45:12 | 49.63776 | 17.66077 | 80° | 146km/h | 11890m | 10.8m/s | -52.2°C | 6.2% | -1.0hPa | 2.7V | 00:00:00 | 00:00:00 | 00:00:00 | |
| PETON7-10 | 2026-08-31 23:45:06 | 49.63749 | 17.65808 | 78° | 131km/h | 11853m | 7.2m/s | -51.9°C | 10.4% | 0hPa | 2.7V | 00:00:00 | 00:00:00 | 00:00:00 | |
| OM5KV | 2026-08-31 23:45:04 | 49.63732 | 17.65708 | 75° | 133km/h | 11841m | 5.1m/s | -51.9°C | 7.3% | 0hPa | 2.7V | 00:00:00 | 00:00:00 | 00:00:00 | |
| OM5KV | 2026-08-31 23:44:57 | 49.63683 | 17.65412 | 79° | 137km/h | 11810m | 4.2m/s | -51.8°C | 7.7% | 0hPa | 2.7V | 00:00:00 | 00:00:00 | 00:00:00 | |
| OE5DRO-10 | 2026-08-31 23:44:55 | 49.63662 | 17.65256 | 78° | 135km/h | 11789m | 7.5m/s | -51.7°C | 11.6% | 0hPa | 2.7V | 00:00:00 | 00:00:00 | 00:00:00 | |
| S52SK | 2026-08-31 23:44:52 | 49.63640 | 17.65108 | 77° | 131km/h | 11770m | 8.0m/s | -51.7°C | 0% | 0hPa | 2.7V | 00:00:00 | 00:00:00 | 00:00:00 | |
| PETON7-10 | 2026-08-31 23:44:51 | 49.63631 | 17.65058 | 76° | 135km/h | 11763m | 7.5m/s | -51.7°C | 12.4% | 0hPa | 2.7V | 00:00:00 | 00:00:00 | 00:00:00 | |
| POL1PZ | 2026-08-31 23:44:46 | 49.63592 | 17.64796 | 79° | 141km/h | 11729m | 6.5m/s | -52.1°C | 10.4% | 0hPa | 2.7V | 00:00:00 | 00:00:00 | 00:00:00 | |
| S52SK | 2026-08-31 23:44:45 | 49.63592 | 17.64796 | 79° | 141km/h | 11729m | 6.5m/s | -52.1°C | 0% | 0hPa | 2.7V | 00:00:00 | 00:00:00 | 00:00:00 | |
| OM5KV | 2026-08-31 23:44:41 | 49.63551 | 17.64588 | 71° | 133km/h | 11702m | 7.6m/s | -52.6°C | 0% | 0hPa | 2.7V | 00:00:00 | 00:00:00 | 00:00:00 | |
| OM5KV | 2026-08-31 23:44:40 | 49.63540 | 17.64540 | 70° | 130km/h | 11696m | 4.1m/s | -53.0°C | 0% | 0hPa | 2.7V | 00:00:00 | 00:00:00 | 00:00:00 | |
| PETON7-10 | 2026-08-31 23:44:36 | 49.63483 | 17.64301 | 76° | 142km/h | 11665m | 7.6m/s | -53.5°C | 17.7% | 0hPa | 2.7V | 00:00:00 | 00:57:18 | 00:00:00 | |
| OM5KV | 2026-08-31 23:44:35 | 49.63483 | 17.64301 | 76° | 131km/h | 11665m | 7.6m/s | -53.5°C | 0% | 0hPa | 2.7V | 00:00:00 | 00:00:00 | 00:00:00 | |
| OM5KV | 2026-08-31 23:44:34 | 49.63476 | 17.64250 | 80° | 135km/h | 11659m | 4.7m/s | -53.5°C | 0% | 0hPa | 2.7V | 00:00:00 | 00:00:00 | 00:00:00 | |
| OM5KV | 2026-08-31 23:44:31 | 49.63447 | 17.64029 | 78° | 153km/h | 11640m | 6.2m/s | -53.5°C | 0% | 0hPa | 2.7V | 00:00:00 | 00:00:00 | 00:00:00 | |
| OM5KV | 2026-08-31 23:44:29 | 49.63438 | 17.63971 | 75° | 155km/h | 11634m | 5.7m/s | -53.5°C | 0% | 0hPa | 2.7V | 00:00:00 | 00:00:00 | 00:00:00 | |
| OM5KV | 2026-08-31 23:44:24 | 49.63375 | 17.63699 | 72° | 141km/h | 11604m | 5.9m/s | -53.4°C | 0% | 0hPa | 2.7V | 00:00:00 | 00:00:00 | 00:00:00 | |
| PETON7-10 | 2026-08-31 23:44:21 | 49.63336 | 17.63501 | 73° | 150km/h | 11584m | 4.4m/s | -53.4°C | 19.9% | 0hPa | 2.7V | 00:00:00 | 00:00:00 | 00:00:00 | |
| OM5KV | 2026-08-31 23:44:19 | 49.63325 | 17.63450 | 73° | 141km/h | 11579m | 4.7m/s | 0°C | 0% | 0hPa | 2.7V | 00:00:00 | 00:00:00 | 00:00:00 | |
| OM5KV | 2026-08-31 23:44:18 | 49.63314 | 17.63397 | 74° | 146km/h | 11573m | 8.8m/s | 0°C | 0% | 0hPa | 2.7V | 00:00:00 | 00:00:00 | 00:00:00 | |
| OE5DRO-10 | 2026-08-31 23:44:17 | 49.63292 | 17.63283 | 74° | 161km/h | 11554m | 8.1m/s | -53.4°C | 20.5% | 0hPa | 2.7V | 00:00:00 | 00:00:00 | 00:00:00 | |
| OE5DXL-15 | 2026-08-31 23:44:16 | 49.63281 | 17.63223 | 74° | 157km/h | 11547m | 5.7m/s | -53.4°C | 20.6% | 0hPa | 2.7V | 00:00:00 | 00:00:00 | 00:00:00 | |
| OM5KV | 2026-08-31 23:44:10 | 49.63217 | 17.62944 | 69° | 144km/h | 11510m | 5.5m/s | 0°C | 0% | 0hPa | 2.7V | 00:00:00 | 00:00:00 | 00:00:00 | |
| OM5KV | 2026-08-31 23:44:06 | 49.63156 | 17.62660 | 75° | 170km/h | 11483m | 4.0m/s | 0°C | 0% | 0hPa | 2.7V | 00:00:00 | 00:00:00 | 00:00:00 | |
| OM5KV | 2026-08-31 23:44:05 | 49.63156 | 17.62660 | 75° | 170km/h | 11483m | 4.0m/s | 0°C | 0% | 0hPa | 2.7V | 00:00:00 | 00:00:00 | 00:00:00 | |
| OE3JTB-15 | 2026-08-31 23:44:04 | 49.63130 | 17.62530 | 71° | 164km/h | 11474m | 4.8m/s | -53.1°C | 21.8% | 0hPa | 2.7V | 00:00:00 | 00:56:46 | 00:00:00 | |
| OM5KV | 2026-08-31 23:43:59 | 49.63050 | 17.62223 | 69° | 157km/h | 11436m | 10.1m/s | 0°C | 0% | 0hPa | 2.7V | 00:00:00 | 00:00:00 | 00:00:00 | |
| OE5DRO-10 | 2026-08-31 23:43:58 | 49.63036 | 17.62168 | 69° | 155km/h | 11426m | 10.0m/s | -52.9°C | 21.6% | 0hPa | 2.7V | 00:00:00 | 00:00:00 | 00:00:00 | |
| OM5KV | 2026-08-31 23:43:52 | 49.62967 | 17.61907 | 68° | 144km/h | 11391m | 8.1m/s | 0°C | 0% | 0hPa | 2.7V | 00:00:00 | 00:00:00 | 00:00:00 | |
| PETON7-10 | 2026-08-31 23:43:51 | 49.62936 | 17.61801 | 65° | 164km/h | 11379m | 3.8m/s | -52.9°C | 24.4% | 0hPa | 2.7V | 00:00:00 | 00:56:33 | 00:00:00 | |
| OE5DXL-15 | 2026-08-31 23:43:46 | 49.62856 | 17.61517 | 68° | 157km/h | 11343m | 7.1m/s | -53.2°C | 24.9% | 0hPa | 2.7V | 00:00:00 | 00:00:00 | 00:00:00 | |
| POL1PZ | 2026-08-31 23:43:45 | 49.62841 | 17.61457 | 69° | 168km/h | 11336m | 5.2m/s | -53.3°C | 19.6% | 0hPa | 2.7V | 00:00:00 | 00:00:00 | 00:00:00 | |
| OE5DRO-10 | 2026-08-31 23:43:39 | 49.62742 | 17.61095 | 63° | 155km/h | 11306m | 9.2m/s | -53.4°C | 25.9% | 0hPa | 2.7V | 00:00:00 | 00:00:00 | 00:00:00 | |
| PETON7-10 | 2026-08-31 23:43:36 | 49.62675 | 17.60927 | 58° | 151km/h | 11282m | 8.6m/s | -53.2°C | 26.5% | 0hPa | 2.7V | 00:00:00 | 00:00:00 | 08:30:00 | |
| OE3JTB-15 | 2026-08-31 23:43:35 | 49.62654 | 17.60873 | 60° | 155km/h | 11273m | 8.5m/s | -53.2°C | 26.6% | 0hPa | 2.7V | 00:00:00 | 00:00:00 | 00:00:00 | |
| POL1PZ | 2026-08-31 23:43:23 | 49.62458 | 17.60301 | 60° | 153km/h | 11199m | 9.7m/s | -53.3°C | 20.6% | 0hPa | 2.7V | 00:00:00 | 00:00:00 | 00:00:00 | |
| PETON7-10 | 2026-08-31 23:43:21 | 49.62396 | 17.60157 | 57° | 153km/h | 11178m | 7.4m/s | -53.2°C | 27.2% | 0hPa | 2.7V | 00:00:00 | 00:00:00 | 00:00:00 | |
| OE5DRO-10 | 2026-08-31 23:43:20 | 49.62375 | 17.60109 | 58° | 151km/h | 11172m | 4.9m/s | -53.2°C | 27.7% | 0hPa | 2.7V | 00:00:00 | 00:00:00 | 00:00:00 | |
| S52SK | 2026-08-31 23:43:18 | 49.62355 | 17.60058 | 60° | 155km/h | 11167m | 3.8m/s | -53.2°C | 0% | 0hPa | 2.7V | 00:00:00 | 00:00:00 | 00:00:00 | |
| OE5DXL-15 | 2026-08-31 23:43:16 | 49.62295 | 17.59900 | 61° | 151km/h | 11149m | 6.8m/s | -53.0°C | 27.5% | 0hPa | 2.7V | 00:00:00 | 00:00:00 | 00:00:00 | |
| S52SK | 2026-08-31 23:43:13 | 49.62256 | 17.59796 | 61° | 151km/h | 11136m | 5.7m/s | -53.0°C | 0% | 0hPa | 2.7V | 00:00:00 | 00:00:00 | 00:00:00 | |
| S52SK | 2026-08-31 23:43:07 | 49.62127 | 17.59495 | 57° | 142km/h | 11099m | 5.7m/s | -53.1°C | 0% | 0hPa | 2.7V | 00:00:00 | 00:00:00 | 00:00:00 | |
| PETON7-10 | 2026-08-31 23:43:06 | 49.62090 | 17.59401 | 60° | 151km/h | 11087m | 8.3m/s | -53.0°C | 27.1% | 0hPa | 2.7V | 00:00:00 | 00:55:48 | 00:00:00 | |
| POL1PZ | 2026-08-31 23:43:02 | 49.62032 | 17.59256 | 58° | 148km/h | 11060m | 8.3m/s | -52.8°C | 20.9% | 0hPa | 2.7V | 00:00:00 | 00:00:00 | 00:00:00 | |
| OE5DRO-10 | 2026-08-31 23:43:01 | 49.61991 | 17.59158 | 59° | 150km/h | 11044m | 8.0m/s | -52.6°C | 26.2% | 0hPa | 2.7V | 00:00:00 | 00:00:00 | 00:00:00 | |
| OE3JTB-15 | 2026-08-31 23:43:00 | 49.61970 | 17.59106 | 59° | 144km/h | 11037m | 6.3m/s | -52.6°C | 26.5% | 0hPa | 2.7V | 00:00:00 | 00:00:00 | 00:00:00 | |
| PETON7-10 | 2026-08-31 23:42:51 | 49.61778 | 17.58655 | 60° | 142km/h | 10979m | 7.5m/s | -52.6°C | 27.1% | 0hPa | 2.7V | 00:00:00 | 00:00:00 | 00:00:00 | |
| OE5DXL-15 | 2026-08-31 23:42:46 | 49.61690 | 17.58415 | 57° | 146km/h | 10953m | 5.2m/s | 0°C | 0% | 0hPa | 2.7V | 00:00:00 | 00:00:00 | 00:00:00 | |
| OE5DRO-10 | 2026-08-31 23:42:42 | 49.61601 | 17.58234 | 50° | 144km/h | 10925m | 7.7m/s | -52.8°C | 28.5% | 0hPa | 2.7V | 00:00:00 | 00:00:00 | 00:00:00 | |
| OE3OSB-13 | 2026-08-31 23:42:37 | 49.61461 | 17.57984 | 50° | 137km/h | 10883m | 7.6m/s | -52.5°C | 22.2% | -1.0hPa | 2.7V | 00:00:00 | 00:00:00 | 00:00:00 | |
| PETON7-10 | 2026-08-31 23:42:36 | 49.61461 | 17.57984 | 51° | 146km/h | 10883m | 7.5m/s | -52.4°C | 28.2% | 0hPa | 2.7V | 00:00:00 | 00:00:00 | 00:00:00 | |
| OE3JTB-15 | 2026-08-31 23:42:31 | 49.61365 | 17.57767 | 58° | 155km/h | 10854m | 6.3m/s | -52.2°C | 28.2% | 0hPa | 2.7V | 00:00:00 | 00:55:13 | 00:00:00 | |
| OE5DRO-10 | 2026-08-31 23:42:23 | 49.61185 | 17.57384 | 54° | 148km/h | 10799m | 6.2m/s | -52.3°C | 29.5% | 0hPa | 2.7V | 00:00:00 | 00:00:00 | 08:30:00 | |
| POL1PZ | 2026-08-31 23:42:22 | 49.61185 | 17.57384 | 54° | 155km/h | 10799m | 6.3m/s | -52.3°C | 23.6% | 0hPa | 2.7V | 00:00:00 | 00:00:00 | 00:00:00 | |
| PETON7-10 | 2026-08-31 23:42:21 | 49.61140 | 17.57287 | 56° | 148km/h | 10787m | 5.6m/s | -52.3°C | 29.5% | 0hPa | 2.7V | 00:00:00 | 00:55:03 | 00:00:00 | |
| OE5DXL-15 | 2026-08-31 23:42:15 | 49.61006 | 17.57006 | 52° | 153km/h | 10748m | 7.0m/s | 0°C | 0% | 0hPa | 2.7V | 00:00:00 | 00:54:57 | 00:00:00 | |
| PETON7-10 | 2026-08-31 23:42:06 | 49.60803 | 17.56602 | 49° | 153km/h | 10689m | 7.6m/s | -51.9°C | 28.6% | 0hPa | 2.7V | 00:00:00 | 00:00:00 | 00:00:00 | |
| OE3OSB-13 | 2026-08-31 23:42:05 | 49.60779 | 17.56559 | 49° | 150km/h | 10682m | 6.9m/s | -51.9°C | 22.6% | -1.0hPa | 2.9V | 00:00:00 | 00:00:00 | 00:00:00 | |
| OE5DRO-10 | 2026-08-31 23:42:04 | 49.60753 | 17.56512 | 52° | 155km/h | 10675m | 6.3m/s | -51.8°C | 28.4% | 0hPa | 2.9V | 00:00:00 | 00:00:00 | 00:00:00 | |
| POL1PZ | 2026-08-31 23:42:01 | 49.60703 | 17.56411 | 55° | 166km/h | 10661m | 8.3m/s | -51.8°C | 22.5% | 0hPa | 2.9V | 00:00:00 | 00:00:00 | 00:00:00 | |
| S52SK | 2026-08-31 23:41:55 | 49.60538 | 17.56076 | 50° | 144km/h | 10618m | 8.1m/s | -51.6°C | 0% | 0hPa | 2.9V | 00:00:00 | 00:00:00 | 00:00:00 | |
| PETON7-10 | 2026-08-31 23:41:51 | 49.60436 | 17.55900 | 50° | 155km/h | 10589m | 8.3m/s | -51.3°C | 28.3% | 0hPa | 2.9V | 00:00:00 | 00:00:00 | 00:00:00 | |
| S52SK | 2026-08-31 23:41:50 | 49.60411 | 17.55855 | 51° | 151km/h | 10581m | 6.5m/s | -51.3°C | 0% | 0hPa | 2.9V | 00:00:00 | 00:00:00 | 00:00:00 | |
| OE5DXL-15 | 2026-08-31 23:41:45 | 49.60284 | 17.55616 | 51° | 161km/h | 10550m | 7.1m/s | 0°C | 0% | 0hPa | 2.9V | 00:00:00 | 00:00:00 | 08:30:00 | |
| S52SK | 2026-08-31 23:41:43 | 49.60257 | 17.55569 | 50° | 161km/h | 10543m | 7.3m/s | 0°C | 0% | 0hPa | 2.9V | 00:00:00 | 00:00:00 | 00:00:00 | |
| POL1PZ | 2026-08-31 23:41:41 | 49.60203 | 17.55474 | 51° | 161km/h | 10529m | 8.5m/s | -50.8°C | 21.9% | 0hPa | 2.9V | 00:00:00 | 00:00:00 | 00:00:00 | |
| PETON7-10 | 2026-08-31 23:41:36 | 49.60062 | 17.55200 | 54° | 157km/h | 10485m | 8.3m/s | -50.4°C | 25.9% | 0hPa | 2.9V | 00:00:00 | 00:54:18 | 00:00:00 | |
| OE3JTB-15 | 2026-08-31 23:41:34 | 49.60017 | 17.55106 | 55° | 157km/h | 10470m | 5.8m/s | -50.3°C | 26.1% | 0hPa | 2.9V | 00:00:00 | 00:00:00 | 08:30:00 | |
| OE5DRO-10 | 2026-08-31 23:41:26 | 49.59809 | 17.54741 | 51° | 161km/h | 10418m | 5.4m/s | -50.0°C | 25.3% | 0hPa | 2.7V | 00:00:00 | 00:00:00 | 00:00:00 | |
| POL1PZ | 2026-08-31 23:41:21 | 49.59676 | 17.54506 | 48° | 161km/h | 10390m | 7.0m/s | -49.7°C | 19.7% | 0hPa | 2.7V | 00:00:00 | 00:00:00 | 00:00:00 | |
| OE5DRO-10 | 2026-08-31 23:41:07 | 49.59300 | 17.53854 | 50° | 151km/h | 10302m | 6.7m/s | -48.9°C | 23.8% | 0hPa | 2.7V | 00:00:00 | 00:00:00 | 00:00:00 | |
| PETON7-10 | 2026-08-31 23:41:06 | 49.59274 | 17.53808 | 48° | 150km/h | 10295m | 6.9m/s | -48.9°C | 23.8% | 0hPa | 2.7V | 00:00:00 | 00:00:00 | 00:00:00 | |
| OE3JTB-15 | 2026-08-31 23:41:05 | 49.59247 | 17.53764 | 46° | 151km/h | 10287m | 9.7m/s | -48.8°C | 23.6% | 0hPa | 2.7V | 00:00:00 | 00:00:00 | 00:00:00 | |
| OE3OSB-13 | 2026-08-31 23:41:03 | 49.59192 | 17.53683 | 43° | 150km/h | 10271m | 8.7m/s | -48.7°C | 18.7% | -1.0hPa | 2.7V | 00:00:00 | 00:00:00 | 00:00:00 | |
| POL1PZ | 2026-08-31 23:41:00 | 49.59137 | 17.53599 | 46° | 157km/h | 10254m | 7.8m/s | -48.6°C | 19.3% | 0hPa | 2.7V | 00:00:00 | 00:00:00 | 00:00:00 | |
| PETON7-10 | 2026-08-31 23:40:51 | 49.58874 | 17.53195 | 42° | 151km/h | 10187m | 6.8m/s | -48.0°C | 23.0% | 0hPa | 2.7V | 00:00:00 | 00:53:33 | 00:00:00 | |
| OE5DRO-10 | 2026-08-31 23:40:48 | 49.58780 | 17.53076 | 38° | 150km/h | 10167m | 6.4m/s | -47.9°C | 22.7% | 0hPa | 2.7V | 00:00:00 | 00:00:00 | 00:00:00 | |
| POL1PZ | 2026-08-31 23:40:40 | 49.58557 | 17.52775 | 43° | 139km/h | 10114m | 8.6m/s | -47.5°C | 17.4% | 0hPa | 2.7V | 00:00:00 | 00:00:00 | 00:00:00 | |
| PETON7-10 | 2026-08-31 23:40:36 | 49.58443 | 17.52614 | 45° | 148km/h | 10086m | 9.6m/s | -47.2°C | 21.0% | 0hPa | 2.7V | 00:00:00 | 00:00:00 | 00:00:00 | |
| OE3OSB-13 | 2026-08-31 23:40:32 | 49.58333 | 17.52446 | 42° | 144km/h | 10059m | 5.1m/s | -47.1°C | 17.2% | -1.0hPa | 2.7V | 00:00:00 | 00:00:00 | 00:00:00 | |
| OE5DRO-10 | 2026-08-31 23:40:29 | 49.58255 | 17.52335 | 45° | 148km/h | 10044m | 9.8m/s | -47.0°C | 21.0% | 0hPa | 2.7V | 00:00:00 | 00:00:00 | 00:00:00 | |
| S52SK | 2026-08-31 23:40:24 | 49.58153 | 17.52167 | 48° | 153km/h | 10018m | 4.8m/s | 0°C | 0% | 0hPa | 2.9V | 00:00:00 | 00:00:00 | 00:00:00 | |
| PETON7-10 | 2026-08-31 23:40:21 | 49.58047 | 17.52003 | 45° | 148km/h | 9998m | 4.9m/s | -47.1°C | 25.0% | 0hPa | 2.9V | 00:00:00 | 00:00:00 | 00:00:00 | |
| POL1PZ | 2026-08-31 23:40:19 | 49.58022 | 17.51963 | 47° | 142km/h | 9992m | 8.2m/s | -47.2°C | 20.7% | 0hPa | 2.9V | 00:00:00 | 00:00:00 | 00:00:00 | |
| OE5DRO-10 | 2026-08-31 23:40:10 | 49.57756 | 17.51549 | 44° | 141km/h | 9927m | 5.0m/s | -46.8°C | 26.9% | 0hPa | 2.9V | 00:00:00 | 00:00:00 | 00:00:00 | |
| PETON7-10 | 2026-08-31 23:40:06 | 49.57654 | 17.51394 | 46° | 139km/h | 9901m | 9.4m/s | -46.6°C | 26.6% | 0hPa | 2.9V | 00:00:00 | 00:52:48 | 00:00:00 | |
| OE3OSB-13 | 2026-08-31 23:40:01 | 49.57526 | 17.51203 | 43° | 141km/h | 9866m | 6.0m/s | -46.5°C | 21.5% | -1.0hPa | 2.9V | 00:00:00 | 00:00:00 | 00:00:00 | |
| POL1PZ | 2026-08-31 23:39:59 | 49.57473 | 17.51126 | 46° | 148km/h | 9850m | 7.2m/s | -46.4°C | 22.0% | 0hPa | 2.9V | 00:00:00 | 00:00:00 | 00:00:00 | |
| PETON7-10 | 2026-08-31 23:39:51 | 49.57301 | 17.50790 | 58° | 144km/h | 9797m | 5.3m/s | -45.9°C | 26.0% | 0hPa | 2.9V | 00:00:00 | 00:00:00 | 00:00:00 | |
| POL1PZ | 2026-08-31 23:39:37 | 49.56996 | 17.50234 | 55° | 148km/h | 9697m | 4.9m/s | -45.2°C | 19.0% | 0hPa | 2.9V | 00:00:00 | 00:00:00 | 00:00:00 | |
| PETON7-10 | 2026-08-31 23:39:36 | 49.56952 | 17.50142 | 54° | 144km/h | 9682m | 9.0m/s | -45.0°C | 22.9% | 0hPa | 2.9V | 00:00:00 | 00:00:00 | 00:00:00 | |
| OE5DRO-10 | 2026-08-31 23:39:32 | 49.56856 | 17.49979 | 46° | 146km/h | 9653m | 8.2m/s | -44.7°C | 22.7% | 0hPa | 2.9V | 00:00:00 | 00:00:00 | 08:30:00 | |
| OE3OSB-13 | 2026-08-31 23:39:30 | 49.56782 | 17.49857 | 47° | 139km/h | 9632m | 5.9m/s | -44.6°C | 18.7% | -1.0hPa | 2.9V | 00:00:00 | 00:00:00 | 00:00:00 | |
| PETON7-10 | 2026-08-31 23:39:21 | 49.56589 | 17.49508 | 47° | 146km/h | 9579m | 8.1m/s | -44.1°C | 21.7% | 0hPa | 2.9V | 00:00:00 | 00:52:03 | 00:00:00 | |
| POL1PZ | 2026-08-31 23:39:16 | 49.56484 | 17.49350 | 46° | 150km/h | 9552m | 9.0m/s | -43.9°C | 17.8% | 0hPa | 2.9V | 00:00:00 | 00:00:00 | 00:00:00 | |
| OE5DRO-10 | 2026-08-31 23:39:13 | 49.56378 | 17.49175 | 46° | 142km/h | 9526m | 6.6m/s | -43.7°C | 21.6% | 0hPa | 2.9V | 00:00:00 | 00:00:00 | 00:00:00 | |
| OE3JTB-15 | 2026-08-31 23:39:07 | 49.56230 | 17.48928 | 50° | 141km/h | 9487m | 4.3m/s | -43.4°C | 20.9% | 0hPa | 2.9V | 00:00:00 | 00:00:00 | 00:00:00 | |
| PETON7-10 | 2026-08-31 23:39:06 | 49.56206 | 17.48887 | 49° | 142km/h | 9480m | 9.7m/s | -43.3°C | 20.4% | 0hPa | 2.9V | 00:00:00 | 00:00:00 | 08:30:00 | |
| OE3OSB-13 | 2026-08-31 23:38:59 | 49.56002 | 17.48570 | 45° | 133km/h | 9420m | 7.7m/s | -42.9°C | 16.4% | -1.0hPa | 2.7V | 00:00:00 | 00:00:00 | 00:00:00 | |
| POL1PZ | 2026-08-31 23:38:55 | 49.55952 | 17.48494 | 47° | 142km/h | 9405m | 6.8m/s | -42.7°C | 16.7% | 0hPa | 2.7V | 00:00:00 | 00:00:00 | 00:00:00 | |
| OE5DRO-10 | 2026-08-31 23:38:54 | 49.55903 | 17.48412 | 49° | 142km/h | 9392m | 7.5m/s | -42.5°C | 20.0% | 0hPa | 2.7V | 00:00:00 | 00:00:00 | 00:00:00 | |
| PETON7-10 | 2026-08-31 23:38:51 | 49.55828 | 17.48289 | 46° | 142km/h | 9371m | 6.8m/s | -42.3°C | 19.4% | 0hPa | 2.7V | 00:00:00 | 00:00:00 | 00:00:00 | |
| PETON7-10 | 2026-08-31 23:38:36 | 49.55439 | 17.47712 | 48° | 142km/h | 9258m | 7.4m/s | -41.4°C | 17.7% | 0hPa | 2.7V | 00:00:00 | 00:51:18 | 00:00:00 | |
| POL1PZ | 2026-08-31 23:38:35 | 49.55413 | 17.47669 | 47° | 151km/h | 9250m | 8.4m/s | -41.3°C | 14.7% | 0hPa | 2.7V | 00:00:00 | 00:00:00 | 00:00:00 | |
| OE3OSB-13 | 2026-08-31 23:38:28 | 49.55196 | 17.47364 | 40° | 137km/h | 9189m | 7.8m/s | -40.9°C | 14.5% | -1.0hPa | 2.7V | 00:00:00 | 00:00:00 | 00:00:00 | |
| PETON7-10 | 2026-08-31 23:38:21 | 49.55042 | 17.47143 | 42° | 141km/h | 9145m | 6.2m/s | -40.5°C | 17.6% | 0hPa | 2.7V | 00:00:00 | 00:00:00 | 00:00:00 | |
| OE5DRO-10 | 2026-08-31 23:38:16 | 49.54916 | 17.46948 | 46° | 139km/h | 9109m | 7.3m/s | -40.2°C | 17.0% | 0hPa | 2.7V | 00:00:00 | 00:00:00 | 00:00:00 | |
| POL1PZ | 2026-08-31 23:38:13 | 49.54867 | 17.46869 | 48° | 142km/h | 9092m | 8.0m/s | -40.1°C | 13.9% | 0hPa | 2.7V | 00:00:00 | 00:00:00 | 00:00:00 | |
| PETON7-10 | 2026-08-31 23:38:06 | 49.54664 | 17.46569 | 46° | 137km/h | 9031m | 7.1m/s | -39.5°C | 16.1% | 0hPa | 2.7V | 00:00:00 | 00:00:00 | 00:00:00 | |
| OE3OSB-13 | 2026-08-31 23:37:57 | 49.54423 | 17.46172 | 45° | 137km/h | 8954m | 8.3m/s | -38.8°C | 12.7% | -1.0hPa | 2.7V | 00:00:00 | 00:00:00 | 00:00:00 | |
| POL1PZ | 2026-08-31 23:37:52 | 49.54352 | 17.46068 | 42° | 126km/h | 8930m | 9.3m/s | -38.6°C | 12.5% | 0hPa | 2.7V | 00:00:00 | 00:00:00 | 00:00:00 | |
| PETON7-10 | 2026-08-31 23:37:51 | 49.54302 | 17.45999 | 45° | 139km/h | 8914m | 6.4m/s | -38.4°C | 15.2% | 0hPa | 2.7V | 00:00:00 | 00:50:33 | 00:00:00 | |
| OE5DRO-10 | 2026-08-31 23:37:38 | 49.53982 | 17.45497 | 53° | 135km/h | 8823m | 1.7m/s | -37.6°C | 14.4% | 0hPa | 2.7V | 00:00:00 | 00:00:00 | 00:00:00 | |
| PETON7-10 | 2026-08-31 23:37:36 | 49.53939 | 17.45413 | 51° | 133km/h | 8811m | 8.8m/s | -37.5°C | 13.9% | 0hPa | 2.9V | 00:00:00 | 00:00:00 | 00:00:00 | |
| POL1PZ | 2026-08-31 23:37:32 | 49.53841 | 17.45263 | 45° | 139km/h | 8781m | 9.8m/s | -37.2°C | 10.9% | 0hPa | 2.7V | 00:00:00 | 00:00:00 | 00:00:00 | |
| OE3JTB-15 | 2026-08-31 23:37:29 | 49.53770 | 17.45140 | 53° | 133km/h | 8755m | 7.4m/s | -37.0°C | 12.9% | 0hPa | 2.7V | 00:00:00 | 00:00:00 | 00:00:00 | |
| OE3OSB-13 | 2026-08-31 23:37:26 | 49.53685 | 17.44972 | 48° | 126km/h | 8725m | 5.8m/s | -36.9°C | 10.5% | -1.0hPa | 2.7V | 00:00:00 | 00:00:00 | 00:00:00 | |
| PETON7-10 | 2026-08-31 23:37:21 | 49.53604 | 17.44827 | 52° | 133km/h | 8694m | 7.4m/s | -36.6°C | 12.7% | 0hPa | 2.7V | 00:00:00 | 00:00:00 | 00:00:00 | |
| OE5DRO-10 | 2026-08-31 23:37:19 | 49.53559 | 17.44745 | 49° | 135km/h | 8680m | 8.2m/s | 0°C | 0% | 0hPa | 2.7V | 00:00:00 | 00:00:00 | 00:00:00 | |
| POL1PZ | 2026-08-31 23:37:10 | 49.53374 | 17.44405 | 51° | 133km/h | 8613m | 9.0m/s | -35.9°C | 9.7% | 0hPa | 2.7V | 00:00:00 | 00:00:00 | 00:00:00 | |
| PETON7-10 | 2026-08-31 23:37:06 | 49.53278 | 17.44224 | 51° | 135km/h | 8575m | 7.2m/s | -35.5°C | 11.3% | 0hPa | 2.7V | 00:00:00 | 00:49:48 | 00:00:00 | |
| OE3OSB-13 | 2026-08-31 23:36:54 | 49.53004 | 17.43747 | 47° | 130km/h | 8483m | 7.7m/s | -34.8°C | 8.8% | -1.0hPa | 2.7V | 00:00:00 | 00:00:00 | 00:00:00 | |
| PETON7-10 | 2026-08-31 23:36:51 | 49.52936 | 17.43625 | 50° | 139km/h | 8459m | 6.7m/s | -34.5°C | 10.5% | 0hPa | 2.7V | 00:00:00 | 00:00:00 | 08:30:00 | |
| POL1PZ | 2026-08-31 23:36:50 | 49.52910 | 17.43582 | 48° | 151km/h | 8452m | 8.0m/s | -34.5°C | 8.6% | 0hPa | 2.7V | 00:00:00 | 00:00:00 | 00:00:00 | |
| OE5DRO-10 | 2026-08-31 23:36:41 | 49.52690 | 17.43249 | 45° | 144km/h | 8385m | 3.9m/s | 0°C | 0% | 0hPa | 2.7V | 00:00:00 | 00:00:00 | 00:00:00 | |
| PETON7-10 | 2026-08-31 23:36:36 | 49.52575 | 17.43039 | 55° | 141km/h | 8346m | 5.2m/s | -33.4°C | 9.6% | 0hPa | 2.7V | 00:00:00 | 00:00:00 | 00:00:00 | |
| POL1PZ | 2026-08-31 23:36:28 | 49.52407 | 17.42755 | 47° | 144km/h | 8295m | 10.5m/s | -33.1°C | 7.6% | 0hPa | 2.7V | 00:00:00 | 00:00:00 | 00:00:00 | |
| OE3JTB-15 | 2026-08-31 23:36:27 | 49.52360 | 17.42673 | 52° | 139km/h | 8278m | 6.8m/s | -33.1°C | 9.1% | 0hPa | 2.7V | 00:00:00 | 00:00:00 | 08:30:00 | |
| OE3OSB-13 | 2026-08-31 23:36:23 | 49.52271 | 17.42509 | 45° | 141km/h | 8244m | 8.1m/s | -33.0°C | 7.3% | -1.0hPa | 2.9V | 00:00:00 | 00:00:00 | 00:00:00 | |
| PETON7-10 | 2026-08-31 23:36:21 | 49.52219 | 17.42432 | 44° | 135km/h | 8229m | 7.8m/s | -32.8°C | 8.7% | 0hPa | 2.9V | 00:00:00 | 00:49:03 | 00:00:00 | |
| POL1PZ | 2026-08-31 23:36:08 | 49.51912 | 17.41938 | 47° | 133km/h | 8127m | 7.7m/s | -32.4°C | 6.7% | 0hPa | 2.9V | 00:00:00 | 00:00:00 | 00:00:00 | |
| PETON7-10 | 2026-08-31 23:36:06 | 49.51863 | 17.41860 | 46° | 130km/h | 8113m | 4.9m/s | -32.3°C | 8.1% | 0hPa | 2.9V | 00:00:00 | 00:00:00 | 00:00:00 | |
| OE3OSB-13 | 2026-08-31 23:35:52 | 49.51551 | 17.41353 | 48° | 133km/h | 8006m | 8.1m/s | -32.0°C | 6.5% | -1.0hPa | 2.7V | 00:00:00 | 00:00:00 | 00:00:00 | |
| PETON7-10 | 2026-08-31 23:35:51 | 49.51529 | 17.41315 | 48° | 120km/h | 7997m | 9.5m/s | -31.9°C | 8.0% | 0hPa | 2.7V | 00:00:00 | 00:00:00 | 00:00:00 | |
| POL1PZ | 2026-08-31 23:35:47 | 49.51466 | 17.41216 | 47° | 108km/h | 7975m | 7.4m/s | -31.7°C | 6.4% | 0hPa | 2.7V | 00:00:00 | 00:00:00 | 00:00:00 | |
| PETON7-10 | 2026-08-31 23:35:36 | 49.51206 | 17.40814 | 39° | 124km/h | 7886m | 8.1m/s | -30.9°C | 7.4% | 0hPa | 2.7V | 00:00:00 | 00:48:18 | 00:00:00 | |
| OE3JTB-15 | 2026-08-31 23:35:27 | 49.50996 | 17.40528 | 44° | 122km/h | 7823m | 8.3m/s | -30.3°C | 7.4% | 0hPa | 2.7V | 00:00:00 | 00:48:09 | 00:00:00 | |
| PETON7-10 | 2026-08-31 23:35:21 | 49.50858 | 17.40325 | 45° | 122km/h | 7779m | 7.8m/s | -29.9°C | 7.1% | 0hPa | 2.7V | 00:00:00 | 00:00:00 | 00:00:00 | |
| PETON7-10 | 2026-08-31 23:35:06 | 49.50517 | 17.39845 | 42° | 124km/h | 7666m | 7.7m/s | -28.8°C | 6.7% | 0hPa | 2.9V | 00:00:00 | 00:00:00 | 00:00:00 | |
| OE3OSB-13 | 2026-08-31 23:34:50 | 49.50145 | 17.39320 | 43° | 117km/h | 7556m | 6.9m/s | -27.8°C | 5.1% | -1.0hPa | 2.9V | 00:00:00 | 00:00:00 | 00:00:00 | |
| OE3JTB-15 | 2026-08-31 23:34:49 | 49.50124 | 17.39288 | 46° | 126km/h | 7550m | 5.3m/s | -27.7°C | 6.1% | 0hPa | 2.9V | 00:00:00 | 00:00:00 | 00:00:00 | |
| POL1PZ | 2026-08-31 23:34:46 | 49.50081 | 17.39222 | 45° | 124km/h | 7536m | 7.1m/s | -27.6°C | 5.2% | 0hPa | 2.9V | 00:00:00 | 00:00:00 | 00:00:00 | |
| PETON7-10 | 2026-08-31 23:34:36 | 49.49832 | 17.38849 | 44° | 126km/h | 7463m | 8.5m/s | -27.4°C | 6.6% | 0hPa | 2.9V | 00:00:00 | 00:00:00 | 08:30:00 | |
| POL1PZ | 2026-08-31 23:34:25 | 49.49603 | 17.38507 | 47° | 117km/h | 7394m | 7.7m/s | -27.0°C | 5.5% | 0hPa | 2.9V | 00:00:00 | 00:00:00 | 00:00:00 | |
| PETON7-10 | 2026-08-31 23:34:21 | 49.49489 | 17.38344 | 45° | 119km/h | 7359m | 6.8m/s | -26.8°C | 6.6% | 0hPa | 2.9V | 00:00:00 | 00:00:00 | 00:00:00 | |
| OE3JTB-15 | 2026-08-31 23:34:20 | 49.49467 | 17.38310 | 46° | 117km/h | 7353m | 5.7m/s | -26.9°C | 6.6% | 0hPa | 2.9V | 00:00:00 | 00:00:00 | 00:00:00 | |
| OE3OSB-13 | 2026-08-31 23:34:19 | 49.49445 | 17.38276 | 45° | 126km/h | 7346m | 7.4m/s | -26.9°C | 5.5% | -1.0hPa | 2.9V | 00:00:00 | 00:00:00 | 00:00:00 | |
| PETON7-10 | 2026-08-31 23:34:06 | 49.49178 | 17.37838 | 49° | 115km/h | 7254m | 5.4m/s | -26.6°C | 7.7% | 0hPa | 2.9V | 00:00:00 | 00:46:48 | 00:00:00 | |
| POL1PZ | 2026-08-31 23:34:05 | 49.49178 | 17.37838 | 50° | 120km/h | 7254m | 5.5m/s | -26.7°C | 6.6% | 0hPa | 2.9V | 00:00:00 | 00:00:00 | 00:00:00 | |
| OE3OSB-13 | 2026-08-31 23:33:48 | 49.48847 | 17.37217 | 48° | 111km/h | 7130m | 7.7m/s | -25.9°C | 6.0% | -1.0hPa | 2.9V | 00:00:00 | 00:00:00 | 00:00:00 | |
| POL1PZ | 2026-08-31 23:33:44 | 49.48792 | 17.37115 | 52° | 117km/h | 7111m | 6.3m/s | -25.9°C | 5.9% | 0hPa | 2.9V | 00:00:00 | 00:00:00 | 00:00:00 | |
| PETON7-10 | 2026-08-31 23:33:36 | 49.48632 | 17.36820 | 52° | 104km/h | 7049m | 7.0m/s | -25.4°C | 6.9% | 0hPa | 2.9V | 00:00:00 | 00:00:00 | 00:00:00 | |
| POL1PZ | 2026-08-31 23:33:24 | 49.48447 | 17.36477 | 52° | 102km/h | 6975m | 6.2m/s | -24.9°C | 15.9% | 0hPa | 2.9V | 00:00:00 | 00:00:00 | 00:00:00 | |
| OE3JTB-15 | 2026-08-31 23:33:22 | 49.48399 | 17.36379 | 53° | 102km/h | 6954m | 6.4m/s | -24.7°C | 22.6% | 0hPa | 2.9V | 00:00:00 | 00:00:00 | 00:00:00 | |
| PETON7-10 | 2026-08-31 23:33:21 | 49.48382 | 17.36346 | 51° | 102km/h | 6948m | 6.7m/s | -24.7°C | 27.2% | 0hPa | 2.9V | 00:00:00 | 00:46:03 | 00:00:00 | |
| OE3OSB-13 | 2026-08-31 23:33:17 | 49.48316 | 17.36221 | 52° | 104km/h | 6920m | 6.9m/s | -24.5°C | 30.6% | -1.0hPa | 2.9V | 00:00:00 | 00:00:00 | 00:00:00 | |
| PETON7-10 | 2026-08-31 23:33:06 | 49.48126 | 17.35895 | 50° | 102km/h | 6843m | 7.9m/s | -23.8°C | 55.2% | 0hPa | 2.9V | 00:00:00 | 00:00:00 | 00:00:00 | |
| POL1PZ | 2026-08-31 23:33:04 | 49.48108 | 17.35864 | 49° | 108km/h | 6836m | 6.6m/s | -23.8°C | 52.6% | 0hPa | 2.7V | 00:00:00 | 00:00:00 | 00:00:00 | |
| OE3OSB-13 | 2026-08-31 23:32:46 | 49.47773 | 17.35337 | 43° | 100km/h | 6711m | 7.2m/s | -22.7°C | 65.0% | -1.0hPa | 2.7V | 00:00:00 | 00:00:00 | 00:00:00 | |
| POL1PZ | 2026-08-31 23:32:44 | 49.47755 | 17.35310 | 44° | 100km/h | 6705m | 6.0m/s | -22.6°C | 65.5% | 0hPa | 2.7V | 00:00:00 | 00:00:00 | 00:00:00 | |
| PETON7-10 | 2026-08-31 23:32:36 | 49.47601 | 17.35052 | 49° | 102km/h | 6642m | 7.6m/s | -21.9°C | 60.0% | 0hPa | 2.7V | 00:00:00 | 00:45:18 | 00:00:00 | |
| OE3JTB-15 | 2026-08-31 23:32:24 | 49.47390 | 17.34708 | 46° | 104km/h | 6558m | 6.3m/s | -21.3°C | 72.1% | 0hPa | 2.7V | 00:00:00 | 00:45:06 | 00:00:00 | |
| PETON7-10 | 2026-08-31 23:32:21 | 49.47334 | 17.34619 | 50° | 104km/h | 6538m | 6.7m/s | -21.1°C | 72.6% | 0hPa | 2.7V | 00:00:00 | 00:00:00 | 08:30:00 | |
| OE3OSB-13 | 2026-08-31 23:32:15 | 49.47237 | 17.34440 | 48° | 99km/h | 6496m | 7.7m/s | -20.8°C | 65.1% | -1.0hPa | 2.9V | 00:00:00 | 00:00:00 | 00:00:00 | |
| PETON7-10 | 2026-08-31 23:32:06 | 49.47076 | 17.34165 | 48° | 104km/h | 6435m | 6.5m/s | -20.1°C | 66.8% | 0hPa | 2.9V | 00:00:00 | 00:00:00 | 00:00:00 | |
| POL1PZ | 2026-08-31 23:32:03 | 49.47042 | 17.34107 | 49° | 100km/h | 6423m | 6.9m/s | -20.1°C | 62.2% | 0hPa | 2.9V | 00:00:00 | 00:00:00 | 00:00:00 | |
| OE3JTB-15 | 2026-08-31 23:31:55 | 49.46881 | 17.33847 | 43° | 106km/h | 6358m | 6.9m/s | -19.4°C | 65.6% | 0hPa | 2.9V | 00:00:00 | 00:00:00 | 08:30:00 | |
| PETON7-10 | 2026-08-31 23:31:51 | 49.46806 | 17.33724 | 54° | 106km/h | 6332m | 4.8m/s | -19.2°C | 71.9% | 0hPa | 2.9V | 00:00:00 | 00:44:33 | 00:00:00 | |
| OE3OSB-13 | 2026-08-31 23:31:44 | 49.46670 | 17.33472 | 49° | 113km/h | 6277m | 6.2m/s | -19.0°C | 97.5% | -1.0hPa | 2.9V | 00:00:00 | 00:00:00 | 00:00:00 | |
| POL1PZ | 2026-08-31 23:31:42 | 49.46670 | 17.33472 | 51° | 113km/h | 6277m | 6.2m/s | -19.0°C | 97.6% | 0hPa | 2.9V | 00:00:00 | 00:00:00 | 00:00:00 | |
| PETON7-10 | 2026-08-31 23:31:36 | 49.46550 | 17.33245 | 48° | 104km/h | 6229m | 5.8m/s | -18.5°C | 0% | 0hPa | 2.9V | 00:00:00 | 00:00:00 | 00:00:00 | |
| OE3JTB-15 | 2026-08-31 23:31:26 | 49.46379 | 17.32939 | 51° | 106km/h | 6162m | 7.9m/s | -17.8°C | 92.1% | 0hPa | 2.9V | 00:00:00 | 00:00:00 | 00:00:00 | |
| POL1PZ | 2026-08-31 23:31:22 | 49.46326 | 17.32852 | 47° | 102km/h | 6142m | 6.6m/s | -17.7°C | 84.0% | 0hPa | 2.9V | 00:00:00 | 00:00:00 | 00:00:00 | |
| PETON7-10 | 2026-08-31 23:31:21 | 49.46289 | 17.32791 | 48° | 108km/h | 6128m | 7.1m/s | -17.5°C | 87.6% | 0hPa | 2.9V | 00:00:00 | 00:00:00 | 00:00:00 | |
| OE3OSB-13 | 2026-08-31 23:31:13 | 49.46137 | 17.32504 | 49° | 97km/h | 6066m | 7.5m/s | -17.0°C | 77.7% | -1.0hPa | 2.9V | 00:00:00 | 00:00:00 | 00:00:00 | |
| PETON7-10 | 2026-08-31 23:31:06 | 49.46031 | 17.32313 | 53° | 108km/h | 6024m | 5.8m/s | -16.6°C | 71.3% | 0hPa | 2.9V | 00:00:00 | 00:43:48 | 00:00:00 | |
| POL1PZ | 2026-08-31 23:31:01 | 49.45966 | 17.32179 | 51° | 108km/h | 5996m | 6.3m/s | -16.5°C | 50.1% | 0hPa | 2.9V | 00:00:00 | 00:00:00 | 00:00:00 | |
| OE3JTB-15 | 2026-08-31 23:30:57 | 49.45880 | 17.32020 | 52° | 104km/h | 5964m | 6.6m/s | -16.4°C | 27.5% | 0hPa | 2.9V | 00:00:00 | 00:43:39 | 00:00:00 | |
| PETON7-10 | 2026-08-31 23:30:51 | 49.45785 | 17.31815 | 58° | 104km/h | 5923m | 7.3m/s | -16.4°C | 23.0% | 0hPa | 2.9V | 00:00:00 | 00:00:00 | 00:00:00 | |
| OE3OSB-13 | 2026-08-31 23:30:42 | 49.45648 | 17.31474 | 59° | 108km/h | 5855m | 7.0m/s | -16.2°C | 19.2% | -1.0hPa | 2.9V | 00:00:00 | 00:00:00 | 00:00:00 | |
| POL1PZ | 2026-08-31 23:30:40 | 49.45648 | 17.31474 | 61° | 108km/h | 5855m | 7.0m/s | -16.2°C | 19.2% | 0hPa | 2.9V | 00:00:00 | 00:00:00 | 00:00:00 | |
| PETON7-10 | 2026-08-31 23:30:36 | 49.45587 | 17.31297 | 61° | 99km/h | 5820m | 6.1m/s | -16.1°C | 22.7% | 0hPa | 2.9V | 00:00:00 | 00:00:00 | 00:00:00 | |
| OE3JTB-15 | 2026-08-31 23:30:28 | 49.45488 | 17.31028 | 63° | 88km/h | 5769m | 5.6m/s | -15.9°C | 24.7% | 0hPa | 2.9V | 00:00:00 | 00:00:00 | 00:00:00 | |
| POL1PZ | 2026-08-31 23:30:19 | 49.45399 | 17.30754 | 63° | 97km/h | 5713m | 5.7m/s | -15.9°C | 27.8% | 0hPa | 2.9V | 00:00:00 | 00:00:00 | 00:00:00 | |
| OE3OSB-13 | 2026-08-31 23:30:11 | 49.45304 | 17.30453 | 67° | 80km/h | 5645m | 7.7m/s | -15.6°C | 28.5% | -1.0hPa | 2.9V | 00:00:00 | 00:00:00 | 00:00:00 | |
| PETON7-10 | 2026-08-31 23:30:06 | 49.45272 | 17.30338 | 70° | 80km/h | 5618m | 6.7m/s | -15.4°C | 30.4% | 0hPa | 2.9V | 00:00:00 | 00:00:00 | 08:30:00 | |
| OE3JTB-15 | 2026-08-31 23:29:59 | 49.45223 | 17.30131 | 68° | 73km/h | 5574m | 5.9m/s | -15.1°C | 35.7% | 0hPa | 2.9V | 00:00:00 | 00:00:00 | 00:00:00 | |
| POL1PZ | 2026-08-31 23:29:58 | 49.45223 | 17.30131 | 68° | 78km/h | 5574m | 6.0m/s | -15.2°C | 33.7% | 0hPa | 2.9V | 00:00:00 | 00:00:00 | 00:00:00 | |
| PETON7-10 | 2026-08-31 23:29:51 | 49.45164 | 17.29906 | 77° | 71km/h | 5524m | 4.6m/s | -14.9°C | 41.2% | 0hPa | 2.9V | 00:00:00 | 00:00:00 | 00:00:00 | |
| OE3OSB-13 | 2026-08-31 23:29:40 | 49.45100 | 17.29587 | 80° | 66km/h | 5449m | 6.3m/s | -14.6°C | 49.8% | -1.0hPa | 2.9V | 00:00:00 | 00:00:00 | 00:00:00 | |
| POL1PZ | 2026-08-31 23:29:37 | 49.45097 | 17.29562 | 79° | 68km/h | 5442m | 7.7m/s | -14.5°C | 49.7% | 0hPa | 2.9V | 00:00:00 | 00:00:00 | 00:00:00 | |
| PETON7-10 | 2026-08-31 23:29:36 | 49.45087 | 17.29512 | 72° | 69km/h | 5430m | 4.4m/s | -14.4°C | 52.4% | 0hPa | 2.9V | 00:00:00 | 00:42:18 | 00:00:00 | |
| OE3JTB-15 | 2026-08-31 23:29:30 | 49.45059 | 17.29352 | 78° | 69km/h | 5394m | 6.8m/s | -14.1°C | 52.2% | 0hPa | 2.9V | 00:00:00 | 00:42:12 | 00:00:00 | |
| PETON7-10 | 2026-08-31 23:29:21 | 49.45025 | 17.29120 | 76° | 69km/h | 5338m | 5.1m/s | -13.6°C | 48.1% | 0hPa | 2.9V | 00:00:00 | 00:00:00 | 00:00:00 | |
| POL1PZ | 2026-08-31 23:29:16 | 49.45005 | 17.29012 | 78° | 75km/h | 5313m | 6.9m/s | -13.4°C | 45.7% | 0hPa | 2.9V | 00:00:00 | 00:00:00 | 00:00:00 | |
| OE3OSB-13 | 2026-08-31 23:29:09 | 49.44975 | 17.28775 | 76° | 62km/h | 5258m | 6.5m/s | -12.9°C | 44.3% | -1.0hPa | 2.9V | 00:00:00 | 00:00:00 | 00:00:00 | |
| PETON7-10 | 2026-08-31 23:29:06 | 49.44966 | 17.28726 | 73° | 69km/h | 5246m | 5.2m/s | -12.7°C | 46.3% | 0hPa | 2.9V | 00:00:00 | 00:00:00 | 00:00:00 | |
| OE3JTB-15 | 2026-08-31 23:28:56 | 49.44927 | 17.28460 | 81° | 66km/h | 5186m | 7.2m/s | -12.3°C | 49.4% | 0hPa | 2.9V | 00:00:00 | 00:00:00 | 00:00:00 | |
| PETON7-10 | 2026-08-31 23:28:51 | 49.44903 | 17.28343 | 71° | 66km/h | 5154m | 6.3m/s | -12.0°C | 51.4% | 0hPa | 2.9V | 00:00:00 | 00:41:33 | 00:00:00 | |
| OE3OSB-13 | 2026-08-31 23:28:37 | 49.44835 | 17.28005 | 72° | 64km/h | 5066m | 7.1m/s | -11.4°C | 50.6% | -1.0hPa | 2.9V | 00:00:00 | 00:00:00 | 00:00:00 | |
| PETON7-10 | 2026-08-31 23:28:36 | 49.44830 | 17.27980 | 77° | 68km/h | 5061m | 5.2m/s | -11.3°C | 54.3% | 0hPa | 2.9V | 00:00:00 | 00:00:00 | 00:00:00 | |
| POL1PZ | 2026-08-31 23:28:35 | 49.44830 | 17.27980 | 77° | 68km/h | 5061m | 5.2m/s | -11.3°C | 0% | 0hPa | 2.9V | 00:00:00 | 00:00:00 | 00:00:00 | |
| PETON7-10 | 2026-08-31 23:28:21 | 49.44777 | 17.27593 | 80° | 69km/h | 4970m | 5.2m/s | -10.5°C | 55.2% | 0hPa | 2.9V | 00:00:00 | 00:00:00 | 00:00:00 | |
| POL1PZ | 2026-08-31 23:28:16 | 49.44757 | 17.27469 | 78° | 69km/h | 4938m | 7.4m/s | -10.3°C | 0% | 0hPa | 2.9V | 00:00:00 | 00:00:00 | 00:00:00 | |
| PETON7-10 | 2026-08-31 23:28:06 | 49.44728 | 17.27193 | 77° | 71km/h | 4876m | 5.0m/s | -9.6°C | 49.6% | 0hPa | 2.9V | 00:00:00 | 00:40:48 | 00:00:00 | |
| POL1PZ | 2026-08-31 23:27:55 | 49.44702 | 17.26919 | 78° | 71km/h | 4813m | 6.9m/s | -9.1°C | 0% | 0hPa | 2.9V | 00:00:00 | 00:00:00 | 00:00:00 | |
| PETON7-10 | 2026-08-31 23:27:51 | 49.44682 | 17.26782 | 78° | 71km/h | 4782m | 6.6m/s | -8.8°C | 45.0% | 0hPa | 2.9V | 00:00:00 | 00:00:00 | 08:30:00 | |
| PETON7-10 | 2026-08-31 23:27:36 | 49.44634 | 17.26369 | 83° | 71km/h | 4687m | 6.7m/s | -7.9°C | 42.6% | 0hPa | 2.7V | 00:00:00 | 00:00:00 | 00:00:00 | |
| OE3OSB-13 | 2026-08-31 23:27:35 | 49.44632 | 17.26337 | 83° | 78km/h | 4680m | 7.3m/s | -7.9°C | 39.4% | -1.0hPa | 2.7V | 00:00:00 | 00:00:00 | 00:00:00 | |
| POL1PZ | 2026-08-31 23:27:32 | 49.44629 | 17.26282 | 89° | 66km/h | 4667m | 4.3m/s | -7.7°C | 0% | 0hPa | 2.7V | 00:00:00 | 00:00:00 | 00:00:00 | |
| PETON7-10 | 2026-08-31 23:27:21 | 49.44598 | 17.25962 | 81° | 69km/h | 4590m | 5.6m/s | -7.0°C | 31.5% | 0hPa | 2.7V | 00:00:00 | 00:40:03 | 00:00:00 | |
| POL1PZ | 2026-08-31 23:27:13 | 49.44569 | 17.25743 | 82° | 68km/h | 4538m | 8.1m/s | 0°C | 0% | 0hPa | 2.7V | 00:00:00 | 00:00:00 | 00:00:00 | |
| PETON7-10 | 2026-08-31 23:27:06 | 49.44558 | 17.25560 | 91° | 71km/h | 4490m | 6.5m/s | -6.4°C | 19.5% | 0hPa | 2.7V | 00:00:00 | 00:00:00 | 00:00:00 | |
| OE3OSB-13 | 2026-08-31 23:27:04 | 49.44557 | 17.25502 | 87° | 77km/h | 4476m | 6.9m/s | -6.3°C | 18.3% | -1.0hPa | 2.9V | 00:00:00 | 00:00:00 | 00:00:00 | |
| POL1PZ | 2026-08-31 23:26:52 | 49.44528 | 17.25175 | 90° | 71km/h | 4396m | 5.2m/s | 0°C | 0% | 0hPa | 2.9V | 00:00:00 | 00:00:00 | 00:00:00 | |
| PETON7-10 | 2026-08-31 23:26:51 | 49.44528 | 17.25147 | 92° | 68km/h | 4390m | 6.8m/s | -5.9°C | 22.7% | 0hPa | 2.9V | 00:00:00 | 00:00:00 | 00:00:00 | |
| PETON7-10 | 2026-08-31 23:26:36 | 49.44509 | 17.24756 | 93° | 68km/h | 4289m | 7.3m/s | -5.1°C | 19.6% | 0hPa | 2.9V | 00:00:00 | 00:39:18 | 00:00:00 | |
| OE3OSB-13 | 2026-08-31 23:26:33 | 49.44508 | 17.24677 | 87° | 71km/h | 4268m | 7.3m/s | -5.0°C | 17.6% | -1.0hPa | 2.9V | 00:00:00 | 00:00:00 | 00:00:00 | |
| POL1PZ | 2026-08-31 23:26:30 | 49.44505 | 17.24620 | 86° | 73km/h | 4255m | 7.0m/s | 0°C | 0% | 0hPa | 2.9V | 00:00:00 | 00:00:00 | 00:00:00 | |
| PETON7-10 | 2026-08-31 23:26:21 | 49.44491 | 17.24364 | 93° | 68km/h | 4190m | 7.0m/s | -4.4°C | 15.3% | 0hPa | 2.9V | 00:00:00 | 00:00:00 | 00:00:00 | |
| POL1PZ | 2026-08-31 23:26:09 | 49.44471 | 17.24077 | 79° | 62km/h | 4116m | 6.7m/s | 0°C | 0% | 0hPa | 2.9V | 00:00:00 | 00:00:00 | 00:00:00 | |
| PETON7-10 | 2026-08-31 23:26:06 | 49.44465 | 17.23979 | 95° | 69km/h | 4091m | 8.6m/s | -3.9°C | 15.5% | 0hPa | 2.9V | 00:00:00 | 00:00:00 | 00:00:00 | |
| OE3OSB-13 | 2026-08-31 23:26:02 | 49.44474 | 17.23870 | 91° | 77km/h | 4063m | 4.9m/s | -3.8°C | 14.6% | -1.0hPa | 2.9V | 00:00:00 | 00:00:00 | 00:00:00 | |
| OE3JTB-15 | 2026-08-31 23:26:01 | 49.44474 | 17.23840 | 90° | 51km/h | 4058m | 4.9m/s | -3.8°C | 15.2% | 0hPa | 2.9V | 00:00:00 | 00:38:43 | 00:00:00 | |
| PETON7-10 | 2026-08-31 23:25:51 | 49.44470 | 17.23575 | 89° | 68km/h | 3990m | 6.9m/s | -3.3°C | 13.1% | 0hPa | 2.9V | 00:00:00 | 00:38:33 | 00:00:00 | |
| POL1PZ | 2026-08-31 23:25:45 | 49.44470 | 17.23448 | 93° | 69km/h | 3956m | 4.6m/s | 0°C | 0% | 0hPa | 2.9V | 00:00:00 | 00:00:00 | 00:00:00 | |
| PETON7-10 | 2026-08-31 23:25:36 | 49.44478 | 17.23184 | 94° | 62km/h | 3890m | 7.7m/s | -2.7°C | 9.5% | 0hPa | 2.9V | 00:00:00 | 00:00:00 | 08:30:00 | |
| OE3OSB-13 | 2026-08-31 23:25:31 | 49.44483 | 17.23064 | 87° | 58km/h | 3855m | 6.3m/s | -2.6°C | 8.7% | -1.0hPa | 3.0V | 00:00:00 | 00:00:00 | 00:00:00 | |
| POL1PZ | 2026-08-31 23:25:25 | 49.44486 | 17.22937 | 94° | 64km/h | 3823m | 6.6m/s | 0°C | 0% | 0hPa | 3.0V | 00:00:00 | 00:00:00 | 00:00:00 | |
| PETON7-10 | 2026-08-31 23:25:21 | 49.44493 | 17.22827 | 90° | 53km/h | 3791m | 5.5m/s | -2.6°C | 27.7% | 0hPa | 3.0V | 00:00:00 | 00:00:00 | 00:00:00 | |
| PETON7-10 | 2026-08-31 23:25:06 | 49.44498 | 17.22522 | 85° | 55km/h | 3695m | 6.0m/s | -2.3°C | 28.6% | 0hPa | 3.0V | 00:00:00 | 00:37:48 | 00:00:00 | |
| POL1PZ | 2026-08-31 23:25:04 | 49.44497 | 17.22502 | 83° | 53km/h | 3690m | 6.0m/s | 0°C | 0% | 0hPa | 3.0V | 00:00:00 | 00:00:00 | 00:00:00 | |
| OE3OSB-13 | 2026-08-31 23:25:00 | 49.44494 | 17.22395 | 91° | 57km/h | 3659m | 6.8m/s | -2.3°C | -1.0% | -1.0hPa | 3.0V | 00:00:00 | 00:00:00 | 00:00:00 | |
| PETON7-10 | 2026-08-31 23:24:51 | 49.44510 | 17.22209 | 96° | 47km/h | 3600m | 7.5m/s | -2.3°C | 41.3% | 0hPa | 3.0V | 00:00:00 | 00:00:00 | 00:00:00 | |
| PETON7-10 | 2026-08-31 23:24:36 | 49.44510 | 17.21932 | 93° | 40km/h | 3503m | 5.4m/s | -2.6°C | 46.3% | 0hPa | 2.9V | 00:00:00 | 00:00:00 | 00:00:00 | |
| OE3OSB-13 | 2026-08-31 23:24:29 | 49.44505 | 17.21821 | 85° | 40km/h | 3458m | 5.7m/s | 0°C | -1.0% | -1.0hPa | 2.9V | 00:00:00 | 00:00:00 | 00:00:00 | |
| PETON7-10 | 2026-08-31 23:24:21 | 49.44492 | 17.21698 | 75° | 40km/h | 3406m | 6.0m/s | -2.3°C | 64.2% | 0hPa | 2.9V | 00:00:00 | 00:37:03 | 00:00:00 | |
| PETON7-10 | 2026-08-31 23:24:06 | 49.44466 | 17.21469 | 72° | 44km/h | 3312m | 7.7m/s | -1.9°C | 68.1% | 0hPa | 2.9V | 00:00:00 | 00:00:00 | 00:00:00 | |
| PETON7-10 | 2026-08-31 23:23:51 | 49.44432 | 17.21220 | 78° | 42km/h | 3226m | 4.7m/s | -1.1°C | 60.3% | 0hPa | 2.9V | 00:00:00 | 00:00:00 | 00:00:00 | |
| OE3JTB-15 | 2026-08-31 23:23:40 | 49.44407 | 17.21045 | 75° | 46km/h | 3160m | 6.1m/s | -0.5°C | 58.2% | 0hPa | 2.9V | 00:00:00 | 00:00:00 | 08:30:00 | |
| PETON7-10 | 2026-08-31 23:23:36 | 49.44395 | 17.20985 | 77° | 42km/h | 3134m | 6.3m/s | -0.2°C | 54.3% | 0hPa | 2.9V | 00:00:00 | 00:36:18 | 00:00:00 | |
| PETON7-10 | 2026-08-31 23:23:21 | 49.44368 | 17.20745 | 79° | 44km/h | 3035m | 5.7m/s | 0.6°C | 52.7% | 0hPa | 2.9V | 00:00:00 | 00:00:00 | 08:30:00 | |
| OE3JTB-15 | 2026-08-31 23:23:11 | 49.44356 | 17.20564 | 75° | 44km/h | 2972m | 3.4m/s | 1.2°C | 49.9% | 0hPa | 2.9V | 00:00:00 | 00:00:00 | 00:00:00 | |
| PETON7-10 | 2026-08-31 23:23:06 | 49.44345 | 17.20493 | 79° | 44km/h | 2943m | 6.8m/s | 1.5°C | 48.6% | 0hPa | 2.9V | 00:00:00 | 00:00:00 | 00:00:00 | |
| PETON7-10 | 2026-08-31 23:22:51 | 49.44337 | 17.20236 | 91° | 47km/h | 2852m | 6.4m/s | 1.8°C | 59.5% | 0hPa | 2.9V | 00:00:00 | 00:35:33 | 00:00:00 | |
| OE3JTB-15 | 2026-08-31 23:22:42 | 49.44344 | 17.20069 | 100° | 47km/h | 2797m | 6.3m/s | 1.7°C | 58.6% | 0hPa | 2.9V | 00:00:00 | 00:35:24 | 00:00:00 | |
| PETON7-10 | 2026-08-31 23:22:36 | 49.44359 | 17.19966 | 102° | 47km/h | 2758m | 6.2m/s | 1.9°C | 66.4% | 0hPa | 2.9V | 00:00:00 | 00:00:00 | 00:00:00 | |
| PETON7-10 | 2026-08-31 23:22:21 | 49.44394 | 17.19696 | 103° | 49km/h | 2667m | 5.4m/s | 2.8°C | 56.9% | 0hPa | 2.9V | 00:00:00 | 00:00:00 | 00:00:00 | |
| OE3JTB-15 | 2026-08-31 23:22:13 | 49.44415 | 17.19550 | 101° | 49km/h | 2618m | 6.0m/s | 3.3°C | 51.4% | 0hPa | 2.9V | 00:00:00 | 00:00:00 | 00:00:00 | |
| PETON7-10 | 2026-08-31 23:22:06 | 49.44431 | 17.19419 | 100° | 49km/h | 2574m | 6.7m/s | 0°C | 0% | 0hPa | 2.9V | 00:00:00 | 00:34:48 | 00:00:00 | |
| PETON7-10 | 2026-08-31 23:21:51 | 49.44466 | 17.19142 | 96° | 49km/h | 2482m | 5.2m/s | 0°C | 0% | 0hPa | 2.9V | 00:00:00 | 00:00:00 | 00:00:00 | |
| OE3JTB-15 | 2026-08-31 23:21:44 | 49.44482 | 17.19014 | 110° | 49km/h | 2438m | 6.5m/s | 4.9°C | 51.1% | 0hPa | 2.9V | 00:00:00 | 00:00:00 | 00:00:00 | |
| PETON7-10 | 2026-08-31 23:21:36 | 49.44508 | 17.18860 | 100° | 49km/h | 2387m | 6.6m/s | 0°C | 0% | 0hPa | 2.9V | 00:00:00 | 00:00:00 | 00:00:00 | |
| PETON7-10 | 2026-08-31 23:21:21 | 49.44548 | 17.18582 | 101° | 49km/h | 2291m | 6.6m/s | 0°C | 0% | 0hPa | 2.9V | 00:00:00 | 00:34:03 | 00:00:00 | |
| OE3JTB-15 | 2026-08-31 23:21:15 | 49.44566 | 17.18475 | 111° | 49km/h | 2254m | 6.2m/s | 6.1°C | 62.6% | 0hPa | 2.9V | 00:00:00 | 00:33:57 | 00:00:00 | |
| PETON7-10 | 2026-08-31 23:21:06 | 49.44592 | 17.18309 | 107° | 47km/h | 2199m | 6.1m/s | 0°C | 0% | 0hPa | 2.9V | 00:00:00 | 00:00:00 | 00:00:00 | |
| OE3JTB-15 | 2026-08-31 23:20:46 | 49.44649 | 17.17945 | 103° | 49km/h | 2085m | 5.9m/s | 7.4°C | 68.0% | 0hPa | 2.9V | 00:00:00 | 00:00:00 | 00:00:00 | |
| OE3JTB-15 | 2026-08-31 23:20:17 | 49.44694 | 17.17396 | 93° | 47km/h | 1900m | 6.6m/s | 9.1°C | 66.0% | 0hPa | 0V | 00:00:00 | 00:00:00 | 00:00:00 |